<?xml version="1.0" encoding="UTF-8" standalone="no" ?>
<gpx xmlns="http://www.topografix.com/GPX/1/1" xmlns:xsi="http://www.w3.org/2001/XMLSchema-instance" xsi:schemaLocation="http://www.topografix.com/GPX/1/1 http://www.topografix.com/GPX/1/1/gpx.xsd" version="1.1" creator="VisuGPX - https://www.visugpx.com">
  <metadata>
    <name>Îles de Payré</name>
    <desc><![CDATA[?]]></desc>
  </metadata>
  <trk>
    <name><![CDATA[Îles de Payré_1]]></name>
    <trkseg>
      <trkpt lat="46.34348" lon="0.20692">
        <ele>105.6</ele>
        <time>2021-05-23T16:24:15Z</time>
      </trkpt>
      <trkpt lat="46.34348" lon="0.20691">
        <ele>105.7</ele>
        <time>2021-05-23T16:24:16Z</time>
      </trkpt>
      <trkpt lat="46.34348" lon="0.20691">
        <ele>105.7</ele>
        <time>2021-05-23T16:24:17Z</time>
      </trkpt>
      <trkpt lat="46.34349" lon="0.20691">
        <ele>105.7</ele>
        <time>2021-05-23T16:24:19Z</time>
      </trkpt>
      <trkpt lat="46.34351" lon="0.2069">
        <ele>105.8</ele>
        <time>2021-05-23T16:24:21Z</time>
      </trkpt>
      <trkpt lat="46.34351" lon="0.2069">
        <ele>105.8</ele>
        <time>2021-05-23T16:24:22Z</time>
      </trkpt>
      <trkpt lat="46.34353" lon="0.20689">
        <ele>105.8</ele>
        <time>2021-05-23T16:24:23Z</time>
      </trkpt>
      <trkpt lat="46.34353" lon="0.20688">
        <ele>105.9</ele>
        <time>2021-05-23T16:24:25Z</time>
      </trkpt>
      <trkpt lat="46.34355" lon="0.20688">
        <ele>105.9</ele>
        <time>2021-05-23T16:24:26Z</time>
      </trkpt>
      <trkpt lat="46.34355" lon="0.20689">
        <ele>105.9</ele>
        <time>2021-05-23T16:24:28Z</time>
      </trkpt>
      <trkpt lat="46.34354" lon="0.20689">
        <ele>106</ele>
        <time>2021-05-23T16:24:29Z</time>
      </trkpt>
      <trkpt lat="46.34353" lon="0.2069">
        <ele>106</ele>
        <time>2021-05-23T16:24:30Z</time>
      </trkpt>
      <trkpt lat="46.34353" lon="0.20691">
        <ele>106</ele>
        <time>2021-05-23T16:24:31Z</time>
      </trkpt>
      <trkpt lat="46.34353" lon="0.20692">
        <ele>106</ele>
        <time>2021-05-23T16:24:32Z</time>
      </trkpt>
      <trkpt lat="46.34353" lon="0.20693">
        <ele>106.1</ele>
        <time>2021-05-23T16:24:34Z</time>
      </trkpt>
      <trkpt lat="46.34354" lon="0.20693">
        <ele>106.1</ele>
        <time>2021-05-23T16:24:35Z</time>
      </trkpt>
      <trkpt lat="46.34357" lon="0.20694">
        <ele>106.2</ele>
        <time>2021-05-23T16:24:37Z</time>
      </trkpt>
      <trkpt lat="46.34358" lon="0.20694">
        <ele>106.2</ele>
        <time>2021-05-23T16:24:38Z</time>
      </trkpt>
      <trkpt lat="46.34358" lon="0.20694">
        <ele>106.3</ele>
        <time>2021-05-23T16:24:39Z</time>
      </trkpt>
      <trkpt lat="46.34359" lon="0.20695">
        <ele>106.3</ele>
        <time>2021-05-23T16:24:40Z</time>
      </trkpt>
      <trkpt lat="46.34361" lon="0.20695">
        <ele>106.4</ele>
        <time>2021-05-23T16:24:41Z</time>
      </trkpt>
      <trkpt lat="46.34362" lon="0.20696">
        <ele>106.4</ele>
        <time>2021-05-23T16:24:42Z</time>
      </trkpt>
      <trkpt lat="46.34363" lon="0.20696">
        <ele>106.4</ele>
        <time>2021-05-23T16:24:43Z</time>
      </trkpt>
      <trkpt lat="46.34363" lon="0.20697">
        <ele>106.5</ele>
        <time>2021-05-23T16:24:45Z</time>
      </trkpt>
      <trkpt lat="46.34364" lon="0.20698">
        <ele>106.5</ele>
        <time>2021-05-23T16:24:46Z</time>
      </trkpt>
      <trkpt lat="46.34366" lon="0.207">
        <ele>106.6</ele>
        <time>2021-05-23T16:24:47Z</time>
      </trkpt>
      <trkpt lat="46.34367" lon="0.207">
        <ele>106.6</ele>
        <time>2021-05-23T16:24:48Z</time>
      </trkpt>
      <trkpt lat="46.34368" lon="0.207">
        <ele>106.7</ele>
        <time>2021-05-23T16:24:49Z</time>
      </trkpt>
      <trkpt lat="46.34368" lon="0.207">
        <ele>106.7</ele>
        <time>2021-05-23T16:24:50Z</time>
      </trkpt>
      <trkpt lat="46.34368" lon="0.20701">
        <ele>106.7</ele>
        <time>2021-05-23T16:24:51Z</time>
      </trkpt>
      <trkpt lat="46.34368" lon="0.20702">
        <ele>106.7</ele>
        <time>2021-05-23T16:24:53Z</time>
      </trkpt>
      <trkpt lat="46.34368" lon="0.20702">
        <ele>106.7</ele>
        <time>2021-05-23T16:24:55Z</time>
      </trkpt>
      <trkpt lat="46.34369" lon="0.20701">
        <ele>106.8</ele>
        <time>2021-05-23T16:24:56Z</time>
      </trkpt>
      <trkpt lat="46.34369" lon="0.20701">
        <ele>106.8</ele>
        <time>2021-05-23T16:24:57Z</time>
      </trkpt>
      <trkpt lat="46.34369" lon="0.20701">
        <ele>106.8</ele>
        <time>2021-05-23T16:24:58Z</time>
      </trkpt>
      <trkpt lat="46.3437" lon="0.20701">
        <ele>106.8</ele>
        <time>2021-05-23T16:25:00Z</time>
      </trkpt>
      <trkpt lat="46.3437" lon="0.20702">
        <ele>106.8</ele>
        <time>2021-05-23T16:25:01Z</time>
      </trkpt>
      <trkpt lat="46.34371" lon="0.20703">
        <ele>106.9</ele>
        <time>2021-05-23T16:25:03Z</time>
      </trkpt>
      <trkpt lat="46.34372" lon="0.20704">
        <ele>106.9</ele>
        <time>2021-05-23T16:25:04Z</time>
      </trkpt>
      <trkpt lat="46.34373" lon="0.20705">
        <ele>106.9</ele>
        <time>2021-05-23T16:25:05Z</time>
      </trkpt>
      <trkpt lat="46.34374" lon="0.20706">
        <ele>106.9</ele>
        <time>2021-05-23T16:25:06Z</time>
      </trkpt>
      <trkpt lat="46.34375" lon="0.20707">
        <ele>106.9</ele>
        <time>2021-05-23T16:25:08Z</time>
      </trkpt>
      <trkpt lat="46.34375" lon="0.20707">
        <ele>106.9</ele>
        <time>2021-05-23T16:25:09Z</time>
      </trkpt>
      <trkpt lat="46.34375" lon="0.20708">
        <ele>106.9</ele>
        <time>2021-05-23T16:25:10Z</time>
      </trkpt>
      <trkpt lat="46.34376" lon="0.20708">
        <ele>106.9</ele>
        <time>2021-05-23T16:25:11Z</time>
      </trkpt>
      <trkpt lat="46.34376" lon="0.20709">
        <ele>106.9</ele>
        <time>2021-05-23T16:25:12Z</time>
      </trkpt>
      <trkpt lat="46.34376" lon="0.20709">
        <ele>106.9</ele>
        <time>2021-05-23T16:25:14Z</time>
      </trkpt>
      <trkpt lat="46.34377" lon="0.20709">
        <ele>106.9</ele>
        <time>2021-05-23T16:25:15Z</time>
      </trkpt>
      <trkpt lat="46.34377" lon="0.20709">
        <ele>106.9</ele>
        <time>2021-05-23T16:25:17Z</time>
      </trkpt>
      <trkpt lat="46.34377" lon="0.20709">
        <ele>106.9</ele>
        <time>2021-05-23T16:25:18Z</time>
      </trkpt>
      <trkpt lat="46.34378" lon="0.20709">
        <ele>106.9</ele>
        <time>2021-05-23T16:25:19Z</time>
      </trkpt>
      <trkpt lat="46.34379" lon="0.20709">
        <ele>106.9</ele>
        <time>2021-05-23T16:25:20Z</time>
      </trkpt>
      <trkpt lat="46.34379" lon="0.20709">
        <ele>106.9</ele>
        <time>2021-05-23T16:25:21Z</time>
      </trkpt>
      <trkpt lat="46.3438" lon="0.20709">
        <ele>106.9</ele>
        <time>2021-05-23T16:25:23Z</time>
      </trkpt>
      <trkpt lat="46.3438" lon="0.20709">
        <ele>106.9</ele>
        <time>2021-05-23T16:25:24Z</time>
      </trkpt>
      <trkpt lat="46.34382" lon="0.20709">
        <ele>106.9</ele>
        <time>2021-05-23T16:25:25Z</time>
      </trkpt>
      <trkpt lat="46.34383" lon="0.20709">
        <ele>106.9</ele>
        <time>2021-05-23T16:25:27Z</time>
      </trkpt>
      <trkpt lat="46.34384" lon="0.20709">
        <ele>106.9</ele>
        <time>2021-05-23T16:25:29Z</time>
      </trkpt>
      <trkpt lat="46.34385" lon="0.20709">
        <ele>106.9</ele>
        <time>2021-05-23T16:25:30Z</time>
      </trkpt>
      <trkpt lat="46.34386" lon="0.20709">
        <ele>106.9</ele>
        <time>2021-05-23T16:25:31Z</time>
      </trkpt>
      <trkpt lat="46.34387" lon="0.20709">
        <ele>106.9</ele>
        <time>2021-05-23T16:25:32Z</time>
      </trkpt>
      <trkpt lat="46.34389" lon="0.20708">
        <ele>106.9</ele>
        <time>2021-05-23T16:25:34Z</time>
      </trkpt>
      <trkpt lat="46.3439" lon="0.20708">
        <ele>107</ele>
        <time>2021-05-23T16:25:35Z</time>
      </trkpt>
      <trkpt lat="46.34391" lon="0.20707">
        <ele>107</ele>
        <time>2021-05-23T16:25:36Z</time>
      </trkpt>
      <trkpt lat="46.34393" lon="0.20706">
        <ele>107</ele>
        <time>2021-05-23T16:25:38Z</time>
      </trkpt>
      <trkpt lat="46.34395" lon="0.20706">
        <ele>107</ele>
        <time>2021-05-23T16:25:39Z</time>
      </trkpt>
      <trkpt lat="46.34397" lon="0.20705">
        <ele>106.9</ele>
        <time>2021-05-23T16:25:40Z</time>
      </trkpt>
      <trkpt lat="46.34398" lon="0.20705">
        <ele>106.9</ele>
        <time>2021-05-23T16:25:41Z</time>
      </trkpt>
      <trkpt lat="46.34399" lon="0.20704">
        <ele>106.9</ele>
        <time>2021-05-23T16:25:43Z</time>
      </trkpt>
      <trkpt lat="46.34401" lon="0.20704">
        <ele>106.9</ele>
        <time>2021-05-23T16:25:44Z</time>
      </trkpt>
      <trkpt lat="46.34402" lon="0.20704">
        <ele>106.9</ele>
        <time>2021-05-23T16:25:45Z</time>
      </trkpt>
      <trkpt lat="46.34404" lon="0.20704">
        <ele>106.9</ele>
        <time>2021-05-23T16:25:46Z</time>
      </trkpt>
      <trkpt lat="46.34406" lon="0.20705">
        <ele>106.9</ele>
        <time>2021-05-23T16:25:48Z</time>
      </trkpt>
      <trkpt lat="46.34408" lon="0.20706">
        <ele>106.9</ele>
        <time>2021-05-23T16:25:49Z</time>
      </trkpt>
      <trkpt lat="46.3441" lon="0.20707">
        <ele>106.8</ele>
        <time>2021-05-23T16:25:50Z</time>
      </trkpt>
      <trkpt lat="46.34411" lon="0.20707">
        <ele>106.8</ele>
        <time>2021-05-23T16:25:51Z</time>
      </trkpt>
      <trkpt lat="46.34413" lon="0.20708">
        <ele>106.8</ele>
        <time>2021-05-23T16:25:53Z</time>
      </trkpt>
      <trkpt lat="46.34415" lon="0.20709">
        <ele>106.8</ele>
        <time>2021-05-23T16:25:55Z</time>
      </trkpt>
      <trkpt lat="46.34416" lon="0.2071">
        <ele>106.8</ele>
        <time>2021-05-23T16:25:56Z</time>
      </trkpt>
      <trkpt lat="46.34418" lon="0.20711">
        <ele>106.8</ele>
        <time>2021-05-23T16:25:57Z</time>
      </trkpt>
      <trkpt lat="46.34418" lon="0.20711">
        <ele>106.8</ele>
        <time>2021-05-23T16:25:58Z</time>
      </trkpt>
      <trkpt lat="46.3442" lon="0.20711">
        <ele>106.8</ele>
        <time>2021-05-23T16:25:59Z</time>
      </trkpt>
      <trkpt lat="46.34421" lon="0.20711">
        <ele>106.8</ele>
        <time>2021-05-23T16:26:00Z</time>
      </trkpt>
      <trkpt lat="46.34422" lon="0.2071">
        <ele>106.8</ele>
        <time>2021-05-23T16:26:01Z</time>
      </trkpt>
      <trkpt lat="46.34422" lon="0.2071">
        <ele>106.8</ele>
        <time>2021-05-23T16:26:03Z</time>
      </trkpt>
      <trkpt lat="46.34423" lon="0.20709">
        <ele>106.8</ele>
        <time>2021-05-23T16:26:04Z</time>
      </trkpt>
      <trkpt lat="46.34423" lon="0.20709">
        <ele>106.8</ele>
        <time>2021-05-23T16:26:05Z</time>
      </trkpt>
      <trkpt lat="46.34424" lon="0.20708">
        <ele>106.8</ele>
        <time>2021-05-23T16:26:06Z</time>
      </trkpt>
      <trkpt lat="46.34425" lon="0.20708">
        <ele>106.8</ele>
        <time>2021-05-23T16:26:07Z</time>
      </trkpt>
      <trkpt lat="46.34426" lon="0.20706">
        <ele>106.8</ele>
        <time>2021-05-23T16:26:09Z</time>
      </trkpt>
      <trkpt lat="46.34426" lon="0.20706">
        <ele>106.8</ele>
        <time>2021-05-23T16:26:10Z</time>
      </trkpt>
      <trkpt lat="46.34427" lon="0.20705">
        <ele>106.8</ele>
        <time>2021-05-23T16:26:11Z</time>
      </trkpt>
      <trkpt lat="46.34429" lon="0.20704">
        <ele>106.8</ele>
        <time>2021-05-23T16:26:12Z</time>
      </trkpt>
      <trkpt lat="46.34429" lon="0.20704">
        <ele>106.8</ele>
        <time>2021-05-23T16:26:14Z</time>
      </trkpt>
      <trkpt lat="46.3443" lon="0.20703">
        <ele>106.8</ele>
        <time>2021-05-23T16:26:15Z</time>
      </trkpt>
      <trkpt lat="46.34431" lon="0.20702">
        <ele>106.8</ele>
        <time>2021-05-23T16:26:16Z</time>
      </trkpt>
      <trkpt lat="46.34432" lon="0.20699">
        <ele>106.8</ele>
        <time>2021-05-23T16:26:17Z</time>
      </trkpt>
      <trkpt lat="46.34432" lon="0.20698">
        <ele>106.8</ele>
        <time>2021-05-23T16:26:18Z</time>
      </trkpt>
      <trkpt lat="46.34433" lon="0.20696">
        <ele>106.8</ele>
        <time>2021-05-23T16:26:19Z</time>
      </trkpt>
      <trkpt lat="46.34433" lon="0.20694">
        <ele>106.8</ele>
        <time>2021-05-23T16:26:21Z</time>
      </trkpt>
      <trkpt lat="46.34434" lon="0.20691">
        <ele>106.8</ele>
        <time>2021-05-23T16:26:22Z</time>
      </trkpt>
      <trkpt lat="46.34434" lon="0.20689">
        <ele>106.8</ele>
        <time>2021-05-23T16:26:23Z</time>
      </trkpt>
      <trkpt lat="46.34434" lon="0.20687">
        <ele>106.8</ele>
        <time>2021-05-23T16:26:24Z</time>
      </trkpt>
      <trkpt lat="46.34435" lon="0.20685">
        <ele>106.8</ele>
        <time>2021-05-23T16:26:25Z</time>
      </trkpt>
      <trkpt lat="46.34436" lon="0.20682">
        <ele>106.8</ele>
        <time>2021-05-23T16:26:27Z</time>
      </trkpt>
      <trkpt lat="46.34437" lon="0.20682">
        <ele>106.7</ele>
        <time>2021-05-23T16:26:28Z</time>
      </trkpt>
      <trkpt lat="46.34438" lon="0.20681">
        <ele>106.7</ele>
        <time>2021-05-23T16:26:29Z</time>
      </trkpt>
      <trkpt lat="46.34439" lon="0.20681">
        <ele>106.8</ele>
        <time>2021-05-23T16:26:30Z</time>
      </trkpt>
      <trkpt lat="46.34439" lon="0.20681">
        <ele>106.8</ele>
        <time>2021-05-23T16:26:32Z</time>
      </trkpt>
      <trkpt lat="46.3444" lon="0.2068">
        <ele>106.8</ele>
        <time>2021-05-23T16:26:33Z</time>
      </trkpt>
      <trkpt lat="46.34441" lon="0.2068">
        <ele>106.8</ele>
        <time>2021-05-23T16:26:34Z</time>
      </trkpt>
      <trkpt lat="46.34442" lon="0.20679">
        <ele>106.9</ele>
        <time>2021-05-23T16:26:35Z</time>
      </trkpt>
      <trkpt lat="46.34444" lon="0.20679">
        <ele>106.9</ele>
        <time>2021-05-23T16:26:37Z</time>
      </trkpt>
      <trkpt lat="46.34444" lon="0.20679">
        <ele>106.9</ele>
        <time>2021-05-23T16:26:38Z</time>
      </trkpt>
      <trkpt lat="46.34445" lon="0.20679">
        <ele>106.9</ele>
        <time>2021-05-23T16:26:40Z</time>
      </trkpt>
      <trkpt lat="46.34446" lon="0.2068">
        <ele>106.9</ele>
        <time>2021-05-23T16:26:41Z</time>
      </trkpt>
      <trkpt lat="46.34447" lon="0.2068">
        <ele>107</ele>
        <time>2021-05-23T16:26:42Z</time>
      </trkpt>
      <trkpt lat="46.34447" lon="0.20681">
        <ele>107</ele>
        <time>2021-05-23T16:26:44Z</time>
      </trkpt>
      <trkpt lat="46.34448" lon="0.20681">
        <ele>107</ele>
        <time>2021-05-23T16:26:45Z</time>
      </trkpt>
      <trkpt lat="46.3445" lon="0.20681">
        <ele>107</ele>
        <time>2021-05-23T16:26:46Z</time>
      </trkpt>
      <trkpt lat="46.34452" lon="0.20681">
        <ele>107.1</ele>
        <time>2021-05-23T16:26:47Z</time>
      </trkpt>
      <trkpt lat="46.34453" lon="0.20681">
        <ele>107.1</ele>
        <time>2021-05-23T16:26:49Z</time>
      </trkpt>
      <trkpt lat="46.34455" lon="0.20681">
        <ele>107.2</ele>
        <time>2021-05-23T16:26:50Z</time>
      </trkpt>
      <trkpt lat="46.34457" lon="0.20682">
        <ele>107.2</ele>
        <time>2021-05-23T16:26:52Z</time>
      </trkpt>
      <trkpt lat="46.34459" lon="0.20683">
        <ele>107.3</ele>
        <time>2021-05-23T16:26:53Z</time>
      </trkpt>
      <trkpt lat="46.3446" lon="0.20684">
        <ele>107.3</ele>
        <time>2021-05-23T16:26:54Z</time>
      </trkpt>
      <trkpt lat="46.34461" lon="0.20684">
        <ele>107.3</ele>
        <time>2021-05-23T16:26:55Z</time>
      </trkpt>
      <trkpt lat="46.34462" lon="0.20685">
        <ele>107.4</ele>
        <time>2021-05-23T16:26:56Z</time>
      </trkpt>
      <trkpt lat="46.34463" lon="0.20687">
        <ele>107.4</ele>
        <time>2021-05-23T16:26:58Z</time>
      </trkpt>
      <trkpt lat="46.34465" lon="0.20689">
        <ele>107.5</ele>
        <time>2021-05-23T16:26:59Z</time>
      </trkpt>
      <trkpt lat="46.34466" lon="0.2069">
        <ele>107.5</ele>
        <time>2021-05-23T16:27:00Z</time>
      </trkpt>
      <trkpt lat="46.34466" lon="0.20691">
        <ele>107.5</ele>
        <time>2021-05-23T16:27:01Z</time>
      </trkpt>
      <trkpt lat="46.34468" lon="0.20692">
        <ele>107.6</ele>
        <time>2021-05-23T16:27:03Z</time>
      </trkpt>
      <trkpt lat="46.34469" lon="0.20693">
        <ele>107.6</ele>
        <time>2021-05-23T16:27:04Z</time>
      </trkpt>
      <trkpt lat="46.3447" lon="0.20693">
        <ele>107.6</ele>
        <time>2021-05-23T16:27:05Z</time>
      </trkpt>
      <trkpt lat="46.34471" lon="0.20694">
        <ele>107.7</ele>
        <time>2021-05-23T16:27:07Z</time>
      </trkpt>
      <trkpt lat="46.34472" lon="0.20694">
        <ele>107.7</ele>
        <time>2021-05-23T16:27:08Z</time>
      </trkpt>
      <trkpt lat="46.34473" lon="0.20696">
        <ele>107.8</ele>
        <time>2021-05-23T16:27:10Z</time>
      </trkpt>
      <trkpt lat="46.34474" lon="0.20699">
        <ele>107.8</ele>
        <time>2021-05-23T16:27:12Z</time>
      </trkpt>
      <trkpt lat="46.34476" lon="0.20702">
        <ele>107.9</ele>
        <time>2021-05-23T16:27:14Z</time>
      </trkpt>
      <trkpt lat="46.34477" lon="0.20703">
        <ele>107.9</ele>
        <time>2021-05-23T16:27:15Z</time>
      </trkpt>
      <trkpt lat="46.34478" lon="0.20705">
        <ele>108</ele>
        <time>2021-05-23T16:27:16Z</time>
      </trkpt>
      <trkpt lat="46.34479" lon="0.20708">
        <ele>108.1</ele>
        <time>2021-05-23T16:27:18Z</time>
      </trkpt>
      <trkpt lat="46.3448" lon="0.2071">
        <ele>108.1</ele>
        <time>2021-05-23T16:27:19Z</time>
      </trkpt>
      <trkpt lat="46.34481" lon="0.20712">
        <ele>108.1</ele>
        <time>2021-05-23T16:27:21Z</time>
      </trkpt>
      <trkpt lat="46.34482" lon="0.20714">
        <ele>108.1</ele>
        <time>2021-05-23T16:27:22Z</time>
      </trkpt>
      <trkpt lat="46.34482" lon="0.20715">
        <ele>108</ele>
        <time>2021-05-23T16:27:23Z</time>
      </trkpt>
      <trkpt lat="46.34483" lon="0.20715">
        <ele>108</ele>
        <time>2021-05-23T16:27:24Z</time>
      </trkpt>
      <trkpt lat="46.34483" lon="0.20714">
        <ele>108</ele>
        <time>2021-05-23T16:27:26Z</time>
      </trkpt>
      <trkpt lat="46.34484" lon="0.20713">
        <ele>108</ele>
        <time>2021-05-23T16:27:28Z</time>
      </trkpt>
      <trkpt lat="46.34484" lon="0.20713">
        <ele>108</ele>
        <time>2021-05-23T16:27:29Z</time>
      </trkpt>
      <trkpt lat="46.34485" lon="0.20713">
        <ele>108</ele>
        <time>2021-05-23T16:27:30Z</time>
      </trkpt>
      <trkpt lat="46.34486" lon="0.20715">
        <ele>108</ele>
        <time>2021-05-23T16:27:32Z</time>
      </trkpt>
      <trkpt lat="46.34486" lon="0.20714">
        <ele>108</ele>
        <time>2021-05-23T16:27:34Z</time>
      </trkpt>
      <trkpt lat="46.34486" lon="0.20713">
        <ele>108</ele>
        <time>2021-05-23T16:27:36Z</time>
      </trkpt>
      <trkpt lat="46.34486" lon="0.20712">
        <ele>108</ele>
        <time>2021-05-23T16:27:37Z</time>
      </trkpt>
      <trkpt lat="46.34486" lon="0.20713">
        <ele>108</ele>
        <time>2021-05-23T16:27:39Z</time>
      </trkpt>
      <trkpt lat="46.34487" lon="0.20713">
        <ele>108</ele>
        <time>2021-05-23T16:27:40Z</time>
      </trkpt>
      <trkpt lat="46.34488" lon="0.20713">
        <ele>107.9</ele>
        <time>2021-05-23T16:27:41Z</time>
      </trkpt>
      <trkpt lat="46.3449" lon="0.20715">
        <ele>107.9</ele>
        <time>2021-05-23T16:27:43Z</time>
      </trkpt>
      <trkpt lat="46.34492" lon="0.20716">
        <ele>107.9</ele>
        <time>2021-05-23T16:27:44Z</time>
      </trkpt>
      <trkpt lat="46.34493" lon="0.20716">
        <ele>107.9</ele>
        <time>2021-05-23T16:27:45Z</time>
      </trkpt>
      <trkpt lat="46.34494" lon="0.20716">
        <ele>107.9</ele>
        <time>2021-05-23T16:27:46Z</time>
      </trkpt>
      <trkpt lat="46.34496" lon="0.20717">
        <ele>107.8</ele>
        <time>2021-05-23T16:27:47Z</time>
      </trkpt>
      <trkpt lat="46.34498" lon="0.20718">
        <ele>107.8</ele>
        <time>2021-05-23T16:27:49Z</time>
      </trkpt>
      <trkpt lat="46.34499" lon="0.20718">
        <ele>107.8</ele>
        <time>2021-05-23T16:27:50Z</time>
      </trkpt>
      <trkpt lat="46.345" lon="0.20718">
        <ele>107.8</ele>
        <time>2021-05-23T16:27:51Z</time>
      </trkpt>
      <trkpt lat="46.34502" lon="0.20718">
        <ele>107.7</ele>
        <time>2021-05-23T16:27:53Z</time>
      </trkpt>
      <trkpt lat="46.34503" lon="0.20717">
        <ele>107.7</ele>
        <time>2021-05-23T16:27:54Z</time>
      </trkpt>
      <trkpt lat="46.34504" lon="0.20717">
        <ele>107.7</ele>
        <time>2021-05-23T16:27:55Z</time>
      </trkpt>
      <trkpt lat="46.34505" lon="0.20717">
        <ele>107.6</ele>
        <time>2021-05-23T16:27:56Z</time>
      </trkpt>
      <trkpt lat="46.34509" lon="0.20718">
        <ele>107.6</ele>
        <time>2021-05-23T16:27:58Z</time>
      </trkpt>
      <trkpt lat="46.34509" lon="0.20718">
        <ele>107.6</ele>
        <time>2021-05-23T16:27:59Z</time>
      </trkpt>
      <trkpt lat="46.34511" lon="0.20719">
        <ele>107.5</ele>
        <time>2021-05-23T16:28:00Z</time>
      </trkpt>
      <trkpt lat="46.34512" lon="0.2072">
        <ele>107.5</ele>
        <time>2021-05-23T16:28:01Z</time>
      </trkpt>
      <trkpt lat="46.34515" lon="0.20722">
        <ele>107.4</ele>
        <time>2021-05-23T16:28:02Z</time>
      </trkpt>
      <trkpt lat="46.34516" lon="0.20723">
        <ele>107.3</ele>
        <time>2021-05-23T16:28:04Z</time>
      </trkpt>
      <trkpt lat="46.34517" lon="0.20724">
        <ele>107.3</ele>
        <time>2021-05-23T16:28:05Z</time>
      </trkpt>
      <trkpt lat="46.34518" lon="0.20725">
        <ele>107.3</ele>
        <time>2021-05-23T16:28:06Z</time>
      </trkpt>
      <trkpt lat="46.34519" lon="0.20725">
        <ele>107.2</ele>
        <time>2021-05-23T16:28:07Z</time>
      </trkpt>
      <trkpt lat="46.3452" lon="0.20726">
        <ele>107.2</ele>
        <time>2021-05-23T16:28:08Z</time>
      </trkpt>
      <trkpt lat="46.34521" lon="0.20727">
        <ele>107.2</ele>
        <time>2021-05-23T16:28:09Z</time>
      </trkpt>
      <trkpt lat="46.34522" lon="0.20728">
        <ele>107.1</ele>
        <time>2021-05-23T16:28:10Z</time>
      </trkpt>
      <trkpt lat="46.34523" lon="0.20729">
        <ele>107.1</ele>
        <time>2021-05-23T16:28:11Z</time>
      </trkpt>
      <trkpt lat="46.34525" lon="0.2073">
        <ele>107</ele>
        <time>2021-05-23T16:28:12Z</time>
      </trkpt>
      <trkpt lat="46.34525" lon="0.2073">
        <ele>107</ele>
        <time>2021-05-23T16:28:13Z</time>
      </trkpt>
      <trkpt lat="46.34527" lon="0.2073">
        <ele>106.9</ele>
        <time>2021-05-23T16:28:14Z</time>
      </trkpt>
      <trkpt lat="46.34528" lon="0.20731">
        <ele>106.9</ele>
        <time>2021-05-23T16:28:15Z</time>
      </trkpt>
      <trkpt lat="46.34529" lon="0.20731">
        <ele>106.8</ele>
        <time>2021-05-23T16:28:16Z</time>
      </trkpt>
      <trkpt lat="46.34531" lon="0.20732">
        <ele>106.7</ele>
        <time>2021-05-23T16:28:18Z</time>
      </trkpt>
      <trkpt lat="46.34533" lon="0.20732">
        <ele>106.6</ele>
        <time>2021-05-23T16:28:20Z</time>
      </trkpt>
      <trkpt lat="46.34534" lon="0.20732">
        <ele>106.6</ele>
        <time>2021-05-23T16:28:21Z</time>
      </trkpt>
      <trkpt lat="46.34536" lon="0.20733">
        <ele>106.4</ele>
        <time>2021-05-23T16:28:22Z</time>
      </trkpt>
      <trkpt lat="46.34537" lon="0.20733">
        <ele>106.4</ele>
        <time>2021-05-23T16:28:23Z</time>
      </trkpt>
      <trkpt lat="46.34539" lon="0.20734">
        <ele>106.2</ele>
        <time>2021-05-23T16:28:25Z</time>
      </trkpt>
      <trkpt lat="46.34541" lon="0.20734">
        <ele>106.1</ele>
        <time>2021-05-23T16:28:26Z</time>
      </trkpt>
      <trkpt lat="46.34543" lon="0.20735">
        <ele>106</ele>
        <time>2021-05-23T16:28:28Z</time>
      </trkpt>
      <trkpt lat="46.34544" lon="0.20735">
        <ele>105.9</ele>
        <time>2021-05-23T16:28:29Z</time>
      </trkpt>
      <trkpt lat="46.34546" lon="0.20737">
        <ele>105.7</ele>
        <time>2021-05-23T16:28:30Z</time>
      </trkpt>
      <trkpt lat="46.34547" lon="0.20737">
        <ele>105.6</ele>
        <time>2021-05-23T16:28:31Z</time>
      </trkpt>
      <trkpt lat="46.34547" lon="0.20738">
        <ele>105.6</ele>
        <time>2021-05-23T16:28:32Z</time>
      </trkpt>
      <trkpt lat="46.34548" lon="0.20738">
        <ele>105.5</ele>
        <time>2021-05-23T16:28:33Z</time>
      </trkpt>
      <trkpt lat="46.34549" lon="0.20739">
        <ele>105.4</ele>
        <time>2021-05-23T16:28:35Z</time>
      </trkpt>
      <trkpt lat="46.3455" lon="0.20739">
        <ele>105.3</ele>
        <time>2021-05-23T16:28:36Z</time>
      </trkpt>
      <trkpt lat="46.34551" lon="0.20739">
        <ele>105.2</ele>
        <time>2021-05-23T16:28:37Z</time>
      </trkpt>
      <trkpt lat="46.34552" lon="0.20739">
        <ele>105.1</ele>
        <time>2021-05-23T16:28:38Z</time>
      </trkpt>
      <trkpt lat="46.34553" lon="0.20739">
        <ele>105</ele>
        <time>2021-05-23T16:28:39Z</time>
      </trkpt>
      <trkpt lat="46.34555" lon="0.20739">
        <ele>104.8</ele>
        <time>2021-05-23T16:28:40Z</time>
      </trkpt>
      <trkpt lat="46.34556" lon="0.20739">
        <ele>104.7</ele>
        <time>2021-05-23T16:28:41Z</time>
      </trkpt>
      <trkpt lat="46.34557" lon="0.20739">
        <ele>104.6</ele>
        <time>2021-05-23T16:28:42Z</time>
      </trkpt>
      <trkpt lat="46.34558" lon="0.20739">
        <ele>104.5</ele>
        <time>2021-05-23T16:28:44Z</time>
      </trkpt>
      <trkpt lat="46.34559" lon="0.20739">
        <ele>104.4</ele>
        <time>2021-05-23T16:28:45Z</time>
      </trkpt>
      <trkpt lat="46.34561" lon="0.20739">
        <ele>104.3</ele>
        <time>2021-05-23T16:28:46Z</time>
      </trkpt>
      <trkpt lat="46.34563" lon="0.20738">
        <ele>104.1</ele>
        <time>2021-05-23T16:28:47Z</time>
      </trkpt>
      <trkpt lat="46.34564" lon="0.20738">
        <ele>104</ele>
        <time>2021-05-23T16:28:49Z</time>
      </trkpt>
      <trkpt lat="46.34566" lon="0.20737">
        <ele>103.8</ele>
        <time>2021-05-23T16:28:50Z</time>
      </trkpt>
      <trkpt lat="46.34567" lon="0.20737">
        <ele>103.7</ele>
        <time>2021-05-23T16:28:51Z</time>
      </trkpt>
      <trkpt lat="46.34568" lon="0.20736">
        <ele>103.6</ele>
        <time>2021-05-23T16:28:52Z</time>
      </trkpt>
      <trkpt lat="46.34569" lon="0.20736">
        <ele>103.5</ele>
        <time>2021-05-23T16:28:53Z</time>
      </trkpt>
      <trkpt lat="46.34569" lon="0.20736">
        <ele>103.4</ele>
        <time>2021-05-23T16:28:54Z</time>
      </trkpt>
      <trkpt lat="46.34571" lon="0.20735">
        <ele>103.3</ele>
        <time>2021-05-23T16:28:56Z</time>
      </trkpt>
      <trkpt lat="46.34572" lon="0.20735">
        <ele>103.1</ele>
        <time>2021-05-23T16:28:57Z</time>
      </trkpt>
      <trkpt lat="46.34573" lon="0.20734">
        <ele>103.1</ele>
        <time>2021-05-23T16:28:58Z</time>
      </trkpt>
      <trkpt lat="46.34574" lon="0.20734">
        <ele>103</ele>
        <time>2021-05-23T16:28:59Z</time>
      </trkpt>
      <trkpt lat="46.34575" lon="0.20734">
        <ele>102.9</ele>
        <time>2021-05-23T16:29:00Z</time>
      </trkpt>
      <trkpt lat="46.34576" lon="0.20733">
        <ele>102.8</ele>
        <time>2021-05-23T16:29:01Z</time>
      </trkpt>
      <trkpt lat="46.34577" lon="0.20733">
        <ele>102.6</ele>
        <time>2021-05-23T16:29:02Z</time>
      </trkpt>
      <trkpt lat="46.34578" lon="0.20732">
        <ele>102.6</ele>
        <time>2021-05-23T16:29:04Z</time>
      </trkpt>
      <trkpt lat="46.34579" lon="0.20732">
        <ele>102.5</ele>
        <time>2021-05-23T16:29:05Z</time>
      </trkpt>
      <trkpt lat="46.3458" lon="0.20732">
        <ele>102.3</ele>
        <time>2021-05-23T16:29:06Z</time>
      </trkpt>
      <trkpt lat="46.34582" lon="0.20732">
        <ele>102.2</ele>
        <time>2021-05-23T16:29:07Z</time>
      </trkpt>
      <trkpt lat="46.34583" lon="0.20732">
        <ele>102.1</ele>
        <time>2021-05-23T16:29:08Z</time>
      </trkpt>
      <trkpt lat="46.34584" lon="0.20732">
        <ele>102.1</ele>
        <time>2021-05-23T16:29:09Z</time>
      </trkpt>
      <trkpt lat="46.34585" lon="0.20732">
        <ele>101.9</ele>
        <time>2021-05-23T16:29:11Z</time>
      </trkpt>
      <trkpt lat="46.34587" lon="0.20731">
        <ele>101.7</ele>
        <time>2021-05-23T16:29:12Z</time>
      </trkpt>
      <trkpt lat="46.34589" lon="0.2073">
        <ele>101.6</ele>
        <time>2021-05-23T16:29:13Z</time>
      </trkpt>
      <trkpt lat="46.3459" lon="0.2073">
        <ele>101.5</ele>
        <time>2021-05-23T16:29:14Z</time>
      </trkpt>
      <trkpt lat="46.34591" lon="0.2073">
        <ele>101.4</ele>
        <time>2021-05-23T16:29:15Z</time>
      </trkpt>
      <trkpt lat="46.34592" lon="0.20729">
        <ele>101.3</ele>
        <time>2021-05-23T16:29:16Z</time>
      </trkpt>
      <trkpt lat="46.34594" lon="0.20728">
        <ele>101.2</ele>
        <time>2021-05-23T16:29:18Z</time>
      </trkpt>
      <trkpt lat="46.34595" lon="0.20728">
        <ele>101.1</ele>
        <time>2021-05-23T16:29:19Z</time>
      </trkpt>
      <trkpt lat="46.34597" lon="0.20727">
        <ele>101</ele>
        <time>2021-05-23T16:29:20Z</time>
      </trkpt>
      <trkpt lat="46.34599" lon="0.20726">
        <ele>100.9</ele>
        <time>2021-05-23T16:29:22Z</time>
      </trkpt>
      <trkpt lat="46.34601" lon="0.20726">
        <ele>100.8</ele>
        <time>2021-05-23T16:29:23Z</time>
      </trkpt>
      <trkpt lat="46.34602" lon="0.20726">
        <ele>100.7</ele>
        <time>2021-05-23T16:29:24Z</time>
      </trkpt>
      <trkpt lat="46.34602" lon="0.20726">
        <ele>100.7</ele>
        <time>2021-05-23T16:29:25Z</time>
      </trkpt>
      <trkpt lat="46.34603" lon="0.20726">
        <ele>100.6</ele>
        <time>2021-05-23T16:29:26Z</time>
      </trkpt>
      <trkpt lat="46.34605" lon="0.20726">
        <ele>100.5</ele>
        <time>2021-05-23T16:29:27Z</time>
      </trkpt>
      <trkpt lat="46.34607" lon="0.20726">
        <ele>100.5</ele>
        <time>2021-05-23T16:29:29Z</time>
      </trkpt>
      <trkpt lat="46.34608" lon="0.20726">
        <ele>100.4</ele>
        <time>2021-05-23T16:29:30Z</time>
      </trkpt>
      <trkpt lat="46.34609" lon="0.20726">
        <ele>100.4</ele>
        <time>2021-05-23T16:29:31Z</time>
      </trkpt>
      <trkpt lat="46.34612" lon="0.20727">
        <ele>100.2</ele>
        <time>2021-05-23T16:29:32Z</time>
      </trkpt>
      <trkpt lat="46.34613" lon="0.20727">
        <ele>100.2</ele>
        <time>2021-05-23T16:29:34Z</time>
      </trkpt>
      <trkpt lat="46.34614" lon="0.20728">
        <ele>100.2</ele>
        <time>2021-05-23T16:29:35Z</time>
      </trkpt>
      <trkpt lat="46.34615" lon="0.20729">
        <ele>100.1</ele>
        <time>2021-05-23T16:29:36Z</time>
      </trkpt>
      <trkpt lat="46.34616" lon="0.20729">
        <ele>100.1</ele>
        <time>2021-05-23T16:29:37Z</time>
      </trkpt>
      <trkpt lat="46.34618" lon="0.20731">
        <ele>100</ele>
        <time>2021-05-23T16:29:38Z</time>
      </trkpt>
      <trkpt lat="46.34619" lon="0.20732">
        <ele>100</ele>
        <time>2021-05-23T16:29:39Z</time>
      </trkpt>
      <trkpt lat="46.34619" lon="0.20733">
        <ele>100</ele>
        <time>2021-05-23T16:29:41Z</time>
      </trkpt>
      <trkpt lat="46.3462" lon="0.20734">
        <ele>99.9</ele>
        <time>2021-05-23T16:29:42Z</time>
      </trkpt>
      <trkpt lat="46.3462" lon="0.20734">
        <ele>99.9</ele>
        <time>2021-05-23T16:29:43Z</time>
      </trkpt>
      <trkpt lat="46.3462" lon="0.20736">
        <ele>99.9</ele>
        <time>2021-05-23T16:29:45Z</time>
      </trkpt>
      <trkpt lat="46.34621" lon="0.20737">
        <ele>99.9</ele>
        <time>2021-05-23T16:29:46Z</time>
      </trkpt>
      <trkpt lat="46.34622" lon="0.20738">
        <ele>99.8</ele>
        <time>2021-05-23T16:29:47Z</time>
      </trkpt>
      <trkpt lat="46.34623" lon="0.2074">
        <ele>99.8</ele>
        <time>2021-05-23T16:29:48Z</time>
      </trkpt>
      <trkpt lat="46.34623" lon="0.20741">
        <ele>99.8</ele>
        <time>2021-05-23T16:29:49Z</time>
      </trkpt>
      <trkpt lat="46.34624" lon="0.20742">
        <ele>99.8</ele>
        <time>2021-05-23T16:29:50Z</time>
      </trkpt>
      <trkpt lat="46.34624" lon="0.20743">
        <ele>99.8</ele>
        <time>2021-05-23T16:29:51Z</time>
      </trkpt>
      <trkpt lat="46.34625" lon="0.20744">
        <ele>99.7</ele>
        <time>2021-05-23T16:29:53Z</time>
      </trkpt>
      <trkpt lat="46.34626" lon="0.20746">
        <ele>99.7</ele>
        <time>2021-05-23T16:29:54Z</time>
      </trkpt>
      <trkpt lat="46.34627" lon="0.20747">
        <ele>99.7</ele>
        <time>2021-05-23T16:29:56Z</time>
      </trkpt>
      <trkpt lat="46.34627" lon="0.20748">
        <ele>99.7</ele>
        <time>2021-05-23T16:29:57Z</time>
      </trkpt>
      <trkpt lat="46.34628" lon="0.2075">
        <ele>99.7</ele>
        <time>2021-05-23T16:29:58Z</time>
      </trkpt>
      <trkpt lat="46.34628" lon="0.20751">
        <ele>99.7</ele>
        <time>2021-05-23T16:29:59Z</time>
      </trkpt>
      <trkpt lat="46.34629" lon="0.20752">
        <ele>99.6</ele>
        <time>2021-05-23T16:30:00Z</time>
      </trkpt>
      <trkpt lat="46.3463" lon="0.20753">
        <ele>99.6</ele>
        <time>2021-05-23T16:30:01Z</time>
      </trkpt>
      <trkpt lat="46.34631" lon="0.20755">
        <ele>99.6</ele>
        <time>2021-05-23T16:30:03Z</time>
      </trkpt>
      <trkpt lat="46.34632" lon="0.20757">
        <ele>99.6</ele>
        <time>2021-05-23T16:30:04Z</time>
      </trkpt>
      <trkpt lat="46.34632" lon="0.20758">
        <ele>99.6</ele>
        <time>2021-05-23T16:30:05Z</time>
      </trkpt>
      <trkpt lat="46.34633" lon="0.20759">
        <ele>99.6</ele>
        <time>2021-05-23T16:30:06Z</time>
      </trkpt>
      <trkpt lat="46.34635" lon="0.20761">
        <ele>99.6</ele>
        <time>2021-05-23T16:30:08Z</time>
      </trkpt>
      <trkpt lat="46.34636" lon="0.20763">
        <ele>99.6</ele>
        <time>2021-05-23T16:30:09Z</time>
      </trkpt>
      <trkpt lat="46.34637" lon="0.20764">
        <ele>99.6</ele>
        <time>2021-05-23T16:30:10Z</time>
      </trkpt>
      <trkpt lat="46.34637" lon="0.20765">
        <ele>99.5</ele>
        <time>2021-05-23T16:30:11Z</time>
      </trkpt>
      <trkpt lat="46.34639" lon="0.20766">
        <ele>99.5</ele>
        <time>2021-05-23T16:30:13Z</time>
      </trkpt>
      <trkpt lat="46.3464" lon="0.20767">
        <ele>99.5</ele>
        <time>2021-05-23T16:30:14Z</time>
      </trkpt>
      <trkpt lat="46.3464" lon="0.20769">
        <ele>99.5</ele>
        <time>2021-05-23T16:30:15Z</time>
      </trkpt>
      <trkpt lat="46.34641" lon="0.2077">
        <ele>99.5</ele>
        <time>2021-05-23T16:30:17Z</time>
      </trkpt>
      <trkpt lat="46.34641" lon="0.20772">
        <ele>99.5</ele>
        <time>2021-05-23T16:30:18Z</time>
      </trkpt>
      <trkpt lat="46.34642" lon="0.20773">
        <ele>99.5</ele>
        <time>2021-05-23T16:30:19Z</time>
      </trkpt>
      <trkpt lat="46.34642" lon="0.20774">
        <ele>99.5</ele>
        <time>2021-05-23T16:30:20Z</time>
      </trkpt>
      <trkpt lat="46.34642" lon="0.20775">
        <ele>99.5</ele>
        <time>2021-05-23T16:30:21Z</time>
      </trkpt>
      <trkpt lat="46.34643" lon="0.20776">
        <ele>99.5</ele>
        <time>2021-05-23T16:30:23Z</time>
      </trkpt>
      <trkpt lat="46.34644" lon="0.20777">
        <ele>99.5</ele>
        <time>2021-05-23T16:30:24Z</time>
      </trkpt>
      <trkpt lat="46.34644" lon="0.20777">
        <ele>99.5</ele>
        <time>2021-05-23T16:30:25Z</time>
      </trkpt>
      <trkpt lat="46.34644" lon="0.20778">
        <ele>99.5</ele>
        <time>2021-05-23T16:30:26Z</time>
      </trkpt>
      <trkpt lat="46.34645" lon="0.20778">
        <ele>99.4</ele>
        <time>2021-05-23T16:30:27Z</time>
      </trkpt>
      <trkpt lat="46.34646" lon="0.20779">
        <ele>99.4</ele>
        <time>2021-05-23T16:30:28Z</time>
      </trkpt>
      <trkpt lat="46.34647" lon="0.20781">
        <ele>99.4</ele>
        <time>2021-05-23T16:30:29Z</time>
      </trkpt>
      <trkpt lat="46.34648" lon="0.20783">
        <ele>99.4</ele>
        <time>2021-05-23T16:30:30Z</time>
      </trkpt>
      <trkpt lat="46.34648" lon="0.20784">
        <ele>99.4</ele>
        <time>2021-05-23T16:30:31Z</time>
      </trkpt>
      <trkpt lat="46.34649" lon="0.20785">
        <ele>99.4</ele>
        <time>2021-05-23T16:30:32Z</time>
      </trkpt>
      <trkpt lat="46.3465" lon="0.20787">
        <ele>99.4</ele>
        <time>2021-05-23T16:30:33Z</time>
      </trkpt>
      <trkpt lat="46.3465" lon="0.20789">
        <ele>99.4</ele>
        <time>2021-05-23T16:30:34Z</time>
      </trkpt>
      <trkpt lat="46.34651" lon="0.20791">
        <ele>99.4</ele>
        <time>2021-05-23T16:30:36Z</time>
      </trkpt>
      <trkpt lat="46.34652" lon="0.20793">
        <ele>99.4</ele>
        <time>2021-05-23T16:30:37Z</time>
      </trkpt>
      <trkpt lat="46.34652" lon="0.20795">
        <ele>99.4</ele>
        <time>2021-05-23T16:30:38Z</time>
      </trkpt>
      <trkpt lat="46.34653" lon="0.20797">
        <ele>99.4</ele>
        <time>2021-05-23T16:30:39Z</time>
      </trkpt>
      <trkpt lat="46.34654" lon="0.20799">
        <ele>99.4</ele>
        <time>2021-05-23T16:30:40Z</time>
      </trkpt>
      <trkpt lat="46.34656" lon="0.20802">
        <ele>99.4</ele>
        <time>2021-05-23T16:30:42Z</time>
      </trkpt>
      <trkpt lat="46.34657" lon="0.20803">
        <ele>99.4</ele>
        <time>2021-05-23T16:30:43Z</time>
      </trkpt>
      <trkpt lat="46.34657" lon="0.20804">
        <ele>99.4</ele>
        <time>2021-05-23T16:30:44Z</time>
      </trkpt>
      <trkpt lat="46.34658" lon="0.20806">
        <ele>99.4</ele>
        <time>2021-05-23T16:30:45Z</time>
      </trkpt>
      <trkpt lat="46.34659" lon="0.20807">
        <ele>99.4</ele>
        <time>2021-05-23T16:30:46Z</time>
      </trkpt>
      <trkpt lat="46.3466" lon="0.20809">
        <ele>99.5</ele>
        <time>2021-05-23T16:30:48Z</time>
      </trkpt>
      <trkpt lat="46.3466" lon="0.2081">
        <ele>99.5</ele>
        <time>2021-05-23T16:30:49Z</time>
      </trkpt>
      <trkpt lat="46.34661" lon="0.20812">
        <ele>99.5</ele>
        <time>2021-05-23T16:30:50Z</time>
      </trkpt>
      <trkpt lat="46.34662" lon="0.20813">
        <ele>99.5</ele>
        <time>2021-05-23T16:30:51Z</time>
      </trkpt>
      <trkpt lat="46.34663" lon="0.20815">
        <ele>99.5</ele>
        <time>2021-05-23T16:30:53Z</time>
      </trkpt>
      <trkpt lat="46.34664" lon="0.20816">
        <ele>99.6</ele>
        <time>2021-05-23T16:30:54Z</time>
      </trkpt>
      <trkpt lat="46.34665" lon="0.20817">
        <ele>99.6</ele>
        <time>2021-05-23T16:30:55Z</time>
      </trkpt>
      <trkpt lat="46.34665" lon="0.20818">
        <ele>99.6</ele>
        <time>2021-05-23T16:30:56Z</time>
      </trkpt>
      <trkpt lat="46.34667" lon="0.2082">
        <ele>99.7</ele>
        <time>2021-05-23T16:30:58Z</time>
      </trkpt>
      <trkpt lat="46.34667" lon="0.20821">
        <ele>99.7</ele>
        <time>2021-05-23T16:30:59Z</time>
      </trkpt>
      <trkpt lat="46.34668" lon="0.20822">
        <ele>99.7</ele>
        <time>2021-05-23T16:31:00Z</time>
      </trkpt>
      <trkpt lat="46.34668" lon="0.20823">
        <ele>99.7</ele>
        <time>2021-05-23T16:31:01Z</time>
      </trkpt>
      <trkpt lat="46.34668" lon="0.20824">
        <ele>99.7</ele>
        <time>2021-05-23T16:31:02Z</time>
      </trkpt>
      <trkpt lat="46.34669" lon="0.20825">
        <ele>99.8</ele>
        <time>2021-05-23T16:31:03Z</time>
      </trkpt>
      <trkpt lat="46.34669" lon="0.20826">
        <ele>99.8</ele>
        <time>2021-05-23T16:31:04Z</time>
      </trkpt>
      <trkpt lat="46.3467" lon="0.20827">
        <ele>99.8</ele>
        <time>2021-05-23T16:31:06Z</time>
      </trkpt>
      <trkpt lat="46.3467" lon="0.20829">
        <ele>99.8</ele>
        <time>2021-05-23T16:31:07Z</time>
      </trkpt>
      <trkpt lat="46.34671" lon="0.2083">
        <ele>99.9</ele>
        <time>2021-05-23T16:31:08Z</time>
      </trkpt>
      <trkpt lat="46.34672" lon="0.20831">
        <ele>99.9</ele>
        <time>2021-05-23T16:31:09Z</time>
      </trkpt>
      <trkpt lat="46.34672" lon="0.20832">
        <ele>99.9</ele>
        <time>2021-05-23T16:31:10Z</time>
      </trkpt>
      <trkpt lat="46.34672" lon="0.20832">
        <ele>99.9</ele>
        <time>2021-05-23T16:31:11Z</time>
      </trkpt>
      <trkpt lat="46.34673" lon="0.20833">
        <ele>99.9</ele>
        <time>2021-05-23T16:31:13Z</time>
      </trkpt>
      <trkpt lat="46.34674" lon="0.20834">
        <ele>100</ele>
        <time>2021-05-23T16:31:14Z</time>
      </trkpt>
      <trkpt lat="46.34674" lon="0.20835">
        <ele>100</ele>
        <time>2021-05-23T16:31:15Z</time>
      </trkpt>
      <trkpt lat="46.34675" lon="0.20836">
        <ele>100</ele>
        <time>2021-05-23T16:31:16Z</time>
      </trkpt>
      <trkpt lat="46.34676" lon="0.20838">
        <ele>100.1</ele>
        <time>2021-05-23T16:31:17Z</time>
      </trkpt>
      <trkpt lat="46.34677" lon="0.20839">
        <ele>100.1</ele>
        <time>2021-05-23T16:31:18Z</time>
      </trkpt>
      <trkpt lat="46.34678" lon="0.2084">
        <ele>100.2</ele>
        <time>2021-05-23T16:31:19Z</time>
      </trkpt>
      <trkpt lat="46.34678" lon="0.20841">
        <ele>100.2</ele>
        <time>2021-05-23T16:31:20Z</time>
      </trkpt>
      <trkpt lat="46.34679" lon="0.20842">
        <ele>100.2</ele>
        <time>2021-05-23T16:31:21Z</time>
      </trkpt>
      <trkpt lat="46.34679" lon="0.20843">
        <ele>100.3</ele>
        <time>2021-05-23T16:31:22Z</time>
      </trkpt>
      <trkpt lat="46.3468" lon="0.20845">
        <ele>100.3</ele>
        <time>2021-05-23T16:31:23Z</time>
      </trkpt>
      <trkpt lat="46.3468" lon="0.20846">
        <ele>100.3</ele>
        <time>2021-05-23T16:31:24Z</time>
      </trkpt>
      <trkpt lat="46.34681" lon="0.20847">
        <ele>100.4</ele>
        <time>2021-05-23T16:31:25Z</time>
      </trkpt>
      <trkpt lat="46.34681" lon="0.20848">
        <ele>100.4</ele>
        <time>2021-05-23T16:31:27Z</time>
      </trkpt>
      <trkpt lat="46.34682" lon="0.20849">
        <ele>100.4</ele>
        <time>2021-05-23T16:31:28Z</time>
      </trkpt>
      <trkpt lat="46.34682" lon="0.2085">
        <ele>100.5</ele>
        <time>2021-05-23T16:31:29Z</time>
      </trkpt>
      <trkpt lat="46.34682" lon="0.20851">
        <ele>100.5</ele>
        <time>2021-05-23T16:31:30Z</time>
      </trkpt>
      <trkpt lat="46.34682" lon="0.20851">
        <ele>100.5</ele>
        <time>2021-05-23T16:31:31Z</time>
      </trkpt>
      <trkpt lat="46.34682" lon="0.20852">
        <ele>100.6</ele>
        <time>2021-05-23T16:31:32Z</time>
      </trkpt>
      <trkpt lat="46.34683" lon="0.20853">
        <ele>100.6</ele>
        <time>2021-05-23T16:31:33Z</time>
      </trkpt>
      <trkpt lat="46.34683" lon="0.20854">
        <ele>100.6</ele>
        <time>2021-05-23T16:31:34Z</time>
      </trkpt>
      <trkpt lat="46.34683" lon="0.20855">
        <ele>100.6</ele>
        <time>2021-05-23T16:31:36Z</time>
      </trkpt>
      <trkpt lat="46.34684" lon="0.20856">
        <ele>100.7</ele>
        <time>2021-05-23T16:31:37Z</time>
      </trkpt>
      <trkpt lat="46.34684" lon="0.20857">
        <ele>100.7</ele>
        <time>2021-05-23T16:31:38Z</time>
      </trkpt>
      <trkpt lat="46.34684" lon="0.20858">
        <ele>100.8</ele>
        <time>2021-05-23T16:31:39Z</time>
      </trkpt>
      <trkpt lat="46.34685" lon="0.20859">
        <ele>100.8</ele>
        <time>2021-05-23T16:31:40Z</time>
      </trkpt>
      <trkpt lat="46.34685" lon="0.2086">
        <ele>100.9</ele>
        <time>2021-05-23T16:31:42Z</time>
      </trkpt>
      <trkpt lat="46.34686" lon="0.20862">
        <ele>101</ele>
        <time>2021-05-23T16:31:43Z</time>
      </trkpt>
      <trkpt lat="46.34687" lon="0.20863">
        <ele>101</ele>
        <time>2021-05-23T16:31:44Z</time>
      </trkpt>
      <trkpt lat="46.34687" lon="0.20863">
        <ele>101.1</ele>
        <time>2021-05-23T16:31:45Z</time>
      </trkpt>
      <trkpt lat="46.34687" lon="0.20865">
        <ele>101.2</ele>
        <time>2021-05-23T16:31:47Z</time>
      </trkpt>
      <trkpt lat="46.34688" lon="0.20866">
        <ele>101.2</ele>
        <time>2021-05-23T16:31:48Z</time>
      </trkpt>
      <trkpt lat="46.34688" lon="0.20867">
        <ele>101.3</ele>
        <time>2021-05-23T16:31:49Z</time>
      </trkpt>
      <trkpt lat="46.34688" lon="0.20869">
        <ele>101.4</ele>
        <time>2021-05-23T16:31:50Z</time>
      </trkpt>
      <trkpt lat="46.34688" lon="0.2087">
        <ele>101.4</ele>
        <time>2021-05-23T16:31:51Z</time>
      </trkpt>
      <trkpt lat="46.34689" lon="0.20871">
        <ele>101.5</ele>
        <time>2021-05-23T16:31:52Z</time>
      </trkpt>
      <trkpt lat="46.34689" lon="0.20873">
        <ele>101.6</ele>
        <time>2021-05-23T16:31:53Z</time>
      </trkpt>
      <trkpt lat="46.34689" lon="0.20875">
        <ele>101.7</ele>
        <time>2021-05-23T16:31:55Z</time>
      </trkpt>
      <trkpt lat="46.3469" lon="0.20877">
        <ele>101.8</ele>
        <time>2021-05-23T16:31:56Z</time>
      </trkpt>
      <trkpt lat="46.3469" lon="0.20878">
        <ele>101.9</ele>
        <time>2021-05-23T16:31:57Z</time>
      </trkpt>
      <trkpt lat="46.34691" lon="0.2088">
        <ele>102</ele>
        <time>2021-05-23T16:31:58Z</time>
      </trkpt>
      <trkpt lat="46.34691" lon="0.20881">
        <ele>102.1</ele>
        <time>2021-05-23T16:31:59Z</time>
      </trkpt>
      <trkpt lat="46.34692" lon="0.20884">
        <ele>102.3</ele>
        <time>2021-05-23T16:32:00Z</time>
      </trkpt>
      <trkpt lat="46.34692" lon="0.20886">
        <ele>102.4</ele>
        <time>2021-05-23T16:32:02Z</time>
      </trkpt>
      <trkpt lat="46.34693" lon="0.20887">
        <ele>102.5</ele>
        <time>2021-05-23T16:32:03Z</time>
      </trkpt>
      <trkpt lat="46.34694" lon="0.20889">
        <ele>102.6</ele>
        <time>2021-05-23T16:32:05Z</time>
      </trkpt>
      <trkpt lat="46.34694" lon="0.2089">
        <ele>102.7</ele>
        <time>2021-05-23T16:32:06Z</time>
      </trkpt>
      <trkpt lat="46.34695" lon="0.20892">
        <ele>102.9</ele>
        <time>2021-05-23T16:32:07Z</time>
      </trkpt>
      <trkpt lat="46.34695" lon="0.20894">
        <ele>103</ele>
        <time>2021-05-23T16:32:09Z</time>
      </trkpt>
      <trkpt lat="46.34695" lon="0.20895">
        <ele>103.1</ele>
        <time>2021-05-23T16:32:10Z</time>
      </trkpt>
      <trkpt lat="46.34696" lon="0.20897">
        <ele>103.2</ele>
        <time>2021-05-23T16:32:11Z</time>
      </trkpt>
      <trkpt lat="46.34696" lon="0.20898">
        <ele>103.2</ele>
        <time>2021-05-23T16:32:12Z</time>
      </trkpt>
      <trkpt lat="46.34696" lon="0.209">
        <ele>103.4</ele>
        <time>2021-05-23T16:32:14Z</time>
      </trkpt>
      <trkpt lat="46.34696" lon="0.20902">
        <ele>103.5</ele>
        <time>2021-05-23T16:32:15Z</time>
      </trkpt>
      <trkpt lat="46.34696" lon="0.20903">
        <ele>103.5</ele>
        <time>2021-05-23T16:32:16Z</time>
      </trkpt>
      <trkpt lat="46.34696" lon="0.20904">
        <ele>103.6</ele>
        <time>2021-05-23T16:32:17Z</time>
      </trkpt>
      <trkpt lat="46.34696" lon="0.20906">
        <ele>103.8</ele>
        <time>2021-05-23T16:32:18Z</time>
      </trkpt>
      <trkpt lat="46.34696" lon="0.20908">
        <ele>103.9</ele>
        <time>2021-05-23T16:32:19Z</time>
      </trkpt>
      <trkpt lat="46.34696" lon="0.20909">
        <ele>104</ele>
        <time>2021-05-23T16:32:20Z</time>
      </trkpt>
      <trkpt lat="46.34696" lon="0.20911">
        <ele>104.1</ele>
        <time>2021-05-23T16:32:21Z</time>
      </trkpt>
      <trkpt lat="46.34696" lon="0.20912">
        <ele>104.2</ele>
        <time>2021-05-23T16:32:22Z</time>
      </trkpt>
      <trkpt lat="46.34696" lon="0.20914">
        <ele>104.3</ele>
        <time>2021-05-23T16:32:23Z</time>
      </trkpt>
      <trkpt lat="46.34696" lon="0.20915">
        <ele>104.4</ele>
        <time>2021-05-23T16:32:25Z</time>
      </trkpt>
      <trkpt lat="46.34696" lon="0.20916">
        <ele>104.5</ele>
        <time>2021-05-23T16:32:26Z</time>
      </trkpt>
      <trkpt lat="46.34697" lon="0.20917">
        <ele>104.6</ele>
        <time>2021-05-23T16:32:27Z</time>
      </trkpt>
      <trkpt lat="46.34697" lon="0.20918">
        <ele>104.7</ele>
        <time>2021-05-23T16:32:28Z</time>
      </trkpt>
      <trkpt lat="46.34697" lon="0.20919">
        <ele>104.7</ele>
        <time>2021-05-23T16:32:29Z</time>
      </trkpt>
      <trkpt lat="46.34697" lon="0.2092">
        <ele>104.8</ele>
        <time>2021-05-23T16:32:30Z</time>
      </trkpt>
      <trkpt lat="46.34698" lon="0.20922">
        <ele>105</ele>
        <time>2021-05-23T16:32:32Z</time>
      </trkpt>
      <trkpt lat="46.34698" lon="0.20923">
        <ele>105.1</ele>
        <time>2021-05-23T16:32:33Z</time>
      </trkpt>
      <trkpt lat="46.34699" lon="0.20925">
        <ele>105.3</ele>
        <time>2021-05-23T16:32:35Z</time>
      </trkpt>
      <trkpt lat="46.34699" lon="0.20927">
        <ele>105.4</ele>
        <time>2021-05-23T16:32:36Z</time>
      </trkpt>
      <trkpt lat="46.34699" lon="0.20928">
        <ele>105.6</ele>
        <time>2021-05-23T16:32:37Z</time>
      </trkpt>
      <trkpt lat="46.347" lon="0.2093">
        <ele>105.8</ele>
        <time>2021-05-23T16:32:38Z</time>
      </trkpt>
      <trkpt lat="46.347" lon="0.20932">
        <ele>105.9</ele>
        <time>2021-05-23T16:32:39Z</time>
      </trkpt>
      <trkpt lat="46.347" lon="0.20933">
        <ele>106</ele>
        <time>2021-05-23T16:32:40Z</time>
      </trkpt>
      <trkpt lat="46.347" lon="0.20935">
        <ele>106.1</ele>
        <time>2021-05-23T16:32:42Z</time>
      </trkpt>
      <trkpt lat="46.34701" lon="0.20936">
        <ele>106.3</ele>
        <time>2021-05-23T16:32:43Z</time>
      </trkpt>
      <trkpt lat="46.34701" lon="0.20938">
        <ele>106.4</ele>
        <time>2021-05-23T16:32:44Z</time>
      </trkpt>
      <trkpt lat="46.34701" lon="0.20941">
        <ele>106.6</ele>
        <time>2021-05-23T16:32:46Z</time>
      </trkpt>
      <trkpt lat="46.34701" lon="0.20943">
        <ele>106.8</ele>
        <time>2021-05-23T16:32:47Z</time>
      </trkpt>
      <trkpt lat="46.34701" lon="0.20945">
        <ele>107</ele>
        <time>2021-05-23T16:32:48Z</time>
      </trkpt>
      <trkpt lat="46.34701" lon="0.20947">
        <ele>107.1</ele>
        <time>2021-05-23T16:32:49Z</time>
      </trkpt>
      <trkpt lat="46.34701" lon="0.20949">
        <ele>107.3</ele>
        <time>2021-05-23T16:32:50Z</time>
      </trkpt>
      <trkpt lat="46.34701" lon="0.20952">
        <ele>107.5</ele>
        <time>2021-05-23T16:32:51Z</time>
      </trkpt>
      <trkpt lat="46.34701" lon="0.20953">
        <ele>107.6</ele>
        <time>2021-05-23T16:32:52Z</time>
      </trkpt>
      <trkpt lat="46.34701" lon="0.20955">
        <ele>107.7</ele>
        <time>2021-05-23T16:32:53Z</time>
      </trkpt>
      <trkpt lat="46.34701" lon="0.20958">
        <ele>107.9</ele>
        <time>2021-05-23T16:32:54Z</time>
      </trkpt>
      <trkpt lat="46.34701" lon="0.20959">
        <ele>108</ele>
        <time>2021-05-23T16:32:55Z</time>
      </trkpt>
      <trkpt lat="46.34702" lon="0.20961">
        <ele>108.1</ele>
        <time>2021-05-23T16:32:56Z</time>
      </trkpt>
      <trkpt lat="46.34702" lon="0.20962">
        <ele>108.2</ele>
        <time>2021-05-23T16:32:57Z</time>
      </trkpt>
      <trkpt lat="46.34702" lon="0.20964">
        <ele>108.3</ele>
        <time>2021-05-23T16:32:58Z</time>
      </trkpt>
      <trkpt lat="46.34702" lon="0.20965">
        <ele>108.5</ele>
        <time>2021-05-23T16:32:59Z</time>
      </trkpt>
      <trkpt lat="46.34702" lon="0.20968">
        <ele>108.6</ele>
        <time>2021-05-23T16:33:01Z</time>
      </trkpt>
      <trkpt lat="46.34702" lon="0.2097">
        <ele>108.8</ele>
        <time>2021-05-23T16:33:02Z</time>
      </trkpt>
      <trkpt lat="46.34702" lon="0.20973">
        <ele>109</ele>
        <time>2021-05-23T16:33:03Z</time>
      </trkpt>
      <trkpt lat="46.34703" lon="0.20974">
        <ele>109.1</ele>
        <time>2021-05-23T16:33:04Z</time>
      </trkpt>
      <trkpt lat="46.34703" lon="0.20976">
        <ele>109.1</ele>
        <time>2021-05-23T16:33:05Z</time>
      </trkpt>
      <trkpt lat="46.34703" lon="0.20979">
        <ele>109.3</ele>
        <time>2021-05-23T16:33:06Z</time>
      </trkpt>
      <trkpt lat="46.34703" lon="0.20981">
        <ele>109.4</ele>
        <time>2021-05-23T16:33:08Z</time>
      </trkpt>
      <trkpt lat="46.34704" lon="0.20982">
        <ele>109.5</ele>
        <time>2021-05-23T16:33:09Z</time>
      </trkpt>
      <trkpt lat="46.34704" lon="0.20984">
        <ele>109.6</ele>
        <time>2021-05-23T16:33:10Z</time>
      </trkpt>
      <trkpt lat="46.34704" lon="0.20986">
        <ele>109.7</ele>
        <time>2021-05-23T16:33:11Z</time>
      </trkpt>
      <trkpt lat="46.34704" lon="0.20988">
        <ele>109.8</ele>
        <time>2021-05-23T16:33:12Z</time>
      </trkpt>
      <trkpt lat="46.34705" lon="0.2099">
        <ele>110</ele>
        <time>2021-05-23T16:33:13Z</time>
      </trkpt>
      <trkpt lat="46.34705" lon="0.20992">
        <ele>110.1</ele>
        <time>2021-05-23T16:33:14Z</time>
      </trkpt>
      <trkpt lat="46.34706" lon="0.20996">
        <ele>110.3</ele>
        <time>2021-05-23T16:33:16Z</time>
      </trkpt>
      <trkpt lat="46.34706" lon="0.20998">
        <ele>110.4</ele>
        <time>2021-05-23T16:33:17Z</time>
      </trkpt>
      <trkpt lat="46.34706" lon="0.21001">
        <ele>110.5</ele>
        <time>2021-05-23T16:33:19Z</time>
      </trkpt>
      <trkpt lat="46.34706" lon="0.21004">
        <ele>110.6</ele>
        <time>2021-05-23T16:33:20Z</time>
      </trkpt>
      <trkpt lat="46.34707" lon="0.21005">
        <ele>110.7</ele>
        <time>2021-05-23T16:33:21Z</time>
      </trkpt>
      <trkpt lat="46.34707" lon="0.21007">
        <ele>110.8</ele>
        <time>2021-05-23T16:33:22Z</time>
      </trkpt>
      <trkpt lat="46.34707" lon="0.21009">
        <ele>110.8</ele>
        <time>2021-05-23T16:33:23Z</time>
      </trkpt>
      <trkpt lat="46.34708" lon="0.21011">
        <ele>110.9</ele>
        <time>2021-05-23T16:33:25Z</time>
      </trkpt>
      <trkpt lat="46.34708" lon="0.21014">
        <ele>111</ele>
        <time>2021-05-23T16:33:26Z</time>
      </trkpt>
      <trkpt lat="46.34708" lon="0.21015">
        <ele>111.1</ele>
        <time>2021-05-23T16:33:27Z</time>
      </trkpt>
      <trkpt lat="46.34708" lon="0.21016">
        <ele>111.1</ele>
        <time>2021-05-23T16:33:28Z</time>
      </trkpt>
      <trkpt lat="46.34709" lon="0.21017">
        <ele>111.1</ele>
        <time>2021-05-23T16:33:29Z</time>
      </trkpt>
      <trkpt lat="46.34709" lon="0.21019">
        <ele>111.2</ele>
        <time>2021-05-23T16:33:31Z</time>
      </trkpt>
      <trkpt lat="46.3471" lon="0.2102">
        <ele>111.2</ele>
        <time>2021-05-23T16:33:32Z</time>
      </trkpt>
      <trkpt lat="46.34711" lon="0.21023">
        <ele>111.3</ele>
        <time>2021-05-23T16:33:34Z</time>
      </trkpt>
      <trkpt lat="46.34711" lon="0.21024">
        <ele>111.4</ele>
        <time>2021-05-23T16:33:35Z</time>
      </trkpt>
      <trkpt lat="46.34712" lon="0.21025">
        <ele>111.4</ele>
        <time>2021-05-23T16:33:36Z</time>
      </trkpt>
      <trkpt lat="46.34712" lon="0.21027">
        <ele>111.4</ele>
        <time>2021-05-23T16:33:37Z</time>
      </trkpt>
      <trkpt lat="46.34713" lon="0.21029">
        <ele>111.5</ele>
        <time>2021-05-23T16:33:38Z</time>
      </trkpt>
      <trkpt lat="46.34714" lon="0.2103">
        <ele>111.5</ele>
        <time>2021-05-23T16:33:40Z</time>
      </trkpt>
      <trkpt lat="46.34714" lon="0.21031">
        <ele>111.5</ele>
        <time>2021-05-23T16:33:41Z</time>
      </trkpt>
      <trkpt lat="46.34715" lon="0.21033">
        <ele>111.6</ele>
        <time>2021-05-23T16:33:42Z</time>
      </trkpt>
      <trkpt lat="46.34715" lon="0.21036">
        <ele>111.6</ele>
        <time>2021-05-23T16:33:43Z</time>
      </trkpt>
      <trkpt lat="46.34716" lon="0.21038">
        <ele>111.6</ele>
        <time>2021-05-23T16:33:45Z</time>
      </trkpt>
      <trkpt lat="46.34716" lon="0.21041">
        <ele>111.7</ele>
        <time>2021-05-23T16:33:46Z</time>
      </trkpt>
      <trkpt lat="46.34716" lon="0.21042">
        <ele>111.7</ele>
        <time>2021-05-23T16:33:47Z</time>
      </trkpt>
      <trkpt lat="46.34717" lon="0.21043">
        <ele>111.7</ele>
        <time>2021-05-23T16:33:48Z</time>
      </trkpt>
      <trkpt lat="46.34717" lon="0.21046">
        <ele>111.7</ele>
        <time>2021-05-23T16:33:49Z</time>
      </trkpt>
      <trkpt lat="46.34717" lon="0.21048">
        <ele>111.8</ele>
        <time>2021-05-23T16:33:50Z</time>
      </trkpt>
      <trkpt lat="46.34717" lon="0.21052">
        <ele>111.8</ele>
        <time>2021-05-23T16:33:51Z</time>
      </trkpt>
      <trkpt lat="46.34717" lon="0.21054">
        <ele>111.8</ele>
        <time>2021-05-23T16:33:52Z</time>
      </trkpt>
      <trkpt lat="46.34717" lon="0.21057">
        <ele>111.8</ele>
        <time>2021-05-23T16:33:53Z</time>
      </trkpt>
      <trkpt lat="46.34717" lon="0.21059">
        <ele>111.8</ele>
        <time>2021-05-23T16:33:54Z</time>
      </trkpt>
      <trkpt lat="46.34717" lon="0.2106">
        <ele>111.8</ele>
        <time>2021-05-23T16:33:55Z</time>
      </trkpt>
      <trkpt lat="46.34717" lon="0.21062">
        <ele>111.8</ele>
        <time>2021-05-23T16:33:56Z</time>
      </trkpt>
      <trkpt lat="46.34717" lon="0.21066">
        <ele>111.8</ele>
        <time>2021-05-23T16:33:58Z</time>
      </trkpt>
      <trkpt lat="46.34717" lon="0.21068">
        <ele>111.8</ele>
        <time>2021-05-23T16:33:59Z</time>
      </trkpt>
      <trkpt lat="46.34717" lon="0.2107">
        <ele>111.8</ele>
        <time>2021-05-23T16:34:00Z</time>
      </trkpt>
      <trkpt lat="46.34717" lon="0.21075">
        <ele>111.8</ele>
        <time>2021-05-23T16:34:02Z</time>
      </trkpt>
      <trkpt lat="46.34718" lon="0.21076">
        <ele>111.8</ele>
        <time>2021-05-23T16:34:03Z</time>
      </trkpt>
      <trkpt lat="46.34718" lon="0.21078">
        <ele>111.8</ele>
        <time>2021-05-23T16:34:04Z</time>
      </trkpt>
      <trkpt lat="46.34718" lon="0.21081">
        <ele>111.8</ele>
        <time>2021-05-23T16:34:05Z</time>
      </trkpt>
      <trkpt lat="46.34718" lon="0.21086">
        <ele>111.8</ele>
        <time>2021-05-23T16:34:07Z</time>
      </trkpt>
      <trkpt lat="46.34718" lon="0.2109">
        <ele>111.9</ele>
        <time>2021-05-23T16:34:08Z</time>
      </trkpt>
      <trkpt lat="46.34718" lon="0.21092">
        <ele>111.9</ele>
        <time>2021-05-23T16:34:09Z</time>
      </trkpt>
      <trkpt lat="46.34718" lon="0.21094">
        <ele>111.9</ele>
        <time>2021-05-23T16:34:10Z</time>
      </trkpt>
      <trkpt lat="46.34718" lon="0.21096">
        <ele>112</ele>
        <time>2021-05-23T16:34:11Z</time>
      </trkpt>
      <trkpt lat="46.34718" lon="0.211">
        <ele>112.1</ele>
        <time>2021-05-23T16:34:13Z</time>
      </trkpt>
      <trkpt lat="46.34718" lon="0.21102">
        <ele>112.1</ele>
        <time>2021-05-23T16:34:14Z</time>
      </trkpt>
      <trkpt lat="46.34719" lon="0.21103">
        <ele>112.1</ele>
        <time>2021-05-23T16:34:15Z</time>
      </trkpt>
      <trkpt lat="46.34719" lon="0.21104">
        <ele>112.1</ele>
        <time>2021-05-23T16:34:16Z</time>
      </trkpt>
      <trkpt lat="46.34719" lon="0.21107">
        <ele>112.2</ele>
        <time>2021-05-23T16:34:18Z</time>
      </trkpt>
      <trkpt lat="46.34719" lon="0.21107">
        <ele>112.2</ele>
        <time>2021-05-23T16:34:19Z</time>
      </trkpt>
      <trkpt lat="46.34718" lon="0.2111">
        <ele>112.2</ele>
        <time>2021-05-23T16:34:20Z</time>
      </trkpt>
      <trkpt lat="46.34718" lon="0.21112">
        <ele>112.2</ele>
        <time>2021-05-23T16:34:22Z</time>
      </trkpt>
      <trkpt lat="46.34718" lon="0.21115">
        <ele>112.3</ele>
        <time>2021-05-23T16:34:23Z</time>
      </trkpt>
      <trkpt lat="46.34718" lon="0.21115">
        <ele>112.3</ele>
        <time>2021-05-23T16:34:24Z</time>
      </trkpt>
      <trkpt lat="46.34718" lon="0.21117">
        <ele>112.3</ele>
        <time>2021-05-23T16:34:25Z</time>
      </trkpt>
      <trkpt lat="46.34719" lon="0.21119">
        <ele>112.3</ele>
        <time>2021-05-23T16:34:27Z</time>
      </trkpt>
      <trkpt lat="46.34719" lon="0.21121">
        <ele>112.3</ele>
        <time>2021-05-23T16:34:28Z</time>
      </trkpt>
      <trkpt lat="46.34719" lon="0.21122">
        <ele>112.3</ele>
        <time>2021-05-23T16:34:29Z</time>
      </trkpt>
      <trkpt lat="46.3472" lon="0.21123">
        <ele>112.3</ele>
        <time>2021-05-23T16:34:30Z</time>
      </trkpt>
      <trkpt lat="46.34721" lon="0.21125">
        <ele>112.3</ele>
        <time>2021-05-23T16:34:31Z</time>
      </trkpt>
      <trkpt lat="46.34721" lon="0.21127">
        <ele>112.3</ele>
        <time>2021-05-23T16:34:32Z</time>
      </trkpt>
      <trkpt lat="46.34722" lon="0.21129">
        <ele>112.3</ele>
        <time>2021-05-23T16:34:33Z</time>
      </trkpt>
      <trkpt lat="46.34722" lon="0.21131">
        <ele>112.3</ele>
        <time>2021-05-23T16:34:34Z</time>
      </trkpt>
      <trkpt lat="46.34722" lon="0.21133">
        <ele>112.3</ele>
        <time>2021-05-23T16:34:36Z</time>
      </trkpt>
      <trkpt lat="46.34723" lon="0.21135">
        <ele>112.3</ele>
        <time>2021-05-23T16:34:37Z</time>
      </trkpt>
      <trkpt lat="46.34723" lon="0.21137">
        <ele>112.3</ele>
        <time>2021-05-23T16:34:38Z</time>
      </trkpt>
      <trkpt lat="46.34723" lon="0.21139">
        <ele>112.2</ele>
        <time>2021-05-23T16:34:39Z</time>
      </trkpt>
      <trkpt lat="46.34723" lon="0.21141">
        <ele>112.2</ele>
        <time>2021-05-23T16:34:40Z</time>
      </trkpt>
      <trkpt lat="46.34723" lon="0.21142">
        <ele>112.2</ele>
        <time>2021-05-23T16:34:41Z</time>
      </trkpt>
      <trkpt lat="46.34723" lon="0.21144">
        <ele>112.2</ele>
        <time>2021-05-23T16:34:42Z</time>
      </trkpt>
      <trkpt lat="46.34722" lon="0.21146">
        <ele>112.1</ele>
        <time>2021-05-23T16:34:44Z</time>
      </trkpt>
      <trkpt lat="46.34722" lon="0.21147">
        <ele>112.1</ele>
        <time>2021-05-23T16:34:45Z</time>
      </trkpt>
      <trkpt lat="46.34722" lon="0.21148">
        <ele>112</ele>
        <time>2021-05-23T16:34:46Z</time>
      </trkpt>
      <trkpt lat="46.34721" lon="0.21149">
        <ele>112</ele>
        <time>2021-05-23T16:34:47Z</time>
      </trkpt>
      <trkpt lat="46.3472" lon="0.2115">
        <ele>111.9</ele>
        <time>2021-05-23T16:34:48Z</time>
      </trkpt>
      <trkpt lat="46.34719" lon="0.21151">
        <ele>111.9</ele>
        <time>2021-05-23T16:34:49Z</time>
      </trkpt>
      <trkpt lat="46.34719" lon="0.21153">
        <ele>111.8</ele>
        <time>2021-05-23T16:34:51Z</time>
      </trkpt>
      <trkpt lat="46.34718" lon="0.21154">
        <ele>111.7</ele>
        <time>2021-05-23T16:34:52Z</time>
      </trkpt>
      <trkpt lat="46.34718" lon="0.21155">
        <ele>111.7</ele>
        <time>2021-05-23T16:34:53Z</time>
      </trkpt>
      <trkpt lat="46.34717" lon="0.21156">
        <ele>111.6</ele>
        <time>2021-05-23T16:34:55Z</time>
      </trkpt>
      <trkpt lat="46.34717" lon="0.21157">
        <ele>111.5</ele>
        <time>2021-05-23T16:34:56Z</time>
      </trkpt>
      <trkpt lat="46.34717" lon="0.21159">
        <ele>111.5</ele>
        <time>2021-05-23T16:34:57Z</time>
      </trkpt>
      <trkpt lat="46.34717" lon="0.2116">
        <ele>111.4</ele>
        <time>2021-05-23T16:34:58Z</time>
      </trkpt>
      <trkpt lat="46.34716" lon="0.21161">
        <ele>111.3</ele>
        <time>2021-05-23T16:34:59Z</time>
      </trkpt>
      <trkpt lat="46.34716" lon="0.21163">
        <ele>111.2</ele>
        <time>2021-05-23T16:35:00Z</time>
      </trkpt>
      <trkpt lat="46.34716" lon="0.21164">
        <ele>111.2</ele>
        <time>2021-05-23T16:35:01Z</time>
      </trkpt>
      <trkpt lat="46.34715" lon="0.21165">
        <ele>111</ele>
        <time>2021-05-23T16:35:02Z</time>
      </trkpt>
      <trkpt lat="46.34715" lon="0.21169">
        <ele>110.9</ele>
        <time>2021-05-23T16:35:04Z</time>
      </trkpt>
      <trkpt lat="46.34715" lon="0.2117">
        <ele>110.8</ele>
        <time>2021-05-23T16:35:05Z</time>
      </trkpt>
      <trkpt lat="46.34716" lon="0.21172">
        <ele>110.7</ele>
        <time>2021-05-23T16:35:06Z</time>
      </trkpt>
      <trkpt lat="46.34716" lon="0.21175">
        <ele>110.4</ele>
        <time>2021-05-23T16:35:08Z</time>
      </trkpt>
      <trkpt lat="46.34716" lon="0.21178">
        <ele>110.3</ele>
        <time>2021-05-23T16:35:10Z</time>
      </trkpt>
      <trkpt lat="46.34716" lon="0.2118">
        <ele>110.2</ele>
        <time>2021-05-23T16:35:11Z</time>
      </trkpt>
      <trkpt lat="46.34716" lon="0.21182">
        <ele>110.1</ele>
        <time>2021-05-23T16:35:12Z</time>
      </trkpt>
      <trkpt lat="46.34716" lon="0.21185">
        <ele>109.9</ele>
        <time>2021-05-23T16:35:13Z</time>
      </trkpt>
      <trkpt lat="46.34716" lon="0.21187">
        <ele>109.7</ele>
        <time>2021-05-23T16:35:15Z</time>
      </trkpt>
      <trkpt lat="46.34716" lon="0.2119">
        <ele>109.6</ele>
        <time>2021-05-23T16:35:16Z</time>
      </trkpt>
      <trkpt lat="46.34716" lon="0.21191">
        <ele>109.5</ele>
        <time>2021-05-23T16:35:17Z</time>
      </trkpt>
      <trkpt lat="46.34717" lon="0.21194">
        <ele>109.4</ele>
        <time>2021-05-23T16:35:18Z</time>
      </trkpt>
      <trkpt lat="46.34717" lon="0.21196">
        <ele>109.2</ele>
        <time>2021-05-23T16:35:20Z</time>
      </trkpt>
      <trkpt lat="46.34718" lon="0.21197">
        <ele>109.1</ele>
        <time>2021-05-23T16:35:21Z</time>
      </trkpt>
      <trkpt lat="46.34719" lon="0.212">
        <ele>109</ele>
        <time>2021-05-23T16:35:22Z</time>
      </trkpt>
      <trkpt lat="46.34719" lon="0.21201">
        <ele>108.9</ele>
        <time>2021-05-23T16:35:24Z</time>
      </trkpt>
      <trkpt lat="46.34719" lon="0.21202">
        <ele>108.9</ele>
        <time>2021-05-23T16:35:25Z</time>
      </trkpt>
      <trkpt lat="46.34719" lon="0.21205">
        <ele>108.7</ele>
        <time>2021-05-23T16:35:26Z</time>
      </trkpt>
      <trkpt lat="46.34718" lon="0.21207">
        <ele>108.6</ele>
        <time>2021-05-23T16:35:27Z</time>
      </trkpt>
      <trkpt lat="46.34718" lon="0.21209">
        <ele>108.4</ele>
        <time>2021-05-23T16:35:28Z</time>
      </trkpt>
      <trkpt lat="46.34717" lon="0.21212">
        <ele>108.3</ele>
        <time>2021-05-23T16:35:30Z</time>
      </trkpt>
      <trkpt lat="46.34717" lon="0.21215">
        <ele>108.1</ele>
        <time>2021-05-23T16:35:31Z</time>
      </trkpt>
      <trkpt lat="46.34716" lon="0.21217">
        <ele>107.9</ele>
        <time>2021-05-23T16:35:32Z</time>
      </trkpt>
      <trkpt lat="46.34716" lon="0.21218">
        <ele>107.8</ele>
        <time>2021-05-23T16:35:33Z</time>
      </trkpt>
      <trkpt lat="46.34716" lon="0.21219">
        <ele>107.8</ele>
        <time>2021-05-23T16:35:34Z</time>
      </trkpt>
      <trkpt lat="46.34716" lon="0.21221">
        <ele>107.6</ele>
        <time>2021-05-23T16:35:36Z</time>
      </trkpt>
      <trkpt lat="46.34715" lon="0.21222">
        <ele>107.4</ele>
        <time>2021-05-23T16:35:37Z</time>
      </trkpt>
      <trkpt lat="46.34715" lon="0.21226">
        <ele>107.1</ele>
        <time>2021-05-23T16:35:39Z</time>
      </trkpt>
      <trkpt lat="46.34714" lon="0.21227">
        <ele>107</ele>
        <time>2021-05-23T16:35:40Z</time>
      </trkpt>
      <trkpt lat="46.34714" lon="0.21229">
        <ele>106.8</ele>
        <time>2021-05-23T16:35:41Z</time>
      </trkpt>
      <trkpt lat="46.34714" lon="0.21231">
        <ele>106.5</ele>
        <time>2021-05-23T16:35:42Z</time>
      </trkpt>
      <trkpt lat="46.34714" lon="0.21233">
        <ele>106.3</ele>
        <time>2021-05-23T16:35:44Z</time>
      </trkpt>
      <trkpt lat="46.34714" lon="0.21235">
        <ele>106</ele>
        <time>2021-05-23T16:35:45Z</time>
      </trkpt>
      <trkpt lat="46.34714" lon="0.21236">
        <ele>105.8</ele>
        <time>2021-05-23T16:35:47Z</time>
      </trkpt>
      <trkpt lat="46.34714" lon="0.21237">
        <ele>105.7</ele>
        <time>2021-05-23T16:35:48Z</time>
      </trkpt>
      <trkpt lat="46.34714" lon="0.21238">
        <ele>105.5</ele>
        <time>2021-05-23T16:35:49Z</time>
      </trkpt>
      <trkpt lat="46.34714" lon="0.2124">
        <ele>105.2</ele>
        <time>2021-05-23T16:35:50Z</time>
      </trkpt>
      <trkpt lat="46.34713" lon="0.21242">
        <ele>104.9</ele>
        <time>2021-05-23T16:35:52Z</time>
      </trkpt>
      <trkpt lat="46.34713" lon="0.21245">
        <ele>104.6</ele>
        <time>2021-05-23T16:35:53Z</time>
      </trkpt>
      <trkpt lat="46.34713" lon="0.21247">
        <ele>104.2</ele>
        <time>2021-05-23T16:35:54Z</time>
      </trkpt>
      <trkpt lat="46.34713" lon="0.21249">
        <ele>103.9</ele>
        <time>2021-05-23T16:35:55Z</time>
      </trkpt>
      <trkpt lat="46.34713" lon="0.21252">
        <ele>103.5</ele>
        <time>2021-05-23T16:35:56Z</time>
      </trkpt>
      <trkpt lat="46.34713" lon="0.21254">
        <ele>103.2</ele>
        <time>2021-05-23T16:35:57Z</time>
      </trkpt>
      <trkpt lat="46.34713" lon="0.21256">
        <ele>102.9</ele>
        <time>2021-05-23T16:35:58Z</time>
      </trkpt>
      <trkpt lat="46.34713" lon="0.21258">
        <ele>102.7</ele>
        <time>2021-05-23T16:35:59Z</time>
      </trkpt>
      <trkpt lat="46.34713" lon="0.21259">
        <ele>102.4</ele>
        <time>2021-05-23T16:36:00Z</time>
      </trkpt>
      <trkpt lat="46.34714" lon="0.21263">
        <ele>102</ele>
        <time>2021-05-23T16:36:02Z</time>
      </trkpt>
      <trkpt lat="46.34715" lon="0.21267">
        <ele>101.5</ele>
        <time>2021-05-23T16:36:04Z</time>
      </trkpt>
      <trkpt lat="46.34715" lon="0.21269">
        <ele>101.4</ele>
        <time>2021-05-23T16:36:05Z</time>
      </trkpt>
      <trkpt lat="46.34715" lon="0.21271">
        <ele>101.1</ele>
        <time>2021-05-23T16:36:06Z</time>
      </trkpt>
      <trkpt lat="46.34716" lon="0.21274">
        <ele>100.9</ele>
        <time>2021-05-23T16:36:07Z</time>
      </trkpt>
      <trkpt lat="46.34716" lon="0.21278">
        <ele>100.6</ele>
        <time>2021-05-23T16:36:08Z</time>
      </trkpt>
      <trkpt lat="46.34716" lon="0.2128">
        <ele>100.5</ele>
        <time>2021-05-23T16:36:10Z</time>
      </trkpt>
      <trkpt lat="46.34716" lon="0.21282">
        <ele>100.3</ele>
        <time>2021-05-23T16:36:11Z</time>
      </trkpt>
      <trkpt lat="46.34716" lon="0.21285">
        <ele>100.2</ele>
        <time>2021-05-23T16:36:12Z</time>
      </trkpt>
      <trkpt lat="46.34716" lon="0.21287">
        <ele>100.1</ele>
        <time>2021-05-23T16:36:13Z</time>
      </trkpt>
      <trkpt lat="46.34716" lon="0.21289">
        <ele>100</ele>
        <time>2021-05-23T16:36:14Z</time>
      </trkpt>
      <trkpt lat="46.34715" lon="0.21291">
        <ele>100</ele>
        <time>2021-05-23T16:36:15Z</time>
      </trkpt>
      <trkpt lat="46.34715" lon="0.21293">
        <ele>99.9</ele>
        <time>2021-05-23T16:36:16Z</time>
      </trkpt>
      <trkpt lat="46.34715" lon="0.21297">
        <ele>99.8</ele>
        <time>2021-05-23T16:36:18Z</time>
      </trkpt>
      <trkpt lat="46.34715" lon="0.21299">
        <ele>99.7</ele>
        <time>2021-05-23T16:36:19Z</time>
      </trkpt>
      <trkpt lat="46.34715" lon="0.21302">
        <ele>99.7</ele>
        <time>2021-05-23T16:36:20Z</time>
      </trkpt>
      <trkpt lat="46.34715" lon="0.21304">
        <ele>99.6</ele>
        <time>2021-05-23T16:36:21Z</time>
      </trkpt>
      <trkpt lat="46.34715" lon="0.21306">
        <ele>99.6</ele>
        <time>2021-05-23T16:36:22Z</time>
      </trkpt>
      <trkpt lat="46.34715" lon="0.21309">
        <ele>99.5</ele>
        <time>2021-05-23T16:36:23Z</time>
      </trkpt>
      <trkpt lat="46.34714" lon="0.21311">
        <ele>99.5</ele>
        <time>2021-05-23T16:36:25Z</time>
      </trkpt>
      <trkpt lat="46.34714" lon="0.21313">
        <ele>99.5</ele>
        <time>2021-05-23T16:36:26Z</time>
      </trkpt>
      <trkpt lat="46.34714" lon="0.21315">
        <ele>99.4</ele>
        <time>2021-05-23T16:36:27Z</time>
      </trkpt>
      <trkpt lat="46.34714" lon="0.21317">
        <ele>99.4</ele>
        <time>2021-05-23T16:36:28Z</time>
      </trkpt>
      <trkpt lat="46.34713" lon="0.21318">
        <ele>99.4</ele>
        <time>2021-05-23T16:36:29Z</time>
      </trkpt>
      <trkpt lat="46.34713" lon="0.21321">
        <ele>99.4</ele>
        <time>2021-05-23T16:36:31Z</time>
      </trkpt>
      <trkpt lat="46.34712" lon="0.21323">
        <ele>99.4</ele>
        <time>2021-05-23T16:36:32Z</time>
      </trkpt>
      <trkpt lat="46.34712" lon="0.21324">
        <ele>99.3</ele>
        <time>2021-05-23T16:36:33Z</time>
      </trkpt>
      <trkpt lat="46.34711" lon="0.21326">
        <ele>99.3</ele>
        <time>2021-05-23T16:36:34Z</time>
      </trkpt>
      <trkpt lat="46.34711" lon="0.21327">
        <ele>99.3</ele>
        <time>2021-05-23T16:36:35Z</time>
      </trkpt>
      <trkpt lat="46.34711" lon="0.21328">
        <ele>99.3</ele>
        <time>2021-05-23T16:36:36Z</time>
      </trkpt>
      <trkpt lat="46.3471" lon="0.2133">
        <ele>99.3</ele>
        <time>2021-05-23T16:36:37Z</time>
      </trkpt>
      <trkpt lat="46.3471" lon="0.21331">
        <ele>99.3</ele>
        <time>2021-05-23T16:36:38Z</time>
      </trkpt>
      <trkpt lat="46.3471" lon="0.21332">
        <ele>99.3</ele>
        <time>2021-05-23T16:36:39Z</time>
      </trkpt>
      <trkpt lat="46.34709" lon="0.21333">
        <ele>99.3</ele>
        <time>2021-05-23T16:36:40Z</time>
      </trkpt>
      <trkpt lat="46.34709" lon="0.21334">
        <ele>99.3</ele>
        <time>2021-05-23T16:36:42Z</time>
      </trkpt>
      <trkpt lat="46.34708" lon="0.21335">
        <ele>99.3</ele>
        <time>2021-05-23T16:36:43Z</time>
      </trkpt>
      <trkpt lat="46.34708" lon="0.21336">
        <ele>99.3</ele>
        <time>2021-05-23T16:36:44Z</time>
      </trkpt>
      <trkpt lat="46.34708" lon="0.21338">
        <ele>99.2</ele>
        <time>2021-05-23T16:36:45Z</time>
      </trkpt>
      <trkpt lat="46.34707" lon="0.21339">
        <ele>99.2</ele>
        <time>2021-05-23T16:36:46Z</time>
      </trkpt>
      <trkpt lat="46.34707" lon="0.2134">
        <ele>99.2</ele>
        <time>2021-05-23T16:36:47Z</time>
      </trkpt>
      <trkpt lat="46.34707" lon="0.21343">
        <ele>99.2</ele>
        <time>2021-05-23T16:36:49Z</time>
      </trkpt>
      <trkpt lat="46.34706" lon="0.21344">
        <ele>99.2</ele>
        <time>2021-05-23T16:36:50Z</time>
      </trkpt>
      <trkpt lat="46.34706" lon="0.21345">
        <ele>99.2</ele>
        <time>2021-05-23T16:36:51Z</time>
      </trkpt>
      <trkpt lat="46.34706" lon="0.21347">
        <ele>99.2</ele>
        <time>2021-05-23T16:36:52Z</time>
      </trkpt>
      <trkpt lat="46.34705" lon="0.21348">
        <ele>99.2</ele>
        <time>2021-05-23T16:36:53Z</time>
      </trkpt>
      <trkpt lat="46.34705" lon="0.2135">
        <ele>99.2</ele>
        <time>2021-05-23T16:36:54Z</time>
      </trkpt>
      <trkpt lat="46.34705" lon="0.21351">
        <ele>99.2</ele>
        <time>2021-05-23T16:36:55Z</time>
      </trkpt>
      <trkpt lat="46.34704" lon="0.21352">
        <ele>99.2</ele>
        <time>2021-05-23T16:36:56Z</time>
      </trkpt>
      <trkpt lat="46.34704" lon="0.21354">
        <ele>99.2</ele>
        <time>2021-05-23T16:36:57Z</time>
      </trkpt>
      <trkpt lat="46.34704" lon="0.21356">
        <ele>99.1</ele>
        <time>2021-05-23T16:36:58Z</time>
      </trkpt>
      <trkpt lat="46.34704" lon="0.21357">
        <ele>99.1</ele>
        <time>2021-05-23T16:37:00Z</time>
      </trkpt>
      <trkpt lat="46.34703" lon="0.2136">
        <ele>99.1</ele>
        <time>2021-05-23T16:37:01Z</time>
      </trkpt>
      <trkpt lat="46.34703" lon="0.21364">
        <ele>99.1</ele>
        <time>2021-05-23T16:37:03Z</time>
      </trkpt>
      <trkpt lat="46.34703" lon="0.21366">
        <ele>99.1</ele>
        <time>2021-05-23T16:37:04Z</time>
      </trkpt>
      <trkpt lat="46.34703" lon="0.21367">
        <ele>99.1</ele>
        <time>2021-05-23T16:37:05Z</time>
      </trkpt>
      <trkpt lat="46.34703" lon="0.21369">
        <ele>99.1</ele>
        <time>2021-05-23T16:37:06Z</time>
      </trkpt>
      <trkpt lat="46.34703" lon="0.21373">
        <ele>99.1</ele>
        <time>2021-05-23T16:37:08Z</time>
      </trkpt>
      <trkpt lat="46.34703" lon="0.21376">
        <ele>99</ele>
        <time>2021-05-23T16:37:09Z</time>
      </trkpt>
      <trkpt lat="46.34703" lon="0.21377">
        <ele>99</ele>
        <time>2021-05-23T16:37:10Z</time>
      </trkpt>
      <trkpt lat="46.34703" lon="0.21379">
        <ele>99</ele>
        <time>2021-05-23T16:37:11Z</time>
      </trkpt>
      <trkpt lat="46.34703" lon="0.21381">
        <ele>99</ele>
        <time>2021-05-23T16:37:12Z</time>
      </trkpt>
      <trkpt lat="46.34703" lon="0.21384">
        <ele>99</ele>
        <time>2021-05-23T16:37:14Z</time>
      </trkpt>
      <trkpt lat="46.34703" lon="0.21385">
        <ele>99</ele>
        <time>2021-05-23T16:37:15Z</time>
      </trkpt>
      <trkpt lat="46.34703" lon="0.21387">
        <ele>99</ele>
        <time>2021-05-23T16:37:16Z</time>
      </trkpt>
      <trkpt lat="46.34703" lon="0.21389">
        <ele>99</ele>
        <time>2021-05-23T16:37:17Z</time>
      </trkpt>
      <trkpt lat="46.34702" lon="0.21392">
        <ele>98.9</ele>
        <time>2021-05-23T16:37:18Z</time>
      </trkpt>
      <trkpt lat="46.34702" lon="0.21393">
        <ele>98.9</ele>
        <time>2021-05-23T16:37:19Z</time>
      </trkpt>
      <trkpt lat="46.34702" lon="0.21395">
        <ele>98.9</ele>
        <time>2021-05-23T16:37:20Z</time>
      </trkpt>
      <trkpt lat="46.34702" lon="0.21397">
        <ele>98.9</ele>
        <time>2021-05-23T16:37:21Z</time>
      </trkpt>
      <trkpt lat="46.34702" lon="0.21401">
        <ele>98.9</ele>
        <time>2021-05-23T16:37:23Z</time>
      </trkpt>
      <trkpt lat="46.34702" lon="0.21404">
        <ele>98.9</ele>
        <time>2021-05-23T16:37:24Z</time>
      </trkpt>
      <trkpt lat="46.34702" lon="0.21406">
        <ele>98.9</ele>
        <time>2021-05-23T16:37:25Z</time>
      </trkpt>
      <trkpt lat="46.34702" lon="0.21408">
        <ele>98.9</ele>
        <time>2021-05-23T16:37:26Z</time>
      </trkpt>
      <trkpt lat="46.34701" lon="0.2141">
        <ele>98.8</ele>
        <time>2021-05-23T16:37:27Z</time>
      </trkpt>
      <trkpt lat="46.34701" lon="0.21412">
        <ele>98.8</ele>
        <time>2021-05-23T16:37:28Z</time>
      </trkpt>
      <trkpt lat="46.34699" lon="0.21414">
        <ele>98.8</ele>
        <time>2021-05-23T16:37:29Z</time>
      </trkpt>
      <trkpt lat="46.34699" lon="0.21416">
        <ele>98.8</ele>
        <time>2021-05-23T16:37:30Z</time>
      </trkpt>
      <trkpt lat="46.34698" lon="0.21417">
        <ele>98.8</ele>
        <time>2021-05-23T16:37:31Z</time>
      </trkpt>
      <trkpt lat="46.34698" lon="0.21419">
        <ele>98.8</ele>
        <time>2021-05-23T16:37:33Z</time>
      </trkpt>
      <trkpt lat="46.34697" lon="0.21422">
        <ele>98.8</ele>
        <time>2021-05-23T16:37:34Z</time>
      </trkpt>
      <trkpt lat="46.34697" lon="0.21422">
        <ele>98.8</ele>
        <time>2021-05-23T16:37:35Z</time>
      </trkpt>
      <trkpt lat="46.34697" lon="0.21423">
        <ele>98.8</ele>
        <time>2021-05-23T16:37:36Z</time>
      </trkpt>
      <trkpt lat="46.34697" lon="0.21425">
        <ele>98.8</ele>
        <time>2021-05-23T16:37:37Z</time>
      </trkpt>
      <trkpt lat="46.34698" lon="0.21426">
        <ele>98.7</ele>
        <time>2021-05-23T16:37:38Z</time>
      </trkpt>
      <trkpt lat="46.34697" lon="0.21427">
        <ele>98.7</ele>
        <time>2021-05-23T16:37:39Z</time>
      </trkpt>
      <trkpt lat="46.34697" lon="0.21428">
        <ele>98.7</ele>
        <time>2021-05-23T16:37:40Z</time>
      </trkpt>
      <trkpt lat="46.34698" lon="0.21429">
        <ele>98.7</ele>
        <time>2021-05-23T16:37:41Z</time>
      </trkpt>
      <trkpt lat="46.34698" lon="0.21429">
        <ele>98.7</ele>
        <time>2021-05-23T16:37:42Z</time>
      </trkpt>
      <trkpt lat="46.34698" lon="0.2143">
        <ele>98.7</ele>
        <time>2021-05-23T16:37:43Z</time>
      </trkpt>
      <trkpt lat="46.34698" lon="0.21431">
        <ele>98.7</ele>
        <time>2021-05-23T16:37:44Z</time>
      </trkpt>
      <trkpt lat="46.34698" lon="0.21432">
        <ele>98.7</ele>
        <time>2021-05-23T16:37:46Z</time>
      </trkpt>
      <trkpt lat="46.34698" lon="0.21432">
        <ele>98.7</ele>
        <time>2021-05-23T16:37:47Z</time>
      </trkpt>
      <trkpt lat="46.34699" lon="0.21433">
        <ele>98.7</ele>
        <time>2021-05-23T16:37:48Z</time>
      </trkpt>
      <trkpt lat="46.34699" lon="0.21434">
        <ele>98.7</ele>
        <time>2021-05-23T16:37:49Z</time>
      </trkpt>
      <trkpt lat="46.34699" lon="0.21435">
        <ele>98.7</ele>
        <time>2021-05-23T16:37:50Z</time>
      </trkpt>
      <trkpt lat="46.347" lon="0.21436">
        <ele>98.7</ele>
        <time>2021-05-23T16:37:51Z</time>
      </trkpt>
      <trkpt lat="46.347" lon="0.21437">
        <ele>98.7</ele>
        <time>2021-05-23T16:37:52Z</time>
      </trkpt>
      <trkpt lat="46.347" lon="0.21439">
        <ele>98.7</ele>
        <time>2021-05-23T16:37:53Z</time>
      </trkpt>
      <trkpt lat="46.34701" lon="0.21441">
        <ele>98.7</ele>
        <time>2021-05-23T16:37:54Z</time>
      </trkpt>
      <trkpt lat="46.34701" lon="0.21442">
        <ele>98.7</ele>
        <time>2021-05-23T16:37:56Z</time>
      </trkpt>
      <trkpt lat="46.34702" lon="0.21444">
        <ele>98.7</ele>
        <time>2021-05-23T16:37:57Z</time>
      </trkpt>
      <trkpt lat="46.34702" lon="0.21445">
        <ele>98.7</ele>
        <time>2021-05-23T16:37:58Z</time>
      </trkpt>
      <trkpt lat="46.34703" lon="0.21446">
        <ele>98.7</ele>
        <time>2021-05-23T16:37:59Z</time>
      </trkpt>
      <trkpt lat="46.34704" lon="0.21448">
        <ele>98.7</ele>
        <time>2021-05-23T16:38:01Z</time>
      </trkpt>
      <trkpt lat="46.34704" lon="0.21449">
        <ele>98.7</ele>
        <time>2021-05-23T16:38:02Z</time>
      </trkpt>
      <trkpt lat="46.34704" lon="0.2145">
        <ele>98.7</ele>
        <time>2021-05-23T16:38:03Z</time>
      </trkpt>
      <trkpt lat="46.34705" lon="0.21451">
        <ele>98.7</ele>
        <time>2021-05-23T16:38:05Z</time>
      </trkpt>
      <trkpt lat="46.34706" lon="0.21452">
        <ele>98.7</ele>
        <time>2021-05-23T16:38:06Z</time>
      </trkpt>
      <trkpt lat="46.34707" lon="0.21455">
        <ele>98.7</ele>
        <time>2021-05-23T16:38:08Z</time>
      </trkpt>
      <trkpt lat="46.34708" lon="0.21457">
        <ele>98.7</ele>
        <time>2021-05-23T16:38:09Z</time>
      </trkpt>
      <trkpt lat="46.34709" lon="0.21458">
        <ele>98.7</ele>
        <time>2021-05-23T16:38:10Z</time>
      </trkpt>
      <trkpt lat="46.3471" lon="0.21459">
        <ele>98.7</ele>
        <time>2021-05-23T16:38:11Z</time>
      </trkpt>
      <trkpt lat="46.34711" lon="0.21461">
        <ele>98.7</ele>
        <time>2021-05-23T16:38:12Z</time>
      </trkpt>
      <trkpt lat="46.34711" lon="0.21462">
        <ele>98.7</ele>
        <time>2021-05-23T16:38:13Z</time>
      </trkpt>
      <trkpt lat="46.34712" lon="0.21465">
        <ele>98.7</ele>
        <time>2021-05-23T16:38:15Z</time>
      </trkpt>
      <trkpt lat="46.34712" lon="0.21466">
        <ele>98.7</ele>
        <time>2021-05-23T16:38:16Z</time>
      </trkpt>
      <trkpt lat="46.34712" lon="0.21468">
        <ele>98.7</ele>
        <time>2021-05-23T16:38:17Z</time>
      </trkpt>
      <trkpt lat="46.34713" lon="0.2147">
        <ele>98.7</ele>
        <time>2021-05-23T16:38:18Z</time>
      </trkpt>
      <trkpt lat="46.34713" lon="0.21472">
        <ele>98.7</ele>
        <time>2021-05-23T16:38:19Z</time>
      </trkpt>
      <trkpt lat="46.34713" lon="0.21474">
        <ele>98.7</ele>
        <time>2021-05-23T16:38:20Z</time>
      </trkpt>
      <trkpt lat="46.34713" lon="0.21476">
        <ele>98.7</ele>
        <time>2021-05-23T16:38:21Z</time>
      </trkpt>
      <trkpt lat="46.34713" lon="0.21479">
        <ele>98.7</ele>
        <time>2021-05-23T16:38:22Z</time>
      </trkpt>
      <trkpt lat="46.34713" lon="0.21481">
        <ele>98.7</ele>
        <time>2021-05-23T16:38:23Z</time>
      </trkpt>
      <trkpt lat="46.34713" lon="0.21482">
        <ele>98.7</ele>
        <time>2021-05-23T16:38:24Z</time>
      </trkpt>
      <trkpt lat="46.34713" lon="0.21485">
        <ele>98.7</ele>
        <time>2021-05-23T16:38:25Z</time>
      </trkpt>
      <trkpt lat="46.34713" lon="0.21487">
        <ele>98.7</ele>
        <time>2021-05-23T16:38:27Z</time>
      </trkpt>
      <trkpt lat="46.34713" lon="0.21489">
        <ele>98.7</ele>
        <time>2021-05-23T16:38:28Z</time>
      </trkpt>
      <trkpt lat="46.34713" lon="0.21492">
        <ele>98.7</ele>
        <time>2021-05-23T16:38:29Z</time>
      </trkpt>
      <trkpt lat="46.34713" lon="0.21493">
        <ele>98.7</ele>
        <time>2021-05-23T16:38:30Z</time>
      </trkpt>
      <trkpt lat="46.34713" lon="0.21495">
        <ele>98.7</ele>
        <time>2021-05-23T16:38:31Z</time>
      </trkpt>
      <trkpt lat="46.34713" lon="0.21496">
        <ele>98.7</ele>
        <time>2021-05-23T16:38:32Z</time>
      </trkpt>
      <trkpt lat="46.34713" lon="0.21498">
        <ele>98.7</ele>
        <time>2021-05-23T16:38:33Z</time>
      </trkpt>
      <trkpt lat="46.34713" lon="0.215">
        <ele>98.6</ele>
        <time>2021-05-23T16:38:35Z</time>
      </trkpt>
      <trkpt lat="46.34713" lon="0.21502">
        <ele>98.6</ele>
        <time>2021-05-23T16:38:36Z</time>
      </trkpt>
      <trkpt lat="46.34713" lon="0.21504">
        <ele>98.6</ele>
        <time>2021-05-23T16:38:37Z</time>
      </trkpt>
      <trkpt lat="46.34713" lon="0.21505">
        <ele>98.6</ele>
        <time>2021-05-23T16:38:38Z</time>
      </trkpt>
      <trkpt lat="46.34713" lon="0.21507">
        <ele>98.6</ele>
        <time>2021-05-23T16:38:39Z</time>
      </trkpt>
      <trkpt lat="46.34712" lon="0.21509">
        <ele>98.6</ele>
        <time>2021-05-23T16:38:40Z</time>
      </trkpt>
      <trkpt lat="46.34712" lon="0.21511">
        <ele>98.6</ele>
        <time>2021-05-23T16:38:42Z</time>
      </trkpt>
      <trkpt lat="46.34712" lon="0.21514">
        <ele>98.6</ele>
        <time>2021-05-23T16:38:43Z</time>
      </trkpt>
      <trkpt lat="46.34711" lon="0.21516">
        <ele>98.6</ele>
        <time>2021-05-23T16:38:44Z</time>
      </trkpt>
      <trkpt lat="46.34711" lon="0.21517">
        <ele>98.6</ele>
        <time>2021-05-23T16:38:45Z</time>
      </trkpt>
      <trkpt lat="46.34711" lon="0.21518">
        <ele>98.6</ele>
        <time>2021-05-23T16:38:46Z</time>
      </trkpt>
      <trkpt lat="46.34711" lon="0.2152">
        <ele>98.6</ele>
        <time>2021-05-23T16:38:47Z</time>
      </trkpt>
      <trkpt lat="46.34711" lon="0.21521">
        <ele>98.6</ele>
        <time>2021-05-23T16:38:48Z</time>
      </trkpt>
      <trkpt lat="46.3471" lon="0.21522">
        <ele>98.6</ele>
        <time>2021-05-23T16:38:49Z</time>
      </trkpt>
      <trkpt lat="46.3471" lon="0.21523">
        <ele>98.6</ele>
        <time>2021-05-23T16:38:50Z</time>
      </trkpt>
      <trkpt lat="46.34709" lon="0.21524">
        <ele>98.6</ele>
        <time>2021-05-23T16:38:52Z</time>
      </trkpt>
      <trkpt lat="46.34709" lon="0.21526">
        <ele>98.6</ele>
        <time>2021-05-23T16:38:54Z</time>
      </trkpt>
      <trkpt lat="46.34708" lon="0.21528">
        <ele>98.6</ele>
        <time>2021-05-23T16:38:55Z</time>
      </trkpt>
      <trkpt lat="46.34708" lon="0.21529">
        <ele>98.6</ele>
        <time>2021-05-23T16:38:56Z</time>
      </trkpt>
      <trkpt lat="46.34707" lon="0.2153">
        <ele>98.6</ele>
        <time>2021-05-23T16:38:57Z</time>
      </trkpt>
      <trkpt lat="46.34707" lon="0.21532">
        <ele>98.6</ele>
        <time>2021-05-23T16:38:59Z</time>
      </trkpt>
      <trkpt lat="46.34707" lon="0.21534">
        <ele>98.6</ele>
        <time>2021-05-23T16:39:00Z</time>
      </trkpt>
      <trkpt lat="46.34707" lon="0.21537">
        <ele>98.6</ele>
        <time>2021-05-23T16:39:02Z</time>
      </trkpt>
      <trkpt lat="46.34708" lon="0.21539">
        <ele>98.6</ele>
        <time>2021-05-23T16:39:03Z</time>
      </trkpt>
      <trkpt lat="46.34708" lon="0.21541">
        <ele>98.6</ele>
        <time>2021-05-23T16:39:04Z</time>
      </trkpt>
      <trkpt lat="46.34708" lon="0.21544">
        <ele>98.6</ele>
        <time>2021-05-23T16:39:05Z</time>
      </trkpt>
      <trkpt lat="46.34708" lon="0.21546">
        <ele>98.6</ele>
        <time>2021-05-23T16:39:06Z</time>
      </trkpt>
      <trkpt lat="46.34708" lon="0.2155">
        <ele>98.6</ele>
        <time>2021-05-23T16:39:07Z</time>
      </trkpt>
      <trkpt lat="46.34708" lon="0.21552">
        <ele>98.6</ele>
        <time>2021-05-23T16:39:09Z</time>
      </trkpt>
      <trkpt lat="46.34708" lon="0.21554">
        <ele>98.6</ele>
        <time>2021-05-23T16:39:10Z</time>
      </trkpt>
      <trkpt lat="46.34708" lon="0.21555">
        <ele>98.6</ele>
        <time>2021-05-23T16:39:11Z</time>
      </trkpt>
      <trkpt lat="46.34708" lon="0.21557">
        <ele>98.6</ele>
        <time>2021-05-23T16:39:12Z</time>
      </trkpt>
      <trkpt lat="46.34708" lon="0.21558">
        <ele>98.6</ele>
        <time>2021-05-23T16:39:13Z</time>
      </trkpt>
      <trkpt lat="46.34708" lon="0.21559">
        <ele>98.6</ele>
        <time>2021-05-23T16:39:14Z</time>
      </trkpt>
      <trkpt lat="46.34708" lon="0.21561">
        <ele>98.6</ele>
        <time>2021-05-23T16:39:15Z</time>
      </trkpt>
      <trkpt lat="46.34708" lon="0.21562">
        <ele>98.6</ele>
        <time>2021-05-23T16:39:16Z</time>
      </trkpt>
      <trkpt lat="46.34708" lon="0.21563">
        <ele>98.6</ele>
        <time>2021-05-23T16:39:17Z</time>
      </trkpt>
      <trkpt lat="46.34708" lon="0.21565">
        <ele>98.6</ele>
        <time>2021-05-23T16:39:18Z</time>
      </trkpt>
      <trkpt lat="46.34709" lon="0.21566">
        <ele>98.6</ele>
        <time>2021-05-23T16:39:20Z</time>
      </trkpt>
      <trkpt lat="46.34709" lon="0.21567">
        <ele>98.6</ele>
        <time>2021-05-23T16:39:21Z</time>
      </trkpt>
      <trkpt lat="46.34709" lon="0.21568">
        <ele>98.6</ele>
        <time>2021-05-23T16:39:22Z</time>
      </trkpt>
      <trkpt lat="46.34709" lon="0.21569">
        <ele>98.6</ele>
        <time>2021-05-23T16:39:23Z</time>
      </trkpt>
      <trkpt lat="46.34709" lon="0.2157">
        <ele>98.6</ele>
        <time>2021-05-23T16:39:24Z</time>
      </trkpt>
      <trkpt lat="46.34709" lon="0.2157">
        <ele>98.6</ele>
        <time>2021-05-23T16:39:25Z</time>
      </trkpt>
      <trkpt lat="46.34709" lon="0.21571">
        <ele>98.6</ele>
        <time>2021-05-23T16:39:26Z</time>
      </trkpt>
      <trkpt lat="46.34709" lon="0.21573">
        <ele>98.6</ele>
        <time>2021-05-23T16:39:28Z</time>
      </trkpt>
      <trkpt lat="46.34708" lon="0.21574">
        <ele>98.6</ele>
        <time>2021-05-23T16:39:29Z</time>
      </trkpt>
      <trkpt lat="46.34708" lon="0.21575">
        <ele>98.6</ele>
        <time>2021-05-23T16:39:30Z</time>
      </trkpt>
      <trkpt lat="46.34708" lon="0.21577">
        <ele>98.6</ele>
        <time>2021-05-23T16:39:31Z</time>
      </trkpt>
      <trkpt lat="46.34708" lon="0.21578">
        <ele>98.7</ele>
        <time>2021-05-23T16:39:32Z</time>
      </trkpt>
      <trkpt lat="46.34707" lon="0.21579">
        <ele>98.7</ele>
        <time>2021-05-23T16:39:33Z</time>
      </trkpt>
      <trkpt lat="46.34707" lon="0.21581">
        <ele>98.7</ele>
        <time>2021-05-23T16:39:34Z</time>
      </trkpt>
      <trkpt lat="46.34707" lon="0.21583">
        <ele>98.7</ele>
        <time>2021-05-23T16:39:35Z</time>
      </trkpt>
      <trkpt lat="46.34706" lon="0.21586">
        <ele>98.7</ele>
        <time>2021-05-23T16:39:36Z</time>
      </trkpt>
      <trkpt lat="46.34705" lon="0.2159">
        <ele>98.7</ele>
        <time>2021-05-23T16:39:37Z</time>
      </trkpt>
      <trkpt lat="46.34705" lon="0.21592">
        <ele>98.8</ele>
        <time>2021-05-23T16:39:38Z</time>
      </trkpt>
      <trkpt lat="46.34705" lon="0.21596">
        <ele>98.8</ele>
        <time>2021-05-23T16:39:40Z</time>
      </trkpt>
      <trkpt lat="46.34705" lon="0.21598">
        <ele>98.8</ele>
        <time>2021-05-23T16:39:41Z</time>
      </trkpt>
      <trkpt lat="46.34705" lon="0.21603">
        <ele>98.9</ele>
        <time>2021-05-23T16:39:42Z</time>
      </trkpt>
      <trkpt lat="46.34705" lon="0.21605">
        <ele>98.9</ele>
        <time>2021-05-23T16:39:43Z</time>
      </trkpt>
      <trkpt lat="46.34705" lon="0.21607">
        <ele>99</ele>
        <time>2021-05-23T16:39:44Z</time>
      </trkpt>
      <trkpt lat="46.34704" lon="0.2161">
        <ele>99</ele>
        <time>2021-05-23T16:39:45Z</time>
      </trkpt>
      <trkpt lat="46.34704" lon="0.21613">
        <ele>99.1</ele>
        <time>2021-05-23T16:39:46Z</time>
      </trkpt>
      <trkpt lat="46.34704" lon="0.21617">
        <ele>99.2</ele>
        <time>2021-05-23T16:39:48Z</time>
      </trkpt>
      <trkpt lat="46.34705" lon="0.21619">
        <ele>99.3</ele>
        <time>2021-05-23T16:39:49Z</time>
      </trkpt>
      <trkpt lat="46.34705" lon="0.21622">
        <ele>99.4</ele>
        <time>2021-05-23T16:39:50Z</time>
      </trkpt>
      <trkpt lat="46.34705" lon="0.21624">
        <ele>99.4</ele>
        <time>2021-05-23T16:39:51Z</time>
      </trkpt>
      <trkpt lat="46.34705" lon="0.21626">
        <ele>99.5</ele>
        <time>2021-05-23T16:39:52Z</time>
      </trkpt>
      <trkpt lat="46.34705" lon="0.21629">
        <ele>99.6</ele>
        <time>2021-05-23T16:39:54Z</time>
      </trkpt>
      <trkpt lat="46.34705" lon="0.21632">
        <ele>99.8</ele>
        <time>2021-05-23T16:39:56Z</time>
      </trkpt>
      <trkpt lat="46.34706" lon="0.21634">
        <ele>99.9</ele>
        <time>2021-05-23T16:39:57Z</time>
      </trkpt>
      <trkpt lat="46.34706" lon="0.21636">
        <ele>100</ele>
        <time>2021-05-23T16:39:58Z</time>
      </trkpt>
      <trkpt lat="46.34706" lon="0.21638">
        <ele>100.1</ele>
        <time>2021-05-23T16:39:59Z</time>
      </trkpt>
      <trkpt lat="46.34707" lon="0.21639">
        <ele>100.2</ele>
        <time>2021-05-23T16:40:00Z</time>
      </trkpt>
      <trkpt lat="46.34707" lon="0.21639">
        <ele>100.3</ele>
        <time>2021-05-23T16:40:02Z</time>
      </trkpt>
      <trkpt lat="46.34707" lon="0.21641">
        <ele>100.3</ele>
        <time>2021-05-23T16:40:03Z</time>
      </trkpt>
      <trkpt lat="46.34708" lon="0.21643">
        <ele>100.5</ele>
        <time>2021-05-23T16:40:04Z</time>
      </trkpt>
      <trkpt lat="46.34709" lon="0.21646">
        <ele>100.8</ele>
        <time>2021-05-23T16:40:06Z</time>
      </trkpt>
      <trkpt lat="46.34711" lon="0.2165">
        <ele>101.1</ele>
        <time>2021-05-23T16:40:07Z</time>
      </trkpt>
      <trkpt lat="46.34711" lon="0.21651">
        <ele>101.2</ele>
        <time>2021-05-23T16:40:08Z</time>
      </trkpt>
      <trkpt lat="46.34713" lon="0.21655">
        <ele>101.6</ele>
        <time>2021-05-23T16:40:10Z</time>
      </trkpt>
      <trkpt lat="46.34713" lon="0.21656">
        <ele>101.7</ele>
        <time>2021-05-23T16:40:11Z</time>
      </trkpt>
      <trkpt lat="46.34713" lon="0.21658">
        <ele>101.8</ele>
        <time>2021-05-23T16:40:12Z</time>
      </trkpt>
      <trkpt lat="46.34714" lon="0.21661">
        <ele>102.1</ele>
        <time>2021-05-23T16:40:14Z</time>
      </trkpt>
      <trkpt lat="46.34715" lon="0.21664">
        <ele>102.3</ele>
        <time>2021-05-23T16:40:15Z</time>
      </trkpt>
      <trkpt lat="46.34715" lon="0.21666">
        <ele>102.4</ele>
        <time>2021-05-23T16:40:16Z</time>
      </trkpt>
      <trkpt lat="46.34715" lon="0.21668">
        <ele>102.6</ele>
        <time>2021-05-23T16:40:17Z</time>
      </trkpt>
      <trkpt lat="46.34715" lon="0.2167">
        <ele>102.8</ele>
        <time>2021-05-23T16:40:18Z</time>
      </trkpt>
      <trkpt lat="46.34716" lon="0.21672">
        <ele>102.9</ele>
        <time>2021-05-23T16:40:19Z</time>
      </trkpt>
      <trkpt lat="46.34716" lon="0.21673">
        <ele>103</ele>
        <time>2021-05-23T16:40:20Z</time>
      </trkpt>
      <trkpt lat="46.34716" lon="0.21675">
        <ele>103.2</ele>
        <time>2021-05-23T16:40:22Z</time>
      </trkpt>
      <trkpt lat="46.34716" lon="0.21677">
        <ele>103.3</ele>
        <time>2021-05-23T16:40:23Z</time>
      </trkpt>
      <trkpt lat="46.34715" lon="0.21678">
        <ele>103.4</ele>
        <time>2021-05-23T16:40:24Z</time>
      </trkpt>
      <trkpt lat="46.34715" lon="0.21679">
        <ele>103.5</ele>
        <time>2021-05-23T16:40:25Z</time>
      </trkpt>
      <trkpt lat="46.34714" lon="0.21681">
        <ele>103.7</ele>
        <time>2021-05-23T16:40:27Z</time>
      </trkpt>
      <trkpt lat="46.34714" lon="0.21682">
        <ele>103.8</ele>
        <time>2021-05-23T16:40:28Z</time>
      </trkpt>
      <trkpt lat="46.34713" lon="0.21683">
        <ele>103.9</ele>
        <time>2021-05-23T16:40:29Z</time>
      </trkpt>
      <trkpt lat="46.34713" lon="0.21685">
        <ele>104</ele>
        <time>2021-05-23T16:40:30Z</time>
      </trkpt>
      <trkpt lat="46.34713" lon="0.21687">
        <ele>104.2</ele>
        <time>2021-05-23T16:40:31Z</time>
      </trkpt>
      <trkpt lat="46.34713" lon="0.21688">
        <ele>104.3</ele>
        <time>2021-05-23T16:40:32Z</time>
      </trkpt>
      <trkpt lat="46.34713" lon="0.21689">
        <ele>104.4</ele>
        <time>2021-05-23T16:40:33Z</time>
      </trkpt>
      <trkpt lat="46.34713" lon="0.21691">
        <ele>104.5</ele>
        <time>2021-05-23T16:40:35Z</time>
      </trkpt>
      <trkpt lat="46.34713" lon="0.21692">
        <ele>104.6</ele>
        <time>2021-05-23T16:40:36Z</time>
      </trkpt>
      <trkpt lat="46.34713" lon="0.21692">
        <ele>104.7</ele>
        <time>2021-05-23T16:40:37Z</time>
      </trkpt>
      <trkpt lat="46.34713" lon="0.21693">
        <ele>104.7</ele>
        <time>2021-05-23T16:40:38Z</time>
      </trkpt>
      <trkpt lat="46.34713" lon="0.21694">
        <ele>104.8</ele>
        <time>2021-05-23T16:40:39Z</time>
      </trkpt>
      <trkpt lat="46.34713" lon="0.21694">
        <ele>104.9</ele>
        <time>2021-05-23T16:40:40Z</time>
      </trkpt>
      <trkpt lat="46.34712" lon="0.21696">
        <ele>105</ele>
        <time>2021-05-23T16:40:42Z</time>
      </trkpt>
      <trkpt lat="46.34712" lon="0.21697">
        <ele>105.1</ele>
        <time>2021-05-23T16:40:43Z</time>
      </trkpt>
      <trkpt lat="46.34712" lon="0.21699">
        <ele>105.3</ele>
        <time>2021-05-23T16:40:44Z</time>
      </trkpt>
      <trkpt lat="46.34712" lon="0.21701">
        <ele>105.4</ele>
        <time>2021-05-23T16:40:45Z</time>
      </trkpt>
      <trkpt lat="46.34712" lon="0.21702">
        <ele>105.6</ele>
        <time>2021-05-23T16:40:46Z</time>
      </trkpt>
      <trkpt lat="46.34713" lon="0.21703">
        <ele>105.5</ele>
        <time>2021-05-23T16:40:48Z</time>
      </trkpt>
      <trkpt lat="46.34713" lon="0.21706">
        <ele>105.5</ele>
        <time>2021-05-23T16:40:49Z</time>
      </trkpt>
      <trkpt lat="46.34713" lon="0.21707">
        <ele>105.5</ele>
        <time>2021-05-23T16:40:50Z</time>
      </trkpt>
      <trkpt lat="46.34713" lon="0.21708">
        <ele>105.5</ele>
        <time>2021-05-23T16:40:51Z</time>
      </trkpt>
      <trkpt lat="46.34714" lon="0.2171">
        <ele>105.5</ele>
        <time>2021-05-23T16:40:53Z</time>
      </trkpt>
      <trkpt lat="46.34714" lon="0.21712">
        <ele>105.5</ele>
        <time>2021-05-23T16:40:54Z</time>
      </trkpt>
      <trkpt lat="46.34714" lon="0.21713">
        <ele>105.5</ele>
        <time>2021-05-23T16:40:55Z</time>
      </trkpt>
      <trkpt lat="46.34715" lon="0.21715">
        <ele>105.5</ele>
        <time>2021-05-23T16:40:56Z</time>
      </trkpt>
      <trkpt lat="46.34715" lon="0.21716">
        <ele>105.5</ele>
        <time>2021-05-23T16:40:57Z</time>
      </trkpt>
      <trkpt lat="46.34715" lon="0.21718">
        <ele>105.5</ele>
        <time>2021-05-23T16:40:58Z</time>
      </trkpt>
      <trkpt lat="46.34716" lon="0.2172">
        <ele>105.4</ele>
        <time>2021-05-23T16:40:59Z</time>
      </trkpt>
      <trkpt lat="46.34716" lon="0.21723">
        <ele>105.4</ele>
        <time>2021-05-23T16:41:01Z</time>
      </trkpt>
      <trkpt lat="46.34717" lon="0.21726">
        <ele>105.4</ele>
        <time>2021-05-23T16:41:02Z</time>
      </trkpt>
      <trkpt lat="46.34717" lon="0.21727">
        <ele>105.4</ele>
        <time>2021-05-23T16:41:03Z</time>
      </trkpt>
      <trkpt lat="46.34718" lon="0.21729">
        <ele>105.4</ele>
        <time>2021-05-23T16:41:04Z</time>
      </trkpt>
      <trkpt lat="46.34718" lon="0.21731">
        <ele>105.4</ele>
        <time>2021-05-23T16:41:05Z</time>
      </trkpt>
      <trkpt lat="46.34719" lon="0.21733">
        <ele>105.4</ele>
        <time>2021-05-23T16:41:07Z</time>
      </trkpt>
      <trkpt lat="46.3472" lon="0.21735">
        <ele>105.4</ele>
        <time>2021-05-23T16:41:08Z</time>
      </trkpt>
      <trkpt lat="46.34721" lon="0.21737">
        <ele>105.4</ele>
        <time>2021-05-23T16:41:09Z</time>
      </trkpt>
      <trkpt lat="46.34723" lon="0.21741">
        <ele>105.4</ele>
        <time>2021-05-23T16:41:10Z</time>
      </trkpt>
      <trkpt lat="46.34723" lon="0.21743">
        <ele>105.3</ele>
        <time>2021-05-23T16:41:12Z</time>
      </trkpt>
      <trkpt lat="46.34724" lon="0.21744">
        <ele>105.3</ele>
        <time>2021-05-23T16:41:13Z</time>
      </trkpt>
      <trkpt lat="46.34725" lon="0.21746">
        <ele>105.3</ele>
        <time>2021-05-23T16:41:14Z</time>
      </trkpt>
      <trkpt lat="46.34725" lon="0.2175">
        <ele>105.3</ele>
        <time>2021-05-23T16:41:15Z</time>
      </trkpt>
      <trkpt lat="46.34725" lon="0.21752">
        <ele>105.3</ele>
        <time>2021-05-23T16:41:17Z</time>
      </trkpt>
      <trkpt lat="46.34726" lon="0.21754">
        <ele>105.3</ele>
        <time>2021-05-23T16:41:18Z</time>
      </trkpt>
      <trkpt lat="46.34726" lon="0.21757">
        <ele>105.3</ele>
        <time>2021-05-23T16:41:19Z</time>
      </trkpt>
      <trkpt lat="46.34726" lon="0.2176">
        <ele>105.2</ele>
        <time>2021-05-23T16:41:21Z</time>
      </trkpt>
      <trkpt lat="46.34726" lon="0.21761">
        <ele>105.2</ele>
        <time>2021-05-23T16:41:22Z</time>
      </trkpt>
      <trkpt lat="46.34726" lon="0.21762">
        <ele>105.2</ele>
        <time>2021-05-23T16:41:23Z</time>
      </trkpt>
      <trkpt lat="46.34726" lon="0.21764">
        <ele>105.2</ele>
        <time>2021-05-23T16:41:24Z</time>
      </trkpt>
      <trkpt lat="46.34726" lon="0.21765">
        <ele>105.2</ele>
        <time>2021-05-23T16:41:26Z</time>
      </trkpt>
      <trkpt lat="46.34726" lon="0.21766">
        <ele>105.2</ele>
        <time>2021-05-23T16:41:27Z</time>
      </trkpt>
      <trkpt lat="46.34726" lon="0.21768">
        <ele>105.2</ele>
        <time>2021-05-23T16:41:28Z</time>
      </trkpt>
      <trkpt lat="46.34727" lon="0.21769">
        <ele>105.2</ele>
        <time>2021-05-23T16:41:29Z</time>
      </trkpt>
      <trkpt lat="46.34727" lon="0.2177">
        <ele>105.2</ele>
        <time>2021-05-23T16:41:30Z</time>
      </trkpt>
      <trkpt lat="46.34728" lon="0.21771">
        <ele>105.2</ele>
        <time>2021-05-23T16:41:31Z</time>
      </trkpt>
      <trkpt lat="46.34729" lon="0.21773">
        <ele>105.2</ele>
        <time>2021-05-23T16:41:33Z</time>
      </trkpt>
      <trkpt lat="46.34729" lon="0.21776">
        <ele>105.2</ele>
        <time>2021-05-23T16:41:34Z</time>
      </trkpt>
      <trkpt lat="46.3473" lon="0.21777">
        <ele>105.2</ele>
        <time>2021-05-23T16:41:36Z</time>
      </trkpt>
      <trkpt lat="46.3473" lon="0.21779">
        <ele>105.2</ele>
        <time>2021-05-23T16:41:37Z</time>
      </trkpt>
      <trkpt lat="46.34729" lon="0.2178">
        <ele>105.2</ele>
        <time>2021-05-23T16:41:38Z</time>
      </trkpt>
      <trkpt lat="46.34729" lon="0.21781">
        <ele>105.1</ele>
        <time>2021-05-23T16:41:39Z</time>
      </trkpt>
      <trkpt lat="46.34729" lon="0.21782">
        <ele>105.1</ele>
        <time>2021-05-23T16:41:40Z</time>
      </trkpt>
      <trkpt lat="46.34729" lon="0.21783">
        <ele>105.1</ele>
        <time>2021-05-23T16:41:41Z</time>
      </trkpt>
      <trkpt lat="46.34729" lon="0.21784">
        <ele>105.1</ele>
        <time>2021-05-23T16:41:42Z</time>
      </trkpt>
      <trkpt lat="46.34729" lon="0.21785">
        <ele>105.1</ele>
        <time>2021-05-23T16:41:43Z</time>
      </trkpt>
      <trkpt lat="46.3473" lon="0.21787">
        <ele>105.1</ele>
        <time>2021-05-23T16:41:45Z</time>
      </trkpt>
      <trkpt lat="46.34731" lon="0.21788">
        <ele>105.1</ele>
        <time>2021-05-23T16:41:46Z</time>
      </trkpt>
      <trkpt lat="46.34732" lon="0.21789">
        <ele>105.1</ele>
        <time>2021-05-23T16:41:47Z</time>
      </trkpt>
      <trkpt lat="46.34733" lon="0.21791">
        <ele>105.1</ele>
        <time>2021-05-23T16:41:48Z</time>
      </trkpt>
      <trkpt lat="46.34735" lon="0.21795">
        <ele>105.1</ele>
        <time>2021-05-23T16:41:50Z</time>
      </trkpt>
      <trkpt lat="46.34736" lon="0.21796">
        <ele>105.1</ele>
        <time>2021-05-23T16:41:51Z</time>
      </trkpt>
      <trkpt lat="46.34737" lon="0.21798">
        <ele>105.1</ele>
        <time>2021-05-23T16:41:52Z</time>
      </trkpt>
      <trkpt lat="46.34738" lon="0.218">
        <ele>105</ele>
        <time>2021-05-23T16:41:53Z</time>
      </trkpt>
      <trkpt lat="46.34739" lon="0.21804">
        <ele>105</ele>
        <time>2021-05-23T16:41:55Z</time>
      </trkpt>
      <trkpt lat="46.34739" lon="0.21806">
        <ele>105</ele>
        <time>2021-05-23T16:41:56Z</time>
      </trkpt>
      <trkpt lat="46.3474" lon="0.21808">
        <ele>105</ele>
        <time>2021-05-23T16:41:57Z</time>
      </trkpt>
      <trkpt lat="46.3474" lon="0.21809">
        <ele>104.9</ele>
        <time>2021-05-23T16:41:58Z</time>
      </trkpt>
      <trkpt lat="46.34741" lon="0.21814">
        <ele>104.9</ele>
        <time>2021-05-23T16:42:00Z</time>
      </trkpt>
      <trkpt lat="46.34742" lon="0.21817">
        <ele>104.9</ele>
        <time>2021-05-23T16:42:01Z</time>
      </trkpt>
      <trkpt lat="46.34742" lon="0.21819">
        <ele>104.8</ele>
        <time>2021-05-23T16:42:02Z</time>
      </trkpt>
      <trkpt lat="46.34744" lon="0.21822">
        <ele>104.8</ele>
        <time>2021-05-23T16:42:03Z</time>
      </trkpt>
      <trkpt lat="46.34744" lon="0.21824">
        <ele>104.8</ele>
        <time>2021-05-23T16:42:04Z</time>
      </trkpt>
      <trkpt lat="46.34745" lon="0.21828">
        <ele>104.8</ele>
        <time>2021-05-23T16:42:05Z</time>
      </trkpt>
      <trkpt lat="46.34745" lon="0.21829">
        <ele>104.8</ele>
        <time>2021-05-23T16:42:06Z</time>
      </trkpt>
      <trkpt lat="46.34746" lon="0.21831">
        <ele>104.8</ele>
        <time>2021-05-23T16:42:07Z</time>
      </trkpt>
      <trkpt lat="46.34747" lon="0.21835">
        <ele>104.7</ele>
        <time>2021-05-23T16:42:09Z</time>
      </trkpt>
      <trkpt lat="46.34748" lon="0.21837">
        <ele>104.7</ele>
        <time>2021-05-23T16:42:10Z</time>
      </trkpt>
      <trkpt lat="46.34748" lon="0.21839">
        <ele>104.7</ele>
        <time>2021-05-23T16:42:11Z</time>
      </trkpt>
      <trkpt lat="46.34747" lon="0.21842">
        <ele>104.7</ele>
        <time>2021-05-23T16:42:12Z</time>
      </trkpt>
      <trkpt lat="46.34746" lon="0.21845">
        <ele>104.7</ele>
        <time>2021-05-23T16:42:14Z</time>
      </trkpt>
      <trkpt lat="46.34746" lon="0.21847">
        <ele>104.7</ele>
        <time>2021-05-23T16:42:15Z</time>
      </trkpt>
      <trkpt lat="46.34745" lon="0.21849">
        <ele>104.7</ele>
        <time>2021-05-23T16:42:16Z</time>
      </trkpt>
      <trkpt lat="46.34745" lon="0.21851">
        <ele>104.7</ele>
        <time>2021-05-23T16:42:17Z</time>
      </trkpt>
      <trkpt lat="46.34744" lon="0.21853">
        <ele>104.7</ele>
        <time>2021-05-23T16:42:18Z</time>
      </trkpt>
      <trkpt lat="46.34744" lon="0.21854">
        <ele>104.7</ele>
        <time>2021-05-23T16:42:19Z</time>
      </trkpt>
      <trkpt lat="46.34743" lon="0.21856">
        <ele>104.7</ele>
        <time>2021-05-23T16:42:21Z</time>
      </trkpt>
      <trkpt lat="46.34743" lon="0.21858">
        <ele>104.7</ele>
        <time>2021-05-23T16:42:22Z</time>
      </trkpt>
      <trkpt lat="46.34744" lon="0.2186">
        <ele>104.7</ele>
        <time>2021-05-23T16:42:23Z</time>
      </trkpt>
      <trkpt lat="46.34744" lon="0.21861">
        <ele>104.7</ele>
        <time>2021-05-23T16:42:24Z</time>
      </trkpt>
      <trkpt lat="46.34744" lon="0.21862">
        <ele>104.7</ele>
        <time>2021-05-23T16:42:26Z</time>
      </trkpt>
      <trkpt lat="46.34744" lon="0.21863">
        <ele>104.7</ele>
        <time>2021-05-23T16:42:27Z</time>
      </trkpt>
      <trkpt lat="46.34745" lon="0.21865">
        <ele>104.7</ele>
        <time>2021-05-23T16:42:28Z</time>
      </trkpt>
      <trkpt lat="46.34745" lon="0.21867">
        <ele>104.7</ele>
        <time>2021-05-23T16:42:29Z</time>
      </trkpt>
      <trkpt lat="46.34746" lon="0.21868">
        <ele>104.6</ele>
        <time>2021-05-23T16:42:30Z</time>
      </trkpt>
      <trkpt lat="46.34747" lon="0.21869">
        <ele>104.6</ele>
        <time>2021-05-23T16:42:31Z</time>
      </trkpt>
      <trkpt lat="46.34748" lon="0.21871">
        <ele>104.6</ele>
        <time>2021-05-23T16:42:32Z</time>
      </trkpt>
      <trkpt lat="46.34748" lon="0.21872">
        <ele>104.6</ele>
        <time>2021-05-23T16:42:34Z</time>
      </trkpt>
      <trkpt lat="46.34749" lon="0.21875">
        <ele>104.6</ele>
        <time>2021-05-23T16:42:35Z</time>
      </trkpt>
      <trkpt lat="46.3475" lon="0.21877">
        <ele>104.6</ele>
        <time>2021-05-23T16:42:36Z</time>
      </trkpt>
      <trkpt lat="46.34752" lon="0.21879">
        <ele>104.6</ele>
        <time>2021-05-23T16:42:37Z</time>
      </trkpt>
      <trkpt lat="46.34753" lon="0.2188">
        <ele>104.5</ele>
        <time>2021-05-23T16:42:38Z</time>
      </trkpt>
      <trkpt lat="46.34754" lon="0.21882">
        <ele>104.5</ele>
        <time>2021-05-23T16:42:39Z</time>
      </trkpt>
      <trkpt lat="46.34755" lon="0.21884">
        <ele>104.5</ele>
        <time>2021-05-23T16:42:40Z</time>
      </trkpt>
      <trkpt lat="46.34756" lon="0.21884">
        <ele>104.5</ele>
        <time>2021-05-23T16:42:41Z</time>
      </trkpt>
      <trkpt lat="46.34757" lon="0.21886">
        <ele>104.5</ele>
        <time>2021-05-23T16:42:42Z</time>
      </trkpt>
      <trkpt lat="46.34757" lon="0.21887">
        <ele>104.5</ele>
        <time>2021-05-23T16:42:43Z</time>
      </trkpt>
      <trkpt lat="46.34758" lon="0.21889">
        <ele>104.5</ele>
        <time>2021-05-23T16:42:45Z</time>
      </trkpt>
      <trkpt lat="46.34758" lon="0.2189">
        <ele>104.5</ele>
        <time>2021-05-23T16:42:46Z</time>
      </trkpt>
      <trkpt lat="46.34758" lon="0.21892">
        <ele>104.4</ele>
        <time>2021-05-23T16:42:47Z</time>
      </trkpt>
      <trkpt lat="46.34759" lon="0.21894">
        <ele>104.4</ele>
        <time>2021-05-23T16:42:48Z</time>
      </trkpt>
      <trkpt lat="46.34759" lon="0.21896">
        <ele>104.4</ele>
        <time>2021-05-23T16:42:49Z</time>
      </trkpt>
      <trkpt lat="46.34759" lon="0.21898">
        <ele>104.4</ele>
        <time>2021-05-23T16:42:50Z</time>
      </trkpt>
      <trkpt lat="46.34758" lon="0.219">
        <ele>104.4</ele>
        <time>2021-05-23T16:42:51Z</time>
      </trkpt>
      <trkpt lat="46.34758" lon="0.21902">
        <ele>104.4</ele>
        <time>2021-05-23T16:42:52Z</time>
      </trkpt>
      <trkpt lat="46.34757" lon="0.21904">
        <ele>104.4</ele>
        <time>2021-05-23T16:42:54Z</time>
      </trkpt>
      <trkpt lat="46.34757" lon="0.21906">
        <ele>104.4</ele>
        <time>2021-05-23T16:42:55Z</time>
      </trkpt>
      <trkpt lat="46.34757" lon="0.21909">
        <ele>104.3</ele>
        <time>2021-05-23T16:42:56Z</time>
      </trkpt>
      <trkpt lat="46.34757" lon="0.21911">
        <ele>104.3</ele>
        <time>2021-05-23T16:42:57Z</time>
      </trkpt>
      <trkpt lat="46.34757" lon="0.21913">
        <ele>104.3</ele>
        <time>2021-05-23T16:42:58Z</time>
      </trkpt>
      <trkpt lat="46.34758" lon="0.21915">
        <ele>104.3</ele>
        <time>2021-05-23T16:42:59Z</time>
      </trkpt>
      <trkpt lat="46.34758" lon="0.21917">
        <ele>104.3</ele>
        <time>2021-05-23T16:43:00Z</time>
      </trkpt>
      <trkpt lat="46.34759" lon="0.21919">
        <ele>104.3</ele>
        <time>2021-05-23T16:43:02Z</time>
      </trkpt>
      <trkpt lat="46.34759" lon="0.21921">
        <ele>104.3</ele>
        <time>2021-05-23T16:43:03Z</time>
      </trkpt>
      <trkpt lat="46.3476" lon="0.21923">
        <ele>104.2</ele>
        <time>2021-05-23T16:43:04Z</time>
      </trkpt>
      <trkpt lat="46.3476" lon="0.21925">
        <ele>104.2</ele>
        <time>2021-05-23T16:43:05Z</time>
      </trkpt>
      <trkpt lat="46.34761" lon="0.21926">
        <ele>104.2</ele>
        <time>2021-05-23T16:43:06Z</time>
      </trkpt>
      <trkpt lat="46.34762" lon="0.21929">
        <ele>104.2</ele>
        <time>2021-05-23T16:43:08Z</time>
      </trkpt>
      <trkpt lat="46.34762" lon="0.2193">
        <ele>104.2</ele>
        <time>2021-05-23T16:43:09Z</time>
      </trkpt>
      <trkpt lat="46.34762" lon="0.21932">
        <ele>104.2</ele>
        <time>2021-05-23T16:43:10Z</time>
      </trkpt>
      <trkpt lat="46.34762" lon="0.21933">
        <ele>104.2</ele>
        <time>2021-05-23T16:43:11Z</time>
      </trkpt>
      <trkpt lat="46.34762" lon="0.21934">
        <ele>104.2</ele>
        <time>2021-05-23T16:43:12Z</time>
      </trkpt>
      <trkpt lat="46.34762" lon="0.21935">
        <ele>104.2</ele>
        <time>2021-05-23T16:43:14Z</time>
      </trkpt>
      <trkpt lat="46.34762" lon="0.21936">
        <ele>104.2</ele>
        <time>2021-05-23T16:43:15Z</time>
      </trkpt>
      <trkpt lat="46.34762" lon="0.21937">
        <ele>104.2</ele>
        <time>2021-05-23T16:43:16Z</time>
      </trkpt>
      <trkpt lat="46.34763" lon="0.21938">
        <ele>104.2</ele>
        <time>2021-05-23T16:43:17Z</time>
      </trkpt>
      <trkpt lat="46.34763" lon="0.21939">
        <ele>104.2</ele>
        <time>2021-05-23T16:43:18Z</time>
      </trkpt>
      <trkpt lat="46.34763" lon="0.21939">
        <ele>104.2</ele>
        <time>2021-05-23T16:43:19Z</time>
      </trkpt>
      <trkpt lat="46.34764" lon="0.21941">
        <ele>104.2</ele>
        <time>2021-05-23T16:43:21Z</time>
      </trkpt>
      <trkpt lat="46.34765" lon="0.21942">
        <ele>104.1</ele>
        <time>2021-05-23T16:43:22Z</time>
      </trkpt>
      <trkpt lat="46.34765" lon="0.21943">
        <ele>104.1</ele>
        <time>2021-05-23T16:43:23Z</time>
      </trkpt>
      <trkpt lat="46.34766" lon="0.21944">
        <ele>104.1</ele>
        <time>2021-05-23T16:43:24Z</time>
      </trkpt>
      <trkpt lat="46.34767" lon="0.21947">
        <ele>104.1</ele>
        <time>2021-05-23T16:43:26Z</time>
      </trkpt>
      <trkpt lat="46.34767" lon="0.21948">
        <ele>104.1</ele>
        <time>2021-05-23T16:43:27Z</time>
      </trkpt>
      <trkpt lat="46.34769" lon="0.21952">
        <ele>104.1</ele>
        <time>2021-05-23T16:43:28Z</time>
      </trkpt>
      <trkpt lat="46.34769" lon="0.21953">
        <ele>104.1</ele>
        <time>2021-05-23T16:43:29Z</time>
      </trkpt>
      <trkpt lat="46.34771" lon="0.21958">
        <ele>104.1</ele>
        <time>2021-05-23T16:43:30Z</time>
      </trkpt>
      <trkpt lat="46.34771" lon="0.21959">
        <ele>104.1</ele>
        <time>2021-05-23T16:43:31Z</time>
      </trkpt>
      <trkpt lat="46.34772" lon="0.21961">
        <ele>104.1</ele>
        <time>2021-05-23T16:43:32Z</time>
      </trkpt>
      <trkpt lat="46.34772" lon="0.21964">
        <ele>104.1</ele>
        <time>2021-05-23T16:43:34Z</time>
      </trkpt>
      <trkpt lat="46.34773" lon="0.21968">
        <ele>104</ele>
        <time>2021-05-23T16:43:36Z</time>
      </trkpt>
      <trkpt lat="46.34774" lon="0.21971">
        <ele>104</ele>
        <time>2021-05-23T16:43:37Z</time>
      </trkpt>
      <trkpt lat="46.34776" lon="0.21974">
        <ele>104</ele>
        <time>2021-05-23T16:43:39Z</time>
      </trkpt>
      <trkpt lat="46.34778" lon="0.21978">
        <ele>103.9</ele>
        <time>2021-05-23T16:43:40Z</time>
      </trkpt>
      <trkpt lat="46.34778" lon="0.21979">
        <ele>103.9</ele>
        <time>2021-05-23T16:43:41Z</time>
      </trkpt>
      <trkpt lat="46.34779" lon="0.21981">
        <ele>103.9</ele>
        <time>2021-05-23T16:43:42Z</time>
      </trkpt>
      <trkpt lat="46.3478" lon="0.21983">
        <ele>103.9</ele>
        <time>2021-05-23T16:43:43Z</time>
      </trkpt>
      <trkpt lat="46.34781" lon="0.21984">
        <ele>103.9</ele>
        <time>2021-05-23T16:43:44Z</time>
      </trkpt>
      <trkpt lat="46.34782" lon="0.21985">
        <ele>103.8</ele>
        <time>2021-05-23T16:43:45Z</time>
      </trkpt>
      <trkpt lat="46.34783" lon="0.21986">
        <ele>103.8</ele>
        <time>2021-05-23T16:43:46Z</time>
      </trkpt>
      <trkpt lat="46.34784" lon="0.21988">
        <ele>103.8</ele>
        <time>2021-05-23T16:43:48Z</time>
      </trkpt>
      <trkpt lat="46.34784" lon="0.21989">
        <ele>103.8</ele>
        <time>2021-05-23T16:43:49Z</time>
      </trkpt>
      <trkpt lat="46.34785" lon="0.2199">
        <ele>103.8</ele>
        <time>2021-05-23T16:43:50Z</time>
      </trkpt>
      <trkpt lat="46.34786" lon="0.21991">
        <ele>103.8</ele>
        <time>2021-05-23T16:43:51Z</time>
      </trkpt>
      <trkpt lat="46.34787" lon="0.21992">
        <ele>103.8</ele>
        <time>2021-05-23T16:43:52Z</time>
      </trkpt>
      <trkpt lat="46.34788" lon="0.21994">
        <ele>103.7</ele>
        <time>2021-05-23T16:43:54Z</time>
      </trkpt>
      <trkpt lat="46.34788" lon="0.21996">
        <ele>103.7</ele>
        <time>2021-05-23T16:43:55Z</time>
      </trkpt>
      <trkpt lat="46.34789" lon="0.21997">
        <ele>103.7</ele>
        <time>2021-05-23T16:43:56Z</time>
      </trkpt>
      <trkpt lat="46.34789" lon="0.21998">
        <ele>103.7</ele>
        <time>2021-05-23T16:43:57Z</time>
      </trkpt>
      <trkpt lat="46.34789" lon="0.21999">
        <ele>103.7</ele>
        <time>2021-05-23T16:43:58Z</time>
      </trkpt>
      <trkpt lat="46.34789" lon="0.22">
        <ele>103.7</ele>
        <time>2021-05-23T16:44:00Z</time>
      </trkpt>
      <trkpt lat="46.34789" lon="0.22002">
        <ele>103.7</ele>
        <time>2021-05-23T16:44:01Z</time>
      </trkpt>
      <trkpt lat="46.3479" lon="0.22004">
        <ele>103.6</ele>
        <time>2021-05-23T16:44:03Z</time>
      </trkpt>
      <trkpt lat="46.3479" lon="0.22006">
        <ele>103.6</ele>
        <time>2021-05-23T16:44:04Z</time>
      </trkpt>
      <trkpt lat="46.3479" lon="0.22008">
        <ele>103.6</ele>
        <time>2021-05-23T16:44:06Z</time>
      </trkpt>
      <trkpt lat="46.34791" lon="0.22009">
        <ele>103.6</ele>
        <time>2021-05-23T16:44:07Z</time>
      </trkpt>
      <trkpt lat="46.34791" lon="0.22011">
        <ele>103.6</ele>
        <time>2021-05-23T16:44:08Z</time>
      </trkpt>
      <trkpt lat="46.34791" lon="0.22013">
        <ele>103.6</ele>
        <time>2021-05-23T16:44:09Z</time>
      </trkpt>
      <trkpt lat="46.34792" lon="0.22015">
        <ele>103.6</ele>
        <time>2021-05-23T16:44:11Z</time>
      </trkpt>
      <trkpt lat="46.34792" lon="0.22017">
        <ele>103.5</ele>
        <time>2021-05-23T16:44:12Z</time>
      </trkpt>
      <trkpt lat="46.34793" lon="0.22019">
        <ele>103.5</ele>
        <time>2021-05-23T16:44:13Z</time>
      </trkpt>
      <trkpt lat="46.34794" lon="0.22021">
        <ele>103.5</ele>
        <time>2021-05-23T16:44:14Z</time>
      </trkpt>
      <trkpt lat="46.34794" lon="0.22023">
        <ele>103.5</ele>
        <time>2021-05-23T16:44:15Z</time>
      </trkpt>
      <trkpt lat="46.34795" lon="0.22024">
        <ele>103.5</ele>
        <time>2021-05-23T16:44:16Z</time>
      </trkpt>
      <trkpt lat="46.34795" lon="0.22026">
        <ele>103.5</ele>
        <time>2021-05-23T16:44:18Z</time>
      </trkpt>
      <trkpt lat="46.34796" lon="0.22028">
        <ele>103.5</ele>
        <time>2021-05-23T16:44:19Z</time>
      </trkpt>
      <trkpt lat="46.34797" lon="0.22029">
        <ele>103.5</ele>
        <time>2021-05-23T16:44:20Z</time>
      </trkpt>
      <trkpt lat="46.34797" lon="0.22031">
        <ele>103.4</ele>
        <time>2021-05-23T16:44:21Z</time>
      </trkpt>
      <trkpt lat="46.34797" lon="0.22032">
        <ele>103.4</ele>
        <time>2021-05-23T16:44:22Z</time>
      </trkpt>
      <trkpt lat="46.34798" lon="0.22034">
        <ele>103.4</ele>
        <time>2021-05-23T16:44:24Z</time>
      </trkpt>
      <trkpt lat="46.34799" lon="0.22036">
        <ele>103.4</ele>
        <time>2021-05-23T16:44:25Z</time>
      </trkpt>
      <trkpt lat="46.34799" lon="0.22038">
        <ele>103.4</ele>
        <time>2021-05-23T16:44:26Z</time>
      </trkpt>
      <trkpt lat="46.348" lon="0.2204">
        <ele>103.4</ele>
        <time>2021-05-23T16:44:27Z</time>
      </trkpt>
      <trkpt lat="46.34801" lon="0.22042">
        <ele>103.4</ele>
        <time>2021-05-23T16:44:28Z</time>
      </trkpt>
      <trkpt lat="46.34802" lon="0.22045">
        <ele>103.4</ele>
        <time>2021-05-23T16:44:29Z</time>
      </trkpt>
      <trkpt lat="46.34802" lon="0.22046">
        <ele>103.4</ele>
        <time>2021-05-23T16:44:30Z</time>
      </trkpt>
      <trkpt lat="46.34803" lon="0.22047">
        <ele>103.4</ele>
        <time>2021-05-23T16:44:32Z</time>
      </trkpt>
      <trkpt lat="46.34803" lon="0.22048">
        <ele>103.4</ele>
        <time>2021-05-23T16:44:33Z</time>
      </trkpt>
      <trkpt lat="46.34804" lon="0.22049">
        <ele>103.4</ele>
        <time>2021-05-23T16:44:34Z</time>
      </trkpt>
      <trkpt lat="46.34805" lon="0.2205">
        <ele>103.4</ele>
        <time>2021-05-23T16:44:35Z</time>
      </trkpt>
      <trkpt lat="46.34805" lon="0.22051">
        <ele>103.4</ele>
        <time>2021-05-23T16:44:36Z</time>
      </trkpt>
      <trkpt lat="46.34806" lon="0.22052">
        <ele>103.3</ele>
        <time>2021-05-23T16:44:37Z</time>
      </trkpt>
      <trkpt lat="46.34807" lon="0.22053">
        <ele>103.3</ele>
        <time>2021-05-23T16:44:38Z</time>
      </trkpt>
      <trkpt lat="46.34808" lon="0.22054">
        <ele>103.3</ele>
        <time>2021-05-23T16:44:40Z</time>
      </trkpt>
      <trkpt lat="46.34809" lon="0.22055">
        <ele>103.3</ele>
        <time>2021-05-23T16:44:41Z</time>
      </trkpt>
      <trkpt lat="46.3481" lon="0.22057">
        <ele>103.3</ele>
        <time>2021-05-23T16:44:42Z</time>
      </trkpt>
      <trkpt lat="46.34811" lon="0.22058">
        <ele>103.3</ele>
        <time>2021-05-23T16:44:43Z</time>
      </trkpt>
      <trkpt lat="46.34811" lon="0.22059">
        <ele>103.3</ele>
        <time>2021-05-23T16:44:44Z</time>
      </trkpt>
      <trkpt lat="46.34811" lon="0.2206">
        <ele>103.3</ele>
        <time>2021-05-23T16:44:45Z</time>
      </trkpt>
      <trkpt lat="46.34812" lon="0.22061">
        <ele>103.3</ele>
        <time>2021-05-23T16:44:47Z</time>
      </trkpt>
      <trkpt lat="46.34812" lon="0.22062">
        <ele>103.3</ele>
        <time>2021-05-23T16:44:48Z</time>
      </trkpt>
      <trkpt lat="46.34812" lon="0.22062">
        <ele>103.3</ele>
        <time>2021-05-23T16:44:50Z</time>
      </trkpt>
      <trkpt lat="46.34812" lon="0.22063">
        <ele>103.3</ele>
        <time>2021-05-23T16:44:51Z</time>
      </trkpt>
      <trkpt lat="46.34812" lon="0.22063">
        <ele>103.3</ele>
        <time>2021-05-23T16:44:52Z</time>
      </trkpt>
      <trkpt lat="46.34812" lon="0.22064">
        <ele>103.3</ele>
        <time>2021-05-23T16:44:54Z</time>
      </trkpt>
      <trkpt lat="46.34813" lon="0.22064">
        <ele>103.3</ele>
        <time>2021-05-23T16:44:55Z</time>
      </trkpt>
      <trkpt lat="46.34813" lon="0.22064">
        <ele>103.3</ele>
        <time>2021-05-23T16:44:57Z</time>
      </trkpt>
      <trkpt lat="46.34813" lon="0.22064">
        <ele>103.3</ele>
        <time>2021-05-23T16:44:59Z</time>
      </trkpt>
      <trkpt lat="46.34813" lon="0.22064">
        <ele>103.3</ele>
        <time>2021-05-23T16:45:00Z</time>
      </trkpt>
      <trkpt lat="46.34813" lon="0.22064">
        <ele>103.3</ele>
        <time>2021-05-23T16:45:01Z</time>
      </trkpt>
      <trkpt lat="46.34813" lon="0.22065">
        <ele>103.2</ele>
        <time>2021-05-23T16:45:03Z</time>
      </trkpt>
      <trkpt lat="46.34814" lon="0.22067">
        <ele>103.2</ele>
        <time>2021-05-23T16:45:04Z</time>
      </trkpt>
      <trkpt lat="46.34815" lon="0.22069">
        <ele>103.2</ele>
        <time>2021-05-23T16:45:05Z</time>
      </trkpt>
      <trkpt lat="46.34816" lon="0.22071">
        <ele>103.2</ele>
        <time>2021-05-23T16:45:06Z</time>
      </trkpt>
      <trkpt lat="46.34817" lon="0.22073">
        <ele>103.2</ele>
        <time>2021-05-23T16:45:07Z</time>
      </trkpt>
      <trkpt lat="46.34818" lon="0.22075">
        <ele>103.2</ele>
        <time>2021-05-23T16:45:08Z</time>
      </trkpt>
      <trkpt lat="46.34818" lon="0.22077">
        <ele>103.2</ele>
        <time>2021-05-23T16:45:09Z</time>
      </trkpt>
      <trkpt lat="46.34819" lon="0.2208">
        <ele>103.2</ele>
        <time>2021-05-23T16:45:11Z</time>
      </trkpt>
      <trkpt lat="46.3482" lon="0.22081">
        <ele>103.2</ele>
        <time>2021-05-23T16:45:12Z</time>
      </trkpt>
      <trkpt lat="46.34821" lon="0.22083">
        <ele>103.2</ele>
        <time>2021-05-23T16:45:13Z</time>
      </trkpt>
      <trkpt lat="46.34823" lon="0.22084">
        <ele>103.1</ele>
        <time>2021-05-23T16:45:14Z</time>
      </trkpt>
      <trkpt lat="46.34824" lon="0.22085">
        <ele>103.1</ele>
        <time>2021-05-23T16:45:15Z</time>
      </trkpt>
      <trkpt lat="46.34825" lon="0.22085">
        <ele>103.1</ele>
        <time>2021-05-23T16:45:16Z</time>
      </trkpt>
      <trkpt lat="46.34826" lon="0.22085">
        <ele>103.1</ele>
        <time>2021-05-23T16:45:17Z</time>
      </trkpt>
      <trkpt lat="46.34828" lon="0.22085">
        <ele>103.1</ele>
        <time>2021-05-23T16:45:19Z</time>
      </trkpt>
      <trkpt lat="46.34829" lon="0.22085">
        <ele>103.1</ele>
        <time>2021-05-23T16:45:20Z</time>
      </trkpt>
      <trkpt lat="46.34829" lon="0.22086">
        <ele>103.1</ele>
        <time>2021-05-23T16:45:21Z</time>
      </trkpt>
      <trkpt lat="46.34828" lon="0.22088">
        <ele>103.1</ele>
        <time>2021-05-23T16:45:23Z</time>
      </trkpt>
      <trkpt lat="46.34828" lon="0.22089">
        <ele>103.1</ele>
        <time>2021-05-23T16:45:24Z</time>
      </trkpt>
      <trkpt lat="46.34828" lon="0.2209">
        <ele>103.1</ele>
        <time>2021-05-23T16:45:26Z</time>
      </trkpt>
      <trkpt lat="46.34829" lon="0.2209">
        <ele>103.1</ele>
        <time>2021-05-23T16:45:28Z</time>
      </trkpt>
      <trkpt lat="46.34829" lon="0.2209">
        <ele>103.1</ele>
        <time>2021-05-23T16:45:30Z</time>
      </trkpt>
      <trkpt lat="46.34829" lon="0.22091">
        <ele>103.1</ele>
        <time>2021-05-23T16:45:32Z</time>
      </trkpt>
      <trkpt lat="46.34829" lon="0.22092">
        <ele>103.1</ele>
        <time>2021-05-23T16:45:34Z</time>
      </trkpt>
      <trkpt lat="46.34829" lon="0.22093">
        <ele>103.1</ele>
        <time>2021-05-23T16:45:35Z</time>
      </trkpt>
      <trkpt lat="46.34829" lon="0.22093">
        <ele>103.1</ele>
        <time>2021-05-23T16:45:37Z</time>
      </trkpt>
      <trkpt lat="46.34829" lon="0.22094">
        <ele>103.1</ele>
        <time>2021-05-23T16:45:38Z</time>
      </trkpt>
      <trkpt lat="46.34829" lon="0.22094">
        <ele>103.1</ele>
        <time>2021-05-23T16:45:39Z</time>
      </trkpt>
      <trkpt lat="46.34829" lon="0.22094">
        <ele>103.1</ele>
        <time>2021-05-23T16:45:41Z</time>
      </trkpt>
      <trkpt lat="46.34829" lon="0.22095">
        <ele>103.1</ele>
        <time>2021-05-23T16:45:42Z</time>
      </trkpt>
      <trkpt lat="46.3483" lon="0.22096">
        <ele>103</ele>
        <time>2021-05-23T16:45:43Z</time>
      </trkpt>
      <trkpt lat="46.3483" lon="0.22097">
        <ele>103</ele>
        <time>2021-05-23T16:45:44Z</time>
      </trkpt>
      <trkpt lat="46.3483" lon="0.22098">
        <ele>103</ele>
        <time>2021-05-23T16:45:45Z</time>
      </trkpt>
      <trkpt lat="46.3483" lon="0.22099">
        <ele>103</ele>
        <time>2021-05-23T16:45:46Z</time>
      </trkpt>
      <trkpt lat="46.34831" lon="0.221">
        <ele>103</ele>
        <time>2021-05-23T16:45:48Z</time>
      </trkpt>
      <trkpt lat="46.34832" lon="0.22101">
        <ele>103</ele>
        <time>2021-05-23T16:45:49Z</time>
      </trkpt>
      <trkpt lat="46.34833" lon="0.22105">
        <ele>103</ele>
        <time>2021-05-23T16:45:50Z</time>
      </trkpt>
      <trkpt lat="46.34834" lon="0.22106">
        <ele>103</ele>
        <time>2021-05-23T16:45:52Z</time>
      </trkpt>
      <trkpt lat="46.34835" lon="0.22107">
        <ele>103</ele>
        <time>2021-05-23T16:45:53Z</time>
      </trkpt>
      <trkpt lat="46.34836" lon="0.22109">
        <ele>103</ele>
        <time>2021-05-23T16:45:54Z</time>
      </trkpt>
      <trkpt lat="46.34836" lon="0.2211">
        <ele>103</ele>
        <time>2021-05-23T16:45:55Z</time>
      </trkpt>
      <trkpt lat="46.34837" lon="0.22111">
        <ele>102.9</ele>
        <time>2021-05-23T16:45:56Z</time>
      </trkpt>
      <trkpt lat="46.34838" lon="0.22112">
        <ele>102.9</ele>
        <time>2021-05-23T16:45:57Z</time>
      </trkpt>
      <trkpt lat="46.34839" lon="0.22114">
        <ele>102.9</ele>
        <time>2021-05-23T16:45:58Z</time>
      </trkpt>
      <trkpt lat="46.3484" lon="0.22116">
        <ele>102.9</ele>
        <time>2021-05-23T16:45:59Z</time>
      </trkpt>
      <trkpt lat="46.34841" lon="0.22117">
        <ele>102.9</ele>
        <time>2021-05-23T16:46:00Z</time>
      </trkpt>
      <trkpt lat="46.34842" lon="0.22117">
        <ele>102.9</ele>
        <time>2021-05-23T16:46:01Z</time>
      </trkpt>
      <trkpt lat="46.34843" lon="0.22119">
        <ele>102.9</ele>
        <time>2021-05-23T16:46:03Z</time>
      </trkpt>
      <trkpt lat="46.34844" lon="0.2212">
        <ele>102.9</ele>
        <time>2021-05-23T16:46:04Z</time>
      </trkpt>
      <trkpt lat="46.34844" lon="0.22121">
        <ele>102.9</ele>
        <time>2021-05-23T16:46:05Z</time>
      </trkpt>
      <trkpt lat="46.34845" lon="0.22122">
        <ele>102.9</ele>
        <time>2021-05-23T16:46:06Z</time>
      </trkpt>
      <trkpt lat="46.34847" lon="0.22124">
        <ele>102.9</ele>
        <time>2021-05-23T16:46:08Z</time>
      </trkpt>
      <trkpt lat="46.34848" lon="0.22126">
        <ele>102.8</ele>
        <time>2021-05-23T16:46:09Z</time>
      </trkpt>
      <trkpt lat="46.34849" lon="0.22127">
        <ele>102.8</ele>
        <time>2021-05-23T16:46:10Z</time>
      </trkpt>
      <trkpt lat="46.34849" lon="0.22128">
        <ele>102.8</ele>
        <time>2021-05-23T16:46:11Z</time>
      </trkpt>
      <trkpt lat="46.34849" lon="0.22128">
        <ele>102.8</ele>
        <time>2021-05-23T16:46:13Z</time>
      </trkpt>
      <trkpt lat="46.3485" lon="0.22129">
        <ele>102.8</ele>
        <time>2021-05-23T16:46:14Z</time>
      </trkpt>
      <trkpt lat="46.34851" lon="0.2213">
        <ele>102.8</ele>
        <time>2021-05-23T16:46:15Z</time>
      </trkpt>
      <trkpt lat="46.34852" lon="0.22132">
        <ele>102.8</ele>
        <time>2021-05-23T16:46:17Z</time>
      </trkpt>
      <trkpt lat="46.34853" lon="0.22133">
        <ele>102.8</ele>
        <time>2021-05-23T16:46:18Z</time>
      </trkpt>
      <trkpt lat="46.34854" lon="0.22135">
        <ele>102.8</ele>
        <time>2021-05-23T16:46:19Z</time>
      </trkpt>
      <trkpt lat="46.34857" lon="0.22138">
        <ele>102.8</ele>
        <time>2021-05-23T16:46:21Z</time>
      </trkpt>
      <trkpt lat="46.34857" lon="0.22139">
        <ele>102.8</ele>
        <time>2021-05-23T16:46:22Z</time>
      </trkpt>
      <trkpt lat="46.34858" lon="0.2214">
        <ele>102.8</ele>
        <time>2021-05-23T16:46:23Z</time>
      </trkpt>
      <trkpt lat="46.34859" lon="0.22142">
        <ele>102.8</ele>
        <time>2021-05-23T16:46:24Z</time>
      </trkpt>
      <trkpt lat="46.3486" lon="0.22145">
        <ele>102.7</ele>
        <time>2021-05-23T16:46:25Z</time>
      </trkpt>
      <trkpt lat="46.34861" lon="0.22146">
        <ele>102.7</ele>
        <time>2021-05-23T16:46:26Z</time>
      </trkpt>
      <trkpt lat="46.34862" lon="0.22148">
        <ele>102.7</ele>
        <time>2021-05-23T16:46:28Z</time>
      </trkpt>
      <trkpt lat="46.34862" lon="0.2215">
        <ele>102.7</ele>
        <time>2021-05-23T16:46:29Z</time>
      </trkpt>
      <trkpt lat="46.34863" lon="0.22153">
        <ele>102.7</ele>
        <time>2021-05-23T16:46:30Z</time>
      </trkpt>
      <trkpt lat="46.34864" lon="0.22154">
        <ele>102.7</ele>
        <time>2021-05-23T16:46:31Z</time>
      </trkpt>
      <trkpt lat="46.34864" lon="0.22155">
        <ele>102.7</ele>
        <time>2021-05-23T16:46:32Z</time>
      </trkpt>
      <trkpt lat="46.34865" lon="0.22157">
        <ele>102.7</ele>
        <time>2021-05-23T16:46:33Z</time>
      </trkpt>
      <trkpt lat="46.34866" lon="0.2216">
        <ele>102.6</ele>
        <time>2021-05-23T16:46:35Z</time>
      </trkpt>
      <trkpt lat="46.34866" lon="0.22161">
        <ele>102.6</ele>
        <time>2021-05-23T16:46:36Z</time>
      </trkpt>
      <trkpt lat="46.34867" lon="0.22162">
        <ele>102.6</ele>
        <time>2021-05-23T16:46:37Z</time>
      </trkpt>
      <trkpt lat="46.34868" lon="0.22163">
        <ele>102.6</ele>
        <time>2021-05-23T16:46:38Z</time>
      </trkpt>
      <trkpt lat="46.34868" lon="0.22164">
        <ele>102.6</ele>
        <time>2021-05-23T16:46:40Z</time>
      </trkpt>
      <trkpt lat="46.34869" lon="0.22166">
        <ele>102.6</ele>
        <time>2021-05-23T16:46:41Z</time>
      </trkpt>
      <trkpt lat="46.3487" lon="0.22166">
        <ele>102.6</ele>
        <time>2021-05-23T16:46:42Z</time>
      </trkpt>
      <trkpt lat="46.3487" lon="0.22167">
        <ele>102.6</ele>
        <time>2021-05-23T16:46:43Z</time>
      </trkpt>
      <trkpt lat="46.34871" lon="0.22168">
        <ele>102.6</ele>
        <time>2021-05-23T16:46:44Z</time>
      </trkpt>
      <trkpt lat="46.34872" lon="0.2217">
        <ele>102.5</ele>
        <time>2021-05-23T16:46:45Z</time>
      </trkpt>
      <trkpt lat="46.34872" lon="0.22171">
        <ele>102.5</ele>
        <time>2021-05-23T16:46:46Z</time>
      </trkpt>
      <trkpt lat="46.34873" lon="0.22171">
        <ele>102.5</ele>
        <time>2021-05-23T16:46:47Z</time>
      </trkpt>
      <trkpt lat="46.34873" lon="0.22171">
        <ele>102.5</ele>
        <time>2021-05-23T16:46:48Z</time>
      </trkpt>
      <trkpt lat="46.34873" lon="0.22172">
        <ele>102.5</ele>
        <time>2021-05-23T16:46:49Z</time>
      </trkpt>
      <trkpt lat="46.34874" lon="0.22173">
        <ele>102.5</ele>
        <time>2021-05-23T16:46:50Z</time>
      </trkpt>
      <trkpt lat="46.34875" lon="0.22173">
        <ele>102.5</ele>
        <time>2021-05-23T16:46:51Z</time>
      </trkpt>
      <trkpt lat="46.34876" lon="0.22175">
        <ele>102.5</ele>
        <time>2021-05-23T16:46:53Z</time>
      </trkpt>
      <trkpt lat="46.34877" lon="0.22177">
        <ele>102.5</ele>
        <time>2021-05-23T16:46:54Z</time>
      </trkpt>
      <trkpt lat="46.34879" lon="0.22181">
        <ele>102.5</ele>
        <time>2021-05-23T16:46:55Z</time>
      </trkpt>
      <trkpt lat="46.34879" lon="0.22182">
        <ele>102.5</ele>
        <time>2021-05-23T16:46:56Z</time>
      </trkpt>
      <trkpt lat="46.3488" lon="0.22183">
        <ele>102.5</ele>
        <time>2021-05-23T16:46:57Z</time>
      </trkpt>
      <trkpt lat="46.34882" lon="0.22184">
        <ele>102.4</ele>
        <time>2021-05-23T16:46:59Z</time>
      </trkpt>
      <trkpt lat="46.34883" lon="0.22186">
        <ele>102.4</ele>
        <time>2021-05-23T16:47:00Z</time>
      </trkpt>
      <trkpt lat="46.34885" lon="0.22187">
        <ele>102.4</ele>
        <time>2021-05-23T16:47:01Z</time>
      </trkpt>
      <trkpt lat="46.34886" lon="0.22189">
        <ele>102.4</ele>
        <time>2021-05-23T16:47:02Z</time>
      </trkpt>
      <trkpt lat="46.34887" lon="0.2219">
        <ele>102.4</ele>
        <time>2021-05-23T16:47:03Z</time>
      </trkpt>
      <trkpt lat="46.34888" lon="0.2219">
        <ele>102.4</ele>
        <time>2021-05-23T16:47:04Z</time>
      </trkpt>
      <trkpt lat="46.34889" lon="0.22192">
        <ele>102.4</ele>
        <time>2021-05-23T16:47:06Z</time>
      </trkpt>
      <trkpt lat="46.3489" lon="0.22194">
        <ele>102.3</ele>
        <time>2021-05-23T16:47:07Z</time>
      </trkpt>
      <trkpt lat="46.3489" lon="0.22195">
        <ele>102.3</ele>
        <time>2021-05-23T16:47:08Z</time>
      </trkpt>
      <trkpt lat="46.3489" lon="0.22196">
        <ele>102.3</ele>
        <time>2021-05-23T16:47:09Z</time>
      </trkpt>
      <trkpt lat="46.34891" lon="0.22197">
        <ele>102.3</ele>
        <time>2021-05-23T16:47:10Z</time>
      </trkpt>
      <trkpt lat="46.34892" lon="0.222">
        <ele>102.3</ele>
        <time>2021-05-23T16:47:12Z</time>
      </trkpt>
      <trkpt lat="46.34893" lon="0.22201">
        <ele>102.3</ele>
        <time>2021-05-23T16:47:13Z</time>
      </trkpt>
      <trkpt lat="46.34893" lon="0.22202">
        <ele>102.3</ele>
        <time>2021-05-23T16:47:14Z</time>
      </trkpt>
      <trkpt lat="46.34894" lon="0.22203">
        <ele>102.3</ele>
        <time>2021-05-23T16:47:15Z</time>
      </trkpt>
      <trkpt lat="46.34895" lon="0.22204">
        <ele>102.3</ele>
        <time>2021-05-23T16:47:16Z</time>
      </trkpt>
      <trkpt lat="46.34896" lon="0.22207">
        <ele>102.3</ele>
        <time>2021-05-23T16:47:17Z</time>
      </trkpt>
      <trkpt lat="46.34896" lon="0.22207">
        <ele>102.3</ele>
        <time>2021-05-23T16:47:18Z</time>
      </trkpt>
      <trkpt lat="46.34896" lon="0.22208">
        <ele>102.3</ele>
        <time>2021-05-23T16:47:19Z</time>
      </trkpt>
      <trkpt lat="46.34897" lon="0.2221">
        <ele>102.2</ele>
        <time>2021-05-23T16:47:20Z</time>
      </trkpt>
      <trkpt lat="46.34898" lon="0.2221">
        <ele>102.2</ele>
        <time>2021-05-23T16:47:22Z</time>
      </trkpt>
      <trkpt lat="46.34898" lon="0.22211">
        <ele>102.2</ele>
        <time>2021-05-23T16:47:23Z</time>
      </trkpt>
      <trkpt lat="46.34898" lon="0.22212">
        <ele>102.2</ele>
        <time>2021-05-23T16:47:24Z</time>
      </trkpt>
      <trkpt lat="46.34899" lon="0.22214">
        <ele>102.2</ele>
        <time>2021-05-23T16:47:25Z</time>
      </trkpt>
      <trkpt lat="46.349" lon="0.22216">
        <ele>102.2</ele>
        <time>2021-05-23T16:47:27Z</time>
      </trkpt>
      <trkpt lat="46.34901" lon="0.22218">
        <ele>102.2</ele>
        <time>2021-05-23T16:47:28Z</time>
      </trkpt>
      <trkpt lat="46.34902" lon="0.2222">
        <ele>102.2</ele>
        <time>2021-05-23T16:47:29Z</time>
      </trkpt>
      <trkpt lat="46.34903" lon="0.22222">
        <ele>102.2</ele>
        <time>2021-05-23T16:47:30Z</time>
      </trkpt>
      <trkpt lat="46.34904" lon="0.22223">
        <ele>102.2</ele>
        <time>2021-05-23T16:47:31Z</time>
      </trkpt>
      <trkpt lat="46.34905" lon="0.22225">
        <ele>102.2</ele>
        <time>2021-05-23T16:47:32Z</time>
      </trkpt>
      <trkpt lat="46.34906" lon="0.22227">
        <ele>102.1</ele>
        <time>2021-05-23T16:47:33Z</time>
      </trkpt>
      <trkpt lat="46.34907" lon="0.22229">
        <ele>102.1</ele>
        <time>2021-05-23T16:47:34Z</time>
      </trkpt>
      <trkpt lat="46.34908" lon="0.2223">
        <ele>102.1</ele>
        <time>2021-05-23T16:47:35Z</time>
      </trkpt>
      <trkpt lat="46.34908" lon="0.22231">
        <ele>102.1</ele>
        <time>2021-05-23T16:47:36Z</time>
      </trkpt>
      <trkpt lat="46.34909" lon="0.22233">
        <ele>102.1</ele>
        <time>2021-05-23T16:47:37Z</time>
      </trkpt>
      <trkpt lat="46.3491" lon="0.22234">
        <ele>102.1</ele>
        <time>2021-05-23T16:47:39Z</time>
      </trkpt>
      <trkpt lat="46.34911" lon="0.22235">
        <ele>102.1</ele>
        <time>2021-05-23T16:47:40Z</time>
      </trkpt>
      <trkpt lat="46.34912" lon="0.22236">
        <ele>102.1</ele>
        <time>2021-05-23T16:47:41Z</time>
      </trkpt>
      <trkpt lat="46.34913" lon="0.22237">
        <ele>102.1</ele>
        <time>2021-05-23T16:47:42Z</time>
      </trkpt>
      <trkpt lat="46.34914" lon="0.22239">
        <ele>102.1</ele>
        <time>2021-05-23T16:47:43Z</time>
      </trkpt>
      <trkpt lat="46.34915" lon="0.22242">
        <ele>102.1</ele>
        <time>2021-05-23T16:47:45Z</time>
      </trkpt>
      <trkpt lat="46.34916" lon="0.22243">
        <ele>102.1</ele>
        <time>2021-05-23T16:47:46Z</time>
      </trkpt>
      <trkpt lat="46.34917" lon="0.22245">
        <ele>102.1</ele>
        <time>2021-05-23T16:47:47Z</time>
      </trkpt>
      <trkpt lat="46.34918" lon="0.22249">
        <ele>102</ele>
        <time>2021-05-23T16:47:49Z</time>
      </trkpt>
      <trkpt lat="46.34919" lon="0.2225">
        <ele>102</ele>
        <time>2021-05-23T16:47:50Z</time>
      </trkpt>
      <trkpt lat="46.34919" lon="0.22251">
        <ele>102</ele>
        <time>2021-05-23T16:47:51Z</time>
      </trkpt>
      <trkpt lat="46.3492" lon="0.22254">
        <ele>102</ele>
        <time>2021-05-23T16:47:53Z</time>
      </trkpt>
      <trkpt lat="46.34921" lon="0.22255">
        <ele>102</ele>
        <time>2021-05-23T16:47:54Z</time>
      </trkpt>
      <trkpt lat="46.34922" lon="0.22256">
        <ele>101.9</ele>
        <time>2021-05-23T16:47:55Z</time>
      </trkpt>
      <trkpt lat="46.34923" lon="0.22258">
        <ele>101.9</ele>
        <time>2021-05-23T16:47:56Z</time>
      </trkpt>
      <trkpt lat="46.34924" lon="0.2226">
        <ele>101.9</ele>
        <time>2021-05-23T16:47:58Z</time>
      </trkpt>
      <trkpt lat="46.34925" lon="0.22261">
        <ele>101.9</ele>
        <time>2021-05-23T16:47:59Z</time>
      </trkpt>
      <trkpt lat="46.34926" lon="0.22262">
        <ele>101.9</ele>
        <time>2021-05-23T16:48:00Z</time>
      </trkpt>
      <trkpt lat="46.34927" lon="0.22264">
        <ele>101.9</ele>
        <time>2021-05-23T16:48:01Z</time>
      </trkpt>
      <trkpt lat="46.34928" lon="0.22265">
        <ele>101.8</ele>
        <time>2021-05-23T16:48:03Z</time>
      </trkpt>
      <trkpt lat="46.34928" lon="0.22266">
        <ele>101.8</ele>
        <time>2021-05-23T16:48:04Z</time>
      </trkpt>
      <trkpt lat="46.34929" lon="0.22267">
        <ele>101.8</ele>
        <time>2021-05-23T16:48:05Z</time>
      </trkpt>
      <trkpt lat="46.3493" lon="0.22269">
        <ele>101.8</ele>
        <time>2021-05-23T16:48:06Z</time>
      </trkpt>
      <trkpt lat="46.34931" lon="0.22271">
        <ele>101.8</ele>
        <time>2021-05-23T16:48:07Z</time>
      </trkpt>
      <trkpt lat="46.34932" lon="0.22273">
        <ele>101.8</ele>
        <time>2021-05-23T16:48:08Z</time>
      </trkpt>
      <trkpt lat="46.34933" lon="0.22277">
        <ele>101.7</ele>
        <time>2021-05-23T16:48:09Z</time>
      </trkpt>
      <trkpt lat="46.34934" lon="0.22278">
        <ele>101.7</ele>
        <time>2021-05-23T16:48:10Z</time>
      </trkpt>
      <trkpt lat="46.34935" lon="0.22281">
        <ele>101.7</ele>
        <time>2021-05-23T16:48:11Z</time>
      </trkpt>
      <trkpt lat="46.34936" lon="0.22284">
        <ele>101.7</ele>
        <time>2021-05-23T16:48:13Z</time>
      </trkpt>
      <trkpt lat="46.34938" lon="0.22287">
        <ele>101.7</ele>
        <time>2021-05-23T16:48:14Z</time>
      </trkpt>
      <trkpt lat="46.34938" lon="0.22288">
        <ele>101.7</ele>
        <time>2021-05-23T16:48:15Z</time>
      </trkpt>
      <trkpt lat="46.34939" lon="0.2229">
        <ele>101.7</ele>
        <time>2021-05-23T16:48:16Z</time>
      </trkpt>
      <trkpt lat="46.34939" lon="0.22292">
        <ele>101.7</ele>
        <time>2021-05-23T16:48:17Z</time>
      </trkpt>
      <trkpt lat="46.3494" lon="0.22293">
        <ele>101.7</ele>
        <time>2021-05-23T16:48:18Z</time>
      </trkpt>
      <trkpt lat="46.3494" lon="0.22294">
        <ele>101.7</ele>
        <time>2021-05-23T16:48:19Z</time>
      </trkpt>
      <trkpt lat="46.34941" lon="0.22296">
        <ele>101.7</ele>
        <time>2021-05-23T16:48:21Z</time>
      </trkpt>
      <trkpt lat="46.34942" lon="0.22297">
        <ele>101.7</ele>
        <time>2021-05-23T16:48:22Z</time>
      </trkpt>
      <trkpt lat="46.34942" lon="0.22298">
        <ele>101.7</ele>
        <time>2021-05-23T16:48:23Z</time>
      </trkpt>
      <trkpt lat="46.34943" lon="0.22301">
        <ele>101.7</ele>
        <time>2021-05-23T16:48:25Z</time>
      </trkpt>
      <trkpt lat="46.34944" lon="0.22304">
        <ele>101.7</ele>
        <time>2021-05-23T16:48:26Z</time>
      </trkpt>
      <trkpt lat="46.34945" lon="0.22305">
        <ele>101.7</ele>
        <time>2021-05-23T16:48:27Z</time>
      </trkpt>
      <trkpt lat="46.34946" lon="0.22307">
        <ele>101.7</ele>
        <time>2021-05-23T16:48:28Z</time>
      </trkpt>
      <trkpt lat="46.34947" lon="0.22308">
        <ele>101.7</ele>
        <time>2021-05-23T16:48:29Z</time>
      </trkpt>
      <trkpt lat="46.34947" lon="0.22309">
        <ele>101.7</ele>
        <time>2021-05-23T16:48:30Z</time>
      </trkpt>
      <trkpt lat="46.34949" lon="0.22313">
        <ele>101.7</ele>
        <time>2021-05-23T16:48:32Z</time>
      </trkpt>
      <trkpt lat="46.34949" lon="0.22314">
        <ele>101.7</ele>
        <time>2021-05-23T16:48:33Z</time>
      </trkpt>
      <trkpt lat="46.3495" lon="0.22316">
        <ele>101.7</ele>
        <time>2021-05-23T16:48:34Z</time>
      </trkpt>
      <trkpt lat="46.34951" lon="0.22317">
        <ele>101.7</ele>
        <time>2021-05-23T16:48:35Z</time>
      </trkpt>
      <trkpt lat="46.34952" lon="0.2232">
        <ele>101.7</ele>
        <time>2021-05-23T16:48:36Z</time>
      </trkpt>
      <trkpt lat="46.34952" lon="0.22321">
        <ele>101.7</ele>
        <time>2021-05-23T16:48:37Z</time>
      </trkpt>
      <trkpt lat="46.34953" lon="0.22322">
        <ele>101.7</ele>
        <time>2021-05-23T16:48:38Z</time>
      </trkpt>
      <trkpt lat="46.34953" lon="0.22323">
        <ele>101.7</ele>
        <time>2021-05-23T16:48:39Z</time>
      </trkpt>
      <trkpt lat="46.34954" lon="0.22325">
        <ele>101.7</ele>
        <time>2021-05-23T16:48:41Z</time>
      </trkpt>
      <trkpt lat="46.34955" lon="0.22326">
        <ele>101.7</ele>
        <time>2021-05-23T16:48:42Z</time>
      </trkpt>
      <trkpt lat="46.34955" lon="0.22327">
        <ele>101.7</ele>
        <time>2021-05-23T16:48:43Z</time>
      </trkpt>
      <trkpt lat="46.34956" lon="0.22329">
        <ele>101.7</ele>
        <time>2021-05-23T16:48:44Z</time>
      </trkpt>
      <trkpt lat="46.34956" lon="0.2233">
        <ele>101.7</ele>
        <time>2021-05-23T16:48:45Z</time>
      </trkpt>
      <trkpt lat="46.34957" lon="0.22331">
        <ele>101.7</ele>
        <time>2021-05-23T16:48:47Z</time>
      </trkpt>
      <trkpt lat="46.34957" lon="0.22332">
        <ele>101.7</ele>
        <time>2021-05-23T16:48:48Z</time>
      </trkpt>
      <trkpt lat="46.34957" lon="0.22333">
        <ele>101.7</ele>
        <time>2021-05-23T16:48:49Z</time>
      </trkpt>
      <trkpt lat="46.34957" lon="0.22333">
        <ele>101.7</ele>
        <time>2021-05-23T16:48:50Z</time>
      </trkpt>
      <trkpt lat="46.34958" lon="0.22333">
        <ele>101.7</ele>
        <time>2021-05-23T16:48:51Z</time>
      </trkpt>
      <trkpt lat="46.34958" lon="0.22333">
        <ele>101.7</ele>
        <time>2021-05-23T16:48:52Z</time>
      </trkpt>
      <trkpt lat="46.34959" lon="0.22334">
        <ele>101.7</ele>
        <time>2021-05-23T16:48:53Z</time>
      </trkpt>
      <trkpt lat="46.3496" lon="0.22335">
        <ele>101.7</ele>
        <time>2021-05-23T16:48:55Z</time>
      </trkpt>
      <trkpt lat="46.34961" lon="0.22337">
        <ele>101.7</ele>
        <time>2021-05-23T16:48:56Z</time>
      </trkpt>
      <trkpt lat="46.34961" lon="0.22337">
        <ele>101.7</ele>
        <time>2021-05-23T16:48:57Z</time>
      </trkpt>
      <trkpt lat="46.34962" lon="0.22339">
        <ele>101.7</ele>
        <time>2021-05-23T16:48:59Z</time>
      </trkpt>
      <trkpt lat="46.34963" lon="0.22341">
        <ele>101.7</ele>
        <time>2021-05-23T16:49:00Z</time>
      </trkpt>
      <trkpt lat="46.34964" lon="0.22343">
        <ele>101.7</ele>
        <time>2021-05-23T16:49:01Z</time>
      </trkpt>
      <trkpt lat="46.34964" lon="0.22344">
        <ele>101.8</ele>
        <time>2021-05-23T16:49:02Z</time>
      </trkpt>
      <trkpt lat="46.34965" lon="0.22346">
        <ele>101.8</ele>
        <time>2021-05-23T16:49:04Z</time>
      </trkpt>
      <trkpt lat="46.34965" lon="0.22347">
        <ele>101.8</ele>
        <time>2021-05-23T16:49:05Z</time>
      </trkpt>
      <trkpt lat="46.34966" lon="0.22349">
        <ele>101.8</ele>
        <time>2021-05-23T16:49:06Z</time>
      </trkpt>
      <trkpt lat="46.34967" lon="0.22351">
        <ele>101.8</ele>
        <time>2021-05-23T16:49:08Z</time>
      </trkpt>
      <trkpt lat="46.34967" lon="0.22353">
        <ele>101.9</ele>
        <time>2021-05-23T16:49:09Z</time>
      </trkpt>
      <trkpt lat="46.34968" lon="0.22356">
        <ele>101.9</ele>
        <time>2021-05-23T16:49:11Z</time>
      </trkpt>
      <trkpt lat="46.34969" lon="0.22357">
        <ele>101.9</ele>
        <time>2021-05-23T16:49:13Z</time>
      </trkpt>
      <trkpt lat="46.34969" lon="0.22359">
        <ele>102</ele>
        <time>2021-05-23T16:49:14Z</time>
      </trkpt>
      <trkpt lat="46.34969" lon="0.2236">
        <ele>102</ele>
        <time>2021-05-23T16:49:15Z</time>
      </trkpt>
      <trkpt lat="46.34969" lon="0.22361">
        <ele>102</ele>
        <time>2021-05-23T16:49:17Z</time>
      </trkpt>
      <trkpt lat="46.34969" lon="0.2236">
        <ele>102</ele>
        <time>2021-05-23T16:49:18Z</time>
      </trkpt>
      <trkpt lat="46.34969" lon="0.2236">
        <ele>102</ele>
        <time>2021-05-23T16:49:19Z</time>
      </trkpt>
      <trkpt lat="46.34969" lon="0.22359">
        <ele>102.1</ele>
        <time>2021-05-23T16:49:21Z</time>
      </trkpt>
      <trkpt lat="46.3497" lon="0.22359">
        <ele>102.1</ele>
        <time>2021-05-23T16:49:22Z</time>
      </trkpt>
      <trkpt lat="46.34971" lon="0.22359">
        <ele>102.1</ele>
        <time>2021-05-23T16:49:24Z</time>
      </trkpt>
      <trkpt lat="46.34971" lon="0.22359">
        <ele>102.1</ele>
        <time>2021-05-23T16:49:25Z</time>
      </trkpt>
      <trkpt lat="46.34973" lon="0.22359">
        <ele>102.2</ele>
        <time>2021-05-23T16:49:26Z</time>
      </trkpt>
      <trkpt lat="46.34974" lon="0.2236">
        <ele>102.2</ele>
        <time>2021-05-23T16:49:27Z</time>
      </trkpt>
      <trkpt lat="46.34975" lon="0.22361">
        <ele>102.3</ele>
        <time>2021-05-23T16:49:29Z</time>
      </trkpt>
      <trkpt lat="46.34976" lon="0.22361">
        <ele>102.3</ele>
        <time>2021-05-23T16:49:30Z</time>
      </trkpt>
      <trkpt lat="46.34979" lon="0.22362">
        <ele>102.3</ele>
        <time>2021-05-23T16:49:31Z</time>
      </trkpt>
      <trkpt lat="46.3498" lon="0.22362">
        <ele>102.3</ele>
        <time>2021-05-23T16:49:33Z</time>
      </trkpt>
      <trkpt lat="46.34981" lon="0.22362">
        <ele>102.2</ele>
        <time>2021-05-23T16:49:34Z</time>
      </trkpt>
      <trkpt lat="46.34982" lon="0.22363">
        <ele>102.2</ele>
        <time>2021-05-23T16:49:35Z</time>
      </trkpt>
      <trkpt lat="46.34983" lon="0.22363">
        <ele>102.2</ele>
        <time>2021-05-23T16:49:36Z</time>
      </trkpt>
      <trkpt lat="46.34984" lon="0.22363">
        <ele>102.1</ele>
        <time>2021-05-23T16:49:37Z</time>
      </trkpt>
      <trkpt lat="46.34985" lon="0.22363">
        <ele>102.1</ele>
        <time>2021-05-23T16:49:38Z</time>
      </trkpt>
      <trkpt lat="46.34986" lon="0.22363">
        <ele>102.1</ele>
        <time>2021-05-23T16:49:39Z</time>
      </trkpt>
      <trkpt lat="46.34987" lon="0.22363">
        <ele>102</ele>
        <time>2021-05-23T16:49:40Z</time>
      </trkpt>
      <trkpt lat="46.34989" lon="0.22363">
        <ele>102</ele>
        <time>2021-05-23T16:49:41Z</time>
      </trkpt>
      <trkpt lat="46.3499" lon="0.22363">
        <ele>102</ele>
        <time>2021-05-23T16:49:42Z</time>
      </trkpt>
      <trkpt lat="46.34991" lon="0.22364">
        <ele>101.9</ele>
        <time>2021-05-23T16:49:43Z</time>
      </trkpt>
      <trkpt lat="46.34992" lon="0.22364">
        <ele>101.9</ele>
        <time>2021-05-23T16:49:45Z</time>
      </trkpt>
      <trkpt lat="46.34993" lon="0.22365">
        <ele>101.9</ele>
        <time>2021-05-23T16:49:46Z</time>
      </trkpt>
      <trkpt lat="46.34994" lon="0.22365">
        <ele>101.8</ele>
        <time>2021-05-23T16:49:47Z</time>
      </trkpt>
      <trkpt lat="46.34995" lon="0.22366">
        <ele>101.8</ele>
        <time>2021-05-23T16:49:48Z</time>
      </trkpt>
      <trkpt lat="46.34996" lon="0.22366">
        <ele>101.8</ele>
        <time>2021-05-23T16:49:49Z</time>
      </trkpt>
      <trkpt lat="46.34997" lon="0.22366">
        <ele>101.8</ele>
        <time>2021-05-23T16:49:51Z</time>
      </trkpt>
      <trkpt lat="46.34998" lon="0.22366">
        <ele>101.7</ele>
        <time>2021-05-23T16:49:52Z</time>
      </trkpt>
      <trkpt lat="46.34999" lon="0.22366">
        <ele>101.7</ele>
        <time>2021-05-23T16:49:53Z</time>
      </trkpt>
      <trkpt lat="46.35001" lon="0.22366">
        <ele>101.7</ele>
        <time>2021-05-23T16:49:54Z</time>
      </trkpt>
      <trkpt lat="46.35003" lon="0.22366">
        <ele>101.6</ele>
        <time>2021-05-23T16:49:55Z</time>
      </trkpt>
      <trkpt lat="46.35005" lon="0.22365">
        <ele>101.6</ele>
        <time>2021-05-23T16:49:56Z</time>
      </trkpt>
      <trkpt lat="46.35006" lon="0.22364">
        <ele>101.6</ele>
        <time>2021-05-23T16:49:57Z</time>
      </trkpt>
      <trkpt lat="46.35008" lon="0.22363">
        <ele>101.5</ele>
        <time>2021-05-23T16:49:58Z</time>
      </trkpt>
      <trkpt lat="46.35009" lon="0.22362">
        <ele>101.5</ele>
        <time>2021-05-23T16:49:59Z</time>
      </trkpt>
      <trkpt lat="46.35011" lon="0.22361">
        <ele>101.5</ele>
        <time>2021-05-23T16:50:00Z</time>
      </trkpt>
      <trkpt lat="46.35012" lon="0.2236">
        <ele>101.5</ele>
        <time>2021-05-23T16:50:02Z</time>
      </trkpt>
      <trkpt lat="46.35014" lon="0.22359">
        <ele>101.5</ele>
        <time>2021-05-23T16:50:03Z</time>
      </trkpt>
      <trkpt lat="46.35015" lon="0.22357">
        <ele>101.4</ele>
        <time>2021-05-23T16:50:04Z</time>
      </trkpt>
      <trkpt lat="46.35018" lon="0.22355">
        <ele>101.4</ele>
        <time>2021-05-23T16:50:05Z</time>
      </trkpt>
      <trkpt lat="46.35019" lon="0.22354">
        <ele>101.4</ele>
        <time>2021-05-23T16:50:06Z</time>
      </trkpt>
      <trkpt lat="46.3502" lon="0.22352">
        <ele>101.4</ele>
        <time>2021-05-23T16:50:08Z</time>
      </trkpt>
      <trkpt lat="46.35021" lon="0.22351">
        <ele>101.4</ele>
        <time>2021-05-23T16:50:09Z</time>
      </trkpt>
      <trkpt lat="46.35024" lon="0.22348">
        <ele>101.3</ele>
        <time>2021-05-23T16:50:10Z</time>
      </trkpt>
      <trkpt lat="46.35025" lon="0.22347">
        <ele>101.3</ele>
        <time>2021-05-23T16:50:11Z</time>
      </trkpt>
      <trkpt lat="46.35026" lon="0.22345">
        <ele>101.3</ele>
        <time>2021-05-23T16:50:13Z</time>
      </trkpt>
      <trkpt lat="46.35028" lon="0.22344">
        <ele>101.3</ele>
        <time>2021-05-23T16:50:14Z</time>
      </trkpt>
      <trkpt lat="46.35029" lon="0.22343">
        <ele>101.3</ele>
        <time>2021-05-23T16:50:15Z</time>
      </trkpt>
      <trkpt lat="46.35031" lon="0.22341">
        <ele>101.3</ele>
        <time>2021-05-23T16:50:16Z</time>
      </trkpt>
      <trkpt lat="46.35032" lon="0.2234">
        <ele>101.3</ele>
        <time>2021-05-23T16:50:17Z</time>
      </trkpt>
      <trkpt lat="46.35033" lon="0.2234">
        <ele>101.3</ele>
        <time>2021-05-23T16:50:19Z</time>
      </trkpt>
      <trkpt lat="46.35034" lon="0.22339">
        <ele>101.3</ele>
        <time>2021-05-23T16:50:20Z</time>
      </trkpt>
      <trkpt lat="46.35036" lon="0.22338">
        <ele>101.3</ele>
        <time>2021-05-23T16:50:22Z</time>
      </trkpt>
      <trkpt lat="46.35037" lon="0.22337">
        <ele>101.3</ele>
        <time>2021-05-23T16:50:23Z</time>
      </trkpt>
      <trkpt lat="46.35039" lon="0.22336">
        <ele>101.3</ele>
        <time>2021-05-23T16:50:24Z</time>
      </trkpt>
      <trkpt lat="46.35039" lon="0.22336">
        <ele>101.3</ele>
        <time>2021-05-23T16:50:25Z</time>
      </trkpt>
      <trkpt lat="46.3504" lon="0.22338">
        <ele>101.3</ele>
        <time>2021-05-23T16:50:27Z</time>
      </trkpt>
      <trkpt lat="46.35041" lon="0.22338">
        <ele>101.3</ele>
        <time>2021-05-23T16:50:28Z</time>
      </trkpt>
      <trkpt lat="46.35041" lon="0.22337">
        <ele>101.3</ele>
        <time>2021-05-23T16:50:30Z</time>
      </trkpt>
      <trkpt lat="46.35041" lon="0.22335">
        <ele>101.3</ele>
        <time>2021-05-23T16:50:31Z</time>
      </trkpt>
      <trkpt lat="46.35042" lon="0.22334">
        <ele>101.3</ele>
        <time>2021-05-23T16:50:32Z</time>
      </trkpt>
      <trkpt lat="46.35042" lon="0.22333">
        <ele>101.3</ele>
        <time>2021-05-23T16:50:33Z</time>
      </trkpt>
      <trkpt lat="46.35043" lon="0.22333">
        <ele>101.3</ele>
        <time>2021-05-23T16:50:34Z</time>
      </trkpt>
      <trkpt lat="46.35043" lon="0.22332">
        <ele>101.3</ele>
        <time>2021-05-23T16:50:35Z</time>
      </trkpt>
      <trkpt lat="46.35044" lon="0.22331">
        <ele>101.3</ele>
        <time>2021-05-23T16:50:36Z</time>
      </trkpt>
      <trkpt lat="46.35045" lon="0.22331">
        <ele>101.3</ele>
        <time>2021-05-23T16:50:37Z</time>
      </trkpt>
      <trkpt lat="46.35045" lon="0.2233">
        <ele>101.3</ele>
        <time>2021-05-23T16:50:39Z</time>
      </trkpt>
      <trkpt lat="46.35046" lon="0.22329">
        <ele>101.3</ele>
        <time>2021-05-23T16:50:40Z</time>
      </trkpt>
      <trkpt lat="46.35047" lon="0.22329">
        <ele>101.3</ele>
        <time>2021-05-23T16:50:41Z</time>
      </trkpt>
      <trkpt lat="46.35048" lon="0.22328">
        <ele>101.3</ele>
        <time>2021-05-23T16:50:42Z</time>
      </trkpt>
      <trkpt lat="46.35049" lon="0.22328">
        <ele>101.3</ele>
        <time>2021-05-23T16:50:43Z</time>
      </trkpt>
      <trkpt lat="46.35049" lon="0.22327">
        <ele>101.3</ele>
        <time>2021-05-23T16:50:44Z</time>
      </trkpt>
      <trkpt lat="46.3505" lon="0.22327">
        <ele>101.3</ele>
        <time>2021-05-23T16:50:45Z</time>
      </trkpt>
      <trkpt lat="46.3505" lon="0.22327">
        <ele>101.3</ele>
        <time>2021-05-23T16:50:46Z</time>
      </trkpt>
      <trkpt lat="46.35051" lon="0.22326">
        <ele>101.3</ele>
        <time>2021-05-23T16:50:48Z</time>
      </trkpt>
      <trkpt lat="46.35051" lon="0.22326">
        <ele>101.3</ele>
        <time>2021-05-23T16:50:49Z</time>
      </trkpt>
      <trkpt lat="46.35052" lon="0.22325">
        <ele>101.3</ele>
        <time>2021-05-23T16:50:50Z</time>
      </trkpt>
      <trkpt lat="46.35054" lon="0.22323">
        <ele>101.3</ele>
        <time>2021-05-23T16:50:51Z</time>
      </trkpt>
      <trkpt lat="46.35055" lon="0.22321">
        <ele>101.4</ele>
        <time>2021-05-23T16:50:53Z</time>
      </trkpt>
      <trkpt lat="46.35056" lon="0.22319">
        <ele>101.4</ele>
        <time>2021-05-23T16:50:54Z</time>
      </trkpt>
      <trkpt lat="46.35057" lon="0.22318">
        <ele>101.4</ele>
        <time>2021-05-23T16:50:55Z</time>
      </trkpt>
      <trkpt lat="46.35058" lon="0.22316">
        <ele>101.4</ele>
        <time>2021-05-23T16:50:57Z</time>
      </trkpt>
      <trkpt lat="46.35059" lon="0.22315">
        <ele>101.4</ele>
        <time>2021-05-23T16:50:58Z</time>
      </trkpt>
      <trkpt lat="46.3506" lon="0.22314">
        <ele>101.4</ele>
        <time>2021-05-23T16:50:59Z</time>
      </trkpt>
      <trkpt lat="46.35062" lon="0.22312">
        <ele>101.4</ele>
        <time>2021-05-23T16:51:00Z</time>
      </trkpt>
      <trkpt lat="46.35063" lon="0.22311">
        <ele>101.4</ele>
        <time>2021-05-23T16:51:01Z</time>
      </trkpt>
      <trkpt lat="46.35064" lon="0.2231">
        <ele>101.4</ele>
        <time>2021-05-23T16:51:02Z</time>
      </trkpt>
      <trkpt lat="46.35065" lon="0.22309">
        <ele>101.4</ele>
        <time>2021-05-23T16:51:04Z</time>
      </trkpt>
      <trkpt lat="46.35066" lon="0.22308">
        <ele>101.4</ele>
        <time>2021-05-23T16:51:05Z</time>
      </trkpt>
      <trkpt lat="46.35067" lon="0.22307">
        <ele>101.5</ele>
        <time>2021-05-23T16:51:06Z</time>
      </trkpt>
      <trkpt lat="46.35068" lon="0.22306">
        <ele>101.5</ele>
        <time>2021-05-23T16:51:07Z</time>
      </trkpt>
      <trkpt lat="46.35069" lon="0.22305">
        <ele>101.5</ele>
        <time>2021-05-23T16:51:09Z</time>
      </trkpt>
      <trkpt lat="46.3507" lon="0.22304">
        <ele>101.5</ele>
        <time>2021-05-23T16:51:10Z</time>
      </trkpt>
      <trkpt lat="46.35072" lon="0.22305">
        <ele>101.5</ele>
        <time>2021-05-23T16:51:12Z</time>
      </trkpt>
      <trkpt lat="46.35072" lon="0.22305">
        <ele>101.5</ele>
        <time>2021-05-23T16:51:13Z</time>
      </trkpt>
      <trkpt lat="46.35072" lon="0.22306">
        <ele>101.5</ele>
        <time>2021-05-23T16:51:15Z</time>
      </trkpt>
      <trkpt lat="46.35072" lon="0.22306">
        <ele>101.5</ele>
        <time>2021-05-23T16:51:16Z</time>
      </trkpt>
      <trkpt lat="46.35072" lon="0.22306">
        <ele>101.5</ele>
        <time>2021-05-23T16:51:17Z</time>
      </trkpt>
      <trkpt lat="46.35071" lon="0.22304">
        <ele>101.5</ele>
        <time>2021-05-23T16:51:19Z</time>
      </trkpt>
      <trkpt lat="46.35071" lon="0.22303">
        <ele>101.5</ele>
        <time>2021-05-23T16:51:20Z</time>
      </trkpt>
      <trkpt lat="46.35072" lon="0.22301">
        <ele>101.6</ele>
        <time>2021-05-23T16:51:21Z</time>
      </trkpt>
      <trkpt lat="46.35072" lon="0.223">
        <ele>101.6</ele>
        <time>2021-05-23T16:51:23Z</time>
      </trkpt>
      <trkpt lat="46.35073" lon="0.22299">
        <ele>101.6</ele>
        <time>2021-05-23T16:51:24Z</time>
      </trkpt>
      <trkpt lat="46.35074" lon="0.22298">
        <ele>101.6</ele>
        <time>2021-05-23T16:51:25Z</time>
      </trkpt>
      <trkpt lat="46.35076" lon="0.22296">
        <ele>101.6</ele>
        <time>2021-05-23T16:51:27Z</time>
      </trkpt>
      <trkpt lat="46.35077" lon="0.22294">
        <ele>101.7</ele>
        <time>2021-05-23T16:51:28Z</time>
      </trkpt>
      <trkpt lat="46.35078" lon="0.22293">
        <ele>101.7</ele>
        <time>2021-05-23T16:51:29Z</time>
      </trkpt>
      <trkpt lat="46.3508" lon="0.22291">
        <ele>101.7</ele>
        <time>2021-05-23T16:51:30Z</time>
      </trkpt>
      <trkpt lat="46.35081" lon="0.2229">
        <ele>101.7</ele>
        <time>2021-05-23T16:51:31Z</time>
      </trkpt>
      <trkpt lat="46.35082" lon="0.22289">
        <ele>101.8</ele>
        <time>2021-05-23T16:51:32Z</time>
      </trkpt>
      <trkpt lat="46.35084" lon="0.22288">
        <ele>101.8</ele>
        <time>2021-05-23T16:51:33Z</time>
      </trkpt>
      <trkpt lat="46.35085" lon="0.22287">
        <ele>101.8</ele>
        <time>2021-05-23T16:51:35Z</time>
      </trkpt>
      <trkpt lat="46.35087" lon="0.22285">
        <ele>101.9</ele>
        <time>2021-05-23T16:51:36Z</time>
      </trkpt>
      <trkpt lat="46.35089" lon="0.22283">
        <ele>101.9</ele>
        <time>2021-05-23T16:51:37Z</time>
      </trkpt>
      <trkpt lat="46.3509" lon="0.22282">
        <ele>102</ele>
        <time>2021-05-23T16:51:38Z</time>
      </trkpt>
      <trkpt lat="46.35091" lon="0.22281">
        <ele>102</ele>
        <time>2021-05-23T16:51:39Z</time>
      </trkpt>
      <trkpt lat="46.35092" lon="0.22279">
        <ele>102</ele>
        <time>2021-05-23T16:51:41Z</time>
      </trkpt>
      <trkpt lat="46.35094" lon="0.22277">
        <ele>102.1</ele>
        <time>2021-05-23T16:51:42Z</time>
      </trkpt>
      <trkpt lat="46.35095" lon="0.22277">
        <ele>102.1</ele>
        <time>2021-05-23T16:51:43Z</time>
      </trkpt>
      <trkpt lat="46.35096" lon="0.22275">
        <ele>102.2</ele>
        <time>2021-05-23T16:51:44Z</time>
      </trkpt>
      <trkpt lat="46.35097" lon="0.22274">
        <ele>102.2</ele>
        <time>2021-05-23T16:51:45Z</time>
      </trkpt>
      <trkpt lat="46.351" lon="0.22272">
        <ele>102.2</ele>
        <time>2021-05-23T16:51:46Z</time>
      </trkpt>
      <trkpt lat="46.35101" lon="0.22272">
        <ele>102.3</ele>
        <time>2021-05-23T16:51:48Z</time>
      </trkpt>
      <trkpt lat="46.35102" lon="0.22271">
        <ele>102.3</ele>
        <time>2021-05-23T16:51:49Z</time>
      </trkpt>
      <trkpt lat="46.35103" lon="0.2227">
        <ele>102.3</ele>
        <time>2021-05-23T16:51:50Z</time>
      </trkpt>
      <trkpt lat="46.35103" lon="0.2227">
        <ele>102.3</ele>
        <time>2021-05-23T16:51:51Z</time>
      </trkpt>
      <trkpt lat="46.35105" lon="0.22269">
        <ele>102.4</ele>
        <time>2021-05-23T16:51:52Z</time>
      </trkpt>
      <trkpt lat="46.35106" lon="0.2227">
        <ele>102.4</ele>
        <time>2021-05-23T16:51:54Z</time>
      </trkpt>
      <trkpt lat="46.35106" lon="0.2227">
        <ele>102.4</ele>
        <time>2021-05-23T16:51:55Z</time>
      </trkpt>
      <trkpt lat="46.35107" lon="0.22271">
        <ele>102.4</ele>
        <time>2021-05-23T16:51:57Z</time>
      </trkpt>
      <trkpt lat="46.35106" lon="0.22271">
        <ele>102.4</ele>
        <time>2021-05-23T16:51:58Z</time>
      </trkpt>
      <trkpt lat="46.35106" lon="0.2227">
        <ele>102.4</ele>
        <time>2021-05-23T16:52:00Z</time>
      </trkpt>
      <trkpt lat="46.35106" lon="0.22269">
        <ele>102.4</ele>
        <time>2021-05-23T16:52:01Z</time>
      </trkpt>
      <trkpt lat="46.35106" lon="0.22268">
        <ele>102.4</ele>
        <time>2021-05-23T16:52:02Z</time>
      </trkpt>
      <trkpt lat="46.35107" lon="0.22268">
        <ele>102.4</ele>
        <time>2021-05-23T16:52:03Z</time>
      </trkpt>
      <trkpt lat="46.35107" lon="0.22268">
        <ele>102.4</ele>
        <time>2021-05-23T16:52:04Z</time>
      </trkpt>
      <trkpt lat="46.35106" lon="0.22268">
        <ele>102.5</ele>
        <time>2021-05-23T16:52:05Z</time>
      </trkpt>
      <trkpt lat="46.35106" lon="0.22267">
        <ele>102.5</ele>
        <time>2021-05-23T16:52:07Z</time>
      </trkpt>
      <trkpt lat="46.35106" lon="0.22267">
        <ele>102.5</ele>
        <time>2021-05-23T16:52:08Z</time>
      </trkpt>
      <trkpt lat="46.35106" lon="0.22266">
        <ele>102.5</ele>
        <time>2021-05-23T16:52:09Z</time>
      </trkpt>
      <trkpt lat="46.35106" lon="0.22266">
        <ele>102.5</ele>
        <time>2021-05-23T16:52:10Z</time>
      </trkpt>
      <trkpt lat="46.35107" lon="0.22265">
        <ele>102.5</ele>
        <time>2021-05-23T16:52:11Z</time>
      </trkpt>
      <trkpt lat="46.35107" lon="0.22264">
        <ele>102.5</ele>
        <time>2021-05-23T16:52:12Z</time>
      </trkpt>
      <trkpt lat="46.35109" lon="0.22263">
        <ele>102.5</ele>
        <time>2021-05-23T16:52:14Z</time>
      </trkpt>
      <trkpt lat="46.3511" lon="0.22262">
        <ele>102.6</ele>
        <time>2021-05-23T16:52:15Z</time>
      </trkpt>
      <trkpt lat="46.35111" lon="0.2226">
        <ele>102.6</ele>
        <time>2021-05-23T16:52:16Z</time>
      </trkpt>
      <trkpt lat="46.35112" lon="0.22259">
        <ele>102.6</ele>
        <time>2021-05-23T16:52:17Z</time>
      </trkpt>
      <trkpt lat="46.35114" lon="0.22258">
        <ele>102.6</ele>
        <time>2021-05-23T16:52:19Z</time>
      </trkpt>
      <trkpt lat="46.35115" lon="0.22257">
        <ele>102.6</ele>
        <time>2021-05-23T16:52:20Z</time>
      </trkpt>
      <trkpt lat="46.35117" lon="0.22256">
        <ele>102.7</ele>
        <time>2021-05-23T16:52:22Z</time>
      </trkpt>
      <trkpt lat="46.35118" lon="0.22256">
        <ele>102.7</ele>
        <time>2021-05-23T16:52:23Z</time>
      </trkpt>
      <trkpt lat="46.35119" lon="0.22256">
        <ele>102.7</ele>
        <time>2021-05-23T16:52:24Z</time>
      </trkpt>
      <trkpt lat="46.35119" lon="0.22257">
        <ele>102.7</ele>
        <time>2021-05-23T16:52:25Z</time>
      </trkpt>
      <trkpt lat="46.35121" lon="0.22256">
        <ele>102.7</ele>
        <time>2021-05-23T16:52:27Z</time>
      </trkpt>
      <trkpt lat="46.35122" lon="0.22255">
        <ele>102.7</ele>
        <time>2021-05-23T16:52:28Z</time>
      </trkpt>
      <trkpt lat="46.35122" lon="0.22253">
        <ele>102.7</ele>
        <time>2021-05-23T16:52:29Z</time>
      </trkpt>
      <trkpt lat="46.35123" lon="0.22252">
        <ele>102.7</ele>
        <time>2021-05-23T16:52:30Z</time>
      </trkpt>
      <trkpt lat="46.35124" lon="0.2225">
        <ele>102.7</ele>
        <time>2021-05-23T16:52:32Z</time>
      </trkpt>
      <trkpt lat="46.35124" lon="0.22249">
        <ele>102.7</ele>
        <time>2021-05-23T16:52:33Z</time>
      </trkpt>
      <trkpt lat="46.35125" lon="0.22248">
        <ele>102.8</ele>
        <time>2021-05-23T16:52:34Z</time>
      </trkpt>
      <trkpt lat="46.35126" lon="0.22247">
        <ele>102.8</ele>
        <time>2021-05-23T16:52:35Z</time>
      </trkpt>
      <trkpt lat="46.35127" lon="0.22245">
        <ele>102.8</ele>
        <time>2021-05-23T16:52:36Z</time>
      </trkpt>
      <trkpt lat="46.35128" lon="0.22245">
        <ele>102.8</ele>
        <time>2021-05-23T16:52:38Z</time>
      </trkpt>
      <trkpt lat="46.35129" lon="0.22244">
        <ele>102.8</ele>
        <time>2021-05-23T16:52:39Z</time>
      </trkpt>
      <trkpt lat="46.3513" lon="0.22243">
        <ele>102.8</ele>
        <time>2021-05-23T16:52:40Z</time>
      </trkpt>
      <trkpt lat="46.35131" lon="0.22242">
        <ele>102.9</ele>
        <time>2021-05-23T16:52:41Z</time>
      </trkpt>
      <trkpt lat="46.35131" lon="0.2224">
        <ele>102.9</ele>
        <time>2021-05-23T16:52:42Z</time>
      </trkpt>
      <trkpt lat="46.35132" lon="0.22239">
        <ele>102.9</ele>
        <time>2021-05-23T16:52:43Z</time>
      </trkpt>
      <trkpt lat="46.35132" lon="0.22238">
        <ele>102.9</ele>
        <time>2021-05-23T16:52:45Z</time>
      </trkpt>
      <trkpt lat="46.35133" lon="0.22237">
        <ele>102.9</ele>
        <time>2021-05-23T16:52:47Z</time>
      </trkpt>
      <trkpt lat="46.35133" lon="0.22236">
        <ele>102.9</ele>
        <time>2021-05-23T16:52:48Z</time>
      </trkpt>
      <trkpt lat="46.35133" lon="0.22236">
        <ele>102.9</ele>
        <time>2021-05-23T16:52:49Z</time>
      </trkpt>
      <trkpt lat="46.35133" lon="0.22236">
        <ele>102.9</ele>
        <time>2021-05-23T16:52:51Z</time>
      </trkpt>
      <trkpt lat="46.35133" lon="0.22237">
        <ele>102.9</ele>
        <time>2021-05-23T16:52:52Z</time>
      </trkpt>
      <trkpt lat="46.35133" lon="0.22237">
        <ele>102.9</ele>
        <time>2021-05-23T16:52:54Z</time>
      </trkpt>
      <trkpt lat="46.35133" lon="0.22237">
        <ele>102.9</ele>
        <time>2021-05-23T16:52:55Z</time>
      </trkpt>
      <trkpt lat="46.35133" lon="0.22236">
        <ele>103</ele>
        <time>2021-05-23T16:52:57Z</time>
      </trkpt>
      <trkpt lat="46.35133" lon="0.22236">
        <ele>103</ele>
        <time>2021-05-23T16:52:58Z</time>
      </trkpt>
      <trkpt lat="46.35134" lon="0.22236">
        <ele>103</ele>
        <time>2021-05-23T16:53:00Z</time>
      </trkpt>
      <trkpt lat="46.35134" lon="0.22235">
        <ele>103</ele>
        <time>2021-05-23T16:53:01Z</time>
      </trkpt>
      <trkpt lat="46.35134" lon="0.22235">
        <ele>103</ele>
        <time>2021-05-23T16:53:03Z</time>
      </trkpt>
      <trkpt lat="46.35134" lon="0.22235">
        <ele>103</ele>
        <time>2021-05-23T16:53:04Z</time>
      </trkpt>
      <trkpt lat="46.35134" lon="0.22235">
        <ele>103</ele>
        <time>2021-05-23T16:53:06Z</time>
      </trkpt>
      <trkpt lat="46.35134" lon="0.22234">
        <ele>103</ele>
        <time>2021-05-23T16:53:07Z</time>
      </trkpt>
      <trkpt lat="46.35134" lon="0.22235">
        <ele>103</ele>
        <time>2021-05-23T16:53:09Z</time>
      </trkpt>
      <trkpt lat="46.35134" lon="0.22235">
        <ele>103</ele>
        <time>2021-05-23T16:53:11Z</time>
      </trkpt>
      <trkpt lat="46.35134" lon="0.22234">
        <ele>103</ele>
        <time>2021-05-23T16:53:13Z</time>
      </trkpt>
      <trkpt lat="46.35135" lon="0.22234">
        <ele>103</ele>
        <time>2021-05-23T16:53:14Z</time>
      </trkpt>
      <trkpt lat="46.35136" lon="0.22233">
        <ele>103</ele>
        <time>2021-05-23T16:53:15Z</time>
      </trkpt>
      <trkpt lat="46.35136" lon="0.22233">
        <ele>103</ele>
        <time>2021-05-23T16:53:16Z</time>
      </trkpt>
      <trkpt lat="46.35137" lon="0.22232">
        <ele>103.1</ele>
        <time>2021-05-23T16:53:17Z</time>
      </trkpt>
      <trkpt lat="46.35138" lon="0.22231">
        <ele>103.1</ele>
        <time>2021-05-23T16:53:19Z</time>
      </trkpt>
      <trkpt lat="46.3514" lon="0.22231">
        <ele>103.1</ele>
        <time>2021-05-23T16:53:20Z</time>
      </trkpt>
      <trkpt lat="46.35142" lon="0.2223">
        <ele>103.2</ele>
        <time>2021-05-23T16:53:22Z</time>
      </trkpt>
      <trkpt lat="46.35143" lon="0.2223">
        <ele>103.2</ele>
        <time>2021-05-23T16:53:23Z</time>
      </trkpt>
      <trkpt lat="46.35144" lon="0.22229">
        <ele>103.2</ele>
        <time>2021-05-23T16:53:24Z</time>
      </trkpt>
      <trkpt lat="46.35145" lon="0.22228">
        <ele>103.3</ele>
        <time>2021-05-23T16:53:26Z</time>
      </trkpt>
      <trkpt lat="46.35147" lon="0.22227">
        <ele>103.3</ele>
        <time>2021-05-23T16:53:27Z</time>
      </trkpt>
      <trkpt lat="46.35147" lon="0.22226">
        <ele>103.3</ele>
        <time>2021-05-23T16:53:28Z</time>
      </trkpt>
      <trkpt lat="46.35148" lon="0.22225">
        <ele>103.4</ele>
        <time>2021-05-23T16:53:29Z</time>
      </trkpt>
      <trkpt lat="46.35149" lon="0.22225">
        <ele>103.4</ele>
        <time>2021-05-23T16:53:30Z</time>
      </trkpt>
      <trkpt lat="46.35151" lon="0.22223">
        <ele>103.5</ele>
        <time>2021-05-23T16:53:32Z</time>
      </trkpt>
      <trkpt lat="46.35151" lon="0.22222">
        <ele>103.5</ele>
        <time>2021-05-23T16:53:33Z</time>
      </trkpt>
      <trkpt lat="46.35152" lon="0.22221">
        <ele>103.5</ele>
        <time>2021-05-23T16:53:34Z</time>
      </trkpt>
      <trkpt lat="46.35152" lon="0.2222">
        <ele>103.6</ele>
        <time>2021-05-23T16:53:36Z</time>
      </trkpt>
      <trkpt lat="46.35153" lon="0.22218">
        <ele>103.6</ele>
        <time>2021-05-23T16:53:37Z</time>
      </trkpt>
      <trkpt lat="46.35154" lon="0.22217">
        <ele>103.6</ele>
        <time>2021-05-23T16:53:38Z</time>
      </trkpt>
      <trkpt lat="46.35155" lon="0.22215">
        <ele>103.7</ele>
        <time>2021-05-23T16:53:40Z</time>
      </trkpt>
      <trkpt lat="46.35155" lon="0.22215">
        <ele>103.7</ele>
        <time>2021-05-23T16:53:41Z</time>
      </trkpt>
      <trkpt lat="46.35155" lon="0.22214">
        <ele>103.7</ele>
        <time>2021-05-23T16:53:42Z</time>
      </trkpt>
      <trkpt lat="46.35155" lon="0.22213">
        <ele>103.7</ele>
        <time>2021-05-23T16:53:43Z</time>
      </trkpt>
      <trkpt lat="46.35156" lon="0.22213">
        <ele>103.7</ele>
        <time>2021-05-23T16:53:45Z</time>
      </trkpt>
      <trkpt lat="46.35156" lon="0.22212">
        <ele>103.8</ele>
        <time>2021-05-23T16:53:46Z</time>
      </trkpt>
      <trkpt lat="46.35157" lon="0.22211">
        <ele>104</ele>
        <time>2021-05-23T16:53:47Z</time>
      </trkpt>
      <trkpt lat="46.35158" lon="0.2221">
        <ele>104.1</ele>
        <time>2021-05-23T16:53:48Z</time>
      </trkpt>
      <trkpt lat="46.35158" lon="0.22209">
        <ele>104.3</ele>
        <time>2021-05-23T16:53:49Z</time>
      </trkpt>
      <trkpt lat="46.3516" lon="0.22208">
        <ele>104.5</ele>
        <time>2021-05-23T16:53:51Z</time>
      </trkpt>
      <trkpt lat="46.35161" lon="0.22206">
        <ele>104.7</ele>
        <time>2021-05-23T16:53:52Z</time>
      </trkpt>
      <trkpt lat="46.35162" lon="0.22206">
        <ele>104.8</ele>
        <time>2021-05-23T16:53:53Z</time>
      </trkpt>
      <trkpt lat="46.35163" lon="0.22205">
        <ele>105</ele>
        <time>2021-05-23T16:53:54Z</time>
      </trkpt>
      <trkpt lat="46.35164" lon="0.22204">
        <ele>105.1</ele>
        <time>2021-05-23T16:53:56Z</time>
      </trkpt>
      <trkpt lat="46.35165" lon="0.22203">
        <ele>105.4</ele>
        <time>2021-05-23T16:53:57Z</time>
      </trkpt>
      <trkpt lat="46.35166" lon="0.22202">
        <ele>105.6</ele>
        <time>2021-05-23T16:53:59Z</time>
      </trkpt>
      <trkpt lat="46.35168" lon="0.22201">
        <ele>105.9</ele>
        <time>2021-05-23T16:54:00Z</time>
      </trkpt>
      <trkpt lat="46.35169" lon="0.222">
        <ele>106</ele>
        <time>2021-05-23T16:54:01Z</time>
      </trkpt>
      <trkpt lat="46.3517" lon="0.22199">
        <ele>106.2</ele>
        <time>2021-05-23T16:54:03Z</time>
      </trkpt>
      <trkpt lat="46.35171" lon="0.22198">
        <ele>106.4</ele>
        <time>2021-05-23T16:54:04Z</time>
      </trkpt>
      <trkpt lat="46.35172" lon="0.22196">
        <ele>106.6</ele>
        <time>2021-05-23T16:54:05Z</time>
      </trkpt>
      <trkpt lat="46.35174" lon="0.22194">
        <ele>107</ele>
        <time>2021-05-23T16:54:07Z</time>
      </trkpt>
      <trkpt lat="46.35174" lon="0.22193">
        <ele>107.1</ele>
        <time>2021-05-23T16:54:09Z</time>
      </trkpt>
      <trkpt lat="46.35175" lon="0.22192">
        <ele>107.3</ele>
        <time>2021-05-23T16:54:10Z</time>
      </trkpt>
      <trkpt lat="46.35177" lon="0.22191">
        <ele>107.6</ele>
        <time>2021-05-23T16:54:12Z</time>
      </trkpt>
      <trkpt lat="46.35178" lon="0.2219">
        <ele>107.7</ele>
        <time>2021-05-23T16:54:13Z</time>
      </trkpt>
      <trkpt lat="46.35178" lon="0.22189">
        <ele>107.8</ele>
        <time>2021-05-23T16:54:14Z</time>
      </trkpt>
      <trkpt lat="46.35179" lon="0.22188">
        <ele>108</ele>
        <time>2021-05-23T16:54:16Z</time>
      </trkpt>
      <trkpt lat="46.35179" lon="0.22187">
        <ele>108.1</ele>
        <time>2021-05-23T16:54:17Z</time>
      </trkpt>
      <trkpt lat="46.3518" lon="0.22185">
        <ele>108.4</ele>
        <time>2021-05-23T16:54:18Z</time>
      </trkpt>
      <trkpt lat="46.35181" lon="0.22184">
        <ele>108.5</ele>
        <time>2021-05-23T16:54:20Z</time>
      </trkpt>
      <trkpt lat="46.35181" lon="0.22183">
        <ele>108.6</ele>
        <time>2021-05-23T16:54:21Z</time>
      </trkpt>
      <trkpt lat="46.35181" lon="0.22182">
        <ele>108.7</ele>
        <time>2021-05-23T16:54:22Z</time>
      </trkpt>
      <trkpt lat="46.35183" lon="0.2218">
        <ele>109</ele>
        <time>2021-05-23T16:54:23Z</time>
      </trkpt>
      <trkpt lat="46.35184" lon="0.22179">
        <ele>109.2</ele>
        <time>2021-05-23T16:54:25Z</time>
      </trkpt>
      <trkpt lat="46.35185" lon="0.22178">
        <ele>109.3</ele>
        <time>2021-05-23T16:54:26Z</time>
      </trkpt>
      <trkpt lat="46.35186" lon="0.22177">
        <ele>109.6</ele>
        <time>2021-05-23T16:54:27Z</time>
      </trkpt>
      <trkpt lat="46.35188" lon="0.22175">
        <ele>109.9</ele>
        <time>2021-05-23T16:54:29Z</time>
      </trkpt>
      <trkpt lat="46.35191" lon="0.22174">
        <ele>110.4</ele>
        <time>2021-05-23T16:54:31Z</time>
      </trkpt>
      <trkpt lat="46.35192" lon="0.22173">
        <ele>110.6</ele>
        <time>2021-05-23T16:54:32Z</time>
      </trkpt>
      <trkpt lat="46.35193" lon="0.22172">
        <ele>110.9</ele>
        <time>2021-05-23T16:54:33Z</time>
      </trkpt>
      <trkpt lat="46.35195" lon="0.22171">
        <ele>111.1</ele>
        <time>2021-05-23T16:54:34Z</time>
      </trkpt>
      <trkpt lat="46.35197" lon="0.22171">
        <ele>111.5</ele>
        <time>2021-05-23T16:54:36Z</time>
      </trkpt>
      <trkpt lat="46.35198" lon="0.2217">
        <ele>111.7</ele>
        <time>2021-05-23T16:54:37Z</time>
      </trkpt>
      <trkpt lat="46.352" lon="0.22169">
        <ele>112</ele>
        <time>2021-05-23T16:54:38Z</time>
      </trkpt>
      <trkpt lat="46.35201" lon="0.22168">
        <ele>112.3</ele>
        <time>2021-05-23T16:54:39Z</time>
      </trkpt>
      <trkpt lat="46.35203" lon="0.22167">
        <ele>112.6</ele>
        <time>2021-05-23T16:54:40Z</time>
      </trkpt>
      <trkpt lat="46.35204" lon="0.22167">
        <ele>112.8</ele>
        <time>2021-05-23T16:54:42Z</time>
      </trkpt>
      <trkpt lat="46.35205" lon="0.22166">
        <ele>112.9</ele>
        <time>2021-05-23T16:54:43Z</time>
      </trkpt>
      <trkpt lat="46.35206" lon="0.22167">
        <ele>113.1</ele>
        <time>2021-05-23T16:54:45Z</time>
      </trkpt>
      <trkpt lat="46.35207" lon="0.22167">
        <ele>113.2</ele>
        <time>2021-05-23T16:54:47Z</time>
      </trkpt>
      <trkpt lat="46.35207" lon="0.22166">
        <ele>113.4</ele>
        <time>2021-05-23T16:54:48Z</time>
      </trkpt>
      <trkpt lat="46.35208" lon="0.22165">
        <ele>113.5</ele>
        <time>2021-05-23T16:54:49Z</time>
      </trkpt>
      <trkpt lat="46.35208" lon="0.22164">
        <ele>113.7</ele>
        <time>2021-05-23T16:54:51Z</time>
      </trkpt>
      <trkpt lat="46.35208" lon="0.22163">
        <ele>113.9</ele>
        <time>2021-05-23T16:54:52Z</time>
      </trkpt>
      <trkpt lat="46.35208" lon="0.22163">
        <ele>114</ele>
        <time>2021-05-23T16:54:53Z</time>
      </trkpt>
      <trkpt lat="46.35207" lon="0.22163">
        <ele>114.1</ele>
        <time>2021-05-23T16:54:55Z</time>
      </trkpt>
      <trkpt lat="46.35207" lon="0.22164">
        <ele>114.2</ele>
        <time>2021-05-23T16:54:56Z</time>
      </trkpt>
      <trkpt lat="46.35208" lon="0.22164">
        <ele>114.3</ele>
        <time>2021-05-23T16:54:57Z</time>
      </trkpt>
      <trkpt lat="46.35208" lon="0.22163">
        <ele>114.5</ele>
        <time>2021-05-23T16:54:59Z</time>
      </trkpt>
      <trkpt lat="46.35209" lon="0.22161">
        <ele>114.5</ele>
        <time>2021-05-23T16:55:00Z</time>
      </trkpt>
      <trkpt lat="46.35209" lon="0.2216">
        <ele>114.5</ele>
        <time>2021-05-23T16:55:02Z</time>
      </trkpt>
      <trkpt lat="46.3521" lon="0.22158">
        <ele>114.6</ele>
        <time>2021-05-23T16:55:03Z</time>
      </trkpt>
      <trkpt lat="46.35211" lon="0.22158">
        <ele>114.7</ele>
        <time>2021-05-23T16:55:04Z</time>
      </trkpt>
      <trkpt lat="46.35211" lon="0.22157">
        <ele>114.7</ele>
        <time>2021-05-23T16:55:05Z</time>
      </trkpt>
      <trkpt lat="46.35212" lon="0.22157">
        <ele>114.8</ele>
        <time>2021-05-23T16:55:06Z</time>
      </trkpt>
      <trkpt lat="46.35213" lon="0.22155">
        <ele>114.9</ele>
        <time>2021-05-23T16:55:08Z</time>
      </trkpt>
      <trkpt lat="46.35213" lon="0.22153">
        <ele>115</ele>
        <time>2021-05-23T16:55:09Z</time>
      </trkpt>
      <trkpt lat="46.35214" lon="0.2215">
        <ele>115.1</ele>
        <time>2021-05-23T16:55:11Z</time>
      </trkpt>
      <trkpt lat="46.35214" lon="0.22148">
        <ele>115.2</ele>
        <time>2021-05-23T16:55:12Z</time>
      </trkpt>
      <trkpt lat="46.35215" lon="0.22147">
        <ele>115.3</ele>
        <time>2021-05-23T16:55:14Z</time>
      </trkpt>
      <trkpt lat="46.35215" lon="0.22146">
        <ele>115.3</ele>
        <time>2021-05-23T16:55:15Z</time>
      </trkpt>
      <trkpt lat="46.35216" lon="0.22145">
        <ele>115.4</ele>
        <time>2021-05-23T16:55:16Z</time>
      </trkpt>
      <trkpt lat="46.35217" lon="0.22143">
        <ele>115.5</ele>
        <time>2021-05-23T16:55:18Z</time>
      </trkpt>
      <trkpt lat="46.35217" lon="0.22142">
        <ele>115.6</ele>
        <time>2021-05-23T16:55:19Z</time>
      </trkpt>
      <trkpt lat="46.35218" lon="0.22139">
        <ele>115.7</ele>
        <time>2021-05-23T16:55:20Z</time>
      </trkpt>
      <trkpt lat="46.35219" lon="0.22138">
        <ele>115.8</ele>
        <time>2021-05-23T16:55:21Z</time>
      </trkpt>
      <trkpt lat="46.35219" lon="0.22137">
        <ele>115.8</ele>
        <time>2021-05-23T16:55:22Z</time>
      </trkpt>
      <trkpt lat="46.3522" lon="0.22135">
        <ele>115.9</ele>
        <time>2021-05-23T16:55:24Z</time>
      </trkpt>
      <trkpt lat="46.35221" lon="0.22132">
        <ele>116.1</ele>
        <time>2021-05-23T16:55:25Z</time>
      </trkpt>
      <trkpt lat="46.35222" lon="0.2213">
        <ele>116.2</ele>
        <time>2021-05-23T16:55:26Z</time>
      </trkpt>
      <trkpt lat="46.35223" lon="0.22129">
        <ele>116.3</ele>
        <time>2021-05-23T16:55:28Z</time>
      </trkpt>
      <trkpt lat="46.35223" lon="0.22127">
        <ele>116.3</ele>
        <time>2021-05-23T16:55:29Z</time>
      </trkpt>
      <trkpt lat="46.35224" lon="0.22124">
        <ele>116.5</ele>
        <time>2021-05-23T16:55:31Z</time>
      </trkpt>
      <trkpt lat="46.35225" lon="0.22122">
        <ele>116.6</ele>
        <time>2021-05-23T16:55:32Z</time>
      </trkpt>
      <trkpt lat="46.35226" lon="0.22121">
        <ele>116.7</ele>
        <time>2021-05-23T16:55:33Z</time>
      </trkpt>
      <trkpt lat="46.35227" lon="0.22118">
        <ele>116.8</ele>
        <time>2021-05-23T16:55:34Z</time>
      </trkpt>
      <trkpt lat="46.35227" lon="0.22117">
        <ele>116.9</ele>
        <time>2021-05-23T16:55:35Z</time>
      </trkpt>
      <trkpt lat="46.35227" lon="0.22116">
        <ele>116.9</ele>
        <time>2021-05-23T16:55:36Z</time>
      </trkpt>
      <trkpt lat="46.35228" lon="0.22113">
        <ele>117</ele>
        <time>2021-05-23T16:55:37Z</time>
      </trkpt>
      <trkpt lat="46.35228" lon="0.2211">
        <ele>117.1</ele>
        <time>2021-05-23T16:55:39Z</time>
      </trkpt>
      <trkpt lat="46.35229" lon="0.22107">
        <ele>117.3</ele>
        <time>2021-05-23T16:55:40Z</time>
      </trkpt>
      <trkpt lat="46.3523" lon="0.22106">
        <ele>117.4</ele>
        <time>2021-05-23T16:55:41Z</time>
      </trkpt>
      <trkpt lat="46.3523" lon="0.22105">
        <ele>117.4</ele>
        <time>2021-05-23T16:55:42Z</time>
      </trkpt>
      <trkpt lat="46.35231" lon="0.22103">
        <ele>117.5</ele>
        <time>2021-05-23T16:55:43Z</time>
      </trkpt>
      <trkpt lat="46.35232" lon="0.22101">
        <ele>117.6</ele>
        <time>2021-05-23T16:55:45Z</time>
      </trkpt>
      <trkpt lat="46.35233" lon="0.22099">
        <ele>117.7</ele>
        <time>2021-05-23T16:55:46Z</time>
      </trkpt>
      <trkpt lat="46.35233" lon="0.22097">
        <ele>117.8</ele>
        <time>2021-05-23T16:55:47Z</time>
      </trkpt>
      <trkpt lat="46.35234" lon="0.22095">
        <ele>117.9</ele>
        <time>2021-05-23T16:55:49Z</time>
      </trkpt>
      <trkpt lat="46.35235" lon="0.22093">
        <ele>118</ele>
        <time>2021-05-23T16:55:50Z</time>
      </trkpt>
      <trkpt lat="46.35236" lon="0.2209">
        <ele>118.1</ele>
        <time>2021-05-23T16:55:51Z</time>
      </trkpt>
      <trkpt lat="46.35237" lon="0.22089">
        <ele>118.2</ele>
        <time>2021-05-23T16:55:52Z</time>
      </trkpt>
      <trkpt lat="46.35238" lon="0.22086">
        <ele>118.3</ele>
        <time>2021-05-23T16:55:53Z</time>
      </trkpt>
      <trkpt lat="46.35238" lon="0.22085">
        <ele>118.4</ele>
        <time>2021-05-23T16:55:55Z</time>
      </trkpt>
      <trkpt lat="46.35238" lon="0.22084">
        <ele>118.4</ele>
        <time>2021-05-23T16:55:56Z</time>
      </trkpt>
      <trkpt lat="46.35239" lon="0.22082">
        <ele>118.5</ele>
        <time>2021-05-23T16:55:57Z</time>
      </trkpt>
      <trkpt lat="46.35239" lon="0.22081">
        <ele>118.5</ele>
        <time>2021-05-23T16:55:58Z</time>
      </trkpt>
      <trkpt lat="46.35239" lon="0.22079">
        <ele>118.6</ele>
        <time>2021-05-23T16:55:59Z</time>
      </trkpt>
      <trkpt lat="46.35239" lon="0.22078">
        <ele>118.6</ele>
        <time>2021-05-23T16:56:00Z</time>
      </trkpt>
      <trkpt lat="46.35239" lon="0.22077">
        <ele>118.7</ele>
        <time>2021-05-23T16:56:02Z</time>
      </trkpt>
      <trkpt lat="46.35239" lon="0.22075">
        <ele>118.8</ele>
        <time>2021-05-23T16:56:03Z</time>
      </trkpt>
      <trkpt lat="46.35239" lon="0.22073">
        <ele>118.8</ele>
        <time>2021-05-23T16:56:04Z</time>
      </trkpt>
      <trkpt lat="46.35238" lon="0.22072">
        <ele>118.9</ele>
        <time>2021-05-23T16:56:05Z</time>
      </trkpt>
      <trkpt lat="46.35238" lon="0.2207">
        <ele>118.9</ele>
        <time>2021-05-23T16:56:06Z</time>
      </trkpt>
      <trkpt lat="46.35238" lon="0.22067">
        <ele>119.1</ele>
        <time>2021-05-23T16:56:08Z</time>
      </trkpt>
      <trkpt lat="46.35238" lon="0.22066">
        <ele>119.1</ele>
        <time>2021-05-23T16:56:09Z</time>
      </trkpt>
      <trkpt lat="46.35238" lon="0.22065">
        <ele>119.1</ele>
        <time>2021-05-23T16:56:10Z</time>
      </trkpt>
      <trkpt lat="46.35238" lon="0.22062">
        <ele>119.3</ele>
        <time>2021-05-23T16:56:11Z</time>
      </trkpt>
      <trkpt lat="46.35238" lon="0.22061">
        <ele>119.3</ele>
        <time>2021-05-23T16:56:12Z</time>
      </trkpt>
      <trkpt lat="46.35238" lon="0.22059">
        <ele>119.3</ele>
        <time>2021-05-23T16:56:13Z</time>
      </trkpt>
      <trkpt lat="46.35237" lon="0.22057">
        <ele>119.4</ele>
        <time>2021-05-23T16:56:15Z</time>
      </trkpt>
      <trkpt lat="46.35237" lon="0.22054">
        <ele>119.5</ele>
        <time>2021-05-23T16:56:16Z</time>
      </trkpt>
      <trkpt lat="46.35236" lon="0.22051">
        <ele>119.6</ele>
        <time>2021-05-23T16:56:18Z</time>
      </trkpt>
      <trkpt lat="46.35236" lon="0.22049">
        <ele>119.6</ele>
        <time>2021-05-23T16:56:19Z</time>
      </trkpt>
      <trkpt lat="46.35235" lon="0.22048">
        <ele>119.6</ele>
        <time>2021-05-23T16:56:20Z</time>
      </trkpt>
      <trkpt lat="46.35235" lon="0.22046">
        <ele>119.7</ele>
        <time>2021-05-23T16:56:21Z</time>
      </trkpt>
      <trkpt lat="46.35235" lon="0.22042">
        <ele>119.7</ele>
        <time>2021-05-23T16:56:22Z</time>
      </trkpt>
      <trkpt lat="46.35234" lon="0.22041">
        <ele>119.8</ele>
        <time>2021-05-23T16:56:23Z</time>
      </trkpt>
      <trkpt lat="46.35234" lon="0.22039">
        <ele>119.8</ele>
        <time>2021-05-23T16:56:25Z</time>
      </trkpt>
      <trkpt lat="46.35233" lon="0.22037">
        <ele>119.8</ele>
        <time>2021-05-23T16:56:26Z</time>
      </trkpt>
      <trkpt lat="46.35232" lon="0.22033">
        <ele>119.9</ele>
        <time>2021-05-23T16:56:27Z</time>
      </trkpt>
      <trkpt lat="46.35232" lon="0.22031">
        <ele>119.9</ele>
        <time>2021-05-23T16:56:29Z</time>
      </trkpt>
      <trkpt lat="46.35231" lon="0.22029">
        <ele>119.9</ele>
        <time>2021-05-23T16:56:30Z</time>
      </trkpt>
      <trkpt lat="46.35231" lon="0.22027">
        <ele>120</ele>
        <time>2021-05-23T16:56:31Z</time>
      </trkpt>
      <trkpt lat="46.3523" lon="0.22025">
        <ele>120</ele>
        <time>2021-05-23T16:56:32Z</time>
      </trkpt>
      <trkpt lat="46.3523" lon="0.22023">
        <ele>120</ele>
        <time>2021-05-23T16:56:33Z</time>
      </trkpt>
      <trkpt lat="46.35229" lon="0.22021">
        <ele>120.1</ele>
        <time>2021-05-23T16:56:34Z</time>
      </trkpt>
      <trkpt lat="46.35229" lon="0.22019">
        <ele>120.1</ele>
        <time>2021-05-23T16:56:35Z</time>
      </trkpt>
      <trkpt lat="46.35229" lon="0.22017">
        <ele>120.1</ele>
        <time>2021-05-23T16:56:36Z</time>
      </trkpt>
      <trkpt lat="46.35228" lon="0.22014">
        <ele>120.2</ele>
        <time>2021-05-23T16:56:37Z</time>
      </trkpt>
      <trkpt lat="46.35227" lon="0.22013">
        <ele>120.2</ele>
        <time>2021-05-23T16:56:38Z</time>
      </trkpt>
      <trkpt lat="46.35227" lon="0.22011">
        <ele>120.2</ele>
        <time>2021-05-23T16:56:40Z</time>
      </trkpt>
      <trkpt lat="46.35226" lon="0.2201">
        <ele>120.3</ele>
        <time>2021-05-23T16:56:41Z</time>
      </trkpt>
      <trkpt lat="46.35225" lon="0.22008">
        <ele>120.3</ele>
        <time>2021-05-23T16:56:42Z</time>
      </trkpt>
      <trkpt lat="46.35225" lon="0.22006">
        <ele>120.4</ele>
        <time>2021-05-23T16:56:43Z</time>
      </trkpt>
      <trkpt lat="46.35224" lon="0.22004">
        <ele>120.4</ele>
        <time>2021-05-23T16:56:44Z</time>
      </trkpt>
      <trkpt lat="46.35223" lon="0.22003">
        <ele>120.4</ele>
        <time>2021-05-23T16:56:45Z</time>
      </trkpt>
      <trkpt lat="46.35223" lon="0.22001">
        <ele>120.5</ele>
        <time>2021-05-23T16:56:46Z</time>
      </trkpt>
      <trkpt lat="46.35222" lon="0.22">
        <ele>120.5</ele>
        <time>2021-05-23T16:56:47Z</time>
      </trkpt>
      <trkpt lat="46.35222" lon="0.21999">
        <ele>120.5</ele>
        <time>2021-05-23T16:56:48Z</time>
      </trkpt>
      <trkpt lat="46.35221" lon="0.21997">
        <ele>120.6</ele>
        <time>2021-05-23T16:56:49Z</time>
      </trkpt>
      <trkpt lat="46.3522" lon="0.21996">
        <ele>120.6</ele>
        <time>2021-05-23T16:56:51Z</time>
      </trkpt>
      <trkpt lat="46.3522" lon="0.21995">
        <ele>120.6</ele>
        <time>2021-05-23T16:56:52Z</time>
      </trkpt>
      <trkpt lat="46.35219" lon="0.21993">
        <ele>120.6</ele>
        <time>2021-05-23T16:56:53Z</time>
      </trkpt>
      <trkpt lat="46.35219" lon="0.21992">
        <ele>120.6</ele>
        <time>2021-05-23T16:56:54Z</time>
      </trkpt>
      <trkpt lat="46.35219" lon="0.21991">
        <ele>120.7</ele>
        <time>2021-05-23T16:56:55Z</time>
      </trkpt>
      <trkpt lat="46.35219" lon="0.21989">
        <ele>120.7</ele>
        <time>2021-05-23T16:56:56Z</time>
      </trkpt>
      <trkpt lat="46.35219" lon="0.21988">
        <ele>120.7</ele>
        <time>2021-05-23T16:56:58Z</time>
      </trkpt>
      <trkpt lat="46.35219" lon="0.21986">
        <ele>120.7</ele>
        <time>2021-05-23T16:56:59Z</time>
      </trkpt>
      <trkpt lat="46.35219" lon="0.21985">
        <ele>120.7</ele>
        <time>2021-05-23T16:57:00Z</time>
      </trkpt>
      <trkpt lat="46.35218" lon="0.21984">
        <ele>120.8</ele>
        <time>2021-05-23T16:57:01Z</time>
      </trkpt>
      <trkpt lat="46.35218" lon="0.21982">
        <ele>120.8</ele>
        <time>2021-05-23T16:57:02Z</time>
      </trkpt>
      <trkpt lat="46.35218" lon="0.21981">
        <ele>120.8</ele>
        <time>2021-05-23T16:57:03Z</time>
      </trkpt>
      <trkpt lat="46.35217" lon="0.2198">
        <ele>120.8</ele>
        <time>2021-05-23T16:57:04Z</time>
      </trkpt>
      <trkpt lat="46.35217" lon="0.21978">
        <ele>120.8</ele>
        <time>2021-05-23T16:57:05Z</time>
      </trkpt>
      <trkpt lat="46.35217" lon="0.21976">
        <ele>120.8</ele>
        <time>2021-05-23T16:57:07Z</time>
      </trkpt>
      <trkpt lat="46.35217" lon="0.21974">
        <ele>120.9</ele>
        <time>2021-05-23T16:57:08Z</time>
      </trkpt>
      <trkpt lat="46.35217" lon="0.21972">
        <ele>120.9</ele>
        <time>2021-05-23T16:57:09Z</time>
      </trkpt>
      <trkpt lat="46.35216" lon="0.21971">
        <ele>120.9</ele>
        <time>2021-05-23T16:57:10Z</time>
      </trkpt>
      <trkpt lat="46.35215" lon="0.21969">
        <ele>120.9</ele>
        <time>2021-05-23T16:57:12Z</time>
      </trkpt>
      <trkpt lat="46.35214" lon="0.21967">
        <ele>121</ele>
        <time>2021-05-23T16:57:13Z</time>
      </trkpt>
      <trkpt lat="46.35213" lon="0.21964">
        <ele>121</ele>
        <time>2021-05-23T16:57:14Z</time>
      </trkpt>
      <trkpt lat="46.35213" lon="0.21963">
        <ele>121</ele>
        <time>2021-05-23T16:57:15Z</time>
      </trkpt>
      <trkpt lat="46.35212" lon="0.2196">
        <ele>121</ele>
        <time>2021-05-23T16:57:16Z</time>
      </trkpt>
      <trkpt lat="46.35212" lon="0.21957">
        <ele>121.1</ele>
        <time>2021-05-23T16:57:18Z</time>
      </trkpt>
      <trkpt lat="46.35212" lon="0.21955">
        <ele>121.1</ele>
        <time>2021-05-23T16:57:19Z</time>
      </trkpt>
      <trkpt lat="46.35212" lon="0.21953">
        <ele>121.1</ele>
        <time>2021-05-23T16:57:20Z</time>
      </trkpt>
      <trkpt lat="46.35213" lon="0.21951">
        <ele>121.1</ele>
        <time>2021-05-23T16:57:21Z</time>
      </trkpt>
      <trkpt lat="46.35214" lon="0.21951">
        <ele>121.1</ele>
        <time>2021-05-23T16:57:23Z</time>
      </trkpt>
      <trkpt lat="46.35214" lon="0.2195">
        <ele>121.2</ele>
        <time>2021-05-23T16:57:25Z</time>
      </trkpt>
      <trkpt lat="46.35215" lon="0.2195">
        <ele>121.2</ele>
        <time>2021-05-23T16:57:27Z</time>
      </trkpt>
      <trkpt lat="46.35215" lon="0.21949">
        <ele>121.2</ele>
        <time>2021-05-23T16:57:28Z</time>
      </trkpt>
      <trkpt lat="46.35216" lon="0.21949">
        <ele>121.2</ele>
        <time>2021-05-23T16:57:29Z</time>
      </trkpt>
      <trkpt lat="46.35216" lon="0.21949">
        <ele>121.2</ele>
        <time>2021-05-23T16:57:31Z</time>
      </trkpt>
      <trkpt lat="46.35216" lon="0.21948">
        <ele>121.2</ele>
        <time>2021-05-23T16:57:32Z</time>
      </trkpt>
      <trkpt lat="46.35217" lon="0.21948">
        <ele>121.2</ele>
        <time>2021-05-23T16:57:34Z</time>
      </trkpt>
      <trkpt lat="46.35217" lon="0.21947">
        <ele>121.2</ele>
        <time>2021-05-23T16:57:35Z</time>
      </trkpt>
      <trkpt lat="46.35218" lon="0.21947">
        <ele>121.2</ele>
        <time>2021-05-23T16:57:37Z</time>
      </trkpt>
      <trkpt lat="46.35218" lon="0.21947">
        <ele>121.2</ele>
        <time>2021-05-23T16:57:39Z</time>
      </trkpt>
      <trkpt lat="46.35219" lon="0.21946">
        <ele>121.2</ele>
        <time>2021-05-23T16:57:40Z</time>
      </trkpt>
      <trkpt lat="46.35219" lon="0.21946">
        <ele>121.2</ele>
        <time>2021-05-23T16:57:41Z</time>
      </trkpt>
      <trkpt lat="46.35225" lon="0.21943">
        <ele>121.2</ele>
        <time>2021-05-23T16:57:43Z</time>
      </trkpt>
      <trkpt lat="46.35228" lon="0.21944">
        <ele>121.2</ele>
        <time>2021-05-23T16:57:45Z</time>
      </trkpt>
      <trkpt lat="46.35229" lon="0.21945">
        <ele>121.2</ele>
        <time>2021-05-23T16:57:46Z</time>
      </trkpt>
      <trkpt lat="46.3523" lon="0.21946">
        <ele>121.2</ele>
        <time>2021-05-23T16:57:47Z</time>
      </trkpt>
      <trkpt lat="46.3523" lon="0.21946">
        <ele>121.2</ele>
        <time>2021-05-23T16:57:48Z</time>
      </trkpt>
      <trkpt lat="46.3523" lon="0.21947">
        <ele>121.2</ele>
        <time>2021-05-23T16:57:49Z</time>
      </trkpt>
      <trkpt lat="46.35231" lon="0.21947">
        <ele>121.2</ele>
        <time>2021-05-23T16:57:50Z</time>
      </trkpt>
      <trkpt lat="46.35231" lon="0.21947">
        <ele>121.1</ele>
        <time>2021-05-23T16:57:52Z</time>
      </trkpt>
      <trkpt lat="46.35231" lon="0.21948">
        <ele>121.1</ele>
        <time>2021-05-23T16:57:53Z</time>
      </trkpt>
      <trkpt lat="46.35231" lon="0.21948">
        <ele>121.1</ele>
        <time>2021-05-23T16:57:55Z</time>
      </trkpt>
      <trkpt lat="46.35231" lon="0.21948">
        <ele>121.1</ele>
        <time>2021-05-23T16:57:57Z</time>
      </trkpt>
      <trkpt lat="46.35231" lon="0.21948">
        <ele>121.1</ele>
        <time>2021-05-23T16:57:58Z</time>
      </trkpt>
      <trkpt lat="46.35231" lon="0.21949">
        <ele>121.1</ele>
        <time>2021-05-23T16:57:59Z</time>
      </trkpt>
      <trkpt lat="46.35231" lon="0.21949">
        <ele>121.1</ele>
        <time>2021-05-23T16:58:00Z</time>
      </trkpt>
      <trkpt lat="46.35231" lon="0.21949">
        <ele>121.1</ele>
        <time>2021-05-23T16:58:02Z</time>
      </trkpt>
      <trkpt lat="46.35231" lon="0.21949">
        <ele>121.1</ele>
        <time>2021-05-23T16:58:03Z</time>
      </trkpt>
      <trkpt lat="46.35231" lon="0.2195">
        <ele>121.1</ele>
        <time>2021-05-23T16:58:05Z</time>
      </trkpt>
      <trkpt lat="46.35231" lon="0.2195">
        <ele>121.1</ele>
        <time>2021-05-23T16:58:06Z</time>
      </trkpt>
      <trkpt lat="46.35231" lon="0.2195">
        <ele>121.1</ele>
        <time>2021-05-23T16:58:07Z</time>
      </trkpt>
      <trkpt lat="46.35231" lon="0.2195">
        <ele>121.1</ele>
        <time>2021-05-23T16:58:09Z</time>
      </trkpt>
      <trkpt lat="46.35231" lon="0.21951">
        <ele>121.1</ele>
        <time>2021-05-23T16:58:10Z</time>
      </trkpt>
      <trkpt lat="46.35231" lon="0.21951">
        <ele>121.1</ele>
        <time>2021-05-23T16:58:12Z</time>
      </trkpt>
      <trkpt lat="46.35231" lon="0.21951">
        <ele>121.1</ele>
        <time>2021-05-23T16:58:13Z</time>
      </trkpt>
      <trkpt lat="46.35231" lon="0.21951">
        <ele>121.1</ele>
        <time>2021-05-23T16:58:15Z</time>
      </trkpt>
      <trkpt lat="46.35231" lon="0.21952">
        <ele>121.1</ele>
        <time>2021-05-23T16:58:16Z</time>
      </trkpt>
      <trkpt lat="46.35231" lon="0.21952">
        <ele>121.1</ele>
        <time>2021-05-23T16:58:17Z</time>
      </trkpt>
      <trkpt lat="46.35231" lon="0.21952">
        <ele>121.1</ele>
        <time>2021-05-23T16:58:19Z</time>
      </trkpt>
      <trkpt lat="46.35231" lon="0.21953">
        <ele>121.1</ele>
        <time>2021-05-23T16:58:20Z</time>
      </trkpt>
      <trkpt lat="46.35231" lon="0.21953">
        <ele>121.1</ele>
        <time>2021-05-23T16:58:22Z</time>
      </trkpt>
      <trkpt lat="46.35231" lon="0.21953">
        <ele>121.1</ele>
        <time>2021-05-23T16:58:23Z</time>
      </trkpt>
      <trkpt lat="46.35234" lon="0.21963">
        <ele>121</ele>
        <time>2021-05-23T16:58:25Z</time>
      </trkpt>
      <trkpt lat="46.35236" lon="0.21967">
        <ele>121</ele>
        <time>2021-05-23T16:58:26Z</time>
      </trkpt>
      <trkpt lat="46.35237" lon="0.21969">
        <ele>120.9</ele>
        <time>2021-05-23T16:58:28Z</time>
      </trkpt>
      <trkpt lat="46.35237" lon="0.2197">
        <ele>120.9</ele>
        <time>2021-05-23T16:58:30Z</time>
      </trkpt>
      <trkpt lat="46.35237" lon="0.2197">
        <ele>120.9</ele>
        <time>2021-05-23T16:58:31Z</time>
      </trkpt>
      <trkpt lat="46.35242" lon="0.21964">
        <ele>120.8</ele>
        <time>2021-05-23T16:58:33Z</time>
      </trkpt>
      <trkpt lat="46.35246" lon="0.21961">
        <ele>120.8</ele>
        <time>2021-05-23T16:58:35Z</time>
      </trkpt>
      <trkpt lat="46.35246" lon="0.21962">
        <ele>120.8</ele>
        <time>2021-05-23T16:58:36Z</time>
      </trkpt>
      <trkpt lat="46.35246" lon="0.21962">
        <ele>120.8</ele>
        <time>2021-05-23T16:58:37Z</time>
      </trkpt>
      <trkpt lat="46.35246" lon="0.21962">
        <ele>120.8</ele>
        <time>2021-05-23T16:58:39Z</time>
      </trkpt>
      <trkpt lat="46.35246" lon="0.21962">
        <ele>120.8</ele>
        <time>2021-05-23T16:58:40Z</time>
      </trkpt>
      <trkpt lat="46.35246" lon="0.21962">
        <ele>120.8</ele>
        <time>2021-05-23T16:58:41Z</time>
      </trkpt>
      <trkpt lat="46.35246" lon="0.21962">
        <ele>120.8</ele>
        <time>2021-05-23T16:58:42Z</time>
      </trkpt>
      <trkpt lat="46.35246" lon="0.21962">
        <ele>120.8</ele>
        <time>2021-05-23T16:58:43Z</time>
      </trkpt>
      <trkpt lat="46.35246" lon="0.21962">
        <ele>120.8</ele>
        <time>2021-05-23T16:58:45Z</time>
      </trkpt>
      <trkpt lat="46.35246" lon="0.21962">
        <ele>120.8</ele>
        <time>2021-05-23T16:58:46Z</time>
      </trkpt>
      <trkpt lat="46.35244" lon="0.21964">
        <ele>120.7</ele>
        <time>2021-05-23T16:58:48Z</time>
      </trkpt>
      <trkpt lat="46.35244" lon="0.21964">
        <ele>120.7</ele>
        <time>2021-05-23T16:58:49Z</time>
      </trkpt>
      <trkpt lat="46.35243" lon="0.21964">
        <ele>120.7</ele>
        <time>2021-05-23T16:58:51Z</time>
      </trkpt>
      <trkpt lat="46.35242" lon="0.21964">
        <ele>120.7</ele>
        <time>2021-05-23T16:58:52Z</time>
      </trkpt>
      <trkpt lat="46.3524" lon="0.21966">
        <ele>120.7</ele>
        <time>2021-05-23T16:58:54Z</time>
      </trkpt>
      <trkpt lat="46.35238" lon="0.21969">
        <ele>120.6</ele>
        <time>2021-05-23T16:58:55Z</time>
      </trkpt>
      <trkpt lat="46.35237" lon="0.2197">
        <ele>120.6</ele>
        <time>2021-05-23T16:58:56Z</time>
      </trkpt>
      <trkpt lat="46.35236" lon="0.21973">
        <ele>120.5</ele>
        <time>2021-05-23T16:58:57Z</time>
      </trkpt>
      <trkpt lat="46.35235" lon="0.21974">
        <ele>120.5</ele>
        <time>2021-05-23T16:58:58Z</time>
      </trkpt>
      <trkpt lat="46.35234" lon="0.21976">
        <ele>120.5</ele>
        <time>2021-05-23T16:59:00Z</time>
      </trkpt>
      <trkpt lat="46.35234" lon="0.21978">
        <ele>120.4</ele>
        <time>2021-05-23T16:59:01Z</time>
      </trkpt>
      <trkpt lat="46.35233" lon="0.2198">
        <ele>120.4</ele>
        <time>2021-05-23T16:59:02Z</time>
      </trkpt>
      <trkpt lat="46.35233" lon="0.21982">
        <ele>120.4</ele>
        <time>2021-05-23T16:59:03Z</time>
      </trkpt>
      <trkpt lat="46.35232" lon="0.21984">
        <ele>120.3</ele>
        <time>2021-05-23T16:59:04Z</time>
      </trkpt>
      <trkpt lat="46.35231" lon="0.21986">
        <ele>120.3</ele>
        <time>2021-05-23T16:59:06Z</time>
      </trkpt>
      <trkpt lat="46.35231" lon="0.21988">
        <ele>120.3</ele>
        <time>2021-05-23T16:59:07Z</time>
      </trkpt>
      <trkpt lat="46.35231" lon="0.21989">
        <ele>120.2</ele>
        <time>2021-05-23T16:59:08Z</time>
      </trkpt>
      <trkpt lat="46.3523" lon="0.21991">
        <ele>120.2</ele>
        <time>2021-05-23T16:59:09Z</time>
      </trkpt>
      <trkpt lat="46.3523" lon="0.21993">
        <ele>120.2</ele>
        <time>2021-05-23T16:59:11Z</time>
      </trkpt>
      <trkpt lat="46.3523" lon="0.21994">
        <ele>120.1</ele>
        <time>2021-05-23T16:59:12Z</time>
      </trkpt>
      <trkpt lat="46.35229" lon="0.21995">
        <ele>120.1</ele>
        <time>2021-05-23T16:59:13Z</time>
      </trkpt>
      <trkpt lat="46.35228" lon="0.21996">
        <ele>120.1</ele>
        <time>2021-05-23T16:59:15Z</time>
      </trkpt>
      <trkpt lat="46.35228" lon="0.21996">
        <ele>120.1</ele>
        <time>2021-05-23T16:59:16Z</time>
      </trkpt>
      <trkpt lat="46.35228" lon="0.21997">
        <ele>120.1</ele>
        <time>2021-05-23T16:59:17Z</time>
      </trkpt>
      <trkpt lat="46.35228" lon="0.21997">
        <ele>120.1</ele>
        <time>2021-05-23T16:59:18Z</time>
      </trkpt>
      <trkpt lat="46.35228" lon="0.21997">
        <ele>120.1</ele>
        <time>2021-05-23T16:59:19Z</time>
      </trkpt>
      <trkpt lat="46.35228" lon="0.21998">
        <ele>120.1</ele>
        <time>2021-05-23T16:59:21Z</time>
      </trkpt>
      <trkpt lat="46.35227" lon="0.21998">
        <ele>120.1</ele>
        <time>2021-05-23T16:59:23Z</time>
      </trkpt>
      <trkpt lat="46.35227" lon="0.21998">
        <ele>120.1</ele>
        <time>2021-05-23T16:59:24Z</time>
      </trkpt>
      <trkpt lat="46.35227" lon="0.21998">
        <ele>120.1</ele>
        <time>2021-05-23T16:59:25Z</time>
      </trkpt>
      <trkpt lat="46.35227" lon="0.21999">
        <ele>120.1</ele>
        <time>2021-05-23T16:59:26Z</time>
      </trkpt>
      <trkpt lat="46.35227" lon="0.21999">
        <ele>120</ele>
        <time>2021-05-23T16:59:27Z</time>
      </trkpt>
      <trkpt lat="46.35227" lon="0.21999">
        <ele>120</ele>
        <time>2021-05-23T16:59:29Z</time>
      </trkpt>
      <trkpt lat="46.35227" lon="0.21999">
        <ele>120</ele>
        <time>2021-05-23T16:59:30Z</time>
      </trkpt>
      <trkpt lat="46.35227" lon="0.22">
        <ele>120</ele>
        <time>2021-05-23T16:59:31Z</time>
      </trkpt>
      <trkpt lat="46.35226" lon="0.22002">
        <ele>120</ele>
        <time>2021-05-23T16:59:32Z</time>
      </trkpt>
      <trkpt lat="46.35226" lon="0.22005">
        <ele>120</ele>
        <time>2021-05-23T16:59:34Z</time>
      </trkpt>
      <trkpt lat="46.35225" lon="0.22006">
        <ele>120</ele>
        <time>2021-05-23T16:59:36Z</time>
      </trkpt>
      <trkpt lat="46.35226" lon="0.22006">
        <ele>120</ele>
        <time>2021-05-23T16:59:37Z</time>
      </trkpt>
      <trkpt lat="46.35226" lon="0.22006">
        <ele>119.9</ele>
        <time>2021-05-23T16:59:39Z</time>
      </trkpt>
      <trkpt lat="46.35226" lon="0.22006">
        <ele>119.9</ele>
        <time>2021-05-23T16:59:40Z</time>
      </trkpt>
      <trkpt lat="46.35226" lon="0.22007">
        <ele>119.9</ele>
        <time>2021-05-23T16:59:41Z</time>
      </trkpt>
      <trkpt lat="46.35227" lon="0.22007">
        <ele>119.9</ele>
        <time>2021-05-23T16:59:42Z</time>
      </trkpt>
      <trkpt lat="46.35227" lon="0.22008">
        <ele>119.9</ele>
        <time>2021-05-23T16:59:43Z</time>
      </trkpt>
      <trkpt lat="46.35228" lon="0.2201">
        <ele>119.9</ele>
        <time>2021-05-23T16:59:44Z</time>
      </trkpt>
      <trkpt lat="46.35228" lon="0.2201">
        <ele>119.9</ele>
        <time>2021-05-23T16:59:45Z</time>
      </trkpt>
      <trkpt lat="46.35229" lon="0.22011">
        <ele>119.9</ele>
        <time>2021-05-23T16:59:46Z</time>
      </trkpt>
      <trkpt lat="46.35229" lon="0.22013">
        <ele>119.8</ele>
        <time>2021-05-23T16:59:48Z</time>
      </trkpt>
      <trkpt lat="46.35229" lon="0.22016">
        <ele>119.8</ele>
        <time>2021-05-23T16:59:49Z</time>
      </trkpt>
      <trkpt lat="46.3523" lon="0.22018">
        <ele>119.8</ele>
        <time>2021-05-23T16:59:51Z</time>
      </trkpt>
      <trkpt lat="46.3523" lon="0.2202">
        <ele>119.8</ele>
        <time>2021-05-23T16:59:52Z</time>
      </trkpt>
      <trkpt lat="46.3523" lon="0.22021">
        <ele>119.8</ele>
        <time>2021-05-23T16:59:53Z</time>
      </trkpt>
      <trkpt lat="46.35231" lon="0.22023">
        <ele>119.7</ele>
        <time>2021-05-23T16:59:55Z</time>
      </trkpt>
      <trkpt lat="46.35231" lon="0.22024">
        <ele>119.7</ele>
        <time>2021-05-23T16:59:56Z</time>
      </trkpt>
      <trkpt lat="46.3523" lon="0.22024">
        <ele>119.7</ele>
        <time>2021-05-23T16:59:57Z</time>
      </trkpt>
      <trkpt lat="46.3523" lon="0.22025">
        <ele>119.7</ele>
        <time>2021-05-23T16:59:59Z</time>
      </trkpt>
      <trkpt lat="46.3523" lon="0.22026">
        <ele>119.7</ele>
        <time>2021-05-23T17:00:00Z</time>
      </trkpt>
      <trkpt lat="46.3523" lon="0.22028">
        <ele>119.6</ele>
        <time>2021-05-23T17:00:01Z</time>
      </trkpt>
      <trkpt lat="46.35231" lon="0.22031">
        <ele>119.6</ele>
        <time>2021-05-23T17:00:02Z</time>
      </trkpt>
      <trkpt lat="46.35231" lon="0.22032">
        <ele>119.6</ele>
        <time>2021-05-23T17:00:03Z</time>
      </trkpt>
      <trkpt lat="46.35231" lon="0.22033">
        <ele>119.5</ele>
        <time>2021-05-23T17:00:04Z</time>
      </trkpt>
      <trkpt lat="46.35232" lon="0.22036">
        <ele>119.5</ele>
        <time>2021-05-23T17:00:06Z</time>
      </trkpt>
      <trkpt lat="46.35232" lon="0.22038">
        <ele>119.4</ele>
        <time>2021-05-23T17:00:07Z</time>
      </trkpt>
      <trkpt lat="46.35233" lon="0.2204">
        <ele>119.4</ele>
        <time>2021-05-23T17:00:08Z</time>
      </trkpt>
      <trkpt lat="46.35233" lon="0.22043">
        <ele>119.3</ele>
        <time>2021-05-23T17:00:09Z</time>
      </trkpt>
      <trkpt lat="46.35234" lon="0.22045">
        <ele>119.2</ele>
        <time>2021-05-23T17:00:10Z</time>
      </trkpt>
      <trkpt lat="46.35234" lon="0.22047">
        <ele>119.2</ele>
        <time>2021-05-23T17:00:11Z</time>
      </trkpt>
      <trkpt lat="46.35235" lon="0.2205">
        <ele>119.1</ele>
        <time>2021-05-23T17:00:13Z</time>
      </trkpt>
      <trkpt lat="46.35235" lon="0.22051">
        <ele>119</ele>
        <time>2021-05-23T17:00:14Z</time>
      </trkpt>
      <trkpt lat="46.35236" lon="0.22054">
        <ele>118.9</ele>
        <time>2021-05-23T17:00:16Z</time>
      </trkpt>
      <trkpt lat="46.35237" lon="0.22056">
        <ele>118.9</ele>
        <time>2021-05-23T17:00:17Z</time>
      </trkpt>
      <trkpt lat="46.35237" lon="0.22057">
        <ele>118.8</ele>
        <time>2021-05-23T17:00:18Z</time>
      </trkpt>
      <trkpt lat="46.35237" lon="0.22059">
        <ele>118.8</ele>
        <time>2021-05-23T17:00:19Z</time>
      </trkpt>
      <trkpt lat="46.35237" lon="0.2206">
        <ele>118.7</ele>
        <time>2021-05-23T17:00:20Z</time>
      </trkpt>
      <trkpt lat="46.35238" lon="0.22062">
        <ele>118.7</ele>
        <time>2021-05-23T17:00:21Z</time>
      </trkpt>
      <trkpt lat="46.35238" lon="0.22063">
        <ele>118.6</ele>
        <time>2021-05-23T17:00:23Z</time>
      </trkpt>
      <trkpt lat="46.35238" lon="0.22065">
        <ele>118.6</ele>
        <time>2021-05-23T17:00:24Z</time>
      </trkpt>
      <trkpt lat="46.35238" lon="0.22067">
        <ele>118.5</ele>
        <time>2021-05-23T17:00:25Z</time>
      </trkpt>
      <trkpt lat="46.35238" lon="0.22069">
        <ele>118.4</ele>
        <time>2021-05-23T17:00:27Z</time>
      </trkpt>
      <trkpt lat="46.35238" lon="0.22071">
        <ele>118.4</ele>
        <time>2021-05-23T17:00:28Z</time>
      </trkpt>
      <trkpt lat="46.35238" lon="0.22072">
        <ele>118.3</ele>
        <time>2021-05-23T17:00:29Z</time>
      </trkpt>
      <trkpt lat="46.35238" lon="0.22074">
        <ele>118.3</ele>
        <time>2021-05-23T17:00:30Z</time>
      </trkpt>
      <trkpt lat="46.35238" lon="0.22075">
        <ele>118.2</ele>
        <time>2021-05-23T17:00:31Z</time>
      </trkpt>
      <trkpt lat="46.35237" lon="0.22077">
        <ele>118.2</ele>
        <time>2021-05-23T17:00:32Z</time>
      </trkpt>
      <trkpt lat="46.35237" lon="0.22078">
        <ele>118.1</ele>
        <time>2021-05-23T17:00:33Z</time>
      </trkpt>
      <trkpt lat="46.35237" lon="0.2208">
        <ele>118</ele>
        <time>2021-05-23T17:00:34Z</time>
      </trkpt>
      <trkpt lat="46.35236" lon="0.22082">
        <ele>118</ele>
        <time>2021-05-23T17:00:35Z</time>
      </trkpt>
      <trkpt lat="46.35235" lon="0.22085">
        <ele>117.9</ele>
        <time>2021-05-23T17:00:37Z</time>
      </trkpt>
      <trkpt lat="46.35235" lon="0.22088">
        <ele>117.8</ele>
        <time>2021-05-23T17:00:39Z</time>
      </trkpt>
      <trkpt lat="46.35235" lon="0.2209">
        <ele>117.7</ele>
        <time>2021-05-23T17:00:40Z</time>
      </trkpt>
      <trkpt lat="46.35235" lon="0.22092">
        <ele>117.6</ele>
        <time>2021-05-23T17:00:41Z</time>
      </trkpt>
      <trkpt lat="46.35234" lon="0.22094">
        <ele>117.5</ele>
        <time>2021-05-23T17:00:42Z</time>
      </trkpt>
      <trkpt lat="46.35234" lon="0.22096">
        <ele>117.4</ele>
        <time>2021-05-23T17:00:43Z</time>
      </trkpt>
      <trkpt lat="46.35234" lon="0.22099">
        <ele>117.3</ele>
        <time>2021-05-23T17:00:45Z</time>
      </trkpt>
      <trkpt lat="46.35233" lon="0.22101">
        <ele>117.3</ele>
        <time>2021-05-23T17:00:46Z</time>
      </trkpt>
      <trkpt lat="46.35233" lon="0.22102">
        <ele>117.2</ele>
        <time>2021-05-23T17:00:47Z</time>
      </trkpt>
      <trkpt lat="46.35233" lon="0.22104">
        <ele>117.2</ele>
        <time>2021-05-23T17:00:48Z</time>
      </trkpt>
      <trkpt lat="46.35233" lon="0.22106">
        <ele>117.1</ele>
        <time>2021-05-23T17:00:49Z</time>
      </trkpt>
      <trkpt lat="46.35232" lon="0.22108">
        <ele>117</ele>
        <time>2021-05-23T17:00:51Z</time>
      </trkpt>
      <trkpt lat="46.35231" lon="0.22111">
        <ele>116.9</ele>
        <time>2021-05-23T17:00:52Z</time>
      </trkpt>
      <trkpt lat="46.35231" lon="0.22112">
        <ele>116.8</ele>
        <time>2021-05-23T17:00:53Z</time>
      </trkpt>
      <trkpt lat="46.35229" lon="0.22114">
        <ele>116.7</ele>
        <time>2021-05-23T17:00:54Z</time>
      </trkpt>
      <trkpt lat="46.35229" lon="0.22115">
        <ele>116.7</ele>
        <time>2021-05-23T17:00:55Z</time>
      </trkpt>
      <trkpt lat="46.35228" lon="0.22116">
        <ele>116.6</ele>
        <time>2021-05-23T17:00:56Z</time>
      </trkpt>
      <trkpt lat="46.35227" lon="0.22118">
        <ele>116.5</ele>
        <time>2021-05-23T17:00:58Z</time>
      </trkpt>
      <trkpt lat="46.35226" lon="0.2212">
        <ele>116.5</ele>
        <time>2021-05-23T17:00:59Z</time>
      </trkpt>
      <trkpt lat="46.35225" lon="0.22122">
        <ele>116.3</ele>
        <time>2021-05-23T17:01:00Z</time>
      </trkpt>
      <trkpt lat="46.35224" lon="0.22123">
        <ele>116.3</ele>
        <time>2021-05-23T17:01:01Z</time>
      </trkpt>
      <trkpt lat="46.35223" lon="0.22124">
        <ele>116.2</ele>
        <time>2021-05-23T17:01:02Z</time>
      </trkpt>
      <trkpt lat="46.35223" lon="0.22125">
        <ele>116.2</ele>
        <time>2021-05-23T17:01:03Z</time>
      </trkpt>
      <trkpt lat="46.35223" lon="0.22126">
        <ele>116.2</ele>
        <time>2021-05-23T17:01:04Z</time>
      </trkpt>
      <trkpt lat="46.35222" lon="0.22127">
        <ele>116.1</ele>
        <time>2021-05-23T17:01:05Z</time>
      </trkpt>
      <trkpt lat="46.35222" lon="0.22129">
        <ele>116</ele>
        <time>2021-05-23T17:01:06Z</time>
      </trkpt>
      <trkpt lat="46.35221" lon="0.2213">
        <ele>116</ele>
        <time>2021-05-23T17:01:08Z</time>
      </trkpt>
      <trkpt lat="46.3522" lon="0.22131">
        <ele>115.9</ele>
        <time>2021-05-23T17:01:09Z</time>
      </trkpt>
      <trkpt lat="46.3522" lon="0.22133">
        <ele>115.9</ele>
        <time>2021-05-23T17:01:10Z</time>
      </trkpt>
      <trkpt lat="46.35219" lon="0.22133">
        <ele>115.8</ele>
        <time>2021-05-23T17:01:11Z</time>
      </trkpt>
      <trkpt lat="46.35218" lon="0.22135">
        <ele>115.7</ele>
        <time>2021-05-23T17:01:13Z</time>
      </trkpt>
      <trkpt lat="46.35217" lon="0.22136">
        <ele>115.7</ele>
        <time>2021-05-23T17:01:14Z</time>
      </trkpt>
      <trkpt lat="46.35216" lon="0.22137">
        <ele>115.6</ele>
        <time>2021-05-23T17:01:15Z</time>
      </trkpt>
      <trkpt lat="46.35215" lon="0.22137">
        <ele>115.5</ele>
        <time>2021-05-23T17:01:16Z</time>
      </trkpt>
      <trkpt lat="46.35215" lon="0.22139">
        <ele>115.5</ele>
        <time>2021-05-23T17:01:18Z</time>
      </trkpt>
      <trkpt lat="46.35214" lon="0.2214">
        <ele>115.4</ele>
        <time>2021-05-23T17:01:19Z</time>
      </trkpt>
      <trkpt lat="46.35214" lon="0.22142">
        <ele>115.3</ele>
        <time>2021-05-23T17:01:20Z</time>
      </trkpt>
      <trkpt lat="46.35214" lon="0.22143">
        <ele>115.3</ele>
        <time>2021-05-23T17:01:21Z</time>
      </trkpt>
      <trkpt lat="46.35214" lon="0.22145">
        <ele>115.2</ele>
        <time>2021-05-23T17:01:22Z</time>
      </trkpt>
      <trkpt lat="46.35214" lon="0.22146">
        <ele>115.2</ele>
        <time>2021-05-23T17:01:23Z</time>
      </trkpt>
      <trkpt lat="46.35214" lon="0.22148">
        <ele>115.1</ele>
        <time>2021-05-23T17:01:24Z</time>
      </trkpt>
      <trkpt lat="46.35213" lon="0.22151">
        <ele>115</ele>
        <time>2021-05-23T17:01:26Z</time>
      </trkpt>
      <trkpt lat="46.35212" lon="0.22154">
        <ele>114.8</ele>
        <time>2021-05-23T17:01:27Z</time>
      </trkpt>
      <trkpt lat="46.35212" lon="0.22155">
        <ele>114.8</ele>
        <time>2021-05-23T17:01:28Z</time>
      </trkpt>
      <trkpt lat="46.35212" lon="0.22156">
        <ele>114.7</ele>
        <time>2021-05-23T17:01:29Z</time>
      </trkpt>
      <trkpt lat="46.35211" lon="0.22157">
        <ele>114.7</ele>
        <time>2021-05-23T17:01:30Z</time>
      </trkpt>
      <trkpt lat="46.3521" lon="0.22159">
        <ele>114.6</ele>
        <time>2021-05-23T17:01:31Z</time>
      </trkpt>
      <trkpt lat="46.35209" lon="0.22161">
        <ele>114.5</ele>
        <time>2021-05-23T17:01:33Z</time>
      </trkpt>
      <trkpt lat="46.35208" lon="0.22163">
        <ele>114.1</ele>
        <time>2021-05-23T17:01:34Z</time>
      </trkpt>
      <trkpt lat="46.35208" lon="0.22164">
        <ele>114</ele>
        <time>2021-05-23T17:01:35Z</time>
      </trkpt>
      <trkpt lat="46.35207" lon="0.22165">
        <ele>113.8</ele>
        <time>2021-05-23T17:01:36Z</time>
      </trkpt>
      <trkpt lat="46.35206" lon="0.22168">
        <ele>113.5</ele>
        <time>2021-05-23T17:01:38Z</time>
      </trkpt>
      <trkpt lat="46.35206" lon="0.22169">
        <ele>113.3</ele>
        <time>2021-05-23T17:01:39Z</time>
      </trkpt>
      <trkpt lat="46.35205" lon="0.2217">
        <ele>113.1</ele>
        <time>2021-05-23T17:01:40Z</time>
      </trkpt>
      <trkpt lat="46.35204" lon="0.22172">
        <ele>112.9</ele>
        <time>2021-05-23T17:01:41Z</time>
      </trkpt>
      <trkpt lat="46.35204" lon="0.22173">
        <ele>112.7</ele>
        <time>2021-05-23T17:01:42Z</time>
      </trkpt>
      <trkpt lat="46.35203" lon="0.22174">
        <ele>112.6</ele>
        <time>2021-05-23T17:01:43Z</time>
      </trkpt>
      <trkpt lat="46.35202" lon="0.22175">
        <ele>112.4</ele>
        <time>2021-05-23T17:01:44Z</time>
      </trkpt>
      <trkpt lat="46.35201" lon="0.22176">
        <ele>112.2</ele>
        <time>2021-05-23T17:01:45Z</time>
      </trkpt>
      <trkpt lat="46.352" lon="0.22177">
        <ele>112</ele>
        <time>2021-05-23T17:01:46Z</time>
      </trkpt>
      <trkpt lat="46.35199" lon="0.22177">
        <ele>111.9</ele>
        <time>2021-05-23T17:01:47Z</time>
      </trkpt>
      <trkpt lat="46.35199" lon="0.22178">
        <ele>111.7</ele>
        <time>2021-05-23T17:01:48Z</time>
      </trkpt>
      <trkpt lat="46.35198" lon="0.22178">
        <ele>111.6</ele>
        <time>2021-05-23T17:01:49Z</time>
      </trkpt>
      <trkpt lat="46.35197" lon="0.22179">
        <ele>111.4</ele>
        <time>2021-05-23T17:01:51Z</time>
      </trkpt>
      <trkpt lat="46.35196" lon="0.22179">
        <ele>111.3</ele>
        <time>2021-05-23T17:01:52Z</time>
      </trkpt>
      <trkpt lat="46.35195" lon="0.22179">
        <ele>111.2</ele>
        <time>2021-05-23T17:01:53Z</time>
      </trkpt>
      <trkpt lat="46.35194" lon="0.2218">
        <ele>110.9</ele>
        <time>2021-05-23T17:01:54Z</time>
      </trkpt>
      <trkpt lat="46.35192" lon="0.2218">
        <ele>110.7</ele>
        <time>2021-05-23T17:01:55Z</time>
      </trkpt>
      <trkpt lat="46.35189" lon="0.2218">
        <ele>110.2</ele>
        <time>2021-05-23T17:01:56Z</time>
      </trkpt>
      <trkpt lat="46.35188" lon="0.22181">
        <ele>110.1</ele>
        <time>2021-05-23T17:01:58Z</time>
      </trkpt>
      <trkpt lat="46.35187" lon="0.22181">
        <ele>109.9</ele>
        <time>2021-05-23T17:01:59Z</time>
      </trkpt>
      <trkpt lat="46.35186" lon="0.22181">
        <ele>109.7</ele>
        <time>2021-05-23T17:02:00Z</time>
      </trkpt>
      <trkpt lat="46.35185" lon="0.22182">
        <ele>109.5</ele>
        <time>2021-05-23T17:02:01Z</time>
      </trkpt>
      <trkpt lat="46.35183" lon="0.22182">
        <ele>109.3</ele>
        <time>2021-05-23T17:02:02Z</time>
      </trkpt>
      <trkpt lat="46.35182" lon="0.22183">
        <ele>109</ele>
        <time>2021-05-23T17:02:04Z</time>
      </trkpt>
      <trkpt lat="46.35181" lon="0.22183">
        <ele>108.8</ele>
        <time>2021-05-23T17:02:05Z</time>
      </trkpt>
      <trkpt lat="46.35179" lon="0.22184">
        <ele>108.6</ele>
        <time>2021-05-23T17:02:06Z</time>
      </trkpt>
      <trkpt lat="46.35177" lon="0.22184">
        <ele>108.3</ele>
        <time>2021-05-23T17:02:07Z</time>
      </trkpt>
      <trkpt lat="46.35176" lon="0.22185">
        <ele>108.2</ele>
        <time>2021-05-23T17:02:08Z</time>
      </trkpt>
      <trkpt lat="46.35175" lon="0.22185">
        <ele>108.1</ele>
        <time>2021-05-23T17:02:09Z</time>
      </trkpt>
      <trkpt lat="46.35174" lon="0.22186">
        <ele>107.8</ele>
        <time>2021-05-23T17:02:11Z</time>
      </trkpt>
      <trkpt lat="46.35172" lon="0.22187">
        <ele>107.6</ele>
        <time>2021-05-23T17:02:12Z</time>
      </trkpt>
      <trkpt lat="46.35171" lon="0.22188">
        <ele>107.3</ele>
        <time>2021-05-23T17:02:13Z</time>
      </trkpt>
      <trkpt lat="46.35169" lon="0.22189">
        <ele>107.1</ele>
        <time>2021-05-23T17:02:14Z</time>
      </trkpt>
      <trkpt lat="46.35168" lon="0.2219">
        <ele>106.9</ele>
        <time>2021-05-23T17:02:15Z</time>
      </trkpt>
      <trkpt lat="46.35168" lon="0.22191">
        <ele>106.7</ele>
        <time>2021-05-23T17:02:16Z</time>
      </trkpt>
      <trkpt lat="46.35167" lon="0.22192">
        <ele>106.6</ele>
        <time>2021-05-23T17:02:17Z</time>
      </trkpt>
      <trkpt lat="46.35167" lon="0.22194">
        <ele>106.5</ele>
        <time>2021-05-23T17:02:18Z</time>
      </trkpt>
      <trkpt lat="46.35167" lon="0.22194">
        <ele>106.4</ele>
        <time>2021-05-23T17:02:19Z</time>
      </trkpt>
      <trkpt lat="46.35167" lon="0.22195">
        <ele>106.3</ele>
        <time>2021-05-23T17:02:21Z</time>
      </trkpt>
      <trkpt lat="46.35167" lon="0.22194">
        <ele>106.3</ele>
        <time>2021-05-23T17:02:22Z</time>
      </trkpt>
      <trkpt lat="46.35167" lon="0.22194">
        <ele>106.2</ele>
        <time>2021-05-23T17:02:24Z</time>
      </trkpt>
      <trkpt lat="46.35167" lon="0.22194">
        <ele>106.2</ele>
        <time>2021-05-23T17:02:25Z</time>
      </trkpt>
      <trkpt lat="46.35167" lon="0.22194">
        <ele>106.1</ele>
        <time>2021-05-23T17:02:26Z</time>
      </trkpt>
      <trkpt lat="46.35166" lon="0.22194">
        <ele>106.1</ele>
        <time>2021-05-23T17:02:27Z</time>
      </trkpt>
      <trkpt lat="46.35166" lon="0.22195">
        <ele>106.1</ele>
        <time>2021-05-23T17:02:28Z</time>
      </trkpt>
      <trkpt lat="46.35166" lon="0.22195">
        <ele>106</ele>
        <time>2021-05-23T17:02:29Z</time>
      </trkpt>
      <trkpt lat="46.35165" lon="0.22196">
        <ele>105.9</ele>
        <time>2021-05-23T17:02:30Z</time>
      </trkpt>
      <trkpt lat="46.35165" lon="0.22196">
        <ele>105.8</ele>
        <time>2021-05-23T17:02:31Z</time>
      </trkpt>
      <trkpt lat="46.35164" lon="0.22198">
        <ele>105.6</ele>
        <time>2021-05-23T17:02:32Z</time>
      </trkpt>
      <trkpt lat="46.35164" lon="0.22199">
        <ele>105.5</ele>
        <time>2021-05-23T17:02:33Z</time>
      </trkpt>
      <trkpt lat="46.35163" lon="0.22201">
        <ele>105.2</ele>
        <time>2021-05-23T17:02:35Z</time>
      </trkpt>
      <trkpt lat="46.35162" lon="0.22202">
        <ele>105.1</ele>
        <time>2021-05-23T17:02:36Z</time>
      </trkpt>
      <trkpt lat="46.35161" lon="0.22202">
        <ele>105</ele>
        <time>2021-05-23T17:02:37Z</time>
      </trkpt>
      <trkpt lat="46.35161" lon="0.22203">
        <ele>104.9</ele>
        <time>2021-05-23T17:02:38Z</time>
      </trkpt>
      <trkpt lat="46.35159" lon="0.22204">
        <ele>104.7</ele>
        <time>2021-05-23T17:02:39Z</time>
      </trkpt>
      <trkpt lat="46.35158" lon="0.22205">
        <ele>104.4</ele>
        <time>2021-05-23T17:02:40Z</time>
      </trkpt>
      <trkpt lat="46.35155" lon="0.22207">
        <ele>104</ele>
        <time>2021-05-23T17:02:42Z</time>
      </trkpt>
      <trkpt lat="46.35154" lon="0.22208">
        <ele>103.8</ele>
        <time>2021-05-23T17:02:43Z</time>
      </trkpt>
      <trkpt lat="46.35153" lon="0.22208">
        <ele>103.7</ele>
        <time>2021-05-23T17:02:44Z</time>
      </trkpt>
      <trkpt lat="46.35152" lon="0.22209">
        <ele>103.7</ele>
        <time>2021-05-23T17:02:46Z</time>
      </trkpt>
      <trkpt lat="46.35151" lon="0.2221">
        <ele>103.7</ele>
        <time>2021-05-23T17:02:47Z</time>
      </trkpt>
      <trkpt lat="46.3515" lon="0.22212">
        <ele>103.6</ele>
        <time>2021-05-23T17:02:48Z</time>
      </trkpt>
      <trkpt lat="46.3515" lon="0.22214">
        <ele>103.6</ele>
        <time>2021-05-23T17:02:49Z</time>
      </trkpt>
      <trkpt lat="46.35149" lon="0.22216">
        <ele>103.5</ele>
        <time>2021-05-23T17:02:50Z</time>
      </trkpt>
      <trkpt lat="46.35149" lon="0.22219">
        <ele>103.5</ele>
        <time>2021-05-23T17:02:51Z</time>
      </trkpt>
      <trkpt lat="46.35148" lon="0.22222">
        <ele>103.4</ele>
        <time>2021-05-23T17:02:53Z</time>
      </trkpt>
      <trkpt lat="46.35148" lon="0.22223">
        <ele>103.4</ele>
        <time>2021-05-23T17:02:54Z</time>
      </trkpt>
      <trkpt lat="46.35148" lon="0.22225">
        <ele>103.3</ele>
        <time>2021-05-23T17:02:55Z</time>
      </trkpt>
      <trkpt lat="46.35147" lon="0.22227">
        <ele>103.3</ele>
        <time>2021-05-23T17:02:56Z</time>
      </trkpt>
      <trkpt lat="46.35147" lon="0.22229">
        <ele>103.2</ele>
        <time>2021-05-23T17:02:58Z</time>
      </trkpt>
      <trkpt lat="46.35146" lon="0.22231">
        <ele>103.2</ele>
        <time>2021-05-23T17:02:59Z</time>
      </trkpt>
      <trkpt lat="46.35146" lon="0.22232">
        <ele>103.2</ele>
        <time>2021-05-23T17:03:00Z</time>
      </trkpt>
      <trkpt lat="46.35146" lon="0.22232">
        <ele>103.2</ele>
        <time>2021-05-23T17:03:01Z</time>
      </trkpt>
      <trkpt lat="46.35145" lon="0.22233">
        <ele>103.2</ele>
        <time>2021-05-23T17:03:03Z</time>
      </trkpt>
      <trkpt lat="46.35145" lon="0.22234">
        <ele>103.1</ele>
        <time>2021-05-23T17:03:04Z</time>
      </trkpt>
      <trkpt lat="46.35144" lon="0.22234">
        <ele>103.1</ele>
        <time>2021-05-23T17:03:05Z</time>
      </trkpt>
      <trkpt lat="46.35143" lon="0.22234">
        <ele>103.1</ele>
        <time>2021-05-23T17:03:06Z</time>
      </trkpt>
      <trkpt lat="46.35142" lon="0.22234">
        <ele>103.1</ele>
        <time>2021-05-23T17:03:07Z</time>
      </trkpt>
      <trkpt lat="46.35141" lon="0.22235">
        <ele>103.1</ele>
        <time>2021-05-23T17:03:08Z</time>
      </trkpt>
      <trkpt lat="46.35141" lon="0.22234">
        <ele>103</ele>
        <time>2021-05-23T17:03:09Z</time>
      </trkpt>
      <trkpt lat="46.3514" lon="0.22235">
        <ele>103</ele>
        <time>2021-05-23T17:03:10Z</time>
      </trkpt>
      <trkpt lat="46.35139" lon="0.22236">
        <ele>103</ele>
        <time>2021-05-23T17:03:12Z</time>
      </trkpt>
      <trkpt lat="46.35138" lon="0.22236">
        <ele>103</ele>
        <time>2021-05-23T17:03:13Z</time>
      </trkpt>
      <trkpt lat="46.35138" lon="0.22236">
        <ele>103</ele>
        <time>2021-05-23T17:03:14Z</time>
      </trkpt>
      <trkpt lat="46.35137" lon="0.22237">
        <ele>103</ele>
        <time>2021-05-23T17:03:15Z</time>
      </trkpt>
      <trkpt lat="46.35136" lon="0.22237">
        <ele>103</ele>
        <time>2021-05-23T17:03:16Z</time>
      </trkpt>
      <trkpt lat="46.35135" lon="0.22238">
        <ele>102.9</ele>
        <time>2021-05-23T17:03:17Z</time>
      </trkpt>
      <trkpt lat="46.35134" lon="0.22239">
        <ele>102.9</ele>
        <time>2021-05-23T17:03:18Z</time>
      </trkpt>
      <trkpt lat="46.35133" lon="0.2224">
        <ele>102.9</ele>
        <time>2021-05-23T17:03:19Z</time>
      </trkpt>
      <trkpt lat="46.35131" lon="0.22241">
        <ele>102.9</ele>
        <time>2021-05-23T17:03:21Z</time>
      </trkpt>
      <trkpt lat="46.3513" lon="0.22242">
        <ele>102.8</ele>
        <time>2021-05-23T17:03:22Z</time>
      </trkpt>
      <trkpt lat="46.35129" lon="0.22243">
        <ele>102.8</ele>
        <time>2021-05-23T17:03:23Z</time>
      </trkpt>
      <trkpt lat="46.35128" lon="0.22244">
        <ele>102.8</ele>
        <time>2021-05-23T17:03:24Z</time>
      </trkpt>
      <trkpt lat="46.35127" lon="0.22244">
        <ele>102.8</ele>
        <time>2021-05-23T17:03:25Z</time>
      </trkpt>
      <trkpt lat="46.35126" lon="0.22245">
        <ele>102.8</ele>
        <time>2021-05-23T17:03:26Z</time>
      </trkpt>
      <trkpt lat="46.35125" lon="0.22246">
        <ele>102.8</ele>
        <time>2021-05-23T17:03:27Z</time>
      </trkpt>
      <trkpt lat="46.35124" lon="0.22248">
        <ele>102.7</ele>
        <time>2021-05-23T17:03:28Z</time>
      </trkpt>
      <trkpt lat="46.35122" lon="0.2225">
        <ele>102.7</ele>
        <time>2021-05-23T17:03:30Z</time>
      </trkpt>
      <trkpt lat="46.3512" lon="0.22251">
        <ele>102.7</ele>
        <time>2021-05-23T17:03:31Z</time>
      </trkpt>
      <trkpt lat="46.35119" lon="0.22252">
        <ele>102.7</ele>
        <time>2021-05-23T17:03:32Z</time>
      </trkpt>
      <trkpt lat="46.35117" lon="0.22254">
        <ele>102.7</ele>
        <time>2021-05-23T17:03:33Z</time>
      </trkpt>
      <trkpt lat="46.35116" lon="0.22255">
        <ele>102.6</ele>
        <time>2021-05-23T17:03:34Z</time>
      </trkpt>
      <trkpt lat="46.35114" lon="0.22256">
        <ele>102.6</ele>
        <time>2021-05-23T17:03:35Z</time>
      </trkpt>
      <trkpt lat="46.35113" lon="0.22257">
        <ele>102.6</ele>
        <time>2021-05-23T17:03:36Z</time>
      </trkpt>
      <trkpt lat="46.35111" lon="0.22259">
        <ele>102.6</ele>
        <time>2021-05-23T17:03:37Z</time>
      </trkpt>
      <trkpt lat="46.3511" lon="0.22259">
        <ele>102.6</ele>
        <time>2021-05-23T17:03:39Z</time>
      </trkpt>
      <trkpt lat="46.35109" lon="0.2226">
        <ele>102.5</ele>
        <time>2021-05-23T17:03:40Z</time>
      </trkpt>
      <trkpt lat="46.35108" lon="0.22261">
        <ele>102.5</ele>
        <time>2021-05-23T17:03:41Z</time>
      </trkpt>
      <trkpt lat="46.35107" lon="0.22261">
        <ele>102.5</ele>
        <time>2021-05-23T17:03:42Z</time>
      </trkpt>
      <trkpt lat="46.35105" lon="0.22263">
        <ele>102.5</ele>
        <time>2021-05-23T17:03:43Z</time>
      </trkpt>
      <trkpt lat="46.35104" lon="0.22264">
        <ele>102.5</ele>
        <time>2021-05-23T17:03:44Z</time>
      </trkpt>
      <trkpt lat="46.35104" lon="0.22265">
        <ele>102.4</ele>
        <time>2021-05-23T17:03:45Z</time>
      </trkpt>
      <trkpt lat="46.35103" lon="0.22265">
        <ele>102.4</ele>
        <time>2021-05-23T17:03:46Z</time>
      </trkpt>
      <trkpt lat="46.35101" lon="0.22267">
        <ele>102.4</ele>
        <time>2021-05-23T17:03:48Z</time>
      </trkpt>
      <trkpt lat="46.35101" lon="0.22268">
        <ele>102.4</ele>
        <time>2021-05-23T17:03:49Z</time>
      </trkpt>
      <trkpt lat="46.351" lon="0.2227">
        <ele>102.3</ele>
        <time>2021-05-23T17:03:51Z</time>
      </trkpt>
      <trkpt lat="46.351" lon="0.22271">
        <ele>102.3</ele>
        <time>2021-05-23T17:03:52Z</time>
      </trkpt>
      <trkpt lat="46.351" lon="0.22271">
        <ele>102.3</ele>
        <time>2021-05-23T17:03:53Z</time>
      </trkpt>
      <trkpt lat="46.351" lon="0.22272">
        <ele>102.3</ele>
        <time>2021-05-23T17:03:54Z</time>
      </trkpt>
      <trkpt lat="46.351" lon="0.22272">
        <ele>102.3</ele>
        <time>2021-05-23T17:03:55Z</time>
      </trkpt>
      <trkpt lat="46.351" lon="0.22273">
        <ele>102.3</ele>
        <time>2021-05-23T17:03:56Z</time>
      </trkpt>
      <trkpt lat="46.351" lon="0.22274">
        <ele>102.3</ele>
        <time>2021-05-23T17:03:57Z</time>
      </trkpt>
      <trkpt lat="46.35099" lon="0.22274">
        <ele>102.3</ele>
        <time>2021-05-23T17:03:58Z</time>
      </trkpt>
      <trkpt lat="46.35099" lon="0.22275">
        <ele>102.3</ele>
        <time>2021-05-23T17:03:59Z</time>
      </trkpt>
      <trkpt lat="46.35098" lon="0.22275">
        <ele>102.2</ele>
        <time>2021-05-23T17:04:00Z</time>
      </trkpt>
      <trkpt lat="46.35098" lon="0.22276">
        <ele>102.2</ele>
        <time>2021-05-23T17:04:01Z</time>
      </trkpt>
      <trkpt lat="46.35097" lon="0.22277">
        <ele>102.2</ele>
        <time>2021-05-23T17:04:02Z</time>
      </trkpt>
      <trkpt lat="46.35096" lon="0.22278">
        <ele>102.2</ele>
        <time>2021-05-23T17:04:03Z</time>
      </trkpt>
      <trkpt lat="46.35095" lon="0.22279">
        <ele>102.1</ele>
        <time>2021-05-23T17:04:04Z</time>
      </trkpt>
      <trkpt lat="46.35094" lon="0.2228">
        <ele>102.1</ele>
        <time>2021-05-23T17:04:05Z</time>
      </trkpt>
      <trkpt lat="46.35092" lon="0.22281">
        <ele>102.1</ele>
        <time>2021-05-23T17:04:07Z</time>
      </trkpt>
      <trkpt lat="46.35091" lon="0.22282">
        <ele>102</ele>
        <time>2021-05-23T17:04:08Z</time>
      </trkpt>
      <trkpt lat="46.3509" lon="0.22283">
        <ele>102</ele>
        <time>2021-05-23T17:04:09Z</time>
      </trkpt>
      <trkpt lat="46.35089" lon="0.22284">
        <ele>102</ele>
        <time>2021-05-23T17:04:10Z</time>
      </trkpt>
      <trkpt lat="46.35088" lon="0.22284">
        <ele>101.9</ele>
        <time>2021-05-23T17:04:11Z</time>
      </trkpt>
      <trkpt lat="46.35087" lon="0.22285">
        <ele>101.9</ele>
        <time>2021-05-23T17:04:12Z</time>
      </trkpt>
      <trkpt lat="46.35086" lon="0.22285">
        <ele>101.9</ele>
        <time>2021-05-23T17:04:13Z</time>
      </trkpt>
      <trkpt lat="46.35084" lon="0.22287">
        <ele>101.8</ele>
        <time>2021-05-23T17:04:15Z</time>
      </trkpt>
      <trkpt lat="46.35082" lon="0.22288">
        <ele>101.8</ele>
        <time>2021-05-23T17:04:16Z</time>
      </trkpt>
      <trkpt lat="46.35081" lon="0.22289">
        <ele>101.8</ele>
        <time>2021-05-23T17:04:17Z</time>
      </trkpt>
      <trkpt lat="46.3508" lon="0.22289">
        <ele>101.7</ele>
        <time>2021-05-23T17:04:18Z</time>
      </trkpt>
      <trkpt lat="46.35079" lon="0.2229">
        <ele>101.7</ele>
        <time>2021-05-23T17:04:19Z</time>
      </trkpt>
      <trkpt lat="46.35078" lon="0.2229">
        <ele>101.7</ele>
        <time>2021-05-23T17:04:20Z</time>
      </trkpt>
      <trkpt lat="46.35076" lon="0.22292">
        <ele>101.7</ele>
        <time>2021-05-23T17:04:22Z</time>
      </trkpt>
      <trkpt lat="46.35075" lon="0.22292">
        <ele>101.6</ele>
        <time>2021-05-23T17:04:23Z</time>
      </trkpt>
      <trkpt lat="46.35074" lon="0.22293">
        <ele>101.6</ele>
        <time>2021-05-23T17:04:24Z</time>
      </trkpt>
      <trkpt lat="46.35073" lon="0.22294">
        <ele>101.6</ele>
        <time>2021-05-23T17:04:25Z</time>
      </trkpt>
      <trkpt lat="46.35072" lon="0.22295">
        <ele>101.6</ele>
        <time>2021-05-23T17:04:26Z</time>
      </trkpt>
      <trkpt lat="46.35071" lon="0.22296">
        <ele>101.6</ele>
        <time>2021-05-23T17:04:27Z</time>
      </trkpt>
      <trkpt lat="46.35069" lon="0.22298">
        <ele>101.5</ele>
        <time>2021-05-23T17:04:29Z</time>
      </trkpt>
      <trkpt lat="46.35067" lon="0.223">
        <ele>101.5</ele>
        <time>2021-05-23T17:04:30Z</time>
      </trkpt>
      <trkpt lat="46.35065" lon="0.22303">
        <ele>101.5</ele>
        <time>2021-05-23T17:04:31Z</time>
      </trkpt>
      <trkpt lat="46.35064" lon="0.22304">
        <ele>101.5</ele>
        <time>2021-05-23T17:04:32Z</time>
      </trkpt>
      <trkpt lat="46.35063" lon="0.22305">
        <ele>101.5</ele>
        <time>2021-05-23T17:04:33Z</time>
      </trkpt>
      <trkpt lat="46.35063" lon="0.22306">
        <ele>101.5</ele>
        <time>2021-05-23T17:04:34Z</time>
      </trkpt>
      <trkpt lat="46.35062" lon="0.22306">
        <ele>101.5</ele>
        <time>2021-05-23T17:04:36Z</time>
      </trkpt>
      <trkpt lat="46.35061" lon="0.22307">
        <ele>101.4</ele>
        <time>2021-05-23T17:04:37Z</time>
      </trkpt>
      <trkpt lat="46.35061" lon="0.22308">
        <ele>101.4</ele>
        <time>2021-05-23T17:04:39Z</time>
      </trkpt>
      <trkpt lat="46.3506" lon="0.22309">
        <ele>101.4</ele>
        <time>2021-05-23T17:04:40Z</time>
      </trkpt>
      <trkpt lat="46.35059" lon="0.2231">
        <ele>101.4</ele>
        <time>2021-05-23T17:04:41Z</time>
      </trkpt>
      <trkpt lat="46.35059" lon="0.2231">
        <ele>101.4</ele>
        <time>2021-05-23T17:04:42Z</time>
      </trkpt>
      <trkpt lat="46.35058" lon="0.22311">
        <ele>101.4</ele>
        <time>2021-05-23T17:04:43Z</time>
      </trkpt>
      <trkpt lat="46.35057" lon="0.22312">
        <ele>101.4</ele>
        <time>2021-05-23T17:04:44Z</time>
      </trkpt>
      <trkpt lat="46.35055" lon="0.22313">
        <ele>101.4</ele>
        <time>2021-05-23T17:04:45Z</time>
      </trkpt>
      <trkpt lat="46.35054" lon="0.22315">
        <ele>101.4</ele>
        <time>2021-05-23T17:04:46Z</time>
      </trkpt>
      <trkpt lat="46.35052" lon="0.22316">
        <ele>101.4</ele>
        <time>2021-05-23T17:04:48Z</time>
      </trkpt>
      <trkpt lat="46.35051" lon="0.22317">
        <ele>101.4</ele>
        <time>2021-05-23T17:04:49Z</time>
      </trkpt>
      <trkpt lat="46.3505" lon="0.22317">
        <ele>101.4</ele>
        <time>2021-05-23T17:04:50Z</time>
      </trkpt>
      <trkpt lat="46.35048" lon="0.22318">
        <ele>101.3</ele>
        <time>2021-05-23T17:04:51Z</time>
      </trkpt>
      <trkpt lat="46.35047" lon="0.22319">
        <ele>101.3</ele>
        <time>2021-05-23T17:04:52Z</time>
      </trkpt>
      <trkpt lat="46.35047" lon="0.22319">
        <ele>101.3</ele>
        <time>2021-05-23T17:04:53Z</time>
      </trkpt>
      <trkpt lat="46.35044" lon="0.22321">
        <ele>101.3</ele>
        <time>2021-05-23T17:04:54Z</time>
      </trkpt>
      <trkpt lat="46.35044" lon="0.22322">
        <ele>101.3</ele>
        <time>2021-05-23T17:04:55Z</time>
      </trkpt>
      <trkpt lat="46.35041" lon="0.22324">
        <ele>101.3</ele>
        <time>2021-05-23T17:04:56Z</time>
      </trkpt>
      <trkpt lat="46.3504" lon="0.22325">
        <ele>101.3</ele>
        <time>2021-05-23T17:04:57Z</time>
      </trkpt>
      <trkpt lat="46.35038" lon="0.22326">
        <ele>101.3</ele>
        <time>2021-05-23T17:04:59Z</time>
      </trkpt>
      <trkpt lat="46.35037" lon="0.22327">
        <ele>101.3</ele>
        <time>2021-05-23T17:05:00Z</time>
      </trkpt>
      <trkpt lat="46.35036" lon="0.22328">
        <ele>101.3</ele>
        <time>2021-05-23T17:05:01Z</time>
      </trkpt>
      <trkpt lat="46.35035" lon="0.22329">
        <ele>101.3</ele>
        <time>2021-05-23T17:05:02Z</time>
      </trkpt>
      <trkpt lat="46.35033" lon="0.22331">
        <ele>101.3</ele>
        <time>2021-05-23T17:05:03Z</time>
      </trkpt>
      <trkpt lat="46.35032" lon="0.22331">
        <ele>101.3</ele>
        <time>2021-05-23T17:05:04Z</time>
      </trkpt>
      <trkpt lat="46.35031" lon="0.22333">
        <ele>101.3</ele>
        <time>2021-05-23T17:05:05Z</time>
      </trkpt>
      <trkpt lat="46.3503" lon="0.22333">
        <ele>101.3</ele>
        <time>2021-05-23T17:05:06Z</time>
      </trkpt>
      <trkpt lat="46.35029" lon="0.22334">
        <ele>101.3</ele>
        <time>2021-05-23T17:05:07Z</time>
      </trkpt>
      <trkpt lat="46.35027" lon="0.22335">
        <ele>101.3</ele>
        <time>2021-05-23T17:05:08Z</time>
      </trkpt>
      <trkpt lat="46.35026" lon="0.22335">
        <ele>101.3</ele>
        <time>2021-05-23T17:05:09Z</time>
      </trkpt>
      <trkpt lat="46.35025" lon="0.22337">
        <ele>101.3</ele>
        <time>2021-05-23T17:05:10Z</time>
      </trkpt>
      <trkpt lat="46.35024" lon="0.22338">
        <ele>101.3</ele>
        <time>2021-05-23T17:05:12Z</time>
      </trkpt>
      <trkpt lat="46.35023" lon="0.22339">
        <ele>101.3</ele>
        <time>2021-05-23T17:05:13Z</time>
      </trkpt>
      <trkpt lat="46.35022" lon="0.2234">
        <ele>101.3</ele>
        <time>2021-05-23T17:05:15Z</time>
      </trkpt>
      <trkpt lat="46.35021" lon="0.2234">
        <ele>101.3</ele>
        <time>2021-05-23T17:05:16Z</time>
      </trkpt>
      <trkpt lat="46.35021" lon="0.2234">
        <ele>101.3</ele>
        <time>2021-05-23T17:05:17Z</time>
      </trkpt>
      <trkpt lat="46.3502" lon="0.22341">
        <ele>101.3</ele>
        <time>2021-05-23T17:05:18Z</time>
      </trkpt>
      <trkpt lat="46.35019" lon="0.22341">
        <ele>101.3</ele>
        <time>2021-05-23T17:05:19Z</time>
      </trkpt>
      <trkpt lat="46.35017" lon="0.22342">
        <ele>101.4</ele>
        <time>2021-05-23T17:05:21Z</time>
      </trkpt>
      <trkpt lat="46.35015" lon="0.22342">
        <ele>101.4</ele>
        <time>2021-05-23T17:05:22Z</time>
      </trkpt>
      <trkpt lat="46.35014" lon="0.22343">
        <ele>101.4</ele>
        <time>2021-05-23T17:05:23Z</time>
      </trkpt>
      <trkpt lat="46.35013" lon="0.22343">
        <ele>101.4</ele>
        <time>2021-05-23T17:05:24Z</time>
      </trkpt>
      <trkpt lat="46.35012" lon="0.22344">
        <ele>101.4</ele>
        <time>2021-05-23T17:05:26Z</time>
      </trkpt>
      <trkpt lat="46.35011" lon="0.22344">
        <ele>101.4</ele>
        <time>2021-05-23T17:05:27Z</time>
      </trkpt>
      <trkpt lat="46.3501" lon="0.22345">
        <ele>101.4</ele>
        <time>2021-05-23T17:05:28Z</time>
      </trkpt>
      <trkpt lat="46.35009" lon="0.22346">
        <ele>101.4</ele>
        <time>2021-05-23T17:05:30Z</time>
      </trkpt>
      <trkpt lat="46.35007" lon="0.22347">
        <ele>101.5</ele>
        <time>2021-05-23T17:05:31Z</time>
      </trkpt>
      <trkpt lat="46.35005" lon="0.22348">
        <ele>101.5</ele>
        <time>2021-05-23T17:05:32Z</time>
      </trkpt>
      <trkpt lat="46.35004" lon="0.22349">
        <ele>101.5</ele>
        <time>2021-05-23T17:05:33Z</time>
      </trkpt>
      <trkpt lat="46.35003" lon="0.2235">
        <ele>101.5</ele>
        <time>2021-05-23T17:05:34Z</time>
      </trkpt>
      <trkpt lat="46.35001" lon="0.22351">
        <ele>101.6</ele>
        <time>2021-05-23T17:05:35Z</time>
      </trkpt>
      <trkpt lat="46.35" lon="0.22352">
        <ele>101.6</ele>
        <time>2021-05-23T17:05:36Z</time>
      </trkpt>
      <trkpt lat="46.34997" lon="0.22354">
        <ele>101.7</ele>
        <time>2021-05-23T17:05:38Z</time>
      </trkpt>
      <trkpt lat="46.34996" lon="0.22355">
        <ele>101.7</ele>
        <time>2021-05-23T17:05:39Z</time>
      </trkpt>
      <trkpt lat="46.34994" lon="0.22357">
        <ele>101.7</ele>
        <time>2021-05-23T17:05:41Z</time>
      </trkpt>
      <trkpt lat="46.34993" lon="0.22358">
        <ele>101.8</ele>
        <time>2021-05-23T17:05:42Z</time>
      </trkpt>
      <trkpt lat="46.34992" lon="0.22358">
        <ele>101.8</ele>
        <time>2021-05-23T17:05:43Z</time>
      </trkpt>
      <trkpt lat="46.3499" lon="0.22359">
        <ele>101.9</ele>
        <time>2021-05-23T17:05:44Z</time>
      </trkpt>
      <trkpt lat="46.34989" lon="0.2236">
        <ele>101.9</ele>
        <time>2021-05-23T17:05:45Z</time>
      </trkpt>
      <trkpt lat="46.34988" lon="0.2236">
        <ele>101.9</ele>
        <time>2021-05-23T17:05:46Z</time>
      </trkpt>
      <trkpt lat="46.34987" lon="0.2236">
        <ele>102</ele>
        <time>2021-05-23T17:05:47Z</time>
      </trkpt>
      <trkpt lat="46.34985" lon="0.2236">
        <ele>102</ele>
        <time>2021-05-23T17:05:48Z</time>
      </trkpt>
      <trkpt lat="46.34984" lon="0.2236">
        <ele>102.1</ele>
        <time>2021-05-23T17:05:50Z</time>
      </trkpt>
      <trkpt lat="46.34982" lon="0.22359">
        <ele>102.1</ele>
        <time>2021-05-23T17:05:51Z</time>
      </trkpt>
      <trkpt lat="46.34981" lon="0.22357">
        <ele>102.2</ele>
        <time>2021-05-23T17:05:52Z</time>
      </trkpt>
      <trkpt lat="46.3498" lon="0.22355">
        <ele>102.2</ele>
        <time>2021-05-23T17:05:54Z</time>
      </trkpt>
      <trkpt lat="46.3498" lon="0.22353">
        <ele>102.2</ele>
        <time>2021-05-23T17:05:55Z</time>
      </trkpt>
      <trkpt lat="46.34979" lon="0.22351">
        <ele>102.2</ele>
        <time>2021-05-23T17:05:56Z</time>
      </trkpt>
      <trkpt lat="46.34978" lon="0.2235">
        <ele>102.1</ele>
        <time>2021-05-23T17:05:57Z</time>
      </trkpt>
      <trkpt lat="46.34977" lon="0.22348">
        <ele>102.1</ele>
        <time>2021-05-23T17:05:58Z</time>
      </trkpt>
      <trkpt lat="46.34977" lon="0.22348">
        <ele>102.1</ele>
        <time>2021-05-23T17:05:59Z</time>
      </trkpt>
      <trkpt lat="46.34976" lon="0.22347">
        <ele>102</ele>
        <time>2021-05-23T17:06:00Z</time>
      </trkpt>
      <trkpt lat="46.34976" lon="0.22346">
        <ele>102</ele>
        <time>2021-05-23T17:06:01Z</time>
      </trkpt>
      <trkpt lat="46.34976" lon="0.22345">
        <ele>102</ele>
        <time>2021-05-23T17:06:03Z</time>
      </trkpt>
      <trkpt lat="46.34976" lon="0.22345">
        <ele>102</ele>
        <time>2021-05-23T17:06:04Z</time>
      </trkpt>
      <trkpt lat="46.34976" lon="0.22345">
        <ele>102</ele>
        <time>2021-05-23T17:06:05Z</time>
      </trkpt>
      <trkpt lat="46.34975" lon="0.22344">
        <ele>102</ele>
        <time>2021-05-23T17:06:06Z</time>
      </trkpt>
      <trkpt lat="46.34975" lon="0.22343">
        <ele>101.9</ele>
        <time>2021-05-23T17:06:07Z</time>
      </trkpt>
      <trkpt lat="46.34973" lon="0.22341">
        <ele>101.9</ele>
        <time>2021-05-23T17:06:08Z</time>
      </trkpt>
      <trkpt lat="46.34973" lon="0.22339">
        <ele>101.9</ele>
        <time>2021-05-23T17:06:09Z</time>
      </trkpt>
      <trkpt lat="46.34972" lon="0.22338">
        <ele>101.9</ele>
        <time>2021-05-23T17:06:10Z</time>
      </trkpt>
      <trkpt lat="46.34971" lon="0.22336">
        <ele>101.8</ele>
        <time>2021-05-23T17:06:11Z</time>
      </trkpt>
      <trkpt lat="46.3497" lon="0.22334">
        <ele>101.8</ele>
        <time>2021-05-23T17:06:12Z</time>
      </trkpt>
      <trkpt lat="46.34969" lon="0.22332">
        <ele>101.8</ele>
        <time>2021-05-23T17:06:14Z</time>
      </trkpt>
      <trkpt lat="46.34968" lon="0.22331">
        <ele>101.8</ele>
        <time>2021-05-23T17:06:15Z</time>
      </trkpt>
      <trkpt lat="46.34967" lon="0.22329">
        <ele>101.7</ele>
        <time>2021-05-23T17:06:16Z</time>
      </trkpt>
      <trkpt lat="46.34966" lon="0.22328">
        <ele>101.7</ele>
        <time>2021-05-23T17:06:17Z</time>
      </trkpt>
      <trkpt lat="46.34964" lon="0.22326">
        <ele>101.7</ele>
        <time>2021-05-23T17:06:18Z</time>
      </trkpt>
      <trkpt lat="46.34963" lon="0.22325">
        <ele>101.7</ele>
        <time>2021-05-23T17:06:19Z</time>
      </trkpt>
      <trkpt lat="46.34962" lon="0.22324">
        <ele>101.7</ele>
        <time>2021-05-23T17:06:20Z</time>
      </trkpt>
      <trkpt lat="46.3496" lon="0.22322">
        <ele>101.7</ele>
        <time>2021-05-23T17:06:22Z</time>
      </trkpt>
      <trkpt lat="46.34957" lon="0.22319">
        <ele>101.7</ele>
        <time>2021-05-23T17:06:23Z</time>
      </trkpt>
      <trkpt lat="46.34956" lon="0.22319">
        <ele>101.7</ele>
        <time>2021-05-23T17:06:24Z</time>
      </trkpt>
      <trkpt lat="46.34954" lon="0.22318">
        <ele>101.7</ele>
        <time>2021-05-23T17:06:25Z</time>
      </trkpt>
      <trkpt lat="46.34953" lon="0.22317">
        <ele>101.7</ele>
        <time>2021-05-23T17:06:27Z</time>
      </trkpt>
      <trkpt lat="46.34951" lon="0.22316">
        <ele>101.7</ele>
        <time>2021-05-23T17:06:28Z</time>
      </trkpt>
      <trkpt lat="46.3495" lon="0.22316">
        <ele>101.7</ele>
        <time>2021-05-23T17:06:29Z</time>
      </trkpt>
      <trkpt lat="46.34949" lon="0.22314">
        <ele>101.7</ele>
        <time>2021-05-23T17:06:30Z</time>
      </trkpt>
      <trkpt lat="46.34948" lon="0.22313">
        <ele>101.7</ele>
        <time>2021-05-23T17:06:31Z</time>
      </trkpt>
      <trkpt lat="46.34945" lon="0.2231">
        <ele>101.7</ele>
        <time>2021-05-23T17:06:33Z</time>
      </trkpt>
      <trkpt lat="46.34945" lon="0.22309">
        <ele>101.7</ele>
        <time>2021-05-23T17:06:34Z</time>
      </trkpt>
      <trkpt lat="46.34943" lon="0.22308">
        <ele>101.7</ele>
        <time>2021-05-23T17:06:36Z</time>
      </trkpt>
      <trkpt lat="46.34941" lon="0.22306">
        <ele>101.7</ele>
        <time>2021-05-23T17:06:38Z</time>
      </trkpt>
      <trkpt lat="46.3494" lon="0.22303">
        <ele>101.7</ele>
        <time>2021-05-23T17:06:39Z</time>
      </trkpt>
      <trkpt lat="46.3494" lon="0.22302">
        <ele>101.7</ele>
        <time>2021-05-23T17:06:41Z</time>
      </trkpt>
      <trkpt lat="46.34939" lon="0.223">
        <ele>101.7</ele>
        <time>2021-05-23T17:06:42Z</time>
      </trkpt>
      <trkpt lat="46.34939" lon="0.22299">
        <ele>101.7</ele>
        <time>2021-05-23T17:06:44Z</time>
      </trkpt>
      <trkpt lat="46.34939" lon="0.22297">
        <ele>101.7</ele>
        <time>2021-05-23T17:06:45Z</time>
      </trkpt>
      <trkpt lat="46.34938" lon="0.22295">
        <ele>101.7</ele>
        <time>2021-05-23T17:06:46Z</time>
      </trkpt>
      <trkpt lat="46.34937" lon="0.22294">
        <ele>101.7</ele>
        <time>2021-05-23T17:06:47Z</time>
      </trkpt>
      <trkpt lat="46.34936" lon="0.22292">
        <ele>101.7</ele>
        <time>2021-05-23T17:06:49Z</time>
      </trkpt>
      <trkpt lat="46.34935" lon="0.22291">
        <ele>101.7</ele>
        <time>2021-05-23T17:06:51Z</time>
      </trkpt>
      <trkpt lat="46.34934" lon="0.2229">
        <ele>101.7</ele>
        <time>2021-05-23T17:06:52Z</time>
      </trkpt>
      <trkpt lat="46.34933" lon="0.22289">
        <ele>101.7</ele>
        <time>2021-05-23T17:06:53Z</time>
      </trkpt>
      <trkpt lat="46.34932" lon="0.22288">
        <ele>101.7</ele>
        <time>2021-05-23T17:06:54Z</time>
      </trkpt>
      <trkpt lat="46.34932" lon="0.22287">
        <ele>101.7</ele>
        <time>2021-05-23T17:06:55Z</time>
      </trkpt>
      <trkpt lat="46.34931" lon="0.22286">
        <ele>101.7</ele>
        <time>2021-05-23T17:06:56Z</time>
      </trkpt>
      <trkpt lat="46.3493" lon="0.22285">
        <ele>101.7</ele>
        <time>2021-05-23T17:06:58Z</time>
      </trkpt>
      <trkpt lat="46.34929" lon="0.22284">
        <ele>101.7</ele>
        <time>2021-05-23T17:06:59Z</time>
      </trkpt>
      <trkpt lat="46.34928" lon="0.22283">
        <ele>101.7</ele>
        <time>2021-05-23T17:07:00Z</time>
      </trkpt>
      <trkpt lat="46.34927" lon="0.2228">
        <ele>101.7</ele>
        <time>2021-05-23T17:07:01Z</time>
      </trkpt>
      <trkpt lat="46.34926" lon="0.22279">
        <ele>101.7</ele>
        <time>2021-05-23T17:07:02Z</time>
      </trkpt>
      <trkpt lat="46.34925" lon="0.22278">
        <ele>101.8</ele>
        <time>2021-05-23T17:07:03Z</time>
      </trkpt>
      <trkpt lat="46.34925" lon="0.22277">
        <ele>101.8</ele>
        <time>2021-05-23T17:07:04Z</time>
      </trkpt>
      <trkpt lat="46.34923" lon="0.22275">
        <ele>101.8</ele>
        <time>2021-05-23T17:07:06Z</time>
      </trkpt>
      <trkpt lat="46.34922" lon="0.22274">
        <ele>101.8</ele>
        <time>2021-05-23T17:07:07Z</time>
      </trkpt>
      <trkpt lat="46.34921" lon="0.22271">
        <ele>101.8</ele>
        <time>2021-05-23T17:07:08Z</time>
      </trkpt>
      <trkpt lat="46.34921" lon="0.22271">
        <ele>101.8</ele>
        <time>2021-05-23T17:07:09Z</time>
      </trkpt>
      <trkpt lat="46.3492" lon="0.22269">
        <ele>101.8</ele>
        <time>2021-05-23T17:07:10Z</time>
      </trkpt>
      <trkpt lat="46.34919" lon="0.22268">
        <ele>101.8</ele>
        <time>2021-05-23T17:07:11Z</time>
      </trkpt>
      <trkpt lat="46.34917" lon="0.22265">
        <ele>101.9</ele>
        <time>2021-05-23T17:07:13Z</time>
      </trkpt>
      <trkpt lat="46.34917" lon="0.22264">
        <ele>101.9</ele>
        <time>2021-05-23T17:07:14Z</time>
      </trkpt>
      <trkpt lat="46.34916" lon="0.22263">
        <ele>101.9</ele>
        <time>2021-05-23T17:07:16Z</time>
      </trkpt>
      <trkpt lat="46.34915" lon="0.22262">
        <ele>101.9</ele>
        <time>2021-05-23T17:07:17Z</time>
      </trkpt>
      <trkpt lat="46.34914" lon="0.22259">
        <ele>101.9</ele>
        <time>2021-05-23T17:07:18Z</time>
      </trkpt>
      <trkpt lat="46.34913" lon="0.22258">
        <ele>102</ele>
        <time>2021-05-23T17:07:19Z</time>
      </trkpt>
      <trkpt lat="46.34912" lon="0.22255">
        <ele>102</ele>
        <time>2021-05-23T17:07:21Z</time>
      </trkpt>
      <trkpt lat="46.34911" lon="0.22254">
        <ele>102</ele>
        <time>2021-05-23T17:07:22Z</time>
      </trkpt>
      <trkpt lat="46.34911" lon="0.22253">
        <ele>102</ele>
        <time>2021-05-23T17:07:23Z</time>
      </trkpt>
      <trkpt lat="46.34909" lon="0.22251">
        <ele>102</ele>
        <time>2021-05-23T17:07:25Z</time>
      </trkpt>
      <trkpt lat="46.34908" lon="0.2225">
        <ele>102</ele>
        <time>2021-05-23T17:07:26Z</time>
      </trkpt>
      <trkpt lat="46.34908" lon="0.22249">
        <ele>102</ele>
        <time>2021-05-23T17:07:27Z</time>
      </trkpt>
      <trkpt lat="46.34906" lon="0.22247">
        <ele>102.1</ele>
        <time>2021-05-23T17:07:28Z</time>
      </trkpt>
      <trkpt lat="46.34906" lon="0.22246">
        <ele>102.1</ele>
        <time>2021-05-23T17:07:30Z</time>
      </trkpt>
      <trkpt lat="46.34905" lon="0.22245">
        <ele>102.1</ele>
        <time>2021-05-23T17:07:31Z</time>
      </trkpt>
      <trkpt lat="46.34904" lon="0.22243">
        <ele>102.1</ele>
        <time>2021-05-23T17:07:32Z</time>
      </trkpt>
      <trkpt lat="46.34904" lon="0.22241">
        <ele>102.1</ele>
        <time>2021-05-23T17:07:33Z</time>
      </trkpt>
      <trkpt lat="46.34903" lon="0.2224">
        <ele>102.1</ele>
        <time>2021-05-23T17:07:34Z</time>
      </trkpt>
      <trkpt lat="46.34903" lon="0.22239">
        <ele>102.1</ele>
        <time>2021-05-23T17:07:35Z</time>
      </trkpt>
      <trkpt lat="46.34902" lon="0.22237">
        <ele>102.1</ele>
        <time>2021-05-23T17:07:37Z</time>
      </trkpt>
      <trkpt lat="46.34902" lon="0.22234">
        <ele>102.1</ele>
        <time>2021-05-23T17:07:38Z</time>
      </trkpt>
      <trkpt lat="46.34902" lon="0.22233">
        <ele>102.1</ele>
        <time>2021-05-23T17:07:39Z</time>
      </trkpt>
      <trkpt lat="46.34902" lon="0.22231">
        <ele>102.1</ele>
        <time>2021-05-23T17:07:41Z</time>
      </trkpt>
      <trkpt lat="46.34901" lon="0.2223">
        <ele>102.1</ele>
        <time>2021-05-23T17:07:42Z</time>
      </trkpt>
      <trkpt lat="46.34899" lon="0.22227">
        <ele>102.1</ele>
        <time>2021-05-23T17:07:43Z</time>
      </trkpt>
      <trkpt lat="46.34898" lon="0.22226">
        <ele>102.2</ele>
        <time>2021-05-23T17:07:45Z</time>
      </trkpt>
      <trkpt lat="46.34897" lon="0.22226">
        <ele>102.2</ele>
        <time>2021-05-23T17:07:46Z</time>
      </trkpt>
      <trkpt lat="46.34896" lon="0.22225">
        <ele>102.2</ele>
        <time>2021-05-23T17:07:47Z</time>
      </trkpt>
      <trkpt lat="46.34895" lon="0.22225">
        <ele>102.2</ele>
        <time>2021-05-23T17:07:48Z</time>
      </trkpt>
      <trkpt lat="46.34894" lon="0.22224">
        <ele>102.2</ele>
        <time>2021-05-23T17:07:49Z</time>
      </trkpt>
      <trkpt lat="46.34893" lon="0.22223">
        <ele>102.2</ele>
        <time>2021-05-23T17:07:50Z</time>
      </trkpt>
      <trkpt lat="46.34892" lon="0.22222">
        <ele>102.2</ele>
        <time>2021-05-23T17:07:52Z</time>
      </trkpt>
      <trkpt lat="46.34891" lon="0.22221">
        <ele>102.2</ele>
        <time>2021-05-23T17:07:53Z</time>
      </trkpt>
      <trkpt lat="46.3489" lon="0.2222">
        <ele>102.2</ele>
        <time>2021-05-23T17:07:54Z</time>
      </trkpt>
      <trkpt lat="46.34889" lon="0.22219">
        <ele>102.2</ele>
        <time>2021-05-23T17:07:55Z</time>
      </trkpt>
      <trkpt lat="46.34888" lon="0.22218">
        <ele>102.2</ele>
        <time>2021-05-23T17:07:56Z</time>
      </trkpt>
      <trkpt lat="46.34888" lon="0.22217">
        <ele>102.2</ele>
        <time>2021-05-23T17:07:57Z</time>
      </trkpt>
      <trkpt lat="46.34886" lon="0.22215">
        <ele>102.3</ele>
        <time>2021-05-23T17:07:58Z</time>
      </trkpt>
      <trkpt lat="46.34886" lon="0.22214">
        <ele>102.3</ele>
        <time>2021-05-23T17:07:59Z</time>
      </trkpt>
      <trkpt lat="46.34885" lon="0.22213">
        <ele>102.3</ele>
        <time>2021-05-23T17:08:00Z</time>
      </trkpt>
      <trkpt lat="46.34885" lon="0.22211">
        <ele>102.3</ele>
        <time>2021-05-23T17:08:01Z</time>
      </trkpt>
      <trkpt lat="46.34884" lon="0.2221">
        <ele>102.3</ele>
        <time>2021-05-23T17:08:02Z</time>
      </trkpt>
      <trkpt lat="46.34883" lon="0.22208">
        <ele>102.3</ele>
        <time>2021-05-23T17:08:04Z</time>
      </trkpt>
      <trkpt lat="46.34882" lon="0.22205">
        <ele>102.3</ele>
        <time>2021-05-23T17:08:05Z</time>
      </trkpt>
      <trkpt lat="46.34882" lon="0.22204">
        <ele>102.3</ele>
        <time>2021-05-23T17:08:06Z</time>
      </trkpt>
      <trkpt lat="46.34882" lon="0.22203">
        <ele>102.3</ele>
        <time>2021-05-23T17:08:07Z</time>
      </trkpt>
      <trkpt lat="46.34881" lon="0.222">
        <ele>102.3</ele>
        <time>2021-05-23T17:08:09Z</time>
      </trkpt>
      <trkpt lat="46.34881" lon="0.22199">
        <ele>102.4</ele>
        <time>2021-05-23T17:08:10Z</time>
      </trkpt>
      <trkpt lat="46.3488" lon="0.22197">
        <ele>102.4</ele>
        <time>2021-05-23T17:08:11Z</time>
      </trkpt>
      <trkpt lat="46.34879" lon="0.22196">
        <ele>102.4</ele>
        <time>2021-05-23T17:08:12Z</time>
      </trkpt>
      <trkpt lat="46.34878" lon="0.22195">
        <ele>102.4</ele>
        <time>2021-05-23T17:08:13Z</time>
      </trkpt>
      <trkpt lat="46.34878" lon="0.22194">
        <ele>102.4</ele>
        <time>2021-05-23T17:08:15Z</time>
      </trkpt>
      <trkpt lat="46.34877" lon="0.22193">
        <ele>102.4</ele>
        <time>2021-05-23T17:08:16Z</time>
      </trkpt>
      <trkpt lat="46.34876" lon="0.22191">
        <ele>102.4</ele>
        <time>2021-05-23T17:08:18Z</time>
      </trkpt>
      <trkpt lat="46.34875" lon="0.2219">
        <ele>102.4</ele>
        <time>2021-05-23T17:08:19Z</time>
      </trkpt>
      <trkpt lat="46.34874" lon="0.22189">
        <ele>102.4</ele>
        <time>2021-05-23T17:08:20Z</time>
      </trkpt>
      <trkpt lat="46.34873" lon="0.22188">
        <ele>102.4</ele>
        <time>2021-05-23T17:08:21Z</time>
      </trkpt>
      <trkpt lat="46.34872" lon="0.22188">
        <ele>102.5</ele>
        <time>2021-05-23T17:08:22Z</time>
      </trkpt>
      <trkpt lat="46.3487" lon="0.22187">
        <ele>102.5</ele>
        <time>2021-05-23T17:08:24Z</time>
      </trkpt>
      <trkpt lat="46.34869" lon="0.22186">
        <ele>102.5</ele>
        <time>2021-05-23T17:08:25Z</time>
      </trkpt>
      <trkpt lat="46.34867" lon="0.22186">
        <ele>102.5</ele>
        <time>2021-05-23T17:08:26Z</time>
      </trkpt>
      <trkpt lat="46.34864" lon="0.22184">
        <ele>102.5</ele>
        <time>2021-05-23T17:08:28Z</time>
      </trkpt>
      <trkpt lat="46.34863" lon="0.22184">
        <ele>102.5</ele>
        <time>2021-05-23T17:08:29Z</time>
      </trkpt>
      <trkpt lat="46.34863" lon="0.22183">
        <ele>102.5</ele>
        <time>2021-05-23T17:08:30Z</time>
      </trkpt>
      <trkpt lat="46.34862" lon="0.22182">
        <ele>102.5</ele>
        <time>2021-05-23T17:08:32Z</time>
      </trkpt>
      <trkpt lat="46.34862" lon="0.2218">
        <ele>102.5</ele>
        <time>2021-05-23T17:08:34Z</time>
      </trkpt>
      <trkpt lat="46.34861" lon="0.22179">
        <ele>102.6</ele>
        <time>2021-05-23T17:08:35Z</time>
      </trkpt>
      <trkpt lat="46.34861" lon="0.22177">
        <ele>102.6</ele>
        <time>2021-05-23T17:08:36Z</time>
      </trkpt>
      <trkpt lat="46.3486" lon="0.22176">
        <ele>102.6</ele>
        <time>2021-05-23T17:08:37Z</time>
      </trkpt>
      <trkpt lat="46.3486" lon="0.22174">
        <ele>102.6</ele>
        <time>2021-05-23T17:08:38Z</time>
      </trkpt>
      <trkpt lat="46.3486" lon="0.22173">
        <ele>102.6</ele>
        <time>2021-05-23T17:08:39Z</time>
      </trkpt>
      <trkpt lat="46.3486" lon="0.22172">
        <ele>102.6</ele>
        <time>2021-05-23T17:08:40Z</time>
      </trkpt>
      <trkpt lat="46.34859" lon="0.22168">
        <ele>102.6</ele>
        <time>2021-05-23T17:08:41Z</time>
      </trkpt>
      <trkpt lat="46.34859" lon="0.22167">
        <ele>102.6</ele>
        <time>2021-05-23T17:08:43Z</time>
      </trkpt>
      <trkpt lat="46.34858" lon="0.22166">
        <ele>102.6</ele>
        <time>2021-05-23T17:08:44Z</time>
      </trkpt>
      <trkpt lat="46.34858" lon="0.22164">
        <ele>102.7</ele>
        <time>2021-05-23T17:08:45Z</time>
      </trkpt>
      <trkpt lat="46.34857" lon="0.22163">
        <ele>102.7</ele>
        <time>2021-05-23T17:08:46Z</time>
      </trkpt>
      <trkpt lat="46.34857" lon="0.22161">
        <ele>102.7</ele>
        <time>2021-05-23T17:08:47Z</time>
      </trkpt>
      <trkpt lat="46.34856" lon="0.22159">
        <ele>102.7</ele>
        <time>2021-05-23T17:08:48Z</time>
      </trkpt>
      <trkpt lat="46.34855" lon="0.22158">
        <ele>102.7</ele>
        <time>2021-05-23T17:08:49Z</time>
      </trkpt>
      <trkpt lat="46.34855" lon="0.22156">
        <ele>102.7</ele>
        <time>2021-05-23T17:08:51Z</time>
      </trkpt>
      <trkpt lat="46.34854" lon="0.22154">
        <ele>102.7</ele>
        <time>2021-05-23T17:08:52Z</time>
      </trkpt>
      <trkpt lat="46.34854" lon="0.22152">
        <ele>102.7</ele>
        <time>2021-05-23T17:08:54Z</time>
      </trkpt>
      <trkpt lat="46.34853" lon="0.22151">
        <ele>102.7</ele>
        <time>2021-05-23T17:08:55Z</time>
      </trkpt>
      <trkpt lat="46.34853" lon="0.2215">
        <ele>102.8</ele>
        <time>2021-05-23T17:08:56Z</time>
      </trkpt>
      <trkpt lat="46.34853" lon="0.22149">
        <ele>102.8</ele>
        <time>2021-05-23T17:08:57Z</time>
      </trkpt>
      <trkpt lat="46.34852" lon="0.22147">
        <ele>102.8</ele>
        <time>2021-05-23T17:08:58Z</time>
      </trkpt>
      <trkpt lat="46.34852" lon="0.22146">
        <ele>102.8</ele>
        <time>2021-05-23T17:09:00Z</time>
      </trkpt>
      <trkpt lat="46.34852" lon="0.22144">
        <ele>102.8</ele>
        <time>2021-05-23T17:09:01Z</time>
      </trkpt>
      <trkpt lat="46.34851" lon="0.22143">
        <ele>102.8</ele>
        <time>2021-05-23T17:09:02Z</time>
      </trkpt>
      <trkpt lat="46.34851" lon="0.22141">
        <ele>102.8</ele>
        <time>2021-05-23T17:09:03Z</time>
      </trkpt>
      <trkpt lat="46.34851" lon="0.2214">
        <ele>102.8</ele>
        <time>2021-05-23T17:09:04Z</time>
      </trkpt>
      <trkpt lat="46.34851" lon="0.22138">
        <ele>102.8</ele>
        <time>2021-05-23T17:09:05Z</time>
      </trkpt>
      <trkpt lat="46.3485" lon="0.22137">
        <ele>102.8</ele>
        <time>2021-05-23T17:09:06Z</time>
      </trkpt>
      <trkpt lat="46.34848" lon="0.22134">
        <ele>102.8</ele>
        <time>2021-05-23T17:09:07Z</time>
      </trkpt>
      <trkpt lat="46.34847" lon="0.22133">
        <ele>102.8</ele>
        <time>2021-05-23T17:09:09Z</time>
      </trkpt>
      <trkpt lat="46.34846" lon="0.22132">
        <ele>102.8</ele>
        <time>2021-05-23T17:09:10Z</time>
      </trkpt>
      <trkpt lat="46.34845" lon="0.22131">
        <ele>102.8</ele>
        <time>2021-05-23T17:09:11Z</time>
      </trkpt>
      <trkpt lat="46.34844" lon="0.2213">
        <ele>102.8</ele>
        <time>2021-05-23T17:09:12Z</time>
      </trkpt>
      <trkpt lat="46.34842" lon="0.22128">
        <ele>102.9</ele>
        <time>2021-05-23T17:09:13Z</time>
      </trkpt>
      <trkpt lat="46.34839" lon="0.22127">
        <ele>102.9</ele>
        <time>2021-05-23T17:09:15Z</time>
      </trkpt>
      <trkpt lat="46.34838" lon="0.22126">
        <ele>102.9</ele>
        <time>2021-05-23T17:09:16Z</time>
      </trkpt>
      <trkpt lat="46.34836" lon="0.22125">
        <ele>102.9</ele>
        <time>2021-05-23T17:09:17Z</time>
      </trkpt>
      <trkpt lat="46.34833" lon="0.22122">
        <ele>102.9</ele>
        <time>2021-05-23T17:09:18Z</time>
      </trkpt>
      <trkpt lat="46.34833" lon="0.22122">
        <ele>102.9</ele>
        <time>2021-05-23T17:09:19Z</time>
      </trkpt>
      <trkpt lat="46.34832" lon="0.2212">
        <ele>102.9</ele>
        <time>2021-05-23T17:09:20Z</time>
      </trkpt>
      <trkpt lat="46.34831" lon="0.22119">
        <ele>103</ele>
        <time>2021-05-23T17:09:21Z</time>
      </trkpt>
      <trkpt lat="46.34828" lon="0.22115">
        <ele>103</ele>
        <time>2021-05-23T17:09:23Z</time>
      </trkpt>
      <trkpt lat="46.34828" lon="0.22114">
        <ele>103</ele>
        <time>2021-05-23T17:09:24Z</time>
      </trkpt>
      <trkpt lat="46.34826" lon="0.22113">
        <ele>103</ele>
        <time>2021-05-23T17:09:25Z</time>
      </trkpt>
      <trkpt lat="46.34825" lon="0.22112">
        <ele>103</ele>
        <time>2021-05-23T17:09:26Z</time>
      </trkpt>
      <trkpt lat="46.34823" lon="0.22109">
        <ele>103</ele>
        <time>2021-05-23T17:09:27Z</time>
      </trkpt>
      <trkpt lat="46.34822" lon="0.22108">
        <ele>103</ele>
        <time>2021-05-23T17:09:28Z</time>
      </trkpt>
      <trkpt lat="46.34821" lon="0.22106">
        <ele>103.1</ele>
        <time>2021-05-23T17:09:30Z</time>
      </trkpt>
      <trkpt lat="46.3482" lon="0.22105">
        <ele>103.1</ele>
        <time>2021-05-23T17:09:31Z</time>
      </trkpt>
      <trkpt lat="46.3482" lon="0.22103">
        <ele>103.1</ele>
        <time>2021-05-23T17:09:32Z</time>
      </trkpt>
      <trkpt lat="46.34818" lon="0.221">
        <ele>103.1</ele>
        <time>2021-05-23T17:09:34Z</time>
      </trkpt>
      <trkpt lat="46.34818" lon="0.22099">
        <ele>103.1</ele>
        <time>2021-05-23T17:09:35Z</time>
      </trkpt>
      <trkpt lat="46.34817" lon="0.22097">
        <ele>103.1</ele>
        <time>2021-05-23T17:09:36Z</time>
      </trkpt>
      <trkpt lat="46.34816" lon="0.22093">
        <ele>103.1</ele>
        <time>2021-05-23T17:09:38Z</time>
      </trkpt>
      <trkpt lat="46.34816" lon="0.22092">
        <ele>103.1</ele>
        <time>2021-05-23T17:09:39Z</time>
      </trkpt>
      <trkpt lat="46.34815" lon="0.22091">
        <ele>103.1</ele>
        <time>2021-05-23T17:09:40Z</time>
      </trkpt>
      <trkpt lat="46.34815" lon="0.22089">
        <ele>103.1</ele>
        <time>2021-05-23T17:09:41Z</time>
      </trkpt>
      <trkpt lat="46.34814" lon="0.22088">
        <ele>103.2</ele>
        <time>2021-05-23T17:09:43Z</time>
      </trkpt>
      <trkpt lat="46.34813" lon="0.22086">
        <ele>103.2</ele>
        <time>2021-05-23T17:09:44Z</time>
      </trkpt>
      <trkpt lat="46.34813" lon="0.22085">
        <ele>103.2</ele>
        <time>2021-05-23T17:09:45Z</time>
      </trkpt>
      <trkpt lat="46.34813" lon="0.22084">
        <ele>103.2</ele>
        <time>2021-05-23T17:09:46Z</time>
      </trkpt>
      <trkpt lat="46.34813" lon="0.22083">
        <ele>103.2</ele>
        <time>2021-05-23T17:09:47Z</time>
      </trkpt>
      <trkpt lat="46.34813" lon="0.22081">
        <ele>103.2</ele>
        <time>2021-05-23T17:09:48Z</time>
      </trkpt>
      <trkpt lat="46.34813" lon="0.2208">
        <ele>103.2</ele>
        <time>2021-05-23T17:09:50Z</time>
      </trkpt>
      <trkpt lat="46.34814" lon="0.22079">
        <ele>103.2</ele>
        <time>2021-05-23T17:09:51Z</time>
      </trkpt>
      <trkpt lat="46.34814" lon="0.22078">
        <ele>103.2</ele>
        <time>2021-05-23T17:09:52Z</time>
      </trkpt>
      <trkpt lat="46.34815" lon="0.22076">
        <ele>103.2</ele>
        <time>2021-05-23T17:09:54Z</time>
      </trkpt>
      <trkpt lat="46.34815" lon="0.22075">
        <ele>103.2</ele>
        <time>2021-05-23T17:09:55Z</time>
      </trkpt>
      <trkpt lat="46.34815" lon="0.22074">
        <ele>103.2</ele>
        <time>2021-05-23T17:09:56Z</time>
      </trkpt>
      <trkpt lat="46.34816" lon="0.22073">
        <ele>103.2</ele>
        <time>2021-05-23T17:09:57Z</time>
      </trkpt>
      <trkpt lat="46.34816" lon="0.22071">
        <ele>103.2</ele>
        <time>2021-05-23T17:09:59Z</time>
      </trkpt>
      <trkpt lat="46.34816" lon="0.2207">
        <ele>103.2</ele>
        <time>2021-05-23T17:10:00Z</time>
      </trkpt>
      <trkpt lat="46.34816" lon="0.22069">
        <ele>103.2</ele>
        <time>2021-05-23T17:10:01Z</time>
      </trkpt>
      <trkpt lat="46.34816" lon="0.22067">
        <ele>103.3</ele>
        <time>2021-05-23T17:10:02Z</time>
      </trkpt>
      <trkpt lat="46.34816" lon="0.22065">
        <ele>103.3</ele>
        <time>2021-05-23T17:10:04Z</time>
      </trkpt>
      <trkpt lat="46.34816" lon="0.22064">
        <ele>103.3</ele>
        <time>2021-05-23T17:10:05Z</time>
      </trkpt>
      <trkpt lat="46.34815" lon="0.22062">
        <ele>103.3</ele>
        <time>2021-05-23T17:10:06Z</time>
      </trkpt>
      <trkpt lat="46.34815" lon="0.22061">
        <ele>103.3</ele>
        <time>2021-05-23T17:10:07Z</time>
      </trkpt>
      <trkpt lat="46.34814" lon="0.22059">
        <ele>103.3</ele>
        <time>2021-05-23T17:10:08Z</time>
      </trkpt>
      <trkpt lat="46.34813" lon="0.22056">
        <ele>103.3</ele>
        <time>2021-05-23T17:10:09Z</time>
      </trkpt>
      <trkpt lat="46.34813" lon="0.22055">
        <ele>103.3</ele>
        <time>2021-05-23T17:10:10Z</time>
      </trkpt>
      <trkpt lat="46.34812" lon="0.22053">
        <ele>103.3</ele>
        <time>2021-05-23T17:10:11Z</time>
      </trkpt>
      <trkpt lat="46.34811" lon="0.22052">
        <ele>103.4</ele>
        <time>2021-05-23T17:10:12Z</time>
      </trkpt>
      <trkpt lat="46.3481" lon="0.22049">
        <ele>103.4</ele>
        <time>2021-05-23T17:10:14Z</time>
      </trkpt>
      <trkpt lat="46.34809" lon="0.22046">
        <ele>103.4</ele>
        <time>2021-05-23T17:10:15Z</time>
      </trkpt>
      <trkpt lat="46.34809" lon="0.22045">
        <ele>103.4</ele>
        <time>2021-05-23T17:10:16Z</time>
      </trkpt>
      <trkpt lat="46.34809" lon="0.22044">
        <ele>103.4</ele>
        <time>2021-05-23T17:10:17Z</time>
      </trkpt>
      <trkpt lat="46.34808" lon="0.22041">
        <ele>103.4</ele>
        <time>2021-05-23T17:10:19Z</time>
      </trkpt>
      <trkpt lat="46.34807" lon="0.22039">
        <ele>103.4</ele>
        <time>2021-05-23T17:10:20Z</time>
      </trkpt>
      <trkpt lat="46.34807" lon="0.22037">
        <ele>103.4</ele>
        <time>2021-05-23T17:10:21Z</time>
      </trkpt>
      <trkpt lat="46.34806" lon="0.22035">
        <ele>103.4</ele>
        <time>2021-05-23T17:10:22Z</time>
      </trkpt>
      <trkpt lat="46.34806" lon="0.22034">
        <ele>103.4</ele>
        <time>2021-05-23T17:10:23Z</time>
      </trkpt>
      <trkpt lat="46.34805" lon="0.22031">
        <ele>103.4</ele>
        <time>2021-05-23T17:10:24Z</time>
      </trkpt>
      <trkpt lat="46.34804" lon="0.2203">
        <ele>103.4</ele>
        <time>2021-05-23T17:10:25Z</time>
      </trkpt>
      <trkpt lat="46.34804" lon="0.22029">
        <ele>103.4</ele>
        <time>2021-05-23T17:10:27Z</time>
      </trkpt>
      <trkpt lat="46.34803" lon="0.22028">
        <ele>103.5</ele>
        <time>2021-05-23T17:10:28Z</time>
      </trkpt>
      <trkpt lat="46.34803" lon="0.22027">
        <ele>103.5</ele>
        <time>2021-05-23T17:10:29Z</time>
      </trkpt>
      <trkpt lat="46.34802" lon="0.22025">
        <ele>103.5</ele>
        <time>2021-05-23T17:10:30Z</time>
      </trkpt>
      <trkpt lat="46.34801" lon="0.22023">
        <ele>103.5</ele>
        <time>2021-05-23T17:10:31Z</time>
      </trkpt>
      <trkpt lat="46.348" lon="0.22021">
        <ele>103.5</ele>
        <time>2021-05-23T17:10:33Z</time>
      </trkpt>
      <trkpt lat="46.348" lon="0.2202">
        <ele>103.5</ele>
        <time>2021-05-23T17:10:34Z</time>
      </trkpt>
      <trkpt lat="46.34799" lon="0.22019">
        <ele>103.5</ele>
        <time>2021-05-23T17:10:35Z</time>
      </trkpt>
      <trkpt lat="46.34798" lon="0.22017">
        <ele>103.5</ele>
        <time>2021-05-23T17:10:36Z</time>
      </trkpt>
      <trkpt lat="46.34797" lon="0.22016">
        <ele>103.5</ele>
        <time>2021-05-23T17:10:37Z</time>
      </trkpt>
      <trkpt lat="46.34796" lon="0.22013">
        <ele>103.6</ele>
        <time>2021-05-23T17:10:39Z</time>
      </trkpt>
      <trkpt lat="46.34794" lon="0.22011">
        <ele>103.6</ele>
        <time>2021-05-23T17:10:40Z</time>
      </trkpt>
      <trkpt lat="46.34794" lon="0.2201">
        <ele>103.6</ele>
        <time>2021-05-23T17:10:41Z</time>
      </trkpt>
      <trkpt lat="46.34793" lon="0.22009">
        <ele>103.6</ele>
        <time>2021-05-23T17:10:42Z</time>
      </trkpt>
      <trkpt lat="46.34792" lon="0.22008">
        <ele>103.6</ele>
        <time>2021-05-23T17:10:43Z</time>
      </trkpt>
      <trkpt lat="46.3479" lon="0.22006">
        <ele>103.7</ele>
        <time>2021-05-23T17:10:45Z</time>
      </trkpt>
      <trkpt lat="46.34789" lon="0.22005">
        <ele>103.7</ele>
        <time>2021-05-23T17:10:46Z</time>
      </trkpt>
      <trkpt lat="46.34788" lon="0.22004">
        <ele>103.7</ele>
        <time>2021-05-23T17:10:47Z</time>
      </trkpt>
      <trkpt lat="46.34787" lon="0.22002">
        <ele>103.7</ele>
        <time>2021-05-23T17:10:48Z</time>
      </trkpt>
      <trkpt lat="46.34786" lon="0.21999">
        <ele>103.7</ele>
        <time>2021-05-23T17:10:49Z</time>
      </trkpt>
      <trkpt lat="46.34785" lon="0.21998">
        <ele>103.8</ele>
        <time>2021-05-23T17:10:51Z</time>
      </trkpt>
      <trkpt lat="46.34785" lon="0.21996">
        <ele>103.8</ele>
        <time>2021-05-23T17:10:52Z</time>
      </trkpt>
      <trkpt lat="46.34784" lon="0.21995">
        <ele>103.8</ele>
        <time>2021-05-23T17:10:53Z</time>
      </trkpt>
      <trkpt lat="46.34784" lon="0.21993">
        <ele>103.8</ele>
        <time>2021-05-23T17:10:54Z</time>
      </trkpt>
      <trkpt lat="46.34784" lon="0.21992">
        <ele>103.8</ele>
        <time>2021-05-23T17:10:55Z</time>
      </trkpt>
      <trkpt lat="46.34783" lon="0.2199">
        <ele>103.8</ele>
        <time>2021-05-23T17:10:56Z</time>
      </trkpt>
      <trkpt lat="46.34783" lon="0.21988">
        <ele>103.8</ele>
        <time>2021-05-23T17:10:57Z</time>
      </trkpt>
      <trkpt lat="46.34782" lon="0.21985">
        <ele>103.9</ele>
        <time>2021-05-23T17:10:59Z</time>
      </trkpt>
      <trkpt lat="46.34782" lon="0.21984">
        <ele>103.9</ele>
        <time>2021-05-23T17:11:00Z</time>
      </trkpt>
      <trkpt lat="46.34782" lon="0.21983">
        <ele>103.9</ele>
        <time>2021-05-23T17:11:01Z</time>
      </trkpt>
      <trkpt lat="46.34782" lon="0.21981">
        <ele>103.9</ele>
        <time>2021-05-23T17:11:02Z</time>
      </trkpt>
      <trkpt lat="46.34782" lon="0.2198">
        <ele>103.9</ele>
        <time>2021-05-23T17:11:03Z</time>
      </trkpt>
      <trkpt lat="46.34781" lon="0.21978">
        <ele>103.9</ele>
        <time>2021-05-23T17:11:04Z</time>
      </trkpt>
      <trkpt lat="46.3478" lon="0.21976">
        <ele>104</ele>
        <time>2021-05-23T17:11:06Z</time>
      </trkpt>
      <trkpt lat="46.34779" lon="0.21975">
        <ele>104</ele>
        <time>2021-05-23T17:11:07Z</time>
      </trkpt>
      <trkpt lat="46.34778" lon="0.21974">
        <ele>104</ele>
        <time>2021-05-23T17:11:08Z</time>
      </trkpt>
      <trkpt lat="46.34778" lon="0.21972">
        <ele>104</ele>
        <time>2021-05-23T17:11:09Z</time>
      </trkpt>
      <trkpt lat="46.34777" lon="0.21971">
        <ele>104</ele>
        <time>2021-05-23T17:11:10Z</time>
      </trkpt>
      <trkpt lat="46.34776" lon="0.2197">
        <ele>104</ele>
        <time>2021-05-23T17:11:11Z</time>
      </trkpt>
      <trkpt lat="46.34775" lon="0.21969">
        <ele>104.1</ele>
        <time>2021-05-23T17:11:12Z</time>
      </trkpt>
      <trkpt lat="46.34774" lon="0.21967">
        <ele>104.1</ele>
        <time>2021-05-23T17:11:14Z</time>
      </trkpt>
      <trkpt lat="46.34773" lon="0.21967">
        <ele>104.1</ele>
        <time>2021-05-23T17:11:15Z</time>
      </trkpt>
      <trkpt lat="46.34772" lon="0.21966">
        <ele>104.1</ele>
        <time>2021-05-23T17:11:16Z</time>
      </trkpt>
      <trkpt lat="46.34772" lon="0.21965">
        <ele>104.1</ele>
        <time>2021-05-23T17:11:17Z</time>
      </trkpt>
      <trkpt lat="46.34771" lon="0.21963">
        <ele>104.1</ele>
        <time>2021-05-23T17:11:18Z</time>
      </trkpt>
      <trkpt lat="46.34771" lon="0.21961">
        <ele>104.1</ele>
        <time>2021-05-23T17:11:19Z</time>
      </trkpt>
      <trkpt lat="46.34772" lon="0.21958">
        <ele>104.1</ele>
        <time>2021-05-23T17:11:21Z</time>
      </trkpt>
      <trkpt lat="46.34772" lon="0.21957">
        <ele>104.1</ele>
        <time>2021-05-23T17:11:22Z</time>
      </trkpt>
      <trkpt lat="46.34772" lon="0.21954">
        <ele>104.1</ele>
        <time>2021-05-23T17:11:23Z</time>
      </trkpt>
      <trkpt lat="46.34772" lon="0.21953">
        <ele>104.1</ele>
        <time>2021-05-23T17:11:24Z</time>
      </trkpt>
      <trkpt lat="46.34773" lon="0.21952">
        <ele>104.1</ele>
        <time>2021-05-23T17:11:26Z</time>
      </trkpt>
      <trkpt lat="46.34773" lon="0.21951">
        <ele>104.1</ele>
        <time>2021-05-23T17:11:27Z</time>
      </trkpt>
      <trkpt lat="46.34773" lon="0.21949">
        <ele>104.1</ele>
        <time>2021-05-23T17:11:28Z</time>
      </trkpt>
      <trkpt lat="46.34774" lon="0.21947">
        <ele>104.1</ele>
        <time>2021-05-23T17:11:29Z</time>
      </trkpt>
      <trkpt lat="46.34774" lon="0.21946">
        <ele>104.1</ele>
        <time>2021-05-23T17:11:30Z</time>
      </trkpt>
      <trkpt lat="46.34774" lon="0.21944">
        <ele>104.1</ele>
        <time>2021-05-23T17:11:31Z</time>
      </trkpt>
      <trkpt lat="46.34775" lon="0.21943">
        <ele>104.2</ele>
        <time>2021-05-23T17:11:32Z</time>
      </trkpt>
      <trkpt lat="46.34775" lon="0.21941">
        <ele>104.2</ele>
        <time>2021-05-23T17:11:33Z</time>
      </trkpt>
      <trkpt lat="46.34775" lon="0.21939">
        <ele>104.2</ele>
        <time>2021-05-23T17:11:34Z</time>
      </trkpt>
      <trkpt lat="46.34776" lon="0.21937">
        <ele>104.2</ele>
        <time>2021-05-23T17:11:35Z</time>
      </trkpt>
      <trkpt lat="46.34775" lon="0.21936">
        <ele>104.2</ele>
        <time>2021-05-23T17:11:37Z</time>
      </trkpt>
      <trkpt lat="46.34775" lon="0.21934">
        <ele>104.2</ele>
        <time>2021-05-23T17:11:38Z</time>
      </trkpt>
      <trkpt lat="46.34775" lon="0.21933">
        <ele>104.2</ele>
        <time>2021-05-23T17:11:39Z</time>
      </trkpt>
      <trkpt lat="46.34775" lon="0.21932">
        <ele>104.2</ele>
        <time>2021-05-23T17:11:40Z</time>
      </trkpt>
      <trkpt lat="46.34775" lon="0.2193">
        <ele>104.2</ele>
        <time>2021-05-23T17:11:41Z</time>
      </trkpt>
      <trkpt lat="46.34775" lon="0.21929">
        <ele>104.2</ele>
        <time>2021-05-23T17:11:42Z</time>
      </trkpt>
      <trkpt lat="46.34775" lon="0.21927">
        <ele>104.2</ele>
        <time>2021-05-23T17:11:43Z</time>
      </trkpt>
      <trkpt lat="46.34774" lon="0.21925">
        <ele>104.3</ele>
        <time>2021-05-23T17:11:44Z</time>
      </trkpt>
      <trkpt lat="46.34774" lon="0.21923">
        <ele>104.3</ele>
        <time>2021-05-23T17:11:46Z</time>
      </trkpt>
      <trkpt lat="46.34773" lon="0.21921">
        <ele>104.3</ele>
        <time>2021-05-23T17:11:47Z</time>
      </trkpt>
      <trkpt lat="46.34772" lon="0.21917">
        <ele>104.3</ele>
        <time>2021-05-23T17:11:48Z</time>
      </trkpt>
      <trkpt lat="46.34771" lon="0.21915">
        <ele>104.3</ele>
        <time>2021-05-23T17:11:49Z</time>
      </trkpt>
      <trkpt lat="46.34771" lon="0.21914">
        <ele>104.3</ele>
        <time>2021-05-23T17:11:50Z</time>
      </trkpt>
      <trkpt lat="46.3477" lon="0.21913">
        <ele>104.3</ele>
        <time>2021-05-23T17:11:51Z</time>
      </trkpt>
      <trkpt lat="46.3477" lon="0.21911">
        <ele>104.3</ele>
        <time>2021-05-23T17:11:52Z</time>
      </trkpt>
      <trkpt lat="46.34769" lon="0.21909">
        <ele>104.4</ele>
        <time>2021-05-23T17:11:53Z</time>
      </trkpt>
      <trkpt lat="46.34768" lon="0.21906">
        <ele>104.4</ele>
        <time>2021-05-23T17:11:55Z</time>
      </trkpt>
      <trkpt lat="46.34767" lon="0.21905">
        <ele>104.4</ele>
        <time>2021-05-23T17:11:56Z</time>
      </trkpt>
      <trkpt lat="46.34767" lon="0.21903">
        <ele>104.4</ele>
        <time>2021-05-23T17:11:57Z</time>
      </trkpt>
      <trkpt lat="46.34766" lon="0.21902">
        <ele>104.4</ele>
        <time>2021-05-23T17:11:58Z</time>
      </trkpt>
      <trkpt lat="46.34766" lon="0.21899">
        <ele>104.4</ele>
        <time>2021-05-23T17:12:00Z</time>
      </trkpt>
      <trkpt lat="46.34765" lon="0.21898">
        <ele>104.4</ele>
        <time>2021-05-23T17:12:01Z</time>
      </trkpt>
      <trkpt lat="46.34765" lon="0.21896">
        <ele>104.4</ele>
        <time>2021-05-23T17:12:02Z</time>
      </trkpt>
      <trkpt lat="46.34765" lon="0.21895">
        <ele>104.4</ele>
        <time>2021-05-23T17:12:03Z</time>
      </trkpt>
      <trkpt lat="46.34765" lon="0.21893">
        <ele>104.5</ele>
        <time>2021-05-23T17:12:04Z</time>
      </trkpt>
      <trkpt lat="46.34764" lon="0.21892">
        <ele>104.5</ele>
        <time>2021-05-23T17:12:06Z</time>
      </trkpt>
      <trkpt lat="46.34764" lon="0.21891">
        <ele>104.5</ele>
        <time>2021-05-23T17:12:07Z</time>
      </trkpt>
      <trkpt lat="46.34764" lon="0.2189">
        <ele>104.5</ele>
        <time>2021-05-23T17:12:08Z</time>
      </trkpt>
      <trkpt lat="46.34764" lon="0.21889">
        <ele>104.5</ele>
        <time>2021-05-23T17:12:09Z</time>
      </trkpt>
      <trkpt lat="46.34764" lon="0.21888">
        <ele>104.5</ele>
        <time>2021-05-23T17:12:10Z</time>
      </trkpt>
      <trkpt lat="46.34763" lon="0.21887">
        <ele>104.5</ele>
        <time>2021-05-23T17:12:12Z</time>
      </trkpt>
      <trkpt lat="46.34763" lon="0.21886">
        <ele>104.5</ele>
        <time>2021-05-23T17:12:13Z</time>
      </trkpt>
      <trkpt lat="46.34763" lon="0.21885">
        <ele>104.5</ele>
        <time>2021-05-23T17:12:14Z</time>
      </trkpt>
      <trkpt lat="46.34762" lon="0.21882">
        <ele>104.5</ele>
        <time>2021-05-23T17:12:15Z</time>
      </trkpt>
      <trkpt lat="46.34761" lon="0.21881">
        <ele>104.5</ele>
        <time>2021-05-23T17:12:16Z</time>
      </trkpt>
      <trkpt lat="46.34761" lon="0.2188">
        <ele>104.6</ele>
        <time>2021-05-23T17:12:17Z</time>
      </trkpt>
      <trkpt lat="46.3476" lon="0.21878">
        <ele>104.6</ele>
        <time>2021-05-23T17:12:18Z</time>
      </trkpt>
      <trkpt lat="46.34759" lon="0.21876">
        <ele>104.6</ele>
        <time>2021-05-23T17:12:19Z</time>
      </trkpt>
      <trkpt lat="46.34757" lon="0.21872">
        <ele>104.6</ele>
        <time>2021-05-23T17:12:20Z</time>
      </trkpt>
      <trkpt lat="46.34757" lon="0.21871">
        <ele>104.6</ele>
        <time>2021-05-23T17:12:21Z</time>
      </trkpt>
      <trkpt lat="46.34756" lon="0.21867">
        <ele>104.7</ele>
        <time>2021-05-23T17:12:23Z</time>
      </trkpt>
      <trkpt lat="46.34755" lon="0.21866">
        <ele>104.7</ele>
        <time>2021-05-23T17:12:24Z</time>
      </trkpt>
      <trkpt lat="46.34754" lon="0.21863">
        <ele>104.7</ele>
        <time>2021-05-23T17:12:25Z</time>
      </trkpt>
      <trkpt lat="46.34753" lon="0.21862">
        <ele>104.7</ele>
        <time>2021-05-23T17:12:26Z</time>
      </trkpt>
      <trkpt lat="46.34753" lon="0.2186">
        <ele>104.7</ele>
        <time>2021-05-23T17:12:27Z</time>
      </trkpt>
      <trkpt lat="46.34752" lon="0.21858">
        <ele>104.7</ele>
        <time>2021-05-23T17:12:28Z</time>
      </trkpt>
      <trkpt lat="46.34752" lon="0.21856">
        <ele>104.7</ele>
        <time>2021-05-23T17:12:29Z</time>
      </trkpt>
      <trkpt lat="46.34751" lon="0.21851">
        <ele>104.7</ele>
        <time>2021-05-23T17:12:31Z</time>
      </trkpt>
      <trkpt lat="46.34751" lon="0.21851">
        <ele>104.7</ele>
        <time>2021-05-23T17:12:32Z</time>
      </trkpt>
      <trkpt lat="46.34751" lon="0.21849">
        <ele>104.7</ele>
        <time>2021-05-23T17:12:33Z</time>
      </trkpt>
      <trkpt lat="46.3475" lon="0.21847">
        <ele>104.7</ele>
        <time>2021-05-23T17:12:35Z</time>
      </trkpt>
      <trkpt lat="46.3475" lon="0.21845">
        <ele>104.7</ele>
        <time>2021-05-23T17:12:36Z</time>
      </trkpt>
      <trkpt lat="46.34749" lon="0.21844">
        <ele>104.7</ele>
        <time>2021-05-23T17:12:37Z</time>
      </trkpt>
      <trkpt lat="46.34749" lon="0.21842">
        <ele>104.7</ele>
        <time>2021-05-23T17:12:38Z</time>
      </trkpt>
      <trkpt lat="46.34749" lon="0.21839">
        <ele>104.7</ele>
        <time>2021-05-23T17:12:39Z</time>
      </trkpt>
      <trkpt lat="46.34748" lon="0.21838">
        <ele>104.7</ele>
        <time>2021-05-23T17:12:40Z</time>
      </trkpt>
      <trkpt lat="46.34748" lon="0.21837">
        <ele>104.7</ele>
        <time>2021-05-23T17:12:41Z</time>
      </trkpt>
      <trkpt lat="46.34747" lon="0.21834">
        <ele>104.7</ele>
        <time>2021-05-23T17:12:42Z</time>
      </trkpt>
      <trkpt lat="46.34746" lon="0.21833">
        <ele>104.7</ele>
        <time>2021-05-23T17:12:43Z</time>
      </trkpt>
      <trkpt lat="46.34746" lon="0.21832">
        <ele>104.8</ele>
        <time>2021-05-23T17:12:44Z</time>
      </trkpt>
      <trkpt lat="46.34745" lon="0.21829">
        <ele>104.8</ele>
        <time>2021-05-23T17:12:46Z</time>
      </trkpt>
      <trkpt lat="46.34745" lon="0.21827">
        <ele>104.8</ele>
        <time>2021-05-23T17:12:47Z</time>
      </trkpt>
      <trkpt lat="46.34745" lon="0.21826">
        <ele>104.8</ele>
        <time>2021-05-23T17:12:48Z</time>
      </trkpt>
      <trkpt lat="46.34744" lon="0.21823">
        <ele>104.8</ele>
        <time>2021-05-23T17:12:49Z</time>
      </trkpt>
      <trkpt lat="46.34744" lon="0.21822">
        <ele>104.8</ele>
        <time>2021-05-23T17:12:50Z</time>
      </trkpt>
      <trkpt lat="46.34743" lon="0.2182">
        <ele>104.8</ele>
        <time>2021-05-23T17:12:51Z</time>
      </trkpt>
      <trkpt lat="46.34743" lon="0.21819">
        <ele>104.8</ele>
        <time>2021-05-23T17:12:52Z</time>
      </trkpt>
      <trkpt lat="46.34742" lon="0.21815">
        <ele>104.9</ele>
        <time>2021-05-23T17:12:54Z</time>
      </trkpt>
      <trkpt lat="46.34741" lon="0.21814">
        <ele>104.9</ele>
        <time>2021-05-23T17:12:55Z</time>
      </trkpt>
      <trkpt lat="46.34741" lon="0.21812">
        <ele>104.9</ele>
        <time>2021-05-23T17:12:56Z</time>
      </trkpt>
      <trkpt lat="46.34741" lon="0.21811">
        <ele>104.9</ele>
        <time>2021-05-23T17:12:57Z</time>
      </trkpt>
      <trkpt lat="46.3474" lon="0.21809">
        <ele>104.9</ele>
        <time>2021-05-23T17:12:58Z</time>
      </trkpt>
      <trkpt lat="46.34739" lon="0.21808">
        <ele>105</ele>
        <time>2021-05-23T17:12:59Z</time>
      </trkpt>
      <trkpt lat="46.34738" lon="0.21806">
        <ele>105</ele>
        <time>2021-05-23T17:13:01Z</time>
      </trkpt>
      <trkpt lat="46.34737" lon="0.21804">
        <ele>105</ele>
        <time>2021-05-23T17:13:02Z</time>
      </trkpt>
      <trkpt lat="46.34737" lon="0.21802">
        <ele>105</ele>
        <time>2021-05-23T17:13:04Z</time>
      </trkpt>
      <trkpt lat="46.34737" lon="0.21801">
        <ele>105</ele>
        <time>2021-05-23T17:13:05Z</time>
      </trkpt>
      <trkpt lat="46.34737" lon="0.21799">
        <ele>105.1</ele>
        <time>2021-05-23T17:13:07Z</time>
      </trkpt>
      <trkpt lat="46.34737" lon="0.21798">
        <ele>105.1</ele>
        <time>2021-05-23T17:13:08Z</time>
      </trkpt>
      <trkpt lat="46.34736" lon="0.21796">
        <ele>105.1</ele>
        <time>2021-05-23T17:13:09Z</time>
      </trkpt>
      <trkpt lat="46.34736" lon="0.21795">
        <ele>105.1</ele>
        <time>2021-05-23T17:13:10Z</time>
      </trkpt>
      <trkpt lat="46.34737" lon="0.21793">
        <ele>105.1</ele>
        <time>2021-05-23T17:13:11Z</time>
      </trkpt>
      <trkpt lat="46.34737" lon="0.21792">
        <ele>105.1</ele>
        <time>2021-05-23T17:13:12Z</time>
      </trkpt>
      <trkpt lat="46.34736" lon="0.21789">
        <ele>105.1</ele>
        <time>2021-05-23T17:13:13Z</time>
      </trkpt>
      <trkpt lat="46.34736" lon="0.21787">
        <ele>105.1</ele>
        <time>2021-05-23T17:13:14Z</time>
      </trkpt>
      <trkpt lat="46.34736" lon="0.21785">
        <ele>105.1</ele>
        <time>2021-05-23T17:13:16Z</time>
      </trkpt>
      <trkpt lat="46.34735" lon="0.21784">
        <ele>105.1</ele>
        <time>2021-05-23T17:13:17Z</time>
      </trkpt>
      <trkpt lat="46.34735" lon="0.21782">
        <ele>105.1</ele>
        <time>2021-05-23T17:13:18Z</time>
      </trkpt>
      <trkpt lat="46.34735" lon="0.21781">
        <ele>105.1</ele>
        <time>2021-05-23T17:13:19Z</time>
      </trkpt>
      <trkpt lat="46.34734" lon="0.2178">
        <ele>105.1</ele>
        <time>2021-05-23T17:13:20Z</time>
      </trkpt>
      <trkpt lat="46.34734" lon="0.21779">
        <ele>105.1</ele>
        <time>2021-05-23T17:13:21Z</time>
      </trkpt>
      <trkpt lat="46.34733" lon="0.21777">
        <ele>105.1</ele>
        <time>2021-05-23T17:13:22Z</time>
      </trkpt>
      <trkpt lat="46.34731" lon="0.21773">
        <ele>105.2</ele>
        <time>2021-05-23T17:13:24Z</time>
      </trkpt>
      <trkpt lat="46.3473" lon="0.21772">
        <ele>105.2</ele>
        <time>2021-05-23T17:13:25Z</time>
      </trkpt>
      <trkpt lat="46.34729" lon="0.21769">
        <ele>105.2</ele>
        <time>2021-05-23T17:13:27Z</time>
      </trkpt>
      <trkpt lat="46.34728" lon="0.21767">
        <ele>105.2</ele>
        <time>2021-05-23T17:13:28Z</time>
      </trkpt>
      <trkpt lat="46.34727" lon="0.21764">
        <ele>105.2</ele>
        <time>2021-05-23T17:13:29Z</time>
      </trkpt>
      <trkpt lat="46.34727" lon="0.21763">
        <ele>105.2</ele>
        <time>2021-05-23T17:13:30Z</time>
      </trkpt>
      <trkpt lat="46.34727" lon="0.21761">
        <ele>105.2</ele>
        <time>2021-05-23T17:13:31Z</time>
      </trkpt>
      <trkpt lat="46.34727" lon="0.2176">
        <ele>105.2</ele>
        <time>2021-05-23T17:13:32Z</time>
      </trkpt>
      <trkpt lat="46.34727" lon="0.21758">
        <ele>105.3</ele>
        <time>2021-05-23T17:13:33Z</time>
      </trkpt>
      <trkpt lat="46.34726" lon="0.21756">
        <ele>105.3</ele>
        <time>2021-05-23T17:13:35Z</time>
      </trkpt>
      <trkpt lat="46.34727" lon="0.21755">
        <ele>105.3</ele>
        <time>2021-05-23T17:13:36Z</time>
      </trkpt>
      <trkpt lat="46.34726" lon="0.21753">
        <ele>105.3</ele>
        <time>2021-05-23T17:13:37Z</time>
      </trkpt>
      <trkpt lat="46.34726" lon="0.21752">
        <ele>105.3</ele>
        <time>2021-05-23T17:13:38Z</time>
      </trkpt>
      <trkpt lat="46.34726" lon="0.2175">
        <ele>105.3</ele>
        <time>2021-05-23T17:13:39Z</time>
      </trkpt>
      <trkpt lat="46.34726" lon="0.2175">
        <ele>105.3</ele>
        <time>2021-05-23T17:13:40Z</time>
      </trkpt>
      <trkpt lat="46.34725" lon="0.21749">
        <ele>105.3</ele>
        <time>2021-05-23T17:13:41Z</time>
      </trkpt>
      <trkpt lat="46.34725" lon="0.21747">
        <ele>105.3</ele>
        <time>2021-05-23T17:13:43Z</time>
      </trkpt>
      <trkpt lat="46.34725" lon="0.21745">
        <ele>105.3</ele>
        <time>2021-05-23T17:13:45Z</time>
      </trkpt>
      <trkpt lat="46.34725" lon="0.21743">
        <ele>105.3</ele>
        <time>2021-05-23T17:13:46Z</time>
      </trkpt>
      <trkpt lat="46.34725" lon="0.21742">
        <ele>105.3</ele>
        <time>2021-05-23T17:13:47Z</time>
      </trkpt>
      <trkpt lat="46.34725" lon="0.21741">
        <ele>105.3</ele>
        <time>2021-05-23T17:13:48Z</time>
      </trkpt>
      <trkpt lat="46.34726" lon="0.2174">
        <ele>105.3</ele>
        <time>2021-05-23T17:13:49Z</time>
      </trkpt>
      <trkpt lat="46.34726" lon="0.21739">
        <ele>105.4</ele>
        <time>2021-05-23T17:13:50Z</time>
      </trkpt>
      <trkpt lat="46.34726" lon="0.21738">
        <ele>105.4</ele>
        <time>2021-05-23T17:13:51Z</time>
      </trkpt>
      <trkpt lat="46.34727" lon="0.21737">
        <ele>105.4</ele>
        <time>2021-05-23T17:13:53Z</time>
      </trkpt>
      <trkpt lat="46.34727" lon="0.21734">
        <ele>105.4</ele>
        <time>2021-05-23T17:13:54Z</time>
      </trkpt>
      <trkpt lat="46.34727" lon="0.21734">
        <ele>105.4</ele>
        <time>2021-05-23T17:13:55Z</time>
      </trkpt>
      <trkpt lat="46.34727" lon="0.21732">
        <ele>105.4</ele>
        <time>2021-05-23T17:13:57Z</time>
      </trkpt>
      <trkpt lat="46.34727" lon="0.21732">
        <ele>105.4</ele>
        <time>2021-05-23T17:13:58Z</time>
      </trkpt>
      <trkpt lat="46.34727" lon="0.21731">
        <ele>105.4</ele>
        <time>2021-05-23T17:13:59Z</time>
      </trkpt>
      <trkpt lat="46.34727" lon="0.21731">
        <ele>105.4</ele>
        <time>2021-05-23T17:14:00Z</time>
      </trkpt>
      <trkpt lat="46.34727" lon="0.2173">
        <ele>105.4</ele>
        <time>2021-05-23T17:14:01Z</time>
      </trkpt>
      <trkpt lat="46.34727" lon="0.21729">
        <ele>105.4</ele>
        <time>2021-05-23T17:14:03Z</time>
      </trkpt>
      <trkpt lat="46.34726" lon="0.21728">
        <ele>105.4</ele>
        <time>2021-05-23T17:14:04Z</time>
      </trkpt>
      <trkpt lat="46.34726" lon="0.21726">
        <ele>105.4</ele>
        <time>2021-05-23T17:14:05Z</time>
      </trkpt>
      <trkpt lat="46.34726" lon="0.21725">
        <ele>105.4</ele>
        <time>2021-05-23T17:14:06Z</time>
      </trkpt>
      <trkpt lat="46.34725" lon="0.21724">
        <ele>105.4</ele>
        <time>2021-05-23T17:14:07Z</time>
      </trkpt>
      <trkpt lat="46.34725" lon="0.21722">
        <ele>105.4</ele>
        <time>2021-05-23T17:14:08Z</time>
      </trkpt>
      <trkpt lat="46.34724" lon="0.2172">
        <ele>105.4</ele>
        <time>2021-05-23T17:14:10Z</time>
      </trkpt>
      <trkpt lat="46.34724" lon="0.21719">
        <ele>105.4</ele>
        <time>2021-05-23T17:14:11Z</time>
      </trkpt>
      <trkpt lat="46.34723" lon="0.21718">
        <ele>105.4</ele>
        <time>2021-05-23T17:14:12Z</time>
      </trkpt>
      <trkpt lat="46.34723" lon="0.21716">
        <ele>105.5</ele>
        <time>2021-05-23T17:14:13Z</time>
      </trkpt>
      <trkpt lat="46.34722" lon="0.21715">
        <ele>105.5</ele>
        <time>2021-05-23T17:14:14Z</time>
      </trkpt>
      <trkpt lat="46.34722" lon="0.21713">
        <ele>105.5</ele>
        <time>2021-05-23T17:14:15Z</time>
      </trkpt>
      <trkpt lat="46.34721" lon="0.21712">
        <ele>105.5</ele>
        <time>2021-05-23T17:14:16Z</time>
      </trkpt>
      <trkpt lat="46.34721" lon="0.2171">
        <ele>105.5</ele>
        <time>2021-05-23T17:14:17Z</time>
      </trkpt>
      <trkpt lat="46.3472" lon="0.21708">
        <ele>105.5</ele>
        <time>2021-05-23T17:14:18Z</time>
      </trkpt>
      <trkpt lat="46.3472" lon="0.21706">
        <ele>105.5</ele>
        <time>2021-05-23T17:14:19Z</time>
      </trkpt>
      <trkpt lat="46.34718" lon="0.21702">
        <ele>105.5</ele>
        <time>2021-05-23T17:14:21Z</time>
      </trkpt>
      <trkpt lat="46.34718" lon="0.21701">
        <ele>105.6</ele>
        <time>2021-05-23T17:14:22Z</time>
      </trkpt>
      <trkpt lat="46.34717" lon="0.21699">
        <ele>105.3</ele>
        <time>2021-05-23T17:14:23Z</time>
      </trkpt>
      <trkpt lat="46.34716" lon="0.21696">
        <ele>105.1</ele>
        <time>2021-05-23T17:14:24Z</time>
      </trkpt>
      <trkpt lat="46.34716" lon="0.21694">
        <ele>104.9</ele>
        <time>2021-05-23T17:14:25Z</time>
      </trkpt>
      <trkpt lat="46.34716" lon="0.21691">
        <ele>104.7</ele>
        <time>2021-05-23T17:14:26Z</time>
      </trkpt>
      <trkpt lat="46.34716" lon="0.21687">
        <ele>104.4</ele>
        <time>2021-05-23T17:14:27Z</time>
      </trkpt>
      <trkpt lat="46.34716" lon="0.21686">
        <ele>104.3</ele>
        <time>2021-05-23T17:14:28Z</time>
      </trkpt>
      <trkpt lat="46.34716" lon="0.21681">
        <ele>103.9</ele>
        <time>2021-05-23T17:14:30Z</time>
      </trkpt>
      <trkpt lat="46.34717" lon="0.2168">
        <ele>103.8</ele>
        <time>2021-05-23T17:14:31Z</time>
      </trkpt>
      <trkpt lat="46.34717" lon="0.21677">
        <ele>103.6</ele>
        <time>2021-05-23T17:14:32Z</time>
      </trkpt>
      <trkpt lat="46.34717" lon="0.21675">
        <ele>103.5</ele>
        <time>2021-05-23T17:14:33Z</time>
      </trkpt>
      <trkpt lat="46.34717" lon="0.21673">
        <ele>103.3</ele>
        <time>2021-05-23T17:14:34Z</time>
      </trkpt>
      <trkpt lat="46.34718" lon="0.21671">
        <ele>103.2</ele>
        <time>2021-05-23T17:14:35Z</time>
      </trkpt>
      <trkpt lat="46.34718" lon="0.21669">
        <ele>103</ele>
        <time>2021-05-23T17:14:36Z</time>
      </trkpt>
      <trkpt lat="46.34719" lon="0.21668">
        <ele>102.9</ele>
        <time>2021-05-23T17:14:37Z</time>
      </trkpt>
      <trkpt lat="46.34719" lon="0.21666">
        <ele>102.8</ele>
        <time>2021-05-23T17:14:38Z</time>
      </trkpt>
      <trkpt lat="46.34719" lon="0.21665">
        <ele>102.7</ele>
        <time>2021-05-23T17:14:40Z</time>
      </trkpt>
      <trkpt lat="46.34719" lon="0.21663">
        <ele>102.6</ele>
        <time>2021-05-23T17:14:41Z</time>
      </trkpt>
      <trkpt lat="46.34719" lon="0.21662">
        <ele>102.5</ele>
        <time>2021-05-23T17:14:42Z</time>
      </trkpt>
      <trkpt lat="46.34719" lon="0.21659">
        <ele>102.3</ele>
        <time>2021-05-23T17:14:43Z</time>
      </trkpt>
      <trkpt lat="46.34719" lon="0.21657">
        <ele>102.2</ele>
        <time>2021-05-23T17:14:44Z</time>
      </trkpt>
      <trkpt lat="46.34719" lon="0.21656">
        <ele>102.1</ele>
        <time>2021-05-23T17:14:45Z</time>
      </trkpt>
      <trkpt lat="46.34719" lon="0.21655">
        <ele>102</ele>
        <time>2021-05-23T17:14:46Z</time>
      </trkpt>
      <trkpt lat="46.34718" lon="0.21652">
        <ele>101.8</ele>
        <time>2021-05-23T17:14:48Z</time>
      </trkpt>
      <trkpt lat="46.34717" lon="0.2165">
        <ele>101.6</ele>
        <time>2021-05-23T17:14:49Z</time>
      </trkpt>
      <trkpt lat="46.34717" lon="0.21647">
        <ele>101.4</ele>
        <time>2021-05-23T17:14:51Z</time>
      </trkpt>
      <trkpt lat="46.34716" lon="0.21645">
        <ele>101.2</ele>
        <time>2021-05-23T17:14:52Z</time>
      </trkpt>
      <trkpt lat="46.34716" lon="0.21644">
        <ele>101.1</ele>
        <time>2021-05-23T17:14:53Z</time>
      </trkpt>
      <trkpt lat="46.34716" lon="0.21642">
        <ele>101</ele>
        <time>2021-05-23T17:14:54Z</time>
      </trkpt>
      <trkpt lat="46.34716" lon="0.2164">
        <ele>100.8</ele>
        <time>2021-05-23T17:14:55Z</time>
      </trkpt>
      <trkpt lat="46.34716" lon="0.21638">
        <ele>100.7</ele>
        <time>2021-05-23T17:14:57Z</time>
      </trkpt>
      <trkpt lat="46.34716" lon="0.21637">
        <ele>100.6</ele>
        <time>2021-05-23T17:14:58Z</time>
      </trkpt>
      <trkpt lat="46.34716" lon="0.21635">
        <ele>100.5</ele>
        <time>2021-05-23T17:14:59Z</time>
      </trkpt>
      <trkpt lat="46.34716" lon="0.21633">
        <ele>100.4</ele>
        <time>2021-05-23T17:15:00Z</time>
      </trkpt>
      <trkpt lat="46.34717" lon="0.21632">
        <ele>100.3</ele>
        <time>2021-05-23T17:15:01Z</time>
      </trkpt>
      <trkpt lat="46.34717" lon="0.21632">
        <ele>100.3</ele>
        <time>2021-05-23T17:15:02Z</time>
      </trkpt>
      <trkpt lat="46.34717" lon="0.21631">
        <ele>100.2</ele>
        <time>2021-05-23T17:15:04Z</time>
      </trkpt>
      <trkpt lat="46.34717" lon="0.21629">
        <ele>100.1</ele>
        <time>2021-05-23T17:15:05Z</time>
      </trkpt>
      <trkpt lat="46.34717" lon="0.21629">
        <ele>100.1</ele>
        <time>2021-05-23T17:15:06Z</time>
      </trkpt>
      <trkpt lat="46.34717" lon="0.21628">
        <ele>100.1</ele>
        <time>2021-05-23T17:15:07Z</time>
      </trkpt>
      <trkpt lat="46.34717" lon="0.21627">
        <ele>100</ele>
        <time>2021-05-23T17:15:08Z</time>
      </trkpt>
      <trkpt lat="46.34717" lon="0.21626">
        <ele>99.9</ele>
        <time>2021-05-23T17:15:09Z</time>
      </trkpt>
      <trkpt lat="46.34716" lon="0.21624">
        <ele>99.8</ele>
        <time>2021-05-23T17:15:10Z</time>
      </trkpt>
      <trkpt lat="46.34716" lon="0.21624">
        <ele>99.8</ele>
        <time>2021-05-23T17:15:11Z</time>
      </trkpt>
      <trkpt lat="46.34716" lon="0.21621">
        <ele>99.7</ele>
        <time>2021-05-23T17:15:13Z</time>
      </trkpt>
      <trkpt lat="46.34715" lon="0.2162">
        <ele>99.6</ele>
        <time>2021-05-23T17:15:14Z</time>
      </trkpt>
      <trkpt lat="46.34715" lon="0.21618">
        <ele>99.6</ele>
        <time>2021-05-23T17:15:15Z</time>
      </trkpt>
      <trkpt lat="46.34714" lon="0.21616">
        <ele>99.5</ele>
        <time>2021-05-23T17:15:17Z</time>
      </trkpt>
      <trkpt lat="46.34714" lon="0.21615">
        <ele>99.4</ele>
        <time>2021-05-23T17:15:18Z</time>
      </trkpt>
      <trkpt lat="46.34714" lon="0.21614">
        <ele>99.4</ele>
        <time>2021-05-23T17:15:19Z</time>
      </trkpt>
      <trkpt lat="46.34713" lon="0.21613">
        <ele>99.4</ele>
        <time>2021-05-23T17:15:20Z</time>
      </trkpt>
      <trkpt lat="46.34713" lon="0.21612">
        <ele>99.3</ele>
        <time>2021-05-23T17:15:21Z</time>
      </trkpt>
      <trkpt lat="46.34713" lon="0.21611">
        <ele>99.3</ele>
        <time>2021-05-23T17:15:22Z</time>
      </trkpt>
      <trkpt lat="46.34713" lon="0.21608">
        <ele>99.2</ele>
        <time>2021-05-23T17:15:23Z</time>
      </trkpt>
      <trkpt lat="46.34713" lon="0.21607">
        <ele>99.2</ele>
        <time>2021-05-23T17:15:25Z</time>
      </trkpt>
      <trkpt lat="46.34713" lon="0.21605">
        <ele>99.1</ele>
        <time>2021-05-23T17:15:26Z</time>
      </trkpt>
      <trkpt lat="46.34712" lon="0.21604">
        <ele>99.1</ele>
        <time>2021-05-23T17:15:27Z</time>
      </trkpt>
      <trkpt lat="46.34712" lon="0.21602">
        <ele>99.1</ele>
        <time>2021-05-23T17:15:28Z</time>
      </trkpt>
      <trkpt lat="46.34712" lon="0.21601">
        <ele>99.1</ele>
        <time>2021-05-23T17:15:29Z</time>
      </trkpt>
      <trkpt lat="46.34711" lon="0.21598">
        <ele>99</ele>
        <time>2021-05-23T17:15:30Z</time>
      </trkpt>
      <trkpt lat="46.34711" lon="0.21596">
        <ele>99</ele>
        <time>2021-05-23T17:15:31Z</time>
      </trkpt>
      <trkpt lat="46.34711" lon="0.21595">
        <ele>99</ele>
        <time>2021-05-23T17:15:32Z</time>
      </trkpt>
      <trkpt lat="46.34711" lon="0.21593">
        <ele>98.9</ele>
        <time>2021-05-23T17:15:33Z</time>
      </trkpt>
      <trkpt lat="46.34711" lon="0.21592">
        <ele>98.9</ele>
        <time>2021-05-23T17:15:34Z</time>
      </trkpt>
      <trkpt lat="46.34711" lon="0.2159">
        <ele>98.9</ele>
        <time>2021-05-23T17:15:36Z</time>
      </trkpt>
      <trkpt lat="46.34711" lon="0.21589">
        <ele>98.9</ele>
        <time>2021-05-23T17:15:37Z</time>
      </trkpt>
      <trkpt lat="46.34711" lon="0.21588">
        <ele>98.8</ele>
        <time>2021-05-23T17:15:38Z</time>
      </trkpt>
      <trkpt lat="46.34711" lon="0.21586">
        <ele>98.8</ele>
        <time>2021-05-23T17:15:39Z</time>
      </trkpt>
      <trkpt lat="46.34711" lon="0.21584">
        <ele>98.8</ele>
        <time>2021-05-23T17:15:40Z</time>
      </trkpt>
      <trkpt lat="46.3471" lon="0.21582">
        <ele>98.8</ele>
        <time>2021-05-23T17:15:41Z</time>
      </trkpt>
      <trkpt lat="46.3471" lon="0.2158">
        <ele>98.8</ele>
        <time>2021-05-23T17:15:42Z</time>
      </trkpt>
      <trkpt lat="46.3471" lon="0.21578">
        <ele>98.7</ele>
        <time>2021-05-23T17:15:43Z</time>
      </trkpt>
      <trkpt lat="46.3471" lon="0.21573">
        <ele>98.7</ele>
        <time>2021-05-23T17:15:44Z</time>
      </trkpt>
      <trkpt lat="46.3471" lon="0.21571">
        <ele>98.7</ele>
        <time>2021-05-23T17:15:46Z</time>
      </trkpt>
      <trkpt lat="46.3471" lon="0.21569">
        <ele>98.7</ele>
        <time>2021-05-23T17:15:47Z</time>
      </trkpt>
      <trkpt lat="46.3471" lon="0.21567">
        <ele>98.7</ele>
        <time>2021-05-23T17:15:48Z</time>
      </trkpt>
      <trkpt lat="46.3471" lon="0.21562">
        <ele>98.6</ele>
        <time>2021-05-23T17:15:49Z</time>
      </trkpt>
      <trkpt lat="46.3471" lon="0.2156">
        <ele>98.6</ele>
        <time>2021-05-23T17:15:50Z</time>
      </trkpt>
      <trkpt lat="46.34711" lon="0.21559">
        <ele>98.6</ele>
        <time>2021-05-23T17:15:51Z</time>
      </trkpt>
      <trkpt lat="46.34711" lon="0.21555">
        <ele>98.6</ele>
        <time>2021-05-23T17:15:53Z</time>
      </trkpt>
      <trkpt lat="46.34712" lon="0.21554">
        <ele>98.6</ele>
        <time>2021-05-23T17:15:54Z</time>
      </trkpt>
      <trkpt lat="46.34713" lon="0.21551">
        <ele>98.6</ele>
        <time>2021-05-23T17:15:55Z</time>
      </trkpt>
      <trkpt lat="46.34713" lon="0.2155">
        <ele>98.6</ele>
        <time>2021-05-23T17:15:56Z</time>
      </trkpt>
      <trkpt lat="46.34713" lon="0.21548">
        <ele>98.6</ele>
        <time>2021-05-23T17:15:57Z</time>
      </trkpt>
      <trkpt lat="46.34713" lon="0.21547">
        <ele>98.6</ele>
        <time>2021-05-23T17:15:58Z</time>
      </trkpt>
      <trkpt lat="46.34713" lon="0.21546">
        <ele>98.6</ele>
        <time>2021-05-23T17:15:59Z</time>
      </trkpt>
      <trkpt lat="46.34713" lon="0.21544">
        <ele>98.6</ele>
        <time>2021-05-23T17:16:00Z</time>
      </trkpt>
      <trkpt lat="46.34713" lon="0.21544">
        <ele>98.6</ele>
        <time>2021-05-23T17:16:01Z</time>
      </trkpt>
      <trkpt lat="46.34713" lon="0.21544">
        <ele>98.6</ele>
        <time>2021-05-23T17:16:02Z</time>
      </trkpt>
      <trkpt lat="46.34713" lon="0.21544">
        <ele>98.6</ele>
        <time>2021-05-23T17:16:03Z</time>
      </trkpt>
      <trkpt lat="46.34713" lon="0.21543">
        <ele>98.6</ele>
        <time>2021-05-23T17:16:04Z</time>
      </trkpt>
      <trkpt lat="46.34713" lon="0.21543">
        <ele>98.6</ele>
        <time>2021-05-23T17:16:06Z</time>
      </trkpt>
      <trkpt lat="46.34714" lon="0.21542">
        <ele>98.6</ele>
        <time>2021-05-23T17:16:07Z</time>
      </trkpt>
      <trkpt lat="46.34714" lon="0.21541">
        <ele>98.6</ele>
        <time>2021-05-23T17:16:08Z</time>
      </trkpt>
      <trkpt lat="46.34714" lon="0.21541">
        <ele>98.6</ele>
        <time>2021-05-23T17:16:09Z</time>
      </trkpt>
      <trkpt lat="46.34714" lon="0.2154">
        <ele>98.6</ele>
        <time>2021-05-23T17:16:10Z</time>
      </trkpt>
      <trkpt lat="46.34714" lon="0.21538">
        <ele>98.6</ele>
        <time>2021-05-23T17:16:11Z</time>
      </trkpt>
      <trkpt lat="46.34714" lon="0.21536">
        <ele>98.6</ele>
        <time>2021-05-23T17:16:13Z</time>
      </trkpt>
      <trkpt lat="46.34714" lon="0.21534">
        <ele>98.6</ele>
        <time>2021-05-23T17:16:14Z</time>
      </trkpt>
      <trkpt lat="46.34714" lon="0.21531">
        <ele>98.6</ele>
        <time>2021-05-23T17:16:15Z</time>
      </trkpt>
      <trkpt lat="46.34714" lon="0.21529">
        <ele>98.6</ele>
        <time>2021-05-23T17:16:16Z</time>
      </trkpt>
      <trkpt lat="46.34714" lon="0.21528">
        <ele>98.6</ele>
        <time>2021-05-23T17:16:17Z</time>
      </trkpt>
      <trkpt lat="46.34714" lon="0.21526">
        <ele>98.6</ele>
        <time>2021-05-23T17:16:18Z</time>
      </trkpt>
      <trkpt lat="46.34714" lon="0.21524">
        <ele>98.6</ele>
        <time>2021-05-23T17:16:19Z</time>
      </trkpt>
      <trkpt lat="46.34715" lon="0.21519">
        <ele>98.6</ele>
        <time>2021-05-23T17:16:20Z</time>
      </trkpt>
      <trkpt lat="46.34715" lon="0.21517">
        <ele>98.6</ele>
        <time>2021-05-23T17:16:22Z</time>
      </trkpt>
      <trkpt lat="46.34716" lon="0.21516">
        <ele>98.6</ele>
        <time>2021-05-23T17:16:23Z</time>
      </trkpt>
      <trkpt lat="46.34716" lon="0.21514">
        <ele>98.6</ele>
        <time>2021-05-23T17:16:24Z</time>
      </trkpt>
      <trkpt lat="46.34716" lon="0.21511">
        <ele>98.6</ele>
        <time>2021-05-23T17:16:25Z</time>
      </trkpt>
      <trkpt lat="46.34716" lon="0.2151">
        <ele>98.6</ele>
        <time>2021-05-23T17:16:27Z</time>
      </trkpt>
      <trkpt lat="46.34717" lon="0.21509">
        <ele>98.6</ele>
        <time>2021-05-23T17:16:28Z</time>
      </trkpt>
      <trkpt lat="46.34717" lon="0.21507">
        <ele>98.6</ele>
        <time>2021-05-23T17:16:29Z</time>
      </trkpt>
      <trkpt lat="46.34717" lon="0.21504">
        <ele>98.6</ele>
        <time>2021-05-23T17:16:30Z</time>
      </trkpt>
      <trkpt lat="46.34718" lon="0.21503">
        <ele>98.6</ele>
        <time>2021-05-23T17:16:31Z</time>
      </trkpt>
      <trkpt lat="46.34718" lon="0.215">
        <ele>98.6</ele>
        <time>2021-05-23T17:16:33Z</time>
      </trkpt>
      <trkpt lat="46.34718" lon="0.21498">
        <ele>98.6</ele>
        <time>2021-05-23T17:16:34Z</time>
      </trkpt>
      <trkpt lat="46.34718" lon="0.21496">
        <ele>98.6</ele>
        <time>2021-05-23T17:16:35Z</time>
      </trkpt>
      <trkpt lat="46.34719" lon="0.21493">
        <ele>98.6</ele>
        <time>2021-05-23T17:16:37Z</time>
      </trkpt>
      <trkpt lat="46.34719" lon="0.21491">
        <ele>98.6</ele>
        <time>2021-05-23T17:16:38Z</time>
      </trkpt>
      <trkpt lat="46.34719" lon="0.21487">
        <ele>98.6</ele>
        <time>2021-05-23T17:16:39Z</time>
      </trkpt>
      <trkpt lat="46.34719" lon="0.21485">
        <ele>98.6</ele>
        <time>2021-05-23T17:16:40Z</time>
      </trkpt>
      <trkpt lat="46.34719" lon="0.21479">
        <ele>98.6</ele>
        <time>2021-05-23T17:16:42Z</time>
      </trkpt>
      <trkpt lat="46.34719" lon="0.21477">
        <ele>98.7</ele>
        <time>2021-05-23T17:16:43Z</time>
      </trkpt>
      <trkpt lat="46.34719" lon="0.21475">
        <ele>98.7</ele>
        <time>2021-05-23T17:16:44Z</time>
      </trkpt>
      <trkpt lat="46.34719" lon="0.2147">
        <ele>98.7</ele>
        <time>2021-05-23T17:16:46Z</time>
      </trkpt>
      <trkpt lat="46.34719" lon="0.21468">
        <ele>98.7</ele>
        <time>2021-05-23T17:16:47Z</time>
      </trkpt>
      <trkpt lat="46.34719" lon="0.21467">
        <ele>98.7</ele>
        <time>2021-05-23T17:16:48Z</time>
      </trkpt>
      <trkpt lat="46.34719" lon="0.21465">
        <ele>98.7</ele>
        <time>2021-05-23T17:16:49Z</time>
      </trkpt>
      <trkpt lat="46.34719" lon="0.21464">
        <ele>98.7</ele>
        <time>2021-05-23T17:16:50Z</time>
      </trkpt>
      <trkpt lat="46.34719" lon="0.21463">
        <ele>98.7</ele>
        <time>2021-05-23T17:16:51Z</time>
      </trkpt>
      <trkpt lat="46.34719" lon="0.21462">
        <ele>98.7</ele>
        <time>2021-05-23T17:16:53Z</time>
      </trkpt>
      <trkpt lat="46.34719" lon="0.21461">
        <ele>98.7</ele>
        <time>2021-05-23T17:16:54Z</time>
      </trkpt>
      <trkpt lat="46.3472" lon="0.21459">
        <ele>98.7</ele>
        <time>2021-05-23T17:16:55Z</time>
      </trkpt>
      <trkpt lat="46.3472" lon="0.21458">
        <ele>98.7</ele>
        <time>2021-05-23T17:16:57Z</time>
      </trkpt>
      <trkpt lat="46.3472" lon="0.21456">
        <ele>98.7</ele>
        <time>2021-05-23T17:16:58Z</time>
      </trkpt>
      <trkpt lat="46.3472" lon="0.21455">
        <ele>98.7</ele>
        <time>2021-05-23T17:16:59Z</time>
      </trkpt>
      <trkpt lat="46.34721" lon="0.21453">
        <ele>98.7</ele>
        <time>2021-05-23T17:17:00Z</time>
      </trkpt>
      <trkpt lat="46.34721" lon="0.21452">
        <ele>98.7</ele>
        <time>2021-05-23T17:17:01Z</time>
      </trkpt>
      <trkpt lat="46.34721" lon="0.21449">
        <ele>98.7</ele>
        <time>2021-05-23T17:17:02Z</time>
      </trkpt>
      <trkpt lat="46.34721" lon="0.21447">
        <ele>98.7</ele>
        <time>2021-05-23T17:17:03Z</time>
      </trkpt>
      <trkpt lat="46.34721" lon="0.21446">
        <ele>98.7</ele>
        <time>2021-05-23T17:17:05Z</time>
      </trkpt>
      <trkpt lat="46.34721" lon="0.21444">
        <ele>98.7</ele>
        <time>2021-05-23T17:17:06Z</time>
      </trkpt>
      <trkpt lat="46.34721" lon="0.21443">
        <ele>98.7</ele>
        <time>2021-05-23T17:17:07Z</time>
      </trkpt>
      <trkpt lat="46.3472" lon="0.21441">
        <ele>98.7</ele>
        <time>2021-05-23T17:17:08Z</time>
      </trkpt>
      <trkpt lat="46.3472" lon="0.21438">
        <ele>98.7</ele>
        <time>2021-05-23T17:17:09Z</time>
      </trkpt>
      <trkpt lat="46.3472" lon="0.21437">
        <ele>98.7</ele>
        <time>2021-05-23T17:17:10Z</time>
      </trkpt>
      <trkpt lat="46.3472" lon="0.21435">
        <ele>98.7</ele>
        <time>2021-05-23T17:17:12Z</time>
      </trkpt>
      <trkpt lat="46.3472" lon="0.21434">
        <ele>98.7</ele>
        <time>2021-05-23T17:17:13Z</time>
      </trkpt>
      <trkpt lat="46.34719" lon="0.21432">
        <ele>98.7</ele>
        <time>2021-05-23T17:17:14Z</time>
      </trkpt>
      <trkpt lat="46.34719" lon="0.21431">
        <ele>98.7</ele>
        <time>2021-05-23T17:17:15Z</time>
      </trkpt>
      <trkpt lat="46.34719" lon="0.21426">
        <ele>98.7</ele>
        <time>2021-05-23T17:17:17Z</time>
      </trkpt>
      <trkpt lat="46.34719" lon="0.21425">
        <ele>98.7</ele>
        <time>2021-05-23T17:17:18Z</time>
      </trkpt>
      <trkpt lat="46.34719" lon="0.21422">
        <ele>98.7</ele>
        <time>2021-05-23T17:17:19Z</time>
      </trkpt>
      <trkpt lat="46.34718" lon="0.2142">
        <ele>98.7</ele>
        <time>2021-05-23T17:17:20Z</time>
      </trkpt>
      <trkpt lat="46.34718" lon="0.21418">
        <ele>98.7</ele>
        <time>2021-05-23T17:17:22Z</time>
      </trkpt>
      <trkpt lat="46.34718" lon="0.21416">
        <ele>98.7</ele>
        <time>2021-05-23T17:17:23Z</time>
      </trkpt>
      <trkpt lat="46.34718" lon="0.21415">
        <ele>98.7</ele>
        <time>2021-05-23T17:17:24Z</time>
      </trkpt>
      <trkpt lat="46.34717" lon="0.21413">
        <ele>98.7</ele>
        <time>2021-05-23T17:17:25Z</time>
      </trkpt>
      <trkpt lat="46.34717" lon="0.2141">
        <ele>98.7</ele>
        <time>2021-05-23T17:17:26Z</time>
      </trkpt>
      <trkpt lat="46.34717" lon="0.21408">
        <ele>98.7</ele>
        <time>2021-05-23T17:17:28Z</time>
      </trkpt>
      <trkpt lat="46.34717" lon="0.21407">
        <ele>98.7</ele>
        <time>2021-05-23T17:17:29Z</time>
      </trkpt>
      <trkpt lat="46.34717" lon="0.21406">
        <ele>98.7</ele>
        <time>2021-05-23T17:17:30Z</time>
      </trkpt>
      <trkpt lat="46.34717" lon="0.21405">
        <ele>98.7</ele>
        <time>2021-05-23T17:17:31Z</time>
      </trkpt>
      <trkpt lat="46.34717" lon="0.21404">
        <ele>98.7</ele>
        <time>2021-05-23T17:17:32Z</time>
      </trkpt>
      <trkpt lat="46.34717" lon="0.21401">
        <ele>98.7</ele>
        <time>2021-05-23T17:17:34Z</time>
      </trkpt>
      <trkpt lat="46.34717" lon="0.214">
        <ele>98.7</ele>
        <time>2021-05-23T17:17:35Z</time>
      </trkpt>
      <trkpt lat="46.34717" lon="0.21398">
        <ele>98.7</ele>
        <time>2021-05-23T17:17:36Z</time>
      </trkpt>
      <trkpt lat="46.34717" lon="0.21397">
        <ele>98.7</ele>
        <time>2021-05-23T17:17:37Z</time>
      </trkpt>
      <trkpt lat="46.34716" lon="0.21396">
        <ele>98.7</ele>
        <time>2021-05-23T17:17:39Z</time>
      </trkpt>
      <trkpt lat="46.34716" lon="0.21394">
        <ele>98.7</ele>
        <time>2021-05-23T17:17:40Z</time>
      </trkpt>
      <trkpt lat="46.34716" lon="0.21392">
        <ele>98.8</ele>
        <time>2021-05-23T17:17:41Z</time>
      </trkpt>
      <trkpt lat="46.34716" lon="0.21389">
        <ele>98.8</ele>
        <time>2021-05-23T17:17:42Z</time>
      </trkpt>
      <trkpt lat="46.34716" lon="0.21387">
        <ele>98.8</ele>
        <time>2021-05-23T17:17:43Z</time>
      </trkpt>
      <trkpt lat="46.34716" lon="0.21385">
        <ele>98.8</ele>
        <time>2021-05-23T17:17:44Z</time>
      </trkpt>
      <trkpt lat="46.34716" lon="0.21383">
        <ele>98.8</ele>
        <time>2021-05-23T17:17:45Z</time>
      </trkpt>
      <trkpt lat="46.34716" lon="0.21381">
        <ele>98.8</ele>
        <time>2021-05-23T17:17:46Z</time>
      </trkpt>
      <trkpt lat="46.34717" lon="0.21379">
        <ele>98.8</ele>
        <time>2021-05-23T17:17:48Z</time>
      </trkpt>
      <trkpt lat="46.34717" lon="0.21378">
        <ele>98.8</ele>
        <time>2021-05-23T17:17:49Z</time>
      </trkpt>
      <trkpt lat="46.34718" lon="0.21376">
        <ele>98.8</ele>
        <time>2021-05-23T17:17:50Z</time>
      </trkpt>
      <trkpt lat="46.34718" lon="0.21374">
        <ele>98.9</ele>
        <time>2021-05-23T17:17:51Z</time>
      </trkpt>
      <trkpt lat="46.34718" lon="0.21372">
        <ele>98.9</ele>
        <time>2021-05-23T17:17:52Z</time>
      </trkpt>
      <trkpt lat="46.34718" lon="0.2137">
        <ele>98.9</ele>
        <time>2021-05-23T17:17:53Z</time>
      </trkpt>
      <trkpt lat="46.34718" lon="0.21368">
        <ele>98.9</ele>
        <time>2021-05-23T17:17:54Z</time>
      </trkpt>
      <trkpt lat="46.34718" lon="0.21366">
        <ele>98.9</ele>
        <time>2021-05-23T17:17:55Z</time>
      </trkpt>
      <trkpt lat="46.34719" lon="0.21364">
        <ele>98.9</ele>
        <time>2021-05-23T17:17:56Z</time>
      </trkpt>
      <trkpt lat="46.34719" lon="0.21362">
        <ele>98.9</ele>
        <time>2021-05-23T17:17:57Z</time>
      </trkpt>
      <trkpt lat="46.34719" lon="0.2136">
        <ele>98.9</ele>
        <time>2021-05-23T17:17:59Z</time>
      </trkpt>
      <trkpt lat="46.34719" lon="0.21357">
        <ele>98.9</ele>
        <time>2021-05-23T17:18:00Z</time>
      </trkpt>
      <trkpt lat="46.34719" lon="0.21356">
        <ele>98.9</ele>
        <time>2021-05-23T17:18:01Z</time>
      </trkpt>
      <trkpt lat="46.34719" lon="0.21354">
        <ele>98.9</ele>
        <time>2021-05-23T17:18:02Z</time>
      </trkpt>
      <trkpt lat="46.34719" lon="0.2135">
        <ele>99</ele>
        <time>2021-05-23T17:18:03Z</time>
      </trkpt>
      <trkpt lat="46.34719" lon="0.21348">
        <ele>99</ele>
        <time>2021-05-23T17:18:04Z</time>
      </trkpt>
      <trkpt lat="46.34719" lon="0.21345">
        <ele>99</ele>
        <time>2021-05-23T17:18:05Z</time>
      </trkpt>
      <trkpt lat="46.34719" lon="0.21342">
        <ele>99</ele>
        <time>2021-05-23T17:18:07Z</time>
      </trkpt>
      <trkpt lat="46.34719" lon="0.2134">
        <ele>99</ele>
        <time>2021-05-23T17:18:08Z</time>
      </trkpt>
      <trkpt lat="46.34719" lon="0.21338">
        <ele>99</ele>
        <time>2021-05-23T17:18:09Z</time>
      </trkpt>
      <trkpt lat="46.3472" lon="0.21335">
        <ele>99</ele>
        <time>2021-05-23T17:18:10Z</time>
      </trkpt>
      <trkpt lat="46.3472" lon="0.21334">
        <ele>99.1</ele>
        <time>2021-05-23T17:18:11Z</time>
      </trkpt>
      <trkpt lat="46.3472" lon="0.21332">
        <ele>99.1</ele>
        <time>2021-05-23T17:18:12Z</time>
      </trkpt>
      <trkpt lat="46.3472" lon="0.21331">
        <ele>99.1</ele>
        <time>2021-05-23T17:18:13Z</time>
      </trkpt>
      <trkpt lat="46.3472" lon="0.2133">
        <ele>99.1</ele>
        <time>2021-05-23T17:18:14Z</time>
      </trkpt>
      <trkpt lat="46.3472" lon="0.21326">
        <ele>99.1</ele>
        <time>2021-05-23T17:18:15Z</time>
      </trkpt>
      <trkpt lat="46.3472" lon="0.21325">
        <ele>99.1</ele>
        <time>2021-05-23T17:18:16Z</time>
      </trkpt>
      <trkpt lat="46.34721" lon="0.21323">
        <ele>99.1</ele>
        <time>2021-05-23T17:18:18Z</time>
      </trkpt>
      <trkpt lat="46.34721" lon="0.21322">
        <ele>99.1</ele>
        <time>2021-05-23T17:18:19Z</time>
      </trkpt>
      <trkpt lat="46.34721" lon="0.2132">
        <ele>99.1</ele>
        <time>2021-05-23T17:18:20Z</time>
      </trkpt>
      <trkpt lat="46.34721" lon="0.21319">
        <ele>99.1</ele>
        <time>2021-05-23T17:18:21Z</time>
      </trkpt>
      <trkpt lat="46.34721" lon="0.21317">
        <ele>99.1</ele>
        <time>2021-05-23T17:18:22Z</time>
      </trkpt>
      <trkpt lat="46.34722" lon="0.21315">
        <ele>99.2</ele>
        <time>2021-05-23T17:18:23Z</time>
      </trkpt>
      <trkpt lat="46.34722" lon="0.21311">
        <ele>99.2</ele>
        <time>2021-05-23T17:18:24Z</time>
      </trkpt>
      <trkpt lat="46.34722" lon="0.21309">
        <ele>99.2</ele>
        <time>2021-05-23T17:18:25Z</time>
      </trkpt>
      <trkpt lat="46.34722" lon="0.21306">
        <ele>99.2</ele>
        <time>2021-05-23T17:18:26Z</time>
      </trkpt>
      <trkpt lat="46.34722" lon="0.21305">
        <ele>99.2</ele>
        <time>2021-05-23T17:18:28Z</time>
      </trkpt>
      <trkpt lat="46.34722" lon="0.21303">
        <ele>99.2</ele>
        <time>2021-05-23T17:18:29Z</time>
      </trkpt>
      <trkpt lat="46.34722" lon="0.21301">
        <ele>99.2</ele>
        <time>2021-05-23T17:18:30Z</time>
      </trkpt>
      <trkpt lat="46.34721" lon="0.21299">
        <ele>99.2</ele>
        <time>2021-05-23T17:18:31Z</time>
      </trkpt>
      <trkpt lat="46.34721" lon="0.21297">
        <ele>99.2</ele>
        <time>2021-05-23T17:18:32Z</time>
      </trkpt>
      <trkpt lat="46.34721" lon="0.21296">
        <ele>99.2</ele>
        <time>2021-05-23T17:18:33Z</time>
      </trkpt>
      <trkpt lat="46.34721" lon="0.21295">
        <ele>99.3</ele>
        <time>2021-05-23T17:18:34Z</time>
      </trkpt>
      <trkpt lat="46.34721" lon="0.21294">
        <ele>99.3</ele>
        <time>2021-05-23T17:18:35Z</time>
      </trkpt>
      <trkpt lat="46.3472" lon="0.21291">
        <ele>99.3</ele>
        <time>2021-05-23T17:18:37Z</time>
      </trkpt>
      <trkpt lat="46.34721" lon="0.2129">
        <ele>99.3</ele>
        <time>2021-05-23T17:18:38Z</time>
      </trkpt>
      <trkpt lat="46.34721" lon="0.21289">
        <ele>99.3</ele>
        <time>2021-05-23T17:18:39Z</time>
      </trkpt>
      <trkpt lat="46.34721" lon="0.21288">
        <ele>99.3</ele>
        <time>2021-05-23T17:18:40Z</time>
      </trkpt>
      <trkpt lat="46.34721" lon="0.21287">
        <ele>99.3</ele>
        <time>2021-05-23T17:18:42Z</time>
      </trkpt>
      <trkpt lat="46.34721" lon="0.21286">
        <ele>99.3</ele>
        <time>2021-05-23T17:18:43Z</time>
      </trkpt>
      <trkpt lat="46.34721" lon="0.21284">
        <ele>99.3</ele>
        <time>2021-05-23T17:18:44Z</time>
      </trkpt>
      <trkpt lat="46.34721" lon="0.21283">
        <ele>99.3</ele>
        <time>2021-05-23T17:18:45Z</time>
      </trkpt>
      <trkpt lat="46.34721" lon="0.21281">
        <ele>99.3</ele>
        <time>2021-05-23T17:18:46Z</time>
      </trkpt>
      <trkpt lat="46.3472" lon="0.21279">
        <ele>99.3</ele>
        <time>2021-05-23T17:18:47Z</time>
      </trkpt>
      <trkpt lat="46.3472" lon="0.21277">
        <ele>99.4</ele>
        <time>2021-05-23T17:18:49Z</time>
      </trkpt>
      <trkpt lat="46.34719" lon="0.21276">
        <ele>99.4</ele>
        <time>2021-05-23T17:18:50Z</time>
      </trkpt>
      <trkpt lat="46.34719" lon="0.21274">
        <ele>99.4</ele>
        <time>2021-05-23T17:18:51Z</time>
      </trkpt>
      <trkpt lat="46.3472" lon="0.21273">
        <ele>99.4</ele>
        <time>2021-05-23T17:18:52Z</time>
      </trkpt>
      <trkpt lat="46.3472" lon="0.21272">
        <ele>99.4</ele>
        <time>2021-05-23T17:18:53Z</time>
      </trkpt>
      <trkpt lat="46.34721" lon="0.21271">
        <ele>99.4</ele>
        <time>2021-05-23T17:18:54Z</time>
      </trkpt>
      <trkpt lat="46.34721" lon="0.21269">
        <ele>99.5</ele>
        <time>2021-05-23T17:18:55Z</time>
      </trkpt>
      <trkpt lat="46.34722" lon="0.21268">
        <ele>99.5</ele>
        <time>2021-05-23T17:18:57Z</time>
      </trkpt>
      <trkpt lat="46.34722" lon="0.21267">
        <ele>99.5</ele>
        <time>2021-05-23T17:18:58Z</time>
      </trkpt>
      <trkpt lat="46.34723" lon="0.21266">
        <ele>99.5</ele>
        <time>2021-05-23T17:18:59Z</time>
      </trkpt>
      <trkpt lat="46.34724" lon="0.21263">
        <ele>99.6</ele>
        <time>2021-05-23T17:19:01Z</time>
      </trkpt>
      <trkpt lat="46.34725" lon="0.2126">
        <ele>99.6</ele>
        <time>2021-05-23T17:19:02Z</time>
      </trkpt>
      <trkpt lat="46.34725" lon="0.21258">
        <ele>99.6</ele>
        <time>2021-05-23T17:19:03Z</time>
      </trkpt>
      <trkpt lat="46.34725" lon="0.21257">
        <ele>99.7</ele>
        <time>2021-05-23T17:19:04Z</time>
      </trkpt>
      <trkpt lat="46.34725" lon="0.21255">
        <ele>99.7</ele>
        <time>2021-05-23T17:19:05Z</time>
      </trkpt>
      <trkpt lat="46.34726" lon="0.21253">
        <ele>99.8</ele>
        <time>2021-05-23T17:19:06Z</time>
      </trkpt>
      <trkpt lat="46.34726" lon="0.21251">
        <ele>99.8</ele>
        <time>2021-05-23T17:19:07Z</time>
      </trkpt>
      <trkpt lat="46.34727" lon="0.21247">
        <ele>99.9</ele>
        <time>2021-05-23T17:19:09Z</time>
      </trkpt>
      <trkpt lat="46.34728" lon="0.21244">
        <ele>100</ele>
        <time>2021-05-23T17:19:10Z</time>
      </trkpt>
      <trkpt lat="46.34729" lon="0.21243">
        <ele>100.1</ele>
        <time>2021-05-23T17:19:12Z</time>
      </trkpt>
      <trkpt lat="46.3473" lon="0.21241">
        <ele>100.2</ele>
        <time>2021-05-23T17:19:13Z</time>
      </trkpt>
      <trkpt lat="46.34731" lon="0.21239">
        <ele>100.3</ele>
        <time>2021-05-23T17:19:14Z</time>
      </trkpt>
      <trkpt lat="46.34732" lon="0.21237">
        <ele>100.4</ele>
        <time>2021-05-23T17:19:16Z</time>
      </trkpt>
      <trkpt lat="46.34732" lon="0.21236">
        <ele>100.5</ele>
        <time>2021-05-23T17:19:17Z</time>
      </trkpt>
      <trkpt lat="46.34733" lon="0.21235">
        <ele>100.6</ele>
        <time>2021-05-23T17:19:18Z</time>
      </trkpt>
      <trkpt lat="46.34733" lon="0.21233">
        <ele>100.7</ele>
        <time>2021-05-23T17:19:19Z</time>
      </trkpt>
      <trkpt lat="46.34733" lon="0.21232">
        <ele>100.8</ele>
        <time>2021-05-23T17:19:20Z</time>
      </trkpt>
      <trkpt lat="46.34734" lon="0.21232">
        <ele>100.8</ele>
        <time>2021-05-23T17:19:21Z</time>
      </trkpt>
      <trkpt lat="46.34734" lon="0.21231">
        <ele>100.9</ele>
        <time>2021-05-23T17:19:22Z</time>
      </trkpt>
      <trkpt lat="46.34735" lon="0.2123">
        <ele>101</ele>
        <time>2021-05-23T17:19:23Z</time>
      </trkpt>
      <trkpt lat="46.34736" lon="0.21229">
        <ele>101.1</ele>
        <time>2021-05-23T17:19:24Z</time>
      </trkpt>
      <trkpt lat="46.34736" lon="0.21228">
        <ele>101.2</ele>
        <time>2021-05-23T17:19:25Z</time>
      </trkpt>
      <trkpt lat="46.34736" lon="0.21228">
        <ele>101.2</ele>
        <time>2021-05-23T17:19:27Z</time>
      </trkpt>
      <trkpt lat="46.34736" lon="0.21227">
        <ele>101.4</ele>
        <time>2021-05-23T17:19:28Z</time>
      </trkpt>
      <trkpt lat="46.34737" lon="0.21225">
        <ele>101.5</ele>
        <time>2021-05-23T17:19:29Z</time>
      </trkpt>
      <trkpt lat="46.34737" lon="0.21223">
        <ele>101.7</ele>
        <time>2021-05-23T17:19:30Z</time>
      </trkpt>
      <trkpt lat="46.34737" lon="0.21221">
        <ele>101.9</ele>
        <time>2021-05-23T17:19:31Z</time>
      </trkpt>
      <trkpt lat="46.34737" lon="0.2122">
        <ele>102</ele>
        <time>2021-05-23T17:19:32Z</time>
      </trkpt>
      <trkpt lat="46.34737" lon="0.2122">
        <ele>102.1</ele>
        <time>2021-05-23T17:19:33Z</time>
      </trkpt>
      <trkpt lat="46.34736" lon="0.21219">
        <ele>102.2</ele>
        <time>2021-05-23T17:19:34Z</time>
      </trkpt>
      <trkpt lat="46.34736" lon="0.21217">
        <ele>102.3</ele>
        <time>2021-05-23T17:19:36Z</time>
      </trkpt>
      <trkpt lat="46.34736" lon="0.21217">
        <ele>102.4</ele>
        <time>2021-05-23T17:19:37Z</time>
      </trkpt>
      <trkpt lat="46.34736" lon="0.21214">
        <ele>102.7</ele>
        <time>2021-05-23T17:19:39Z</time>
      </trkpt>
      <trkpt lat="46.34736" lon="0.21213">
        <ele>102.9</ele>
        <time>2021-05-23T17:19:40Z</time>
      </trkpt>
      <trkpt lat="46.34736" lon="0.21212">
        <ele>103</ele>
        <time>2021-05-23T17:19:41Z</time>
      </trkpt>
      <trkpt lat="46.34736" lon="0.2121">
        <ele>103.2</ele>
        <time>2021-05-23T17:19:42Z</time>
      </trkpt>
      <trkpt lat="46.34737" lon="0.21208">
        <ele>103.6</ele>
        <time>2021-05-23T17:19:43Z</time>
      </trkpt>
      <trkpt lat="46.34737" lon="0.21205">
        <ele>103.9</ele>
        <time>2021-05-23T17:19:44Z</time>
      </trkpt>
      <trkpt lat="46.34737" lon="0.21203">
        <ele>104.2</ele>
        <time>2021-05-23T17:19:45Z</time>
      </trkpt>
      <trkpt lat="46.34738" lon="0.21201">
        <ele>104.5</ele>
        <time>2021-05-23T17:19:46Z</time>
      </trkpt>
      <trkpt lat="46.34738" lon="0.21199">
        <ele>104.8</ele>
        <time>2021-05-23T17:19:47Z</time>
      </trkpt>
      <trkpt lat="46.34738" lon="0.21198">
        <ele>104.9</ele>
        <time>2021-05-23T17:19:48Z</time>
      </trkpt>
      <trkpt lat="46.34738" lon="0.21197">
        <ele>105</ele>
        <time>2021-05-23T17:19:50Z</time>
      </trkpt>
      <trkpt lat="46.34738" lon="0.21196">
        <ele>105.2</ele>
        <time>2021-05-23T17:19:51Z</time>
      </trkpt>
      <trkpt lat="46.34738" lon="0.21196">
        <ele>105.3</ele>
        <time>2021-05-23T17:19:52Z</time>
      </trkpt>
      <trkpt lat="46.34739" lon="0.21193">
        <ele>105.6</ele>
        <time>2021-05-23T17:19:53Z</time>
      </trkpt>
      <trkpt lat="46.34739" lon="0.21192">
        <ele>105.8</ele>
        <time>2021-05-23T17:19:54Z</time>
      </trkpt>
      <trkpt lat="46.34739" lon="0.21191">
        <ele>105.9</ele>
        <time>2021-05-23T17:19:55Z</time>
      </trkpt>
      <trkpt lat="46.3474" lon="0.21189">
        <ele>106.2</ele>
        <time>2021-05-23T17:19:57Z</time>
      </trkpt>
      <trkpt lat="46.3474" lon="0.21187">
        <ele>106.4</ele>
        <time>2021-05-23T17:19:58Z</time>
      </trkpt>
      <trkpt lat="46.3474" lon="0.21183">
        <ele>106.8</ele>
        <time>2021-05-23T17:19:59Z</time>
      </trkpt>
      <trkpt lat="46.3474" lon="0.21182">
        <ele>106.9</ele>
        <time>2021-05-23T17:20:00Z</time>
      </trkpt>
      <trkpt lat="46.34739" lon="0.21181">
        <ele>107</ele>
        <time>2021-05-23T17:20:01Z</time>
      </trkpt>
      <trkpt lat="46.34739" lon="0.21176">
        <ele>107.5</ele>
        <time>2021-05-23T17:20:03Z</time>
      </trkpt>
      <trkpt lat="46.34738" lon="0.21174">
        <ele>107.6</ele>
        <time>2021-05-23T17:20:04Z</time>
      </trkpt>
      <trkpt lat="46.34738" lon="0.2117">
        <ele>107.9</ele>
        <time>2021-05-23T17:20:06Z</time>
      </trkpt>
      <trkpt lat="46.34738" lon="0.21166">
        <ele>108.2</ele>
        <time>2021-05-23T17:20:07Z</time>
      </trkpt>
      <trkpt lat="46.34737" lon="0.21163">
        <ele>108.4</ele>
        <time>2021-05-23T17:20:09Z</time>
      </trkpt>
      <trkpt lat="46.34737" lon="0.21162">
        <ele>108.5</ele>
        <time>2021-05-23T17:20:10Z</time>
      </trkpt>
      <trkpt lat="46.34738" lon="0.2116">
        <ele>108.6</ele>
        <time>2021-05-23T17:20:11Z</time>
      </trkpt>
      <trkpt lat="46.34738" lon="0.21158">
        <ele>108.7</ele>
        <time>2021-05-23T17:20:12Z</time>
      </trkpt>
      <trkpt lat="46.34738" lon="0.21155">
        <ele>108.8</ele>
        <time>2021-05-23T17:20:13Z</time>
      </trkpt>
      <trkpt lat="46.34738" lon="0.21152">
        <ele>108.9</ele>
        <time>2021-05-23T17:20:15Z</time>
      </trkpt>
      <trkpt lat="46.34738" lon="0.21148">
        <ele>109.1</ele>
        <time>2021-05-23T17:20:16Z</time>
      </trkpt>
      <trkpt lat="46.34738" lon="0.21143">
        <ele>109.4</ele>
        <time>2021-05-23T17:20:18Z</time>
      </trkpt>
      <trkpt lat="46.34739" lon="0.21142">
        <ele>109.5</ele>
        <time>2021-05-23T17:20:19Z</time>
      </trkpt>
      <trkpt lat="46.34738" lon="0.21138">
        <ele>109.7</ele>
        <time>2021-05-23T17:20:20Z</time>
      </trkpt>
      <trkpt lat="46.34737" lon="0.21133">
        <ele>109.9</ele>
        <time>2021-05-23T17:20:21Z</time>
      </trkpt>
      <trkpt lat="46.34737" lon="0.21131">
        <ele>110</ele>
        <time>2021-05-23T17:20:22Z</time>
      </trkpt>
      <trkpt lat="46.34736" lon="0.21129">
        <ele>110.2</ele>
        <time>2021-05-23T17:20:23Z</time>
      </trkpt>
      <trkpt lat="46.34735" lon="0.21127">
        <ele>110.3</ele>
        <time>2021-05-23T17:20:25Z</time>
      </trkpt>
      <trkpt lat="46.34734" lon="0.21125">
        <ele>110.4</ele>
        <time>2021-05-23T17:20:26Z</time>
      </trkpt>
      <trkpt lat="46.34734" lon="0.21124">
        <ele>110.5</ele>
        <time>2021-05-23T17:20:27Z</time>
      </trkpt>
      <trkpt lat="46.34734" lon="0.21122">
        <ele>110.6</ele>
        <time>2021-05-23T17:20:28Z</time>
      </trkpt>
      <trkpt lat="46.34735" lon="0.21121">
        <ele>110.7</ele>
        <time>2021-05-23T17:20:29Z</time>
      </trkpt>
      <trkpt lat="46.34735" lon="0.21121">
        <ele>110.7</ele>
        <time>2021-05-23T17:20:30Z</time>
      </trkpt>
      <trkpt lat="46.34735" lon="0.2112">
        <ele>110.8</ele>
        <time>2021-05-23T17:20:31Z</time>
      </trkpt>
      <trkpt lat="46.34735" lon="0.21118">
        <ele>110.9</ele>
        <time>2021-05-23T17:20:33Z</time>
      </trkpt>
      <trkpt lat="46.34734" lon="0.21118">
        <ele>110.9</ele>
        <time>2021-05-23T17:20:34Z</time>
      </trkpt>
      <trkpt lat="46.34734" lon="0.21117">
        <ele>111</ele>
        <time>2021-05-23T17:20:36Z</time>
      </trkpt>
      <trkpt lat="46.34733" lon="0.21116">
        <ele>111</ele>
        <time>2021-05-23T17:20:37Z</time>
      </trkpt>
      <trkpt lat="46.34733" lon="0.21115">
        <ele>111.1</ele>
        <time>2021-05-23T17:20:38Z</time>
      </trkpt>
      <trkpt lat="46.34732" lon="0.21113">
        <ele>111.2</ele>
        <time>2021-05-23T17:20:40Z</time>
      </trkpt>
      <trkpt lat="46.34732" lon="0.21112">
        <ele>111.3</ele>
        <time>2021-05-23T17:20:41Z</time>
      </trkpt>
      <trkpt lat="46.34731" lon="0.21111">
        <ele>111.4</ele>
        <time>2021-05-23T17:20:42Z</time>
      </trkpt>
      <trkpt lat="46.3473" lon="0.21108">
        <ele>111.5</ele>
        <time>2021-05-23T17:20:43Z</time>
      </trkpt>
      <trkpt lat="46.3473" lon="0.21107">
        <ele>111.6</ele>
        <time>2021-05-23T17:20:45Z</time>
      </trkpt>
      <trkpt lat="46.34729" lon="0.21105">
        <ele>111.7</ele>
        <time>2021-05-23T17:20:46Z</time>
      </trkpt>
      <trkpt lat="46.34729" lon="0.21104">
        <ele>111.7</ele>
        <time>2021-05-23T17:20:48Z</time>
      </trkpt>
      <trkpt lat="46.34728" lon="0.21103">
        <ele>111.8</ele>
        <time>2021-05-23T17:20:49Z</time>
      </trkpt>
      <trkpt lat="46.34728" lon="0.21102">
        <ele>111.8</ele>
        <time>2021-05-23T17:20:50Z</time>
      </trkpt>
      <trkpt lat="46.34728" lon="0.21101">
        <ele>111.9</ele>
        <time>2021-05-23T17:20:51Z</time>
      </trkpt>
      <trkpt lat="46.34728" lon="0.21099">
        <ele>111.9</ele>
        <time>2021-05-23T17:20:52Z</time>
      </trkpt>
      <trkpt lat="46.34727" lon="0.21098">
        <ele>112</ele>
        <time>2021-05-23T17:20:53Z</time>
      </trkpt>
      <trkpt lat="46.34727" lon="0.21096">
        <ele>112</ele>
        <time>2021-05-23T17:20:54Z</time>
      </trkpt>
      <trkpt lat="46.34727" lon="0.21094">
        <ele>112.1</ele>
        <time>2021-05-23T17:20:55Z</time>
      </trkpt>
      <trkpt lat="46.34726" lon="0.21092">
        <ele>112.1</ele>
        <time>2021-05-23T17:20:57Z</time>
      </trkpt>
      <trkpt lat="46.34726" lon="0.21091">
        <ele>112.2</ele>
        <time>2021-05-23T17:20:58Z</time>
      </trkpt>
      <trkpt lat="46.34726" lon="0.21089">
        <ele>112.2</ele>
        <time>2021-05-23T17:20:59Z</time>
      </trkpt>
      <trkpt lat="46.34726" lon="0.21087">
        <ele>112.2</ele>
        <time>2021-05-23T17:21:00Z</time>
      </trkpt>
      <trkpt lat="46.34726" lon="0.21084">
        <ele>112.3</ele>
        <time>2021-05-23T17:21:02Z</time>
      </trkpt>
      <trkpt lat="46.34725" lon="0.21083">
        <ele>112.3</ele>
        <time>2021-05-23T17:21:03Z</time>
      </trkpt>
      <trkpt lat="46.34725" lon="0.21084">
        <ele>112.3</ele>
        <time>2021-05-23T17:21:05Z</time>
      </trkpt>
      <trkpt lat="46.34725" lon="0.21084">
        <ele>112.3</ele>
        <time>2021-05-23T17:21:06Z</time>
      </trkpt>
      <trkpt lat="46.34725" lon="0.21084">
        <ele>112.3</ele>
        <time>2021-05-23T17:21:07Z</time>
      </trkpt>
      <trkpt lat="46.34724" lon="0.21083">
        <ele>112.3</ele>
        <time>2021-05-23T17:21:09Z</time>
      </trkpt>
      <trkpt lat="46.34724" lon="0.21082">
        <ele>112.3</ele>
        <time>2021-05-23T17:21:10Z</time>
      </trkpt>
      <trkpt lat="46.34724" lon="0.2108">
        <ele>112.3</ele>
        <time>2021-05-23T17:21:12Z</time>
      </trkpt>
      <trkpt lat="46.34724" lon="0.21079">
        <ele>112.3</ele>
        <time>2021-05-23T17:21:13Z</time>
      </trkpt>
      <trkpt lat="46.34725" lon="0.21076">
        <ele>112.3</ele>
        <time>2021-05-23T17:21:15Z</time>
      </trkpt>
      <trkpt lat="46.34726" lon="0.21072">
        <ele>112.3</ele>
        <time>2021-05-23T17:21:17Z</time>
      </trkpt>
      <trkpt lat="46.34727" lon="0.21068">
        <ele>112.3</ele>
        <time>2021-05-23T17:21:18Z</time>
      </trkpt>
      <trkpt lat="46.34727" lon="0.21067">
        <ele>112.3</ele>
        <time>2021-05-23T17:21:19Z</time>
      </trkpt>
      <trkpt lat="46.34727" lon="0.21067">
        <ele>112.3</ele>
        <time>2021-05-23T17:21:21Z</time>
      </trkpt>
      <trkpt lat="46.34727" lon="0.21066">
        <ele>112.3</ele>
        <time>2021-05-23T17:21:23Z</time>
      </trkpt>
      <trkpt lat="46.34727" lon="0.21066">
        <ele>112.3</ele>
        <time>2021-05-23T17:21:25Z</time>
      </trkpt>
      <trkpt lat="46.34726" lon="0.21066">
        <ele>112.3</ele>
        <time>2021-05-23T17:21:26Z</time>
      </trkpt>
      <trkpt lat="46.34726" lon="0.21066">
        <ele>112.3</ele>
        <time>2021-05-23T17:21:27Z</time>
      </trkpt>
      <trkpt lat="46.34726" lon="0.21066">
        <ele>112.3</ele>
        <time>2021-05-23T17:21:28Z</time>
      </trkpt>
      <trkpt lat="46.34726" lon="0.21065">
        <ele>112.3</ele>
        <time>2021-05-23T17:21:29Z</time>
      </trkpt>
      <trkpt lat="46.34726" lon="0.21065">
        <ele>112.3</ele>
        <time>2021-05-23T17:21:31Z</time>
      </trkpt>
      <trkpt lat="46.34726" lon="0.21065">
        <ele>112.3</ele>
        <time>2021-05-23T17:21:32Z</time>
      </trkpt>
      <trkpt lat="46.34725" lon="0.21065">
        <ele>112.3</ele>
        <time>2021-05-23T17:21:33Z</time>
      </trkpt>
      <trkpt lat="46.34725" lon="0.21065">
        <ele>112.3</ele>
        <time>2021-05-23T17:21:35Z</time>
      </trkpt>
      <trkpt lat="46.34725" lon="0.21064">
        <ele>112.3</ele>
        <time>2021-05-23T17:21:37Z</time>
      </trkpt>
      <trkpt lat="46.34725" lon="0.21064">
        <ele>112.3</ele>
        <time>2021-05-23T17:21:38Z</time>
      </trkpt>
      <trkpt lat="46.34725" lon="0.21064">
        <ele>112.3</ele>
        <time>2021-05-23T17:21:39Z</time>
      </trkpt>
      <trkpt lat="46.34724" lon="0.21064">
        <ele>112.3</ele>
        <time>2021-05-23T17:21:41Z</time>
      </trkpt>
      <trkpt lat="46.34723" lon="0.21064">
        <ele>112.3</ele>
        <time>2021-05-23T17:21:42Z</time>
      </trkpt>
      <trkpt lat="46.34721" lon="0.21064">
        <ele>112.2</ele>
        <time>2021-05-23T17:21:44Z</time>
      </trkpt>
      <trkpt lat="46.34721" lon="0.21064">
        <ele>112.2</ele>
        <time>2021-05-23T17:21:45Z</time>
      </trkpt>
      <trkpt lat="46.34719" lon="0.21065">
        <ele>112.2</ele>
        <time>2021-05-23T17:21:47Z</time>
      </trkpt>
      <trkpt lat="46.34718" lon="0.21065">
        <ele>112.2</ele>
        <time>2021-05-23T17:21:48Z</time>
      </trkpt>
      <trkpt lat="46.34718" lon="0.21065">
        <ele>112.2</ele>
        <time>2021-05-23T17:21:49Z</time>
      </trkpt>
      <trkpt lat="46.34717" lon="0.21064">
        <ele>112.2</ele>
        <time>2021-05-23T17:21:51Z</time>
      </trkpt>
      <trkpt lat="46.34717" lon="0.21064">
        <ele>112.2</ele>
        <time>2021-05-23T17:21:52Z</time>
      </trkpt>
      <trkpt lat="46.34716" lon="0.21064">
        <ele>112.1</ele>
        <time>2021-05-23T17:21:53Z</time>
      </trkpt>
      <trkpt lat="46.34716" lon="0.21063">
        <ele>112.1</ele>
        <time>2021-05-23T17:21:55Z</time>
      </trkpt>
      <trkpt lat="46.34715" lon="0.21063">
        <ele>112.1</ele>
        <time>2021-05-23T17:21:56Z</time>
      </trkpt>
      <trkpt lat="46.34715" lon="0.21063">
        <ele>112.1</ele>
        <time>2021-05-23T17:21:57Z</time>
      </trkpt>
      <trkpt lat="46.34714" lon="0.21063">
        <ele>112.1</ele>
        <time>2021-05-23T17:21:58Z</time>
      </trkpt>
      <trkpt lat="46.34714" lon="0.21063">
        <ele>112.1</ele>
        <time>2021-05-23T17:22:00Z</time>
      </trkpt>
      <trkpt lat="46.34714" lon="0.21063">
        <ele>112.1</ele>
        <time>2021-05-23T17:22:01Z</time>
      </trkpt>
      <trkpt lat="46.34713" lon="0.21063">
        <ele>112.1</ele>
        <time>2021-05-23T17:22:02Z</time>
      </trkpt>
      <trkpt lat="46.34713" lon="0.21063">
        <ele>112.1</ele>
        <time>2021-05-23T17:22:03Z</time>
      </trkpt>
      <trkpt lat="46.34712" lon="0.21063">
        <ele>112.1</ele>
        <time>2021-05-23T17:22:05Z</time>
      </trkpt>
      <trkpt lat="46.34712" lon="0.21062">
        <ele>112</ele>
        <time>2021-05-23T17:22:06Z</time>
      </trkpt>
      <trkpt lat="46.34712" lon="0.21062">
        <ele>112</ele>
        <time>2021-05-23T17:22:07Z</time>
      </trkpt>
      <trkpt lat="46.34712" lon="0.21062">
        <ele>112</ele>
        <time>2021-05-23T17:22:08Z</time>
      </trkpt>
      <trkpt lat="46.34711" lon="0.21061">
        <ele>112</ele>
        <time>2021-05-23T17:22:10Z</time>
      </trkpt>
      <trkpt lat="46.34711" lon="0.21061">
        <ele>112</ele>
        <time>2021-05-23T17:22:11Z</time>
      </trkpt>
      <trkpt lat="46.34709" lon="0.2106">
        <ele>112</ele>
        <time>2021-05-23T17:22:12Z</time>
      </trkpt>
      <trkpt lat="46.34709" lon="0.2106">
        <ele>112</ele>
        <time>2021-05-23T17:22:13Z</time>
      </trkpt>
      <trkpt lat="46.34708" lon="0.2106">
        <ele>111.9</ele>
        <time>2021-05-23T17:22:15Z</time>
      </trkpt>
      <trkpt lat="46.34707" lon="0.21059">
        <ele>111.9</ele>
        <time>2021-05-23T17:22:16Z</time>
      </trkpt>
      <trkpt lat="46.34706" lon="0.21059">
        <ele>111.9</ele>
        <time>2021-05-23T17:22:18Z</time>
      </trkpt>
      <trkpt lat="46.34705" lon="0.21059">
        <ele>111.9</ele>
        <time>2021-05-23T17:22:19Z</time>
      </trkpt>
      <trkpt lat="46.34703" lon="0.21058">
        <ele>111.9</ele>
        <time>2021-05-23T17:22:21Z</time>
      </trkpt>
      <trkpt lat="46.34701" lon="0.21057">
        <ele>111.8</ele>
        <time>2021-05-23T17:22:23Z</time>
      </trkpt>
      <trkpt lat="46.347" lon="0.21056">
        <ele>111.8</ele>
        <time>2021-05-23T17:22:24Z</time>
      </trkpt>
      <trkpt lat="46.347" lon="0.21056">
        <ele>111.8</ele>
        <time>2021-05-23T17:22:25Z</time>
      </trkpt>
      <trkpt lat="46.34699" lon="0.21055">
        <ele>111.8</ele>
        <time>2021-05-23T17:22:27Z</time>
      </trkpt>
      <trkpt lat="46.34698" lon="0.21055">
        <ele>111.8</ele>
        <time>2021-05-23T17:22:29Z</time>
      </trkpt>
      <trkpt lat="46.34698" lon="0.21055">
        <ele>111.8</ele>
        <time>2021-05-23T17:22:30Z</time>
      </trkpt>
      <trkpt lat="46.34697" lon="0.21055">
        <ele>111.8</ele>
        <time>2021-05-23T17:22:31Z</time>
      </trkpt>
      <trkpt lat="46.34697" lon="0.21054">
        <ele>111.8</ele>
        <time>2021-05-23T17:22:33Z</time>
      </trkpt>
      <trkpt lat="46.34696" lon="0.21054">
        <ele>111.8</ele>
        <time>2021-05-23T17:22:34Z</time>
      </trkpt>
      <trkpt lat="46.34694" lon="0.21054">
        <ele>111.8</ele>
        <time>2021-05-23T17:22:35Z</time>
      </trkpt>
      <trkpt lat="46.34693" lon="0.21054">
        <ele>111.8</ele>
        <time>2021-05-23T17:22:36Z</time>
      </trkpt>
      <trkpt lat="46.34691" lon="0.21054">
        <ele>111.8</ele>
        <time>2021-05-23T17:22:38Z</time>
      </trkpt>
      <trkpt lat="46.3469" lon="0.21054">
        <ele>111.8</ele>
        <time>2021-05-23T17:22:39Z</time>
      </trkpt>
      <trkpt lat="46.34689" lon="0.21053">
        <ele>111.8</ele>
        <time>2021-05-23T17:22:40Z</time>
      </trkpt>
      <trkpt lat="46.34689" lon="0.21053">
        <ele>111.8</ele>
        <time>2021-05-23T17:22:41Z</time>
      </trkpt>
      <trkpt lat="46.34688" lon="0.21052">
        <ele>111.8</ele>
        <time>2021-05-23T17:22:43Z</time>
      </trkpt>
      <trkpt lat="46.34688" lon="0.21051">
        <ele>111.8</ele>
        <time>2021-05-23T17:22:44Z</time>
      </trkpt>
      <trkpt lat="46.34688" lon="0.21051">
        <ele>111.8</ele>
        <time>2021-05-23T17:22:45Z</time>
      </trkpt>
      <trkpt lat="46.34688" lon="0.21051">
        <ele>111.8</ele>
        <time>2021-05-23T17:22:46Z</time>
      </trkpt>
      <trkpt lat="46.34687" lon="0.21051">
        <ele>111.8</ele>
        <time>2021-05-23T17:22:47Z</time>
      </trkpt>
      <trkpt lat="46.34688" lon="0.21052">
        <ele>111.8</ele>
        <time>2021-05-23T17:22:48Z</time>
      </trkpt>
      <trkpt lat="46.34689" lon="0.21053">
        <ele>111.8</ele>
        <time>2021-05-23T17:22:49Z</time>
      </trkpt>
      <trkpt lat="46.3469" lon="0.21056">
        <ele>111.8</ele>
        <time>2021-05-23T17:22:51Z</time>
      </trkpt>
      <trkpt lat="46.34691" lon="0.21057">
        <ele>111.8</ele>
        <time>2021-05-23T17:22:52Z</time>
      </trkpt>
      <trkpt lat="46.34692" lon="0.21057">
        <ele>111.8</ele>
        <time>2021-05-23T17:22:54Z</time>
      </trkpt>
      <trkpt lat="46.34693" lon="0.21058">
        <ele>111.8</ele>
        <time>2021-05-23T17:22:55Z</time>
      </trkpt>
      <trkpt lat="46.34694" lon="0.21058">
        <ele>111.8</ele>
        <time>2021-05-23T17:22:56Z</time>
      </trkpt>
      <trkpt lat="46.34696" lon="0.21058">
        <ele>111.8</ele>
        <time>2021-05-23T17:22:57Z</time>
      </trkpt>
      <trkpt lat="46.34697" lon="0.21058">
        <ele>111.7</ele>
        <time>2021-05-23T17:22:59Z</time>
      </trkpt>
      <trkpt lat="46.34699" lon="0.21058">
        <ele>111.7</ele>
        <time>2021-05-23T17:23:00Z</time>
      </trkpt>
      <trkpt lat="46.347" lon="0.21059">
        <ele>111.7</ele>
        <time>2021-05-23T17:23:01Z</time>
      </trkpt>
      <trkpt lat="46.34702" lon="0.21059">
        <ele>111.7</ele>
        <time>2021-05-23T17:23:03Z</time>
      </trkpt>
      <trkpt lat="46.34703" lon="0.21059">
        <ele>111.7</ele>
        <time>2021-05-23T17:23:04Z</time>
      </trkpt>
      <trkpt lat="46.34705" lon="0.21059">
        <ele>111.6</ele>
        <time>2021-05-23T17:23:05Z</time>
      </trkpt>
      <trkpt lat="46.34706" lon="0.21059">
        <ele>111.6</ele>
        <time>2021-05-23T17:23:06Z</time>
      </trkpt>
      <trkpt lat="46.34708" lon="0.21059">
        <ele>111.6</ele>
        <time>2021-05-23T17:23:07Z</time>
      </trkpt>
      <trkpt lat="46.34709" lon="0.21058">
        <ele>111.6</ele>
        <time>2021-05-23T17:23:08Z</time>
      </trkpt>
      <trkpt lat="46.3471" lon="0.21058">
        <ele>111.5</ele>
        <time>2021-05-23T17:23:09Z</time>
      </trkpt>
      <trkpt lat="46.34711" lon="0.21058">
        <ele>111.5</ele>
        <time>2021-05-23T17:23:10Z</time>
      </trkpt>
      <trkpt lat="46.34713" lon="0.21057">
        <ele>111.5</ele>
        <time>2021-05-23T17:23:11Z</time>
      </trkpt>
      <trkpt lat="46.34713" lon="0.21057">
        <ele>111.4</ele>
        <time>2021-05-23T17:23:12Z</time>
      </trkpt>
      <trkpt lat="46.34715" lon="0.21056">
        <ele>111.4</ele>
        <time>2021-05-23T17:23:13Z</time>
      </trkpt>
      <trkpt lat="46.34716" lon="0.21055">
        <ele>111.3</ele>
        <time>2021-05-23T17:23:15Z</time>
      </trkpt>
      <trkpt lat="46.34717" lon="0.21054">
        <ele>111.3</ele>
        <time>2021-05-23T17:23:16Z</time>
      </trkpt>
      <trkpt lat="46.34718" lon="0.21053">
        <ele>111.3</ele>
        <time>2021-05-23T17:23:17Z</time>
      </trkpt>
      <trkpt lat="46.34718" lon="0.21052">
        <ele>111.2</ele>
        <time>2021-05-23T17:23:18Z</time>
      </trkpt>
      <trkpt lat="46.34719" lon="0.21052">
        <ele>111.2</ele>
        <time>2021-05-23T17:23:19Z</time>
      </trkpt>
      <trkpt lat="46.34719" lon="0.2105">
        <ele>111.2</ele>
        <time>2021-05-23T17:23:20Z</time>
      </trkpt>
      <trkpt lat="46.34719" lon="0.2105">
        <ele>111.2</ele>
        <time>2021-05-23T17:23:21Z</time>
      </trkpt>
      <trkpt lat="46.34719" lon="0.21048">
        <ele>111.1</ele>
        <time>2021-05-23T17:23:22Z</time>
      </trkpt>
      <trkpt lat="46.34719" lon="0.21046">
        <ele>111.1</ele>
        <time>2021-05-23T17:23:23Z</time>
      </trkpt>
      <trkpt lat="46.34719" lon="0.21045">
        <ele>111</ele>
        <time>2021-05-23T17:23:24Z</time>
      </trkpt>
      <trkpt lat="46.34718" lon="0.21043">
        <ele>111</ele>
        <time>2021-05-23T17:23:26Z</time>
      </trkpt>
      <trkpt lat="46.34718" lon="0.21042">
        <ele>110.9</ele>
        <time>2021-05-23T17:23:27Z</time>
      </trkpt>
      <trkpt lat="46.34718" lon="0.21041">
        <ele>110.9</ele>
        <time>2021-05-23T17:23:28Z</time>
      </trkpt>
      <trkpt lat="46.34717" lon="0.21039">
        <ele>110.8</ele>
        <time>2021-05-23T17:23:29Z</time>
      </trkpt>
      <trkpt lat="46.34717" lon="0.21038">
        <ele>110.8</ele>
        <time>2021-05-23T17:23:30Z</time>
      </trkpt>
      <trkpt lat="46.34716" lon="0.21036">
        <ele>110.7</ele>
        <time>2021-05-23T17:23:31Z</time>
      </trkpt>
      <trkpt lat="46.34716" lon="0.21034">
        <ele>110.6</ele>
        <time>2021-05-23T17:23:33Z</time>
      </trkpt>
      <trkpt lat="46.34716" lon="0.21033">
        <ele>110.6</ele>
        <time>2021-05-23T17:23:34Z</time>
      </trkpt>
      <trkpt lat="46.34716" lon="0.21031">
        <ele>110.5</ele>
        <time>2021-05-23T17:23:35Z</time>
      </trkpt>
      <trkpt lat="46.34716" lon="0.21029">
        <ele>110.4</ele>
        <time>2021-05-23T17:23:37Z</time>
      </trkpt>
      <trkpt lat="46.34716" lon="0.21028">
        <ele>110.4</ele>
        <time>2021-05-23T17:23:38Z</time>
      </trkpt>
      <trkpt lat="46.34716" lon="0.21027">
        <ele>110.3</ele>
        <time>2021-05-23T17:23:39Z</time>
      </trkpt>
      <trkpt lat="46.34716" lon="0.21026">
        <ele>110.3</ele>
        <time>2021-05-23T17:23:40Z</time>
      </trkpt>
      <trkpt lat="46.34716" lon="0.21025">
        <ele>110.2</ele>
        <time>2021-05-23T17:23:41Z</time>
      </trkpt>
      <trkpt lat="46.34716" lon="0.21024">
        <ele>110.2</ele>
        <time>2021-05-23T17:23:42Z</time>
      </trkpt>
      <trkpt lat="46.34716" lon="0.21024">
        <ele>110.2</ele>
        <time>2021-05-23T17:23:43Z</time>
      </trkpt>
      <trkpt lat="46.34716" lon="0.21023">
        <ele>110.1</ele>
        <time>2021-05-23T17:23:44Z</time>
      </trkpt>
      <trkpt lat="46.34716" lon="0.21022">
        <ele>110.1</ele>
        <time>2021-05-23T17:23:45Z</time>
      </trkpt>
      <trkpt lat="46.34716" lon="0.21021">
        <ele>110.1</ele>
        <time>2021-05-23T17:23:47Z</time>
      </trkpt>
      <trkpt lat="46.34716" lon="0.21021">
        <ele>110</ele>
        <time>2021-05-23T17:23:48Z</time>
      </trkpt>
      <trkpt lat="46.34716" lon="0.2102">
        <ele>110</ele>
        <time>2021-05-23T17:23:49Z</time>
      </trkpt>
      <trkpt lat="46.34717" lon="0.21019">
        <ele>109.9</ele>
        <time>2021-05-23T17:23:51Z</time>
      </trkpt>
      <trkpt lat="46.34717" lon="0.21018">
        <ele>109.9</ele>
        <time>2021-05-23T17:23:52Z</time>
      </trkpt>
      <trkpt lat="46.34718" lon="0.21017">
        <ele>109.8</ele>
        <time>2021-05-23T17:23:53Z</time>
      </trkpt>
      <trkpt lat="46.34718" lon="0.21016">
        <ele>109.7</ele>
        <time>2021-05-23T17:23:54Z</time>
      </trkpt>
      <trkpt lat="46.34719" lon="0.21014">
        <ele>109.6</ele>
        <time>2021-05-23T17:23:55Z</time>
      </trkpt>
      <trkpt lat="46.34719" lon="0.21012">
        <ele>109.5</ele>
        <time>2021-05-23T17:23:57Z</time>
      </trkpt>
      <trkpt lat="46.3472" lon="0.2101">
        <ele>109.4</ele>
        <time>2021-05-23T17:23:58Z</time>
      </trkpt>
      <trkpt lat="46.3472" lon="0.21009">
        <ele>109.3</ele>
        <time>2021-05-23T17:23:59Z</time>
      </trkpt>
      <trkpt lat="46.34721" lon="0.21007">
        <ele>109.2</ele>
        <time>2021-05-23T17:24:01Z</time>
      </trkpt>
      <trkpt lat="46.34722" lon="0.21006">
        <ele>109.1</ele>
        <time>2021-05-23T17:24:03Z</time>
      </trkpt>
      <trkpt lat="46.34722" lon="0.21005">
        <ele>109.1</ele>
        <time>2021-05-23T17:24:04Z</time>
      </trkpt>
      <trkpt lat="46.34722" lon="0.21003">
        <ele>109</ele>
        <time>2021-05-23T17:24:05Z</time>
      </trkpt>
      <trkpt lat="46.34722" lon="0.21002">
        <ele>108.9</ele>
        <time>2021-05-23T17:24:06Z</time>
      </trkpt>
      <trkpt lat="46.34721" lon="0.21">
        <ele>108.8</ele>
        <time>2021-05-23T17:24:07Z</time>
      </trkpt>
      <trkpt lat="46.3472" lon="0.20997">
        <ele>108.6</ele>
        <time>2021-05-23T17:24:08Z</time>
      </trkpt>
      <trkpt lat="46.34719" lon="0.20995">
        <ele>108.5</ele>
        <time>2021-05-23T17:24:09Z</time>
      </trkpt>
      <trkpt lat="46.34719" lon="0.20993">
        <ele>108.3</ele>
        <time>2021-05-23T17:24:10Z</time>
      </trkpt>
      <trkpt lat="46.34718" lon="0.2099">
        <ele>108.1</ele>
        <time>2021-05-23T17:24:12Z</time>
      </trkpt>
      <trkpt lat="46.34718" lon="0.20988">
        <ele>108</ele>
        <time>2021-05-23T17:24:13Z</time>
      </trkpt>
      <trkpt lat="46.34717" lon="0.20984">
        <ele>107.7</ele>
        <time>2021-05-23T17:24:14Z</time>
      </trkpt>
      <trkpt lat="46.34717" lon="0.20983">
        <ele>107.6</ele>
        <time>2021-05-23T17:24:15Z</time>
      </trkpt>
      <trkpt lat="46.34716" lon="0.20981">
        <ele>107.4</ele>
        <time>2021-05-23T17:24:16Z</time>
      </trkpt>
      <trkpt lat="46.34716" lon="0.20978">
        <ele>107.3</ele>
        <time>2021-05-23T17:24:17Z</time>
      </trkpt>
      <trkpt lat="46.34716" lon="0.20974">
        <ele>107</ele>
        <time>2021-05-23T17:24:18Z</time>
      </trkpt>
      <trkpt lat="46.34715" lon="0.20972">
        <ele>106.9</ele>
        <time>2021-05-23T17:24:19Z</time>
      </trkpt>
      <trkpt lat="46.34715" lon="0.20968">
        <ele>106.6</ele>
        <time>2021-05-23T17:24:20Z</time>
      </trkpt>
      <trkpt lat="46.34714" lon="0.20965">
        <ele>106.3</ele>
        <time>2021-05-23T17:24:21Z</time>
      </trkpt>
      <trkpt lat="46.34714" lon="0.20962">
        <ele>106.1</ele>
        <time>2021-05-23T17:24:23Z</time>
      </trkpt>
      <trkpt lat="46.34713" lon="0.20958">
        <ele>105.7</ele>
        <time>2021-05-23T17:24:24Z</time>
      </trkpt>
      <trkpt lat="46.34713" lon="0.20956">
        <ele>105.6</ele>
        <time>2021-05-23T17:24:25Z</time>
      </trkpt>
      <trkpt lat="46.34712" lon="0.20951">
        <ele>105.2</ele>
        <time>2021-05-23T17:24:26Z</time>
      </trkpt>
      <trkpt lat="46.34712" lon="0.20949">
        <ele>105.1</ele>
        <time>2021-05-23T17:24:27Z</time>
      </trkpt>
      <trkpt lat="46.34712" lon="0.20948">
        <ele>104.9</ele>
        <time>2021-05-23T17:24:28Z</time>
      </trkpt>
      <trkpt lat="46.34711" lon="0.20945">
        <ele>104.7</ele>
        <time>2021-05-23T17:24:29Z</time>
      </trkpt>
      <trkpt lat="46.34711" lon="0.20942">
        <ele>104.5</ele>
        <time>2021-05-23T17:24:30Z</time>
      </trkpt>
      <trkpt lat="46.34711" lon="0.20938">
        <ele>104.2</ele>
        <time>2021-05-23T17:24:32Z</time>
      </trkpt>
      <trkpt lat="46.34711" lon="0.20937">
        <ele>104.1</ele>
        <time>2021-05-23T17:24:33Z</time>
      </trkpt>
      <trkpt lat="46.3471" lon="0.20934">
        <ele>103.9</ele>
        <time>2021-05-23T17:24:34Z</time>
      </trkpt>
      <trkpt lat="46.3471" lon="0.20932">
        <ele>103.8</ele>
        <time>2021-05-23T17:24:35Z</time>
      </trkpt>
      <trkpt lat="46.34709" lon="0.2093">
        <ele>103.7</ele>
        <time>2021-05-23T17:24:36Z</time>
      </trkpt>
      <trkpt lat="46.34709" lon="0.20928">
        <ele>103.5</ele>
        <time>2021-05-23T17:24:37Z</time>
      </trkpt>
      <trkpt lat="46.34709" lon="0.20925">
        <ele>103.3</ele>
        <time>2021-05-23T17:24:39Z</time>
      </trkpt>
      <trkpt lat="46.34708" lon="0.20923">
        <ele>103.2</ele>
        <time>2021-05-23T17:24:40Z</time>
      </trkpt>
      <trkpt lat="46.34708" lon="0.20921">
        <ele>103.1</ele>
        <time>2021-05-23T17:24:41Z</time>
      </trkpt>
      <trkpt lat="46.34707" lon="0.20918">
        <ele>102.9</ele>
        <time>2021-05-23T17:24:42Z</time>
      </trkpt>
      <trkpt lat="46.34706" lon="0.20916">
        <ele>102.8</ele>
        <time>2021-05-23T17:24:43Z</time>
      </trkpt>
      <trkpt lat="46.34706" lon="0.20914">
        <ele>102.7</ele>
        <time>2021-05-23T17:24:44Z</time>
      </trkpt>
      <trkpt lat="46.34706" lon="0.20913">
        <ele>102.6</ele>
        <time>2021-05-23T17:24:45Z</time>
      </trkpt>
      <trkpt lat="46.34705" lon="0.2091">
        <ele>102.4</ele>
        <time>2021-05-23T17:24:47Z</time>
      </trkpt>
      <trkpt lat="46.34704" lon="0.20906">
        <ele>102.2</ele>
        <time>2021-05-23T17:24:48Z</time>
      </trkpt>
      <trkpt lat="46.34704" lon="0.20905">
        <ele>102.2</ele>
        <time>2021-05-23T17:24:50Z</time>
      </trkpt>
      <trkpt lat="46.34704" lon="0.20904">
        <ele>102.1</ele>
        <time>2021-05-23T17:24:51Z</time>
      </trkpt>
      <trkpt lat="46.34703" lon="0.20902">
        <ele>101.9</ele>
        <time>2021-05-23T17:24:52Z</time>
      </trkpt>
      <trkpt lat="46.34703" lon="0.20901">
        <ele>101.9</ele>
        <time>2021-05-23T17:24:53Z</time>
      </trkpt>
      <trkpt lat="46.34704" lon="0.209">
        <ele>101.8</ele>
        <time>2021-05-23T17:24:54Z</time>
      </trkpt>
      <trkpt lat="46.34704" lon="0.20899">
        <ele>101.8</ele>
        <time>2021-05-23T17:24:55Z</time>
      </trkpt>
      <trkpt lat="46.34704" lon="0.20898">
        <ele>101.7</ele>
        <time>2021-05-23T17:24:56Z</time>
      </trkpt>
      <trkpt lat="46.34704" lon="0.20896">
        <ele>101.7</ele>
        <time>2021-05-23T17:24:57Z</time>
      </trkpt>
      <trkpt lat="46.34703" lon="0.20895">
        <ele>101.6</ele>
        <time>2021-05-23T17:24:58Z</time>
      </trkpt>
      <trkpt lat="46.34703" lon="0.20893">
        <ele>101.5</ele>
        <time>2021-05-23T17:24:59Z</time>
      </trkpt>
      <trkpt lat="46.34702" lon="0.20891">
        <ele>101.4</ele>
        <time>2021-05-23T17:25:00Z</time>
      </trkpt>
      <trkpt lat="46.34702" lon="0.20887">
        <ele>101.2</ele>
        <time>2021-05-23T17:25:01Z</time>
      </trkpt>
      <trkpt lat="46.34701" lon="0.20886">
        <ele>101.1</ele>
        <time>2021-05-23T17:25:02Z</time>
      </trkpt>
      <trkpt lat="46.34701" lon="0.20884">
        <ele>101</ele>
        <time>2021-05-23T17:25:04Z</time>
      </trkpt>
      <trkpt lat="46.347" lon="0.20882">
        <ele>100.9</ele>
        <time>2021-05-23T17:25:05Z</time>
      </trkpt>
      <trkpt lat="46.34698" lon="0.20878">
        <ele>100.8</ele>
        <time>2021-05-23T17:25:06Z</time>
      </trkpt>
      <trkpt lat="46.34698" lon="0.20877">
        <ele>100.7</ele>
        <time>2021-05-23T17:25:07Z</time>
      </trkpt>
      <trkpt lat="46.34696" lon="0.20875">
        <ele>100.6</ele>
        <time>2021-05-23T17:25:08Z</time>
      </trkpt>
      <trkpt lat="46.34696" lon="0.20874">
        <ele>100.6</ele>
        <time>2021-05-23T17:25:09Z</time>
      </trkpt>
      <trkpt lat="46.34695" lon="0.20872">
        <ele>100.5</ele>
        <time>2021-05-23T17:25:10Z</time>
      </trkpt>
      <trkpt lat="46.34693" lon="0.20869">
        <ele>100.4</ele>
        <time>2021-05-23T17:25:11Z</time>
      </trkpt>
      <trkpt lat="46.34693" lon="0.20868">
        <ele>100.4</ele>
        <time>2021-05-23T17:25:12Z</time>
      </trkpt>
      <trkpt lat="46.34692" lon="0.20867">
        <ele>100.3</ele>
        <time>2021-05-23T17:25:13Z</time>
      </trkpt>
      <trkpt lat="46.34691" lon="0.20865">
        <ele>100.3</ele>
        <time>2021-05-23T17:25:14Z</time>
      </trkpt>
      <trkpt lat="46.34689" lon="0.20862">
        <ele>100.2</ele>
        <time>2021-05-23T17:25:16Z</time>
      </trkpt>
      <trkpt lat="46.34688" lon="0.20861">
        <ele>100.1</ele>
        <time>2021-05-23T17:25:17Z</time>
      </trkpt>
      <trkpt lat="46.34688" lon="0.2086">
        <ele>100.1</ele>
        <time>2021-05-23T17:25:18Z</time>
      </trkpt>
      <trkpt lat="46.34687" lon="0.20858">
        <ele>100.1</ele>
        <time>2021-05-23T17:25:19Z</time>
      </trkpt>
      <trkpt lat="46.34686" lon="0.20857">
        <ele>100</ele>
        <time>2021-05-23T17:25:20Z</time>
      </trkpt>
      <trkpt lat="46.34685" lon="0.20856">
        <ele>100</ele>
        <time>2021-05-23T17:25:21Z</time>
      </trkpt>
      <trkpt lat="46.34684" lon="0.20853">
        <ele>99.9</ele>
        <time>2021-05-23T17:25:22Z</time>
      </trkpt>
      <trkpt lat="46.34683" lon="0.20852">
        <ele>99.9</ele>
        <time>2021-05-23T17:25:23Z</time>
      </trkpt>
      <trkpt lat="46.34682" lon="0.20851">
        <ele>99.9</ele>
        <time>2021-05-23T17:25:24Z</time>
      </trkpt>
      <trkpt lat="46.34682" lon="0.20849">
        <ele>99.8</ele>
        <time>2021-05-23T17:25:25Z</time>
      </trkpt>
      <trkpt lat="46.3468" lon="0.20847">
        <ele>99.8</ele>
        <time>2021-05-23T17:25:27Z</time>
      </trkpt>
      <trkpt lat="46.34679" lon="0.20846">
        <ele>99.8</ele>
        <time>2021-05-23T17:25:28Z</time>
      </trkpt>
      <trkpt lat="46.34678" lon="0.20845">
        <ele>99.7</ele>
        <time>2021-05-23T17:25:29Z</time>
      </trkpt>
      <trkpt lat="46.34676" lon="0.20844">
        <ele>99.7</ele>
        <time>2021-05-23T17:25:30Z</time>
      </trkpt>
      <trkpt lat="46.34675" lon="0.20843">
        <ele>99.7</ele>
        <time>2021-05-23T17:25:31Z</time>
      </trkpt>
      <trkpt lat="46.34674" lon="0.20841">
        <ele>99.6</ele>
        <time>2021-05-23T17:25:32Z</time>
      </trkpt>
      <trkpt lat="46.34673" lon="0.2084">
        <ele>99.6</ele>
        <time>2021-05-23T17:25:33Z</time>
      </trkpt>
      <trkpt lat="46.34671" lon="0.20838">
        <ele>99.6</ele>
        <time>2021-05-23T17:25:35Z</time>
      </trkpt>
      <trkpt lat="46.34671" lon="0.20837">
        <ele>99.5</ele>
        <time>2021-05-23T17:25:36Z</time>
      </trkpt>
      <trkpt lat="46.34669" lon="0.20836">
        <ele>99.5</ele>
        <time>2021-05-23T17:25:37Z</time>
      </trkpt>
      <trkpt lat="46.34669" lon="0.20835">
        <ele>99.5</ele>
        <time>2021-05-23T17:25:38Z</time>
      </trkpt>
      <trkpt lat="46.34668" lon="0.20832">
        <ele>99.5</ele>
        <time>2021-05-23T17:25:39Z</time>
      </trkpt>
      <trkpt lat="46.34667" lon="0.20831">
        <ele>99.5</ele>
        <time>2021-05-23T17:25:41Z</time>
      </trkpt>
      <trkpt lat="46.34667" lon="0.2083">
        <ele>99.4</ele>
        <time>2021-05-23T17:25:42Z</time>
      </trkpt>
      <trkpt lat="46.34667" lon="0.20829">
        <ele>99.4</ele>
        <time>2021-05-23T17:25:43Z</time>
      </trkpt>
      <trkpt lat="46.34667" lon="0.20827">
        <ele>99.4</ele>
        <time>2021-05-23T17:25:45Z</time>
      </trkpt>
      <trkpt lat="46.34668" lon="0.20827">
        <ele>99.4</ele>
        <time>2021-05-23T17:25:46Z</time>
      </trkpt>
      <trkpt lat="46.34667" lon="0.20825">
        <ele>99.4</ele>
        <time>2021-05-23T17:25:47Z</time>
      </trkpt>
      <trkpt lat="46.34667" lon="0.20825">
        <ele>99.4</ele>
        <time>2021-05-23T17:25:48Z</time>
      </trkpt>
      <trkpt lat="46.34667" lon="0.20824">
        <ele>99.4</ele>
        <time>2021-05-23T17:25:49Z</time>
      </trkpt>
      <trkpt lat="46.34667" lon="0.20823">
        <ele>99.4</ele>
        <time>2021-05-23T17:25:50Z</time>
      </trkpt>
      <trkpt lat="46.34667" lon="0.20821">
        <ele>99.4</ele>
        <time>2021-05-23T17:25:52Z</time>
      </trkpt>
      <trkpt lat="46.34666" lon="0.2082">
        <ele>99.4</ele>
        <time>2021-05-23T17:25:53Z</time>
      </trkpt>
      <trkpt lat="46.34666" lon="0.20818">
        <ele>99.4</ele>
        <time>2021-05-23T17:25:54Z</time>
      </trkpt>
      <trkpt lat="46.34666" lon="0.20816">
        <ele>99.4</ele>
        <time>2021-05-23T17:25:55Z</time>
      </trkpt>
      <trkpt lat="46.34665" lon="0.20815">
        <ele>99.4</ele>
        <time>2021-05-23T17:25:56Z</time>
      </trkpt>
      <trkpt lat="46.34665" lon="0.20813">
        <ele>99.4</ele>
        <time>2021-05-23T17:25:57Z</time>
      </trkpt>
      <trkpt lat="46.34665" lon="0.20812">
        <ele>99.4</ele>
        <time>2021-05-23T17:25:58Z</time>
      </trkpt>
      <trkpt lat="46.34664" lon="0.2081">
        <ele>99.4</ele>
        <time>2021-05-23T17:26:00Z</time>
      </trkpt>
      <trkpt lat="46.34663" lon="0.20808">
        <ele>99.4</ele>
        <time>2021-05-23T17:26:01Z</time>
      </trkpt>
      <trkpt lat="46.34663" lon="0.20806">
        <ele>99.4</ele>
        <time>2021-05-23T17:26:02Z</time>
      </trkpt>
      <trkpt lat="46.34663" lon="0.20805">
        <ele>99.4</ele>
        <time>2021-05-23T17:26:03Z</time>
      </trkpt>
      <trkpt lat="46.34662" lon="0.20804">
        <ele>99.4</ele>
        <time>2021-05-23T17:26:04Z</time>
      </trkpt>
      <trkpt lat="46.34662" lon="0.20802">
        <ele>99.4</ele>
        <time>2021-05-23T17:26:05Z</time>
      </trkpt>
      <trkpt lat="46.34661" lon="0.208">
        <ele>99.4</ele>
        <time>2021-05-23T17:26:07Z</time>
      </trkpt>
      <trkpt lat="46.3466" lon="0.20798">
        <ele>99.4</ele>
        <time>2021-05-23T17:26:08Z</time>
      </trkpt>
      <trkpt lat="46.34659" lon="0.20796">
        <ele>99.4</ele>
        <time>2021-05-23T17:26:09Z</time>
      </trkpt>
      <trkpt lat="46.34658" lon="0.20793">
        <ele>99.4</ele>
        <time>2021-05-23T17:26:11Z</time>
      </trkpt>
      <trkpt lat="46.34658" lon="0.20789">
        <ele>99.5</ele>
        <time>2021-05-23T17:26:12Z</time>
      </trkpt>
      <trkpt lat="46.34657" lon="0.20787">
        <ele>99.5</ele>
        <time>2021-05-23T17:26:13Z</time>
      </trkpt>
      <trkpt lat="46.34657" lon="0.20785">
        <ele>99.5</ele>
        <time>2021-05-23T17:26:14Z</time>
      </trkpt>
      <trkpt lat="46.34657" lon="0.20782">
        <ele>99.5</ele>
        <time>2021-05-23T17:26:15Z</time>
      </trkpt>
      <trkpt lat="46.34656" lon="0.2078">
        <ele>99.5</ele>
        <time>2021-05-23T17:26:17Z</time>
      </trkpt>
      <trkpt lat="46.34656" lon="0.20777">
        <ele>99.5</ele>
        <time>2021-05-23T17:26:18Z</time>
      </trkpt>
      <trkpt lat="46.34656" lon="0.20774">
        <ele>99.5</ele>
        <time>2021-05-23T17:26:19Z</time>
      </trkpt>
      <trkpt lat="46.34655" lon="0.20773">
        <ele>99.5</ele>
        <time>2021-05-23T17:26:20Z</time>
      </trkpt>
      <trkpt lat="46.34655" lon="0.20772">
        <ele>99.6</ele>
        <time>2021-05-23T17:26:21Z</time>
      </trkpt>
      <trkpt lat="46.34654" lon="0.20768">
        <ele>99.6</ele>
        <time>2021-05-23T17:26:23Z</time>
      </trkpt>
      <trkpt lat="46.34653" lon="0.20767">
        <ele>99.6</ele>
        <time>2021-05-23T17:26:24Z</time>
      </trkpt>
      <trkpt lat="46.34651" lon="0.20763">
        <ele>99.6</ele>
        <time>2021-05-23T17:26:26Z</time>
      </trkpt>
      <trkpt lat="46.34649" lon="0.20761">
        <ele>99.6</ele>
        <time>2021-05-23T17:26:27Z</time>
      </trkpt>
      <trkpt lat="46.34648" lon="0.2076">
        <ele>99.6</ele>
        <time>2021-05-23T17:26:29Z</time>
      </trkpt>
      <trkpt lat="46.34646" lon="0.20758">
        <ele>99.7</ele>
        <time>2021-05-23T17:26:30Z</time>
      </trkpt>
      <trkpt lat="46.34645" lon="0.20757">
        <ele>99.7</ele>
        <time>2021-05-23T17:26:31Z</time>
      </trkpt>
      <trkpt lat="46.34642" lon="0.20756">
        <ele>99.7</ele>
        <time>2021-05-23T17:26:32Z</time>
      </trkpt>
      <trkpt lat="46.3464" lon="0.20755">
        <ele>99.8</ele>
        <time>2021-05-23T17:26:34Z</time>
      </trkpt>
      <trkpt lat="46.34639" lon="0.20754">
        <ele>99.8</ele>
        <time>2021-05-23T17:26:35Z</time>
      </trkpt>
      <trkpt lat="46.34638" lon="0.20752">
        <ele>99.8</ele>
        <time>2021-05-23T17:26:36Z</time>
      </trkpt>
      <trkpt lat="46.34636" lon="0.20751">
        <ele>99.8</ele>
        <time>2021-05-23T17:26:37Z</time>
      </trkpt>
      <trkpt lat="46.34635" lon="0.2075">
        <ele>99.9</ele>
        <time>2021-05-23T17:26:38Z</time>
      </trkpt>
      <trkpt lat="46.34634" lon="0.20749">
        <ele>99.9</ele>
        <time>2021-05-23T17:26:39Z</time>
      </trkpt>
      <trkpt lat="46.34633" lon="0.20748">
        <ele>99.9</ele>
        <time>2021-05-23T17:26:41Z</time>
      </trkpt>
      <trkpt lat="46.34631" lon="0.20747">
        <ele>100</ele>
        <time>2021-05-23T17:26:42Z</time>
      </trkpt>
      <trkpt lat="46.34631" lon="0.20746">
        <ele>100</ele>
        <time>2021-05-23T17:26:43Z</time>
      </trkpt>
      <trkpt lat="46.3463" lon="0.20745">
        <ele>100</ele>
        <time>2021-05-23T17:26:44Z</time>
      </trkpt>
      <trkpt lat="46.34629" lon="0.20744">
        <ele>100.1</ele>
        <time>2021-05-23T17:26:45Z</time>
      </trkpt>
      <trkpt lat="46.34627" lon="0.20741">
        <ele>100.1</ele>
        <time>2021-05-23T17:26:47Z</time>
      </trkpt>
      <trkpt lat="46.34626" lon="0.2074">
        <ele>100.2</ele>
        <time>2021-05-23T17:26:48Z</time>
      </trkpt>
      <trkpt lat="46.34625" lon="0.20739">
        <ele>100.2</ele>
        <time>2021-05-23T17:26:49Z</time>
      </trkpt>
      <trkpt lat="46.34624" lon="0.20737">
        <ele>100.3</ele>
        <time>2021-05-23T17:26:51Z</time>
      </trkpt>
      <trkpt lat="46.34622" lon="0.20735">
        <ele>100.4</ele>
        <time>2021-05-23T17:26:52Z</time>
      </trkpt>
      <trkpt lat="46.34621" lon="0.20735">
        <ele>100.4</ele>
        <time>2021-05-23T17:26:53Z</time>
      </trkpt>
      <trkpt lat="46.3462" lon="0.20734">
        <ele>100.5</ele>
        <time>2021-05-23T17:26:54Z</time>
      </trkpt>
      <trkpt lat="46.34618" lon="0.20732">
        <ele>100.6</ele>
        <time>2021-05-23T17:26:55Z</time>
      </trkpt>
      <trkpt lat="46.34617" lon="0.20731">
        <ele>100.6</ele>
        <time>2021-05-23T17:26:56Z</time>
      </trkpt>
      <trkpt lat="46.34615" lon="0.2073">
        <ele>100.7</ele>
        <time>2021-05-23T17:26:58Z</time>
      </trkpt>
      <trkpt lat="46.34613" lon="0.20729">
        <ele>100.8</ele>
        <time>2021-05-23T17:26:59Z</time>
      </trkpt>
      <trkpt lat="46.34612" lon="0.20728">
        <ele>100.9</ele>
        <time>2021-05-23T17:27:00Z</time>
      </trkpt>
      <trkpt lat="46.34609" lon="0.20727">
        <ele>101.1</ele>
        <time>2021-05-23T17:27:01Z</time>
      </trkpt>
      <trkpt lat="46.34608" lon="0.20726">
        <ele>101.1</ele>
        <time>2021-05-23T17:27:02Z</time>
      </trkpt>
      <trkpt lat="46.34608" lon="0.20725">
        <ele>101.2</ele>
        <time>2021-05-23T17:27:04Z</time>
      </trkpt>
      <trkpt lat="46.34607" lon="0.20724">
        <ele>101.2</ele>
        <time>2021-05-23T17:27:05Z</time>
      </trkpt>
      <trkpt lat="46.34606" lon="0.20724">
        <ele>101.3</ele>
        <time>2021-05-23T17:27:06Z</time>
      </trkpt>
      <trkpt lat="46.34604" lon="0.20722">
        <ele>101.5</ele>
        <time>2021-05-23T17:27:07Z</time>
      </trkpt>
      <trkpt lat="46.34603" lon="0.20722">
        <ele>101.5</ele>
        <time>2021-05-23T17:27:08Z</time>
      </trkpt>
      <trkpt lat="46.34603" lon="0.20722">
        <ele>101.6</ele>
        <time>2021-05-23T17:27:09Z</time>
      </trkpt>
      <trkpt lat="46.34602" lon="0.20722">
        <ele>101.6</ele>
        <time>2021-05-23T17:27:11Z</time>
      </trkpt>
      <trkpt lat="46.34601" lon="0.20722">
        <ele>101.6</ele>
        <time>2021-05-23T17:27:12Z</time>
      </trkpt>
      <trkpt lat="46.34601" lon="0.20722">
        <ele>101.7</ele>
        <time>2021-05-23T17:27:13Z</time>
      </trkpt>
      <trkpt lat="46.346" lon="0.20722">
        <ele>101.7</ele>
        <time>2021-05-23T17:27:15Z</time>
      </trkpt>
      <trkpt lat="46.346" lon="0.20721">
        <ele>101.8</ele>
        <time>2021-05-23T17:27:16Z</time>
      </trkpt>
      <trkpt lat="46.34599" lon="0.20721">
        <ele>101.8</ele>
        <time>2021-05-23T17:27:17Z</time>
      </trkpt>
      <trkpt lat="46.34598" lon="0.20722">
        <ele>102</ele>
        <time>2021-05-23T17:27:19Z</time>
      </trkpt>
      <trkpt lat="46.34597" lon="0.20722">
        <ele>102</ele>
        <time>2021-05-23T17:27:20Z</time>
      </trkpt>
      <trkpt lat="46.34596" lon="0.20723">
        <ele>102.1</ele>
        <time>2021-05-23T17:27:21Z</time>
      </trkpt>
      <trkpt lat="46.34595" lon="0.20723">
        <ele>102.1</ele>
        <time>2021-05-23T17:27:22Z</time>
      </trkpt>
      <trkpt lat="46.34595" lon="0.20723">
        <ele>102.2</ele>
        <time>2021-05-23T17:27:24Z</time>
      </trkpt>
      <trkpt lat="46.34594" lon="0.20723">
        <ele>102.3</ele>
        <time>2021-05-23T17:27:25Z</time>
      </trkpt>
      <trkpt lat="46.34593" lon="0.20724">
        <ele>102.4</ele>
        <time>2021-05-23T17:27:26Z</time>
      </trkpt>
      <trkpt lat="46.34592" lon="0.20724">
        <ele>102.5</ele>
        <time>2021-05-23T17:27:27Z</time>
      </trkpt>
      <trkpt lat="46.34591" lon="0.20725">
        <ele>102.5</ele>
        <time>2021-05-23T17:27:28Z</time>
      </trkpt>
      <trkpt lat="46.34589" lon="0.20726">
        <ele>102.7</ele>
        <time>2021-05-23T17:27:30Z</time>
      </trkpt>
      <trkpt lat="46.34588" lon="0.20726">
        <ele>102.8</ele>
        <time>2021-05-23T17:27:31Z</time>
      </trkpt>
      <trkpt lat="46.34586" lon="0.20728">
        <ele>103</ele>
        <time>2021-05-23T17:27:32Z</time>
      </trkpt>
      <trkpt lat="46.34585" lon="0.20729">
        <ele>103.1</ele>
        <time>2021-05-23T17:27:33Z</time>
      </trkpt>
      <trkpt lat="46.34584" lon="0.2073">
        <ele>103.2</ele>
        <time>2021-05-23T17:27:35Z</time>
      </trkpt>
      <trkpt lat="46.34583" lon="0.20731">
        <ele>103.4</ele>
        <time>2021-05-23T17:27:36Z</time>
      </trkpt>
      <trkpt lat="46.34581" lon="0.20732">
        <ele>103.6</ele>
        <time>2021-05-23T17:27:37Z</time>
      </trkpt>
      <trkpt lat="46.3458" lon="0.20733">
        <ele>103.7</ele>
        <time>2021-05-23T17:27:38Z</time>
      </trkpt>
      <trkpt lat="46.34578" lon="0.20734">
        <ele>103.8</ele>
        <time>2021-05-23T17:27:40Z</time>
      </trkpt>
      <trkpt lat="46.34577" lon="0.20735">
        <ele>103.9</ele>
        <time>2021-05-23T17:27:41Z</time>
      </trkpt>
      <trkpt lat="46.34575" lon="0.20736">
        <ele>104.1</ele>
        <time>2021-05-23T17:27:42Z</time>
      </trkpt>
      <trkpt lat="46.34574" lon="0.20737">
        <ele>104.2</ele>
        <time>2021-05-23T17:27:43Z</time>
      </trkpt>
      <trkpt lat="46.34572" lon="0.20737">
        <ele>104.4</ele>
        <time>2021-05-23T17:27:45Z</time>
      </trkpt>
      <trkpt lat="46.34571" lon="0.20738">
        <ele>104.5</ele>
        <time>2021-05-23T17:27:46Z</time>
      </trkpt>
      <trkpt lat="46.34568" lon="0.20738">
        <ele>104.7</ele>
        <time>2021-05-23T17:27:47Z</time>
      </trkpt>
      <trkpt lat="46.34567" lon="0.20739">
        <ele>104.9</ele>
        <time>2021-05-23T17:27:49Z</time>
      </trkpt>
      <trkpt lat="46.34565" lon="0.20739">
        <ele>105</ele>
        <time>2021-05-23T17:27:50Z</time>
      </trkpt>
      <trkpt lat="46.34562" lon="0.20739">
        <ele>105.3</ele>
        <time>2021-05-23T17:27:52Z</time>
      </trkpt>
      <trkpt lat="46.34561" lon="0.20739">
        <ele>105.4</ele>
        <time>2021-05-23T17:27:53Z</time>
      </trkpt>
      <trkpt lat="46.34559" lon="0.20739">
        <ele>105.5</ele>
        <time>2021-05-23T17:27:55Z</time>
      </trkpt>
      <trkpt lat="46.34558" lon="0.20739">
        <ele>105.6</ele>
        <time>2021-05-23T17:27:56Z</time>
      </trkpt>
      <trkpt lat="46.34556" lon="0.20738">
        <ele>105.8</ele>
        <time>2021-05-23T17:27:58Z</time>
      </trkpt>
      <trkpt lat="46.34555" lon="0.20738">
        <ele>105.9</ele>
        <time>2021-05-23T17:27:59Z</time>
      </trkpt>
      <trkpt lat="46.34553" lon="0.20738">
        <ele>106</ele>
        <time>2021-05-23T17:28:01Z</time>
      </trkpt>
      <trkpt lat="46.3455" lon="0.20738">
        <ele>106.2</ele>
        <time>2021-05-23T17:28:03Z</time>
      </trkpt>
      <trkpt lat="46.34549" lon="0.20738">
        <ele>106.3</ele>
        <time>2021-05-23T17:28:04Z</time>
      </trkpt>
      <trkpt lat="46.34547" lon="0.20737">
        <ele>106.4</ele>
        <time>2021-05-23T17:28:05Z</time>
      </trkpt>
      <trkpt lat="46.34546" lon="0.20736">
        <ele>106.4</ele>
        <time>2021-05-23T17:28:06Z</time>
      </trkpt>
      <trkpt lat="46.34545" lon="0.20736">
        <ele>106.5</ele>
        <time>2021-05-23T17:28:07Z</time>
      </trkpt>
      <trkpt lat="46.34545" lon="0.20735">
        <ele>106.5</ele>
        <time>2021-05-23T17:28:09Z</time>
      </trkpt>
      <trkpt lat="46.34544" lon="0.20735">
        <ele>106.6</ele>
        <time>2021-05-23T17:28:10Z</time>
      </trkpt>
      <trkpt lat="46.34542" lon="0.20734">
        <ele>106.7</ele>
        <time>2021-05-23T17:28:11Z</time>
      </trkpt>
      <trkpt lat="46.3454" lon="0.20733">
        <ele>106.8</ele>
        <time>2021-05-23T17:28:12Z</time>
      </trkpt>
      <trkpt lat="46.34539" lon="0.20733">
        <ele>106.8</ele>
        <time>2021-05-23T17:28:13Z</time>
      </trkpt>
      <trkpt lat="46.34538" lon="0.20732">
        <ele>106.9</ele>
        <time>2021-05-23T17:28:14Z</time>
      </trkpt>
      <trkpt lat="46.34536" lon="0.20732">
        <ele>106.9</ele>
        <time>2021-05-23T17:28:16Z</time>
      </trkpt>
      <trkpt lat="46.34534" lon="0.20731">
        <ele>107</ele>
        <time>2021-05-23T17:28:17Z</time>
      </trkpt>
      <trkpt lat="46.34533" lon="0.2073">
        <ele>107</ele>
        <time>2021-05-23T17:28:18Z</time>
      </trkpt>
      <trkpt lat="46.34531" lon="0.2073">
        <ele>107.1</ele>
        <time>2021-05-23T17:28:19Z</time>
      </trkpt>
      <trkpt lat="46.3453" lon="0.20729">
        <ele>107.1</ele>
        <time>2021-05-23T17:28:20Z</time>
      </trkpt>
      <trkpt lat="46.34529" lon="0.20729">
        <ele>107.2</ele>
        <time>2021-05-23T17:28:21Z</time>
      </trkpt>
      <trkpt lat="46.34527" lon="0.20728">
        <ele>107.2</ele>
        <time>2021-05-23T17:28:23Z</time>
      </trkpt>
      <trkpt lat="46.34527" lon="0.20727">
        <ele>107.3</ele>
        <time>2021-05-23T17:28:24Z</time>
      </trkpt>
      <trkpt lat="46.34526" lon="0.20727">
        <ele>107.3</ele>
        <time>2021-05-23T17:28:25Z</time>
      </trkpt>
      <trkpt lat="46.34525" lon="0.20726">
        <ele>107.3</ele>
        <time>2021-05-23T17:28:26Z</time>
      </trkpt>
      <trkpt lat="46.34523" lon="0.20726">
        <ele>107.4</ele>
        <time>2021-05-23T17:28:27Z</time>
      </trkpt>
      <trkpt lat="46.34522" lon="0.20725">
        <ele>107.4</ele>
        <time>2021-05-23T17:28:29Z</time>
      </trkpt>
      <trkpt lat="46.34521" lon="0.20725">
        <ele>107.4</ele>
        <time>2021-05-23T17:28:30Z</time>
      </trkpt>
      <trkpt lat="46.3452" lon="0.20724">
        <ele>107.4</ele>
        <time>2021-05-23T17:28:31Z</time>
      </trkpt>
      <trkpt lat="46.34518" lon="0.20723">
        <ele>107.5</ele>
        <time>2021-05-23T17:28:33Z</time>
      </trkpt>
      <trkpt lat="46.34517" lon="0.20723">
        <ele>107.5</ele>
        <time>2021-05-23T17:28:34Z</time>
      </trkpt>
      <trkpt lat="46.34516" lon="0.20722">
        <ele>107.6</ele>
        <time>2021-05-23T17:28:35Z</time>
      </trkpt>
      <trkpt lat="46.34515" lon="0.20722">
        <ele>107.6</ele>
        <time>2021-05-23T17:28:36Z</time>
      </trkpt>
      <trkpt lat="46.34514" lon="0.20722">
        <ele>107.6</ele>
        <time>2021-05-23T17:28:37Z</time>
      </trkpt>
      <trkpt lat="46.34513" lon="0.20721">
        <ele>107.6</ele>
        <time>2021-05-23T17:28:39Z</time>
      </trkpt>
      <trkpt lat="46.34512" lon="0.2072">
        <ele>107.6</ele>
        <time>2021-05-23T17:28:40Z</time>
      </trkpt>
      <trkpt lat="46.34511" lon="0.2072">
        <ele>107.7</ele>
        <time>2021-05-23T17:28:41Z</time>
      </trkpt>
      <trkpt lat="46.3451" lon="0.2072">
        <ele>107.7</ele>
        <time>2021-05-23T17:28:42Z</time>
      </trkpt>
      <trkpt lat="46.34509" lon="0.20719">
        <ele>107.7</ele>
        <time>2021-05-23T17:28:43Z</time>
      </trkpt>
      <trkpt lat="46.34509" lon="0.20719">
        <ele>107.7</ele>
        <time>2021-05-23T17:28:44Z</time>
      </trkpt>
      <trkpt lat="46.34508" lon="0.20719">
        <ele>107.7</ele>
        <time>2021-05-23T17:28:45Z</time>
      </trkpt>
      <trkpt lat="46.34507" lon="0.20719">
        <ele>107.7</ele>
        <time>2021-05-23T17:28:47Z</time>
      </trkpt>
      <trkpt lat="46.34506" lon="0.20719">
        <ele>107.7</ele>
        <time>2021-05-23T17:28:48Z</time>
      </trkpt>
      <trkpt lat="46.34506" lon="0.20719">
        <ele>107.8</ele>
        <time>2021-05-23T17:28:49Z</time>
      </trkpt>
      <trkpt lat="46.34506" lon="0.20719">
        <ele>107.8</ele>
        <time>2021-05-23T17:28:50Z</time>
      </trkpt>
      <trkpt lat="46.34505" lon="0.20719">
        <ele>107.8</ele>
        <time>2021-05-23T17:28:51Z</time>
      </trkpt>
      <trkpt lat="46.34504" lon="0.20719">
        <ele>107.8</ele>
        <time>2021-05-23T17:28:52Z</time>
      </trkpt>
      <trkpt lat="46.34504" lon="0.20718">
        <ele>107.8</ele>
        <time>2021-05-23T17:28:53Z</time>
      </trkpt>
      <trkpt lat="46.34502" lon="0.20717">
        <ele>107.8</ele>
        <time>2021-05-23T17:28:55Z</time>
      </trkpt>
      <trkpt lat="46.34501" lon="0.20717">
        <ele>107.8</ele>
        <time>2021-05-23T17:28:56Z</time>
      </trkpt>
      <trkpt lat="46.34498" lon="0.20717">
        <ele>107.9</ele>
        <time>2021-05-23T17:28:58Z</time>
      </trkpt>
      <trkpt lat="46.34497" lon="0.20717">
        <ele>107.9</ele>
        <time>2021-05-23T17:28:59Z</time>
      </trkpt>
      <trkpt lat="46.34496" lon="0.20717">
        <ele>107.9</ele>
        <time>2021-05-23T17:29:00Z</time>
      </trkpt>
      <trkpt lat="46.34494" lon="0.20717">
        <ele>107.9</ele>
        <time>2021-05-23T17:29:01Z</time>
      </trkpt>
      <trkpt lat="46.34492" lon="0.20717">
        <ele>108</ele>
        <time>2021-05-23T17:29:02Z</time>
      </trkpt>
      <trkpt lat="46.3449" lon="0.20716">
        <ele>108</ele>
        <time>2021-05-23T17:29:04Z</time>
      </trkpt>
      <trkpt lat="46.34489" lon="0.20715">
        <ele>108</ele>
        <time>2021-05-23T17:29:05Z</time>
      </trkpt>
      <trkpt lat="46.34488" lon="0.20714">
        <ele>108</ele>
        <time>2021-05-23T17:29:06Z</time>
      </trkpt>
      <trkpt lat="46.34487" lon="0.20713">
        <ele>108</ele>
        <time>2021-05-23T17:29:07Z</time>
      </trkpt>
      <trkpt lat="46.34485" lon="0.20712">
        <ele>108</ele>
        <time>2021-05-23T17:29:08Z</time>
      </trkpt>
      <trkpt lat="46.34485" lon="0.2071">
        <ele>108</ele>
        <time>2021-05-23T17:29:09Z</time>
      </trkpt>
      <trkpt lat="46.34484" lon="0.20709">
        <ele>108</ele>
        <time>2021-05-23T17:29:10Z</time>
      </trkpt>
      <trkpt lat="46.34483" lon="0.20708">
        <ele>108.1</ele>
        <time>2021-05-23T17:29:11Z</time>
      </trkpt>
      <trkpt lat="46.34481" lon="0.20706">
        <ele>108</ele>
        <time>2021-05-23T17:29:12Z</time>
      </trkpt>
      <trkpt lat="46.34481" lon="0.20705">
        <ele>108</ele>
        <time>2021-05-23T17:29:13Z</time>
      </trkpt>
      <trkpt lat="46.3448" lon="0.20704">
        <ele>108</ele>
        <time>2021-05-23T17:29:14Z</time>
      </trkpt>
      <trkpt lat="46.34479" lon="0.20702">
        <ele>107.9</ele>
        <time>2021-05-23T17:29:15Z</time>
      </trkpt>
      <trkpt lat="46.34478" lon="0.20701">
        <ele>107.9</ele>
        <time>2021-05-23T17:29:17Z</time>
      </trkpt>
      <trkpt lat="46.34477" lon="0.20701">
        <ele>107.9</ele>
        <time>2021-05-23T17:29:18Z</time>
      </trkpt>
      <trkpt lat="46.34476" lon="0.20699">
        <ele>107.9</ele>
        <time>2021-05-23T17:29:19Z</time>
      </trkpt>
      <trkpt lat="46.34475" lon="0.20699">
        <ele>107.8</ele>
        <time>2021-05-23T17:29:20Z</time>
      </trkpt>
      <trkpt lat="46.34474" lon="0.20698">
        <ele>107.8</ele>
        <time>2021-05-23T17:29:21Z</time>
      </trkpt>
      <trkpt lat="46.34472" lon="0.20695">
        <ele>107.7</ele>
        <time>2021-05-23T17:29:22Z</time>
      </trkpt>
      <trkpt lat="46.34471" lon="0.20693">
        <ele>107.7</ele>
        <time>2021-05-23T17:29:24Z</time>
      </trkpt>
      <trkpt lat="46.3447" lon="0.20692">
        <ele>107.6</ele>
        <time>2021-05-23T17:29:25Z</time>
      </trkpt>
      <trkpt lat="46.34469" lon="0.20691">
        <ele>107.6</ele>
        <time>2021-05-23T17:29:26Z</time>
      </trkpt>
      <trkpt lat="46.34468" lon="0.2069">
        <ele>107.6</ele>
        <time>2021-05-23T17:29:27Z</time>
      </trkpt>
      <trkpt lat="46.34467" lon="0.20688">
        <ele>107.5</ele>
        <time>2021-05-23T17:29:29Z</time>
      </trkpt>
      <trkpt lat="46.34466" lon="0.20687">
        <ele>107.5</ele>
        <time>2021-05-23T17:29:30Z</time>
      </trkpt>
      <trkpt lat="46.34466" lon="0.20686">
        <ele>107.4</ele>
        <time>2021-05-23T17:29:31Z</time>
      </trkpt>
      <trkpt lat="46.34465" lon="0.20685">
        <ele>107.4</ele>
        <time>2021-05-23T17:29:32Z</time>
      </trkpt>
      <trkpt lat="46.34464" lon="0.20684">
        <ele>107.4</ele>
        <time>2021-05-23T17:29:33Z</time>
      </trkpt>
      <trkpt lat="46.34463" lon="0.20683">
        <ele>107.4</ele>
        <time>2021-05-23T17:29:34Z</time>
      </trkpt>
      <trkpt lat="46.3446" lon="0.20681">
        <ele>107.3</ele>
        <time>2021-05-23T17:29:36Z</time>
      </trkpt>
      <trkpt lat="46.34459" lon="0.2068">
        <ele>107.3</ele>
        <time>2021-05-23T17:29:37Z</time>
      </trkpt>
      <trkpt lat="46.34458" lon="0.20679">
        <ele>107.2</ele>
        <time>2021-05-23T17:29:39Z</time>
      </trkpt>
      <trkpt lat="46.34457" lon="0.20678">
        <ele>107.2</ele>
        <time>2021-05-23T17:29:40Z</time>
      </trkpt>
      <trkpt lat="46.34456" lon="0.20678">
        <ele>107.2</ele>
        <time>2021-05-23T17:29:41Z</time>
      </trkpt>
      <trkpt lat="46.34455" lon="0.20677">
        <ele>107.2</ele>
        <time>2021-05-23T17:29:42Z</time>
      </trkpt>
      <trkpt lat="46.34454" lon="0.20677">
        <ele>107.1</ele>
        <time>2021-05-23T17:29:43Z</time>
      </trkpt>
      <trkpt lat="46.34453" lon="0.20677">
        <ele>107.1</ele>
        <time>2021-05-23T17:29:44Z</time>
      </trkpt>
      <trkpt lat="46.34452" lon="0.20677">
        <ele>107.1</ele>
        <time>2021-05-23T17:29:45Z</time>
      </trkpt>
      <trkpt lat="46.34451" lon="0.20676">
        <ele>107.1</ele>
        <time>2021-05-23T17:29:46Z</time>
      </trkpt>
      <trkpt lat="46.3445" lon="0.20675">
        <ele>107</ele>
        <time>2021-05-23T17:29:47Z</time>
      </trkpt>
      <trkpt lat="46.34449" lon="0.20674">
        <ele>107</ele>
        <time>2021-05-23T17:29:49Z</time>
      </trkpt>
      <trkpt lat="46.34448" lon="0.20675">
        <ele>107</ele>
        <time>2021-05-23T17:29:50Z</time>
      </trkpt>
      <trkpt lat="46.34447" lon="0.20675">
        <ele>107</ele>
        <time>2021-05-23T17:29:51Z</time>
      </trkpt>
      <trkpt lat="46.34446" lon="0.20676">
        <ele>106.9</ele>
        <time>2021-05-23T17:29:53Z</time>
      </trkpt>
      <trkpt lat="46.34446" lon="0.20676">
        <ele>106.9</ele>
        <time>2021-05-23T17:29:54Z</time>
      </trkpt>
      <trkpt lat="46.34445" lon="0.20677">
        <ele>106.9</ele>
        <time>2021-05-23T17:29:55Z</time>
      </trkpt>
      <trkpt lat="46.34445" lon="0.20677">
        <ele>106.9</ele>
        <time>2021-05-23T17:29:56Z</time>
      </trkpt>
      <trkpt lat="46.34443" lon="0.20678">
        <ele>106.9</ele>
        <time>2021-05-23T17:29:57Z</time>
      </trkpt>
      <trkpt lat="46.34442" lon="0.20678">
        <ele>106.8</ele>
        <time>2021-05-23T17:29:59Z</time>
      </trkpt>
      <trkpt lat="46.34441" lon="0.20679">
        <ele>106.8</ele>
        <time>2021-05-23T17:30:00Z</time>
      </trkpt>
      <trkpt lat="46.34441" lon="0.20679">
        <ele>106.8</ele>
        <time>2021-05-23T17:30:01Z</time>
      </trkpt>
      <trkpt lat="46.3444" lon="0.2068">
        <ele>106.8</ele>
        <time>2021-05-23T17:30:03Z</time>
      </trkpt>
      <trkpt lat="46.34439" lon="0.20681">
        <ele>106.8</ele>
        <time>2021-05-23T17:30:04Z</time>
      </trkpt>
      <trkpt lat="46.34438" lon="0.20682">
        <ele>106.7</ele>
        <time>2021-05-23T17:30:05Z</time>
      </trkpt>
      <trkpt lat="46.34438" lon="0.20682">
        <ele>106.7</ele>
        <time>2021-05-23T17:30:06Z</time>
      </trkpt>
      <trkpt lat="46.34437" lon="0.20683">
        <ele>106.7</ele>
        <time>2021-05-23T17:30:07Z</time>
      </trkpt>
      <trkpt lat="46.34436" lon="0.20684">
        <ele>106.8</ele>
        <time>2021-05-23T17:30:09Z</time>
      </trkpt>
      <trkpt lat="46.34435" lon="0.20685">
        <ele>106.8</ele>
        <time>2021-05-23T17:30:10Z</time>
      </trkpt>
      <trkpt lat="46.34434" lon="0.20686">
        <ele>106.8</ele>
        <time>2021-05-23T17:30:11Z</time>
      </trkpt>
      <trkpt lat="46.34433" lon="0.20687">
        <ele>106.8</ele>
        <time>2021-05-23T17:30:12Z</time>
      </trkpt>
      <trkpt lat="46.34432" lon="0.20689">
        <ele>106.8</ele>
        <time>2021-05-23T17:30:13Z</time>
      </trkpt>
      <trkpt lat="46.3443" lon="0.2069">
        <ele>106.8</ele>
        <time>2021-05-23T17:30:14Z</time>
      </trkpt>
      <trkpt lat="46.34429" lon="0.20691">
        <ele>106.8</ele>
        <time>2021-05-23T17:30:15Z</time>
      </trkpt>
      <trkpt lat="46.34427" lon="0.20692">
        <ele>106.8</ele>
        <time>2021-05-23T17:30:16Z</time>
      </trkpt>
      <trkpt lat="46.34426" lon="0.20693">
        <ele>106.8</ele>
        <time>2021-05-23T17:30:17Z</time>
      </trkpt>
      <trkpt lat="46.34425" lon="0.20694">
        <ele>106.8</ele>
        <time>2021-05-23T17:30:18Z</time>
      </trkpt>
      <trkpt lat="46.34423" lon="0.20696">
        <ele>106.8</ele>
        <time>2021-05-23T17:30:19Z</time>
      </trkpt>
      <trkpt lat="46.34422" lon="0.20697">
        <ele>106.8</ele>
        <time>2021-05-23T17:30:20Z</time>
      </trkpt>
      <trkpt lat="46.34421" lon="0.20699">
        <ele>106.8</ele>
        <time>2021-05-23T17:30:21Z</time>
      </trkpt>
      <trkpt lat="46.34419" lon="0.20703">
        <ele>106.8</ele>
        <time>2021-05-23T17:30:23Z</time>
      </trkpt>
      <trkpt lat="46.34418" lon="0.20703">
        <ele>106.8</ele>
        <time>2021-05-23T17:30:24Z</time>
      </trkpt>
      <trkpt lat="46.34416" lon="0.20706">
        <ele>106.8</ele>
        <time>2021-05-23T17:30:25Z</time>
      </trkpt>
      <trkpt lat="46.34415" lon="0.20707">
        <ele>106.8</ele>
        <time>2021-05-23T17:30:26Z</time>
      </trkpt>
      <trkpt lat="46.34414" lon="0.20708">
        <ele>106.8</ele>
        <time>2021-05-23T17:30:27Z</time>
      </trkpt>
      <trkpt lat="46.34412" lon="0.20709">
        <ele>106.8</ele>
        <time>2021-05-23T17:30:28Z</time>
      </trkpt>
      <trkpt lat="46.34411" lon="0.20709">
        <ele>106.7</ele>
        <time>2021-05-23T17:30:30Z</time>
      </trkpt>
      <trkpt lat="46.3441" lon="0.20708">
        <ele>106.7</ele>
        <time>2021-05-23T17:30:31Z</time>
      </trkpt>
      <trkpt lat="46.3441" lon="0.20707">
        <ele>106.7</ele>
        <time>2021-05-23T17:30:32Z</time>
      </trkpt>
      <trkpt lat="46.34409" lon="0.20705">
        <ele>106.5</ele>
        <time>2021-05-23T17:30:33Z</time>
      </trkpt>
      <trkpt lat="46.3441" lon="0.20704">
        <ele>106.5</ele>
        <time>2021-05-23T17:30:34Z</time>
      </trkpt>
      <trkpt lat="46.3441" lon="0.20703">
        <ele>106.5</ele>
        <time>2021-05-23T17:30:36Z</time>
      </trkpt>
      <trkpt lat="46.3441" lon="0.20701">
        <ele>106.2</ele>
        <time>2021-05-23T17:30:37Z</time>
      </trkpt>
      <trkpt lat="46.34411" lon="0.207">
        <ele>106.2</ele>
        <time>2021-05-23T17:30:39Z</time>
      </trkpt>
      <trkpt lat="46.34411" lon="0.20699">
        <ele>106.2</ele>
        <time>2021-05-23T17:30:40Z</time>
      </trkpt>
      <trkpt lat="46.34412" lon="0.20698">
        <ele>106.3</ele>
        <time>2021-05-23T17:30:41Z</time>
      </trkpt>
      <trkpt lat="46.34412" lon="0.20697">
        <ele>106</ele>
        <time>2021-05-23T17:30:43Z</time>
      </trkpt>
      <trkpt lat="46.34412" lon="0.20697">
        <ele>106</ele>
        <time>2021-05-23T17:30:44Z</time>
      </trkpt>
      <trkpt lat="46.34412" lon="0.20697">
        <ele>106</ele>
        <time>2021-05-23T17:30:45Z</time>
      </trkpt>
      <trkpt lat="46.34412" lon="0.20696">
        <ele>106</ele>
        <time>2021-05-23T17:30:46Z</time>
      </trkpt>
      <trkpt lat="46.34413" lon="0.20696">
        <ele>106</ele>
        <time>2021-05-23T17:30:48Z</time>
      </trkpt>
      <trkpt lat="46.34414" lon="0.20695">
        <ele>106</ele>
        <time>2021-05-23T17:30:49Z</time>
      </trkpt>
      <trkpt lat="46.34414" lon="0.20695">
        <ele>106.1</ele>
        <time>2021-05-23T17:30:51Z</time>
      </trkpt>
      <trkpt lat="46.34416" lon="0.20694">
        <ele>105.9</ele>
        <time>2021-05-23T17:30:53Z</time>
      </trkpt>
      <trkpt lat="46.34416" lon="0.20693">
        <ele>105.9</ele>
        <time>2021-05-23T17:30:54Z</time>
      </trkpt>
      <trkpt lat="46.34418" lon="0.20692">
        <ele>105.9</ele>
        <time>2021-05-23T17:30:55Z</time>
      </trkpt>
      <trkpt lat="46.34418" lon="0.20692">
        <ele>105.9</ele>
        <time>2021-05-23T17:30:56Z</time>
      </trkpt>
      <trkpt lat="46.34419" lon="0.20691">
        <ele>105.9</ele>
        <time>2021-05-23T17:30:57Z</time>
      </trkpt>
      <trkpt lat="46.3442" lon="0.20691">
        <ele>105.9</ele>
        <time>2021-05-23T17:30:59Z</time>
      </trkpt>
      <trkpt lat="46.3442" lon="0.2069">
        <ele>105.9</ele>
        <time>2021-05-23T17:31:00Z</time>
      </trkpt>
      <trkpt lat="46.34421" lon="0.20689">
        <ele>105.7</ele>
        <time>2021-05-23T17:31:01Z</time>
      </trkpt>
      <trkpt lat="46.34422" lon="0.20688">
        <ele>105.7</ele>
        <time>2021-05-23T17:31:03Z</time>
      </trkpt>
      <trkpt lat="46.34424" lon="0.20687">
        <ele>105.7</ele>
        <time>2021-05-23T17:31:04Z</time>
      </trkpt>
      <trkpt lat="46.34425" lon="0.20685">
        <ele>105.6</ele>
        <time>2021-05-23T17:31:06Z</time>
      </trkpt>
      <trkpt lat="46.34426" lon="0.20683">
        <ele>105.6</ele>
        <time>2021-05-23T17:31:07Z</time>
      </trkpt>
      <trkpt lat="46.34426" lon="0.20682">
        <ele>105.6</ele>
        <time>2021-05-23T17:31:08Z</time>
      </trkpt>
      <trkpt lat="46.34426" lon="0.20681">
        <ele>105.6</ele>
        <time>2021-05-23T17:31:09Z</time>
      </trkpt>
      <trkpt lat="46.34426" lon="0.2068">
        <ele>105.4</ele>
        <time>2021-05-23T17:31:10Z</time>
      </trkpt>
      <trkpt lat="46.34426" lon="0.20679">
        <ele>105.4</ele>
        <time>2021-05-23T17:31:12Z</time>
      </trkpt>
      <trkpt lat="46.34425" lon="0.20678">
        <ele>105.4</ele>
        <time>2021-05-23T17:31:13Z</time>
      </trkpt>
      <trkpt lat="46.34425" lon="0.20677">
        <ele>105.4</ele>
        <time>2021-05-23T17:31:14Z</time>
      </trkpt>
      <trkpt lat="46.34425" lon="0.20677">
        <ele>105.4</ele>
        <time>2021-05-23T17:31:15Z</time>
      </trkpt>
      <trkpt lat="46.34425" lon="0.20676">
        <ele>105.3</ele>
        <time>2021-05-23T17:31:16Z</time>
      </trkpt>
      <trkpt lat="46.34424" lon="0.20675">
        <ele>105.3</ele>
        <time>2021-05-23T17:31:17Z</time>
      </trkpt>
      <trkpt lat="46.34424" lon="0.20674">
        <ele>105.3</ele>
        <time>2021-05-23T17:31:18Z</time>
      </trkpt>
      <trkpt lat="46.34423" lon="0.20673">
        <ele>105.3</ele>
        <time>2021-05-23T17:31:19Z</time>
      </trkpt>
      <trkpt lat="46.34422" lon="0.20672">
        <ele>105.2</ele>
        <time>2021-05-23T17:31:20Z</time>
      </trkpt>
      <trkpt lat="46.34421" lon="0.20671">
        <ele>105.2</ele>
        <time>2021-05-23T17:31:21Z</time>
      </trkpt>
      <trkpt lat="46.34421" lon="0.20669">
        <ele>105.2</ele>
        <time>2021-05-23T17:31:23Z</time>
      </trkpt>
      <trkpt lat="46.3442" lon="0.20668">
        <ele>105.2</ele>
        <time>2021-05-23T17:31:24Z</time>
      </trkpt>
      <trkpt lat="46.34419" lon="0.20667">
        <ele>105.2</ele>
        <time>2021-05-23T17:31:25Z</time>
      </trkpt>
      <trkpt lat="46.34418" lon="0.20666">
        <ele>105.2</ele>
        <time>2021-05-23T17:31:27Z</time>
      </trkpt>
      <trkpt lat="46.34418" lon="0.20665">
        <ele>105.2</ele>
        <time>2021-05-23T17:31:29Z</time>
      </trkpt>
      <trkpt lat="46.34417" lon="0.20666">
        <ele>105.2</ele>
        <time>2021-05-23T17:31:30Z</time>
      </trkpt>
      <trkpt lat="46.34417" lon="0.20666">
        <ele>105.2</ele>
        <time>2021-05-23T17:31:31Z</time>
      </trkpt>
      <trkpt lat="46.34417" lon="0.20667">
        <ele>105.2</ele>
        <time>2021-05-23T17:31:32Z</time>
      </trkpt>
      <trkpt lat="46.34416" lon="0.20667">
        <ele>105.2</ele>
        <time>2021-05-23T17:31:34Z</time>
      </trkpt>
      <trkpt lat="46.34416" lon="0.20668">
        <ele>105.2</ele>
        <time>2021-05-23T17:31:35Z</time>
      </trkpt>
      <trkpt lat="46.34415" lon="0.20668">
        <ele>105.2</ele>
        <time>2021-05-23T17:31:36Z</time>
      </trkpt>
      <trkpt lat="46.34415" lon="0.20668">
        <ele>105.2</ele>
        <time>2021-05-23T17:31:37Z</time>
      </trkpt>
      <trkpt lat="46.34414" lon="0.20668">
        <ele>105.2</ele>
        <time>2021-05-23T17:31:38Z</time>
      </trkpt>
      <trkpt lat="46.34414" lon="0.20668">
        <ele>105.2</ele>
        <time>2021-05-23T17:31:39Z</time>
      </trkpt>
      <trkpt lat="46.34414" lon="0.20668">
        <ele>105.2</ele>
        <time>2021-05-23T17:31:41Z</time>
      </trkpt>
      <trkpt lat="46.34414" lon="0.20668">
        <ele>105.2</ele>
        <time>2021-05-23T17:31:42Z</time>
      </trkpt>
      <trkpt lat="46.34413" lon="0.20668">
        <ele>105.2</ele>
        <time>2021-05-23T17:31:43Z</time>
      </trkpt>
      <trkpt lat="46.34413" lon="0.20668">
        <ele>105.2</ele>
        <time>2021-05-23T17:31:45Z</time>
      </trkpt>
      <trkpt lat="46.34413" lon="0.20668">
        <ele>105.2</ele>
        <time>2021-05-23T17:31:46Z</time>
      </trkpt>
      <trkpt lat="46.34413" lon="0.20668">
        <ele>105.2</ele>
        <time>2021-05-23T17:31:47Z</time>
      </trkpt>
      <trkpt lat="46.34413" lon="0.20669">
        <ele>105.2</ele>
        <time>2021-05-23T17:31:48Z</time>
      </trkpt>
      <trkpt lat="46.34413" lon="0.20669">
        <ele>105.2</ele>
        <time>2021-05-23T17:31:49Z</time>
      </trkpt>
      <trkpt lat="46.34414" lon="0.20669">
        <ele>105.2</ele>
        <time>2021-05-23T17:31:50Z</time>
      </trkpt>
      <trkpt lat="46.34414" lon="0.20669">
        <ele>105.2</ele>
        <time>2021-05-23T17:31:51Z</time>
      </trkpt>
      <trkpt lat="46.34415" lon="0.20669">
        <ele>105.2</ele>
        <time>2021-05-23T17:31:52Z</time>
      </trkpt>
      <trkpt lat="46.34416" lon="0.20669">
        <ele>105.2</ele>
        <time>2021-05-23T17:31:54Z</time>
      </trkpt>
      <trkpt lat="46.34417" lon="0.20669">
        <ele>105.2</ele>
        <time>2021-05-23T17:31:55Z</time>
      </trkpt>
      <trkpt lat="46.34418" lon="0.20669">
        <ele>105.2</ele>
        <time>2021-05-23T17:31:56Z</time>
      </trkpt>
      <trkpt lat="46.3442" lon="0.20668">
        <ele>105.2</ele>
        <time>2021-05-23T17:31:57Z</time>
      </trkpt>
      <trkpt lat="46.34422" lon="0.20668">
        <ele>105.2</ele>
        <time>2021-05-23T17:31:58Z</time>
      </trkpt>
      <trkpt lat="46.34423" lon="0.20668">
        <ele>105.2</ele>
        <time>2021-05-23T17:31:59Z</time>
      </trkpt>
      <trkpt lat="46.34424" lon="0.20667">
        <ele>105.2</ele>
        <time>2021-05-23T17:32:00Z</time>
      </trkpt>
      <trkpt lat="46.34425" lon="0.20667">
        <ele>105.2</ele>
        <time>2021-05-23T17:32:01Z</time>
      </trkpt>
      <trkpt lat="46.34426" lon="0.20666">
        <ele>105.2</ele>
        <time>2021-05-23T17:32:02Z</time>
      </trkpt>
      <trkpt lat="46.34427" lon="0.20666">
        <ele>105.2</ele>
        <time>2021-05-23T17:32:04Z</time>
      </trkpt>
      <trkpt lat="46.34428" lon="0.20665">
        <ele>105.2</ele>
        <time>2021-05-23T17:32:05Z</time>
      </trkpt>
      <trkpt lat="46.34429" lon="0.20665">
        <ele>105.2</ele>
        <time>2021-05-23T17:32:06Z</time>
      </trkpt>
      <trkpt lat="46.3443" lon="0.20664">
        <ele>105.2</ele>
        <time>2021-05-23T17:32:07Z</time>
      </trkpt>
      <trkpt lat="46.34431" lon="0.20662">
        <ele>105.2</ele>
        <time>2021-05-23T17:32:09Z</time>
      </trkpt>
      <trkpt lat="46.34431" lon="0.20661">
        <ele>105.2</ele>
        <time>2021-05-23T17:32:10Z</time>
      </trkpt>
      <trkpt lat="46.34433" lon="0.20659">
        <ele>105.1</ele>
        <time>2021-05-23T17:32:11Z</time>
      </trkpt>
      <trkpt lat="46.34433" lon="0.20659">
        <ele>105.1</ele>
        <time>2021-05-23T17:32:12Z</time>
      </trkpt>
      <trkpt lat="46.34434" lon="0.20658">
        <ele>105.1</ele>
        <time>2021-05-23T17:32:13Z</time>
      </trkpt>
      <trkpt lat="46.34435" lon="0.20657">
        <ele>105.1</ele>
        <time>2021-05-23T17:32:14Z</time>
      </trkpt>
      <trkpt lat="46.34437" lon="0.20657">
        <ele>105.1</ele>
        <time>2021-05-23T17:32:15Z</time>
      </trkpt>
      <trkpt lat="46.34438" lon="0.20657">
        <ele>105.1</ele>
        <time>2021-05-23T17:32:17Z</time>
      </trkpt>
      <trkpt lat="46.34439" lon="0.20656">
        <ele>105.1</ele>
        <time>2021-05-23T17:32:18Z</time>
      </trkpt>
      <trkpt lat="46.3444" lon="0.20656">
        <ele>105.1</ele>
        <time>2021-05-23T17:32:19Z</time>
      </trkpt>
      <trkpt lat="46.34441" lon="0.20655">
        <ele>105.1</ele>
        <time>2021-05-23T17:32:20Z</time>
      </trkpt>
      <trkpt lat="46.34442" lon="0.20654">
        <ele>105.1</ele>
        <time>2021-05-23T17:32:21Z</time>
      </trkpt>
      <trkpt lat="46.34443" lon="0.20653">
        <ele>105.1</ele>
        <time>2021-05-23T17:32:23Z</time>
      </trkpt>
      <trkpt lat="46.34444" lon="0.20653">
        <ele>105.1</ele>
        <time>2021-05-23T17:32:24Z</time>
      </trkpt>
      <trkpt lat="46.34445" lon="0.20652">
        <ele>105.1</ele>
        <time>2021-05-23T17:32:25Z</time>
      </trkpt>
      <trkpt lat="46.34447" lon="0.20651">
        <ele>105.1</ele>
        <time>2021-05-23T17:32:26Z</time>
      </trkpt>
      <trkpt lat="46.34448" lon="0.2065">
        <ele>105.1</ele>
        <time>2021-05-23T17:32:27Z</time>
      </trkpt>
      <trkpt lat="46.34449" lon="0.20649">
        <ele>105.1</ele>
        <time>2021-05-23T17:32:28Z</time>
      </trkpt>
      <trkpt lat="46.3445" lon="0.20648">
        <ele>105.1</ele>
        <time>2021-05-23T17:32:30Z</time>
      </trkpt>
      <trkpt lat="46.34451" lon="0.20647">
        <ele>105.1</ele>
        <time>2021-05-23T17:32:31Z</time>
      </trkpt>
      <trkpt lat="46.34451" lon="0.20647">
        <ele>105.1</ele>
        <time>2021-05-23T17:32:32Z</time>
      </trkpt>
      <trkpt lat="46.34451" lon="0.20646">
        <ele>105.1</ele>
        <time>2021-05-23T17:32:33Z</time>
      </trkpt>
      <trkpt lat="46.34451" lon="0.20645">
        <ele>105.1</ele>
        <time>2021-05-23T17:32:35Z</time>
      </trkpt>
      <trkpt lat="46.34451" lon="0.20644">
        <ele>105.1</ele>
        <time>2021-05-23T17:32:36Z</time>
      </trkpt>
      <trkpt lat="46.34451" lon="0.20644">
        <ele>105.1</ele>
        <time>2021-05-23T17:32:37Z</time>
      </trkpt>
      <trkpt lat="46.34452" lon="0.20643">
        <ele>105.1</ele>
        <time>2021-05-23T17:32:38Z</time>
      </trkpt>
      <trkpt lat="46.34452" lon="0.20642">
        <ele>105.2</ele>
        <time>2021-05-23T17:32:39Z</time>
      </trkpt>
      <trkpt lat="46.34452" lon="0.20642">
        <ele>105.2</ele>
        <time>2021-05-23T17:32:40Z</time>
      </trkpt>
      <trkpt lat="46.34452" lon="0.20641">
        <ele>105.2</ele>
        <time>2021-05-23T17:32:42Z</time>
      </trkpt>
      <trkpt lat="46.34452" lon="0.2064">
        <ele>105.2</ele>
        <time>2021-05-23T17:32:43Z</time>
      </trkpt>
      <trkpt lat="46.34452" lon="0.2064">
        <ele>105.2</ele>
        <time>2021-05-23T17:32:44Z</time>
      </trkpt>
      <trkpt lat="46.34453" lon="0.2064">
        <ele>105.2</ele>
        <time>2021-05-23T17:32:45Z</time>
      </trkpt>
      <trkpt lat="46.34453" lon="0.20639">
        <ele>105.2</ele>
        <time>2021-05-23T17:32:46Z</time>
      </trkpt>
      <trkpt lat="46.34454" lon="0.20638">
        <ele>105.1</ele>
        <time>2021-05-23T17:32:47Z</time>
      </trkpt>
      <trkpt lat="46.34454" lon="0.20638">
        <ele>105.1</ele>
        <time>2021-05-23T17:32:49Z</time>
      </trkpt>
      <trkpt lat="46.34455" lon="0.20638">
        <ele>105.2</ele>
        <time>2021-05-23T17:32:50Z</time>
      </trkpt>
      <trkpt lat="46.34456" lon="0.20638">
        <ele>105.2</ele>
        <time>2021-05-23T17:32:51Z</time>
      </trkpt>
      <trkpt lat="46.34456" lon="0.20637">
        <ele>105.1</ele>
        <time>2021-05-23T17:32:52Z</time>
      </trkpt>
      <trkpt lat="46.34457" lon="0.20637">
        <ele>105.1</ele>
        <time>2021-05-23T17:32:53Z</time>
      </trkpt>
      <trkpt lat="46.34458" lon="0.20636">
        <ele>105.1</ele>
        <time>2021-05-23T17:32:54Z</time>
      </trkpt>
      <trkpt lat="46.34459" lon="0.20636">
        <ele>105.1</ele>
        <time>2021-05-23T17:32:55Z</time>
      </trkpt>
      <trkpt lat="46.34461" lon="0.20635">
        <ele>105.1</ele>
        <time>2021-05-23T17:32:57Z</time>
      </trkpt>
      <trkpt lat="46.34462" lon="0.20635">
        <ele>105.1</ele>
        <time>2021-05-23T17:32:58Z</time>
      </trkpt>
      <trkpt lat="46.34463" lon="0.20634">
        <ele>105.1</ele>
        <time>2021-05-23T17:32:59Z</time>
      </trkpt>
      <trkpt lat="46.34465" lon="0.20633">
        <ele>105.1</ele>
        <time>2021-05-23T17:33:01Z</time>
      </trkpt>
      <trkpt lat="46.34467" lon="0.20632">
        <ele>105.1</ele>
        <time>2021-05-23T17:33:02Z</time>
      </trkpt>
      <trkpt lat="46.34471" lon="0.20631">
        <ele>105</ele>
        <time>2021-05-23T17:33:04Z</time>
      </trkpt>
      <trkpt lat="46.34472" lon="0.2063">
        <ele>105</ele>
        <time>2021-05-23T17:33:05Z</time>
      </trkpt>
      <trkpt lat="46.34474" lon="0.2063">
        <ele>104.9</ele>
        <time>2021-05-23T17:33:06Z</time>
      </trkpt>
      <trkpt lat="46.34475" lon="0.20629">
        <ele>104.9</ele>
        <time>2021-05-23T17:33:07Z</time>
      </trkpt>
      <trkpt lat="46.34477" lon="0.20628">
        <ele>104.9</ele>
        <time>2021-05-23T17:33:09Z</time>
      </trkpt>
      <trkpt lat="46.34477" lon="0.20627">
        <ele>104.9</ele>
        <time>2021-05-23T17:33:10Z</time>
      </trkpt>
      <trkpt lat="46.34477" lon="0.20627">
        <ele>104.9</ele>
        <time>2021-05-23T17:33:11Z</time>
      </trkpt>
      <trkpt lat="46.34477" lon="0.20626">
        <ele>104.9</ele>
        <time>2021-05-23T17:33:12Z</time>
      </trkpt>
      <trkpt lat="46.34477" lon="0.20625">
        <ele>104.9</ele>
        <time>2021-05-23T17:33:13Z</time>
      </trkpt>
      <trkpt lat="46.34478" lon="0.20624">
        <ele>104.9</ele>
        <time>2021-05-23T17:33:14Z</time>
      </trkpt>
      <trkpt lat="46.34478" lon="0.20623">
        <ele>104.9</ele>
        <time>2021-05-23T17:33:15Z</time>
      </trkpt>
      <trkpt lat="46.34478" lon="0.20622">
        <ele>104.9</ele>
        <time>2021-05-23T17:33:17Z</time>
      </trkpt>
      <trkpt lat="46.34478" lon="0.2062">
        <ele>104.9</ele>
        <time>2021-05-23T17:33:18Z</time>
      </trkpt>
      <trkpt lat="46.34478" lon="0.20619">
        <ele>104.9</ele>
        <time>2021-05-23T17:33:19Z</time>
      </trkpt>
      <trkpt lat="46.34478" lon="0.20617">
        <ele>104.9</ele>
        <time>2021-05-23T17:33:20Z</time>
      </trkpt>
      <trkpt lat="46.34478" lon="0.20615">
        <ele>104.9</ele>
        <time>2021-05-23T17:33:22Z</time>
      </trkpt>
      <trkpt lat="46.34477" lon="0.20613">
        <ele>104.9</ele>
        <time>2021-05-23T17:33:23Z</time>
      </trkpt>
      <trkpt lat="46.34477" lon="0.20611">
        <ele>104.9</ele>
        <time>2021-05-23T17:33:24Z</time>
      </trkpt>
      <trkpt lat="46.34477" lon="0.20609">
        <ele>104.9</ele>
        <time>2021-05-23T17:33:25Z</time>
      </trkpt>
      <trkpt lat="46.34476" lon="0.20607">
        <ele>104.9</ele>
        <time>2021-05-23T17:33:26Z</time>
      </trkpt>
      <trkpt lat="46.34475" lon="0.20601">
        <ele>104.9</ele>
        <time>2021-05-23T17:33:28Z</time>
      </trkpt>
      <trkpt lat="46.34475" lon="0.20599">
        <ele>104.8</ele>
        <time>2021-05-23T17:33:30Z</time>
      </trkpt>
      <trkpt lat="46.34475" lon="0.20597">
        <ele>104.8</ele>
        <time>2021-05-23T17:33:31Z</time>
      </trkpt>
      <trkpt lat="46.34475" lon="0.20596">
        <ele>104.8</ele>
        <time>2021-05-23T17:33:32Z</time>
      </trkpt>
      <trkpt lat="46.34475" lon="0.20594">
        <ele>104.8</ele>
        <time>2021-05-23T17:33:33Z</time>
      </trkpt>
      <trkpt lat="46.34475" lon="0.20593">
        <ele>104.8</ele>
        <time>2021-05-23T17:33:35Z</time>
      </trkpt>
      <trkpt lat="46.34475" lon="0.2059">
        <ele>104.7</ele>
        <time>2021-05-23T17:33:36Z</time>
      </trkpt>
      <trkpt lat="46.34476" lon="0.20589">
        <ele>104.7</ele>
        <time>2021-05-23T17:33:37Z</time>
      </trkpt>
      <trkpt lat="46.34476" lon="0.20586">
        <ele>104.7</ele>
        <time>2021-05-23T17:33:39Z</time>
      </trkpt>
      <trkpt lat="46.34476" lon="0.20586">
        <ele>104.7</ele>
        <time>2021-05-23T17:33:40Z</time>
      </trkpt>
      <trkpt lat="46.34476" lon="0.20585">
        <ele>104.7</ele>
        <time>2021-05-23T17:33:41Z</time>
      </trkpt>
      <trkpt lat="46.34476" lon="0.20584">
        <ele>104.7</ele>
        <time>2021-05-23T17:33:43Z</time>
      </trkpt>
      <trkpt lat="46.34476" lon="0.20585">
        <ele>104.7</ele>
        <time>2021-05-23T17:33:45Z</time>
      </trkpt>
      <trkpt lat="46.34476" lon="0.20585">
        <ele>104.7</ele>
        <time>2021-05-23T17:33:46Z</time>
      </trkpt>
      <trkpt lat="46.34477" lon="0.20584">
        <ele>104.7</ele>
        <time>2021-05-23T17:33:48Z</time>
      </trkpt>
      <trkpt lat="46.34477" lon="0.20584">
        <ele>104.7</ele>
        <time>2021-05-23T17:33:49Z</time>
      </trkpt>
      <trkpt lat="46.34477" lon="0.20584">
        <ele>104.7</ele>
        <time>2021-05-23T17:33:51Z</time>
      </trkpt>
      <trkpt lat="46.34476" lon="0.20583">
        <ele>104.7</ele>
        <time>2021-05-23T17:33:53Z</time>
      </trkpt>
      <trkpt lat="46.34476" lon="0.20583">
        <ele>104.7</ele>
        <time>2021-05-23T17:33:54Z</time>
      </trkpt>
      <trkpt lat="46.34476" lon="0.20582">
        <ele>104.6</ele>
        <time>2021-05-23T17:33:56Z</time>
      </trkpt>
      <trkpt lat="46.34476" lon="0.20582">
        <ele>104.6</ele>
        <time>2021-05-23T17:33:57Z</time>
      </trkpt>
      <trkpt lat="46.34475" lon="0.20582">
        <ele>104.6</ele>
        <time>2021-05-23T17:33:59Z</time>
      </trkpt>
      <trkpt lat="46.34475" lon="0.20582">
        <ele>104.6</ele>
        <time>2021-05-23T17:34:00Z</time>
      </trkpt>
      <trkpt lat="46.34475" lon="0.20582">
        <ele>104.6</ele>
        <time>2021-05-23T17:34:01Z</time>
      </trkpt>
      <trkpt lat="46.34474" lon="0.20581">
        <ele>104.6</ele>
        <time>2021-05-23T17:34:03Z</time>
      </trkpt>
      <trkpt lat="46.34474" lon="0.2058">
        <ele>104.6</ele>
        <time>2021-05-23T17:34:04Z</time>
      </trkpt>
      <trkpt lat="46.34474" lon="0.2058">
        <ele>104.6</ele>
        <time>2021-05-23T17:34:05Z</time>
      </trkpt>
      <trkpt lat="46.34473" lon="0.20578">
        <ele>104.6</ele>
        <time>2021-05-23T17:34:07Z</time>
      </trkpt>
      <trkpt lat="46.34472" lon="0.20575">
        <ele>104.6</ele>
        <time>2021-05-23T17:34:08Z</time>
      </trkpt>
      <trkpt lat="46.34471" lon="0.20574">
        <ele>104.6</ele>
        <time>2021-05-23T17:34:10Z</time>
      </trkpt>
      <trkpt lat="46.3447" lon="0.20574">
        <ele>104.5</ele>
        <time>2021-05-23T17:34:11Z</time>
      </trkpt>
      <trkpt lat="46.34469" lon="0.20572">
        <ele>104.5</ele>
        <time>2021-05-23T17:34:13Z</time>
      </trkpt>
      <trkpt lat="46.34469" lon="0.20569">
        <ele>104.4</ele>
        <time>2021-05-23T17:34:15Z</time>
      </trkpt>
      <trkpt lat="46.34469" lon="0.20567">
        <ele>104.4</ele>
        <time>2021-05-23T17:34:16Z</time>
      </trkpt>
      <trkpt lat="46.34469" lon="0.20566">
        <ele>104.4</ele>
        <time>2021-05-23T17:34:17Z</time>
      </trkpt>
      <trkpt lat="46.34469" lon="0.20564">
        <ele>104.3</ele>
        <time>2021-05-23T17:34:18Z</time>
      </trkpt>
      <trkpt lat="46.34469" lon="0.20562">
        <ele>104.3</ele>
        <time>2021-05-23T17:34:20Z</time>
      </trkpt>
      <trkpt lat="46.34468" lon="0.20561">
        <ele>104.3</ele>
        <time>2021-05-23T17:34:21Z</time>
      </trkpt>
      <trkpt lat="46.34468" lon="0.2056">
        <ele>104.1</ele>
        <time>2021-05-23T17:34:22Z</time>
      </trkpt>
      <trkpt lat="46.34467" lon="0.20559">
        <ele>104.2</ele>
        <time>2021-05-23T17:34:23Z</time>
      </trkpt>
      <trkpt lat="46.34467" lon="0.20558">
        <ele>104.2</ele>
        <time>2021-05-23T17:34:25Z</time>
      </trkpt>
      <trkpt lat="46.34466" lon="0.20556">
        <ele>104.1</ele>
        <time>2021-05-23T17:34:26Z</time>
      </trkpt>
      <trkpt lat="46.34466" lon="0.20556">
        <ele>104.1</ele>
        <time>2021-05-23T17:34:27Z</time>
      </trkpt>
      <trkpt lat="46.34466" lon="0.20556">
        <ele>104.1</ele>
        <time>2021-05-23T17:34:28Z</time>
      </trkpt>
      <trkpt lat="46.34465" lon="0.20556">
        <ele>104.1</ele>
        <time>2021-05-23T17:34:30Z</time>
      </trkpt>
      <trkpt lat="46.34465" lon="0.20555">
        <ele>104.2</ele>
        <time>2021-05-23T17:34:31Z</time>
      </trkpt>
      <trkpt lat="46.34464" lon="0.20554">
        <ele>104.2</ele>
        <time>2021-05-23T17:34:32Z</time>
      </trkpt>
      <trkpt lat="46.34463" lon="0.20553">
        <ele>104.2</ele>
        <time>2021-05-23T17:34:33Z</time>
      </trkpt>
      <trkpt lat="46.34461" lon="0.20552">
        <ele>104.1</ele>
        <time>2021-05-23T17:34:34Z</time>
      </trkpt>
      <trkpt lat="46.34461" lon="0.20551">
        <ele>104.1</ele>
        <time>2021-05-23T17:34:35Z</time>
      </trkpt>
      <trkpt lat="46.34461" lon="0.2055">
        <ele>104.1</ele>
        <time>2021-05-23T17:34:37Z</time>
      </trkpt>
      <trkpt lat="46.3446" lon="0.20549">
        <ele>104.1</ele>
        <time>2021-05-23T17:34:38Z</time>
      </trkpt>
      <trkpt lat="46.3446" lon="0.20548">
        <ele>104</ele>
        <time>2021-05-23T17:34:39Z</time>
      </trkpt>
      <trkpt lat="46.3446" lon="0.20547">
        <ele>104</ele>
        <time>2021-05-23T17:34:40Z</time>
      </trkpt>
      <trkpt lat="46.34459" lon="0.20545">
        <ele>104</ele>
        <time>2021-05-23T17:34:41Z</time>
      </trkpt>
      <trkpt lat="46.34459" lon="0.20543">
        <ele>103.9</ele>
        <time>2021-05-23T17:34:43Z</time>
      </trkpt>
      <trkpt lat="46.34459" lon="0.20542">
        <ele>103.9</ele>
        <time>2021-05-23T17:34:45Z</time>
      </trkpt>
      <trkpt lat="46.34459" lon="0.20543">
        <ele>103.9</ele>
        <time>2021-05-23T17:34:47Z</time>
      </trkpt>
      <trkpt lat="46.34459" lon="0.20544">
        <ele>103.9</ele>
        <time>2021-05-23T17:34:49Z</time>
      </trkpt>
      <trkpt lat="46.3446" lon="0.20544">
        <ele>104</ele>
        <time>2021-05-23T17:34:50Z</time>
      </trkpt>
      <trkpt lat="46.3446" lon="0.20544">
        <ele>104</ele>
        <time>2021-05-23T17:34:51Z</time>
      </trkpt>
      <trkpt lat="46.34461" lon="0.20544">
        <ele>104</ele>
        <time>2021-05-23T17:34:53Z</time>
      </trkpt>
      <trkpt lat="46.34462" lon="0.20545">
        <ele>104</ele>
        <time>2021-05-23T17:34:55Z</time>
      </trkpt>
      <trkpt lat="46.34462" lon="0.20545">
        <ele>103.9</ele>
        <time>2021-05-23T17:34:56Z</time>
      </trkpt>
      <trkpt lat="46.34463" lon="0.20545">
        <ele>103.9</ele>
        <time>2021-05-23T17:34:57Z</time>
      </trkpt>
      <trkpt lat="46.34463" lon="0.20545">
        <ele>103.9</ele>
        <time>2021-05-23T17:34:58Z</time>
      </trkpt>
      <trkpt lat="46.34463" lon="0.20544">
        <ele>103.9</ele>
        <time>2021-05-23T17:34:59Z</time>
      </trkpt>
      <trkpt lat="46.34464" lon="0.20545">
        <ele>103.9</ele>
        <time>2021-05-23T17:35:01Z</time>
      </trkpt>
      <trkpt lat="46.34464" lon="0.20545">
        <ele>103.9</ele>
        <time>2021-05-23T17:35:03Z</time>
      </trkpt>
      <trkpt lat="46.34465" lon="0.20547">
        <ele>103.8</ele>
        <time>2021-05-23T17:35:05Z</time>
      </trkpt>
      <trkpt lat="46.34466" lon="0.20548">
        <ele>103.8</ele>
        <time>2021-05-23T17:35:06Z</time>
      </trkpt>
      <trkpt lat="46.34466" lon="0.20548">
        <ele>104</ele>
        <time>2021-05-23T17:35:07Z</time>
      </trkpt>
      <trkpt lat="46.34467" lon="0.2055">
        <ele>104</ele>
        <time>2021-05-23T17:35:09Z</time>
      </trkpt>
      <trkpt lat="46.34474" lon="0.20563">
        <ele>104.1</ele>
        <time>2021-05-23T17:35:11Z</time>
      </trkpt>
      <trkpt lat="46.34477" lon="0.20568">
        <ele>104.3</ele>
        <time>2021-05-23T17:35:13Z</time>
      </trkpt>
      <trkpt lat="46.34478" lon="0.2057">
        <ele>104.4</ele>
        <time>2021-05-23T17:35:15Z</time>
      </trkpt>
      <trkpt lat="46.34483" lon="0.2058">
        <ele>104.5</ele>
        <time>2021-05-23T17:35:17Z</time>
      </trkpt>
      <trkpt lat="46.34484" lon="0.20583">
        <ele>104.6</ele>
        <time>2021-05-23T17:35:18Z</time>
      </trkpt>
      <trkpt lat="46.34485" lon="0.20583">
        <ele>104.6</ele>
        <time>2021-05-23T17:35:19Z</time>
      </trkpt>
      <trkpt lat="46.34486" lon="0.20583">
        <ele>104.5</ele>
        <time>2021-05-23T17:35:21Z</time>
      </trkpt>
      <trkpt lat="46.34487" lon="0.20582">
        <ele>104.5</ele>
        <time>2021-05-23T17:35:22Z</time>
      </trkpt>
      <trkpt lat="46.34488" lon="0.2058">
        <ele>104.5</ele>
        <time>2021-05-23T17:35:24Z</time>
      </trkpt>
      <trkpt lat="46.34488" lon="0.20579">
        <ele>104.5</ele>
        <time>2021-05-23T17:35:25Z</time>
      </trkpt>
      <trkpt lat="46.34492" lon="0.20573">
        <ele>104.2</ele>
        <time>2021-05-23T17:35:27Z</time>
      </trkpt>
      <trkpt lat="46.34493" lon="0.20571">
        <ele>104.2</ele>
        <time>2021-05-23T17:35:28Z</time>
      </trkpt>
      <trkpt lat="46.34493" lon="0.2057">
        <ele>104.2</ele>
        <time>2021-05-23T17:35:30Z</time>
      </trkpt>
      <trkpt lat="46.34493" lon="0.20569">
        <ele>104.1</ele>
        <time>2021-05-23T17:35:31Z</time>
      </trkpt>
      <trkpt lat="46.34493" lon="0.20568">
        <ele>104.1</ele>
        <time>2021-05-23T17:35:33Z</time>
      </trkpt>
      <trkpt lat="46.34493" lon="0.20567">
        <ele>104.1</ele>
        <time>2021-05-23T17:35:35Z</time>
      </trkpt>
      <trkpt lat="46.34493" lon="0.20566">
        <ele>104.1</ele>
        <time>2021-05-23T17:35:37Z</time>
      </trkpt>
      <trkpt lat="46.34493" lon="0.20565">
        <ele>103.9</ele>
        <time>2021-05-23T17:35:39Z</time>
      </trkpt>
      <trkpt lat="46.34493" lon="0.20564">
        <ele>103.9</ele>
        <time>2021-05-23T17:35:41Z</time>
      </trkpt>
      <trkpt lat="46.34493" lon="0.20563">
        <ele>103.9</ele>
        <time>2021-05-23T17:35:42Z</time>
      </trkpt>
      <trkpt lat="46.3449" lon="0.20558">
        <ele>103.7</ele>
        <time>2021-05-23T17:35:43Z</time>
      </trkpt>
      <trkpt lat="46.34487" lon="0.20555">
        <ele>103.6</ele>
        <time>2021-05-23T17:35:45Z</time>
      </trkpt>
      <trkpt lat="46.34487" lon="0.20555">
        <ele>103.6</ele>
        <time>2021-05-23T17:35:46Z</time>
      </trkpt>
      <trkpt lat="46.34486" lon="0.20555">
        <ele>103.6</ele>
        <time>2021-05-23T17:35:47Z</time>
      </trkpt>
      <trkpt lat="46.34486" lon="0.20555">
        <ele>103.6</ele>
        <time>2021-05-23T17:35:48Z</time>
      </trkpt>
      <trkpt lat="46.34486" lon="0.20554">
        <ele>103.6</ele>
        <time>2021-05-23T17:35:50Z</time>
      </trkpt>
      <trkpt lat="46.34485" lon="0.20554">
        <ele>103.6</ele>
        <time>2021-05-23T17:35:51Z</time>
      </trkpt>
      <trkpt lat="46.34485" lon="0.20554">
        <ele>103.6</ele>
        <time>2021-05-23T17:35:53Z</time>
      </trkpt>
      <trkpt lat="46.34485" lon="0.20554">
        <ele>103.6</ele>
        <time>2021-05-23T17:35:55Z</time>
      </trkpt>
      <trkpt lat="46.34484" lon="0.20554">
        <ele>103.6</ele>
        <time>2021-05-23T17:35:57Z</time>
      </trkpt>
      <trkpt lat="46.34484" lon="0.20554">
        <ele>103.6</ele>
        <time>2021-05-23T17:35:59Z</time>
      </trkpt>
      <trkpt lat="46.34484" lon="0.20553">
        <ele>103.6</ele>
        <time>2021-05-23T17:36:00Z</time>
      </trkpt>
      <trkpt lat="46.34484" lon="0.20552">
        <ele>103.6</ele>
        <time>2021-05-23T17:36:02Z</time>
      </trkpt>
      <trkpt lat="46.34483" lon="0.20552">
        <ele>103.5</ele>
        <time>2021-05-23T17:36:04Z</time>
      </trkpt>
      <trkpt lat="46.34481" lon="0.20552">
        <ele>103.5</ele>
        <time>2021-05-23T17:36:06Z</time>
      </trkpt>
      <trkpt lat="46.3448" lon="0.20552">
        <ele>103.5</ele>
        <time>2021-05-23T17:36:07Z</time>
      </trkpt>
      <trkpt lat="46.34479" lon="0.20552">
        <ele>103.6</ele>
        <time>2021-05-23T17:36:09Z</time>
      </trkpt>
      <trkpt lat="46.34479" lon="0.20552">
        <ele>103.8</ele>
        <time>2021-05-23T17:36:10Z</time>
      </trkpt>
      <trkpt lat="46.34477" lon="0.20553">
        <ele>103.8</ele>
        <time>2021-05-23T17:36:12Z</time>
      </trkpt>
      <trkpt lat="46.34477" lon="0.20553">
        <ele>103.8</ele>
        <time>2021-05-23T17:36:13Z</time>
      </trkpt>
      <trkpt lat="46.34477" lon="0.20553">
        <ele>103.8</ele>
        <time>2021-05-23T17:36:15Z</time>
      </trkpt>
      <trkpt lat="46.34477" lon="0.20553">
        <ele>103.8</ele>
        <time>2021-05-23T17:36:17Z</time>
      </trkpt>
      <trkpt lat="46.34476" lon="0.20553">
        <ele>103.8</ele>
        <time>2021-05-23T17:36:18Z</time>
      </trkpt>
      <trkpt lat="46.34476" lon="0.20552">
        <ele>103.7</ele>
        <time>2021-05-23T17:36:19Z</time>
      </trkpt>
      <trkpt lat="46.34475" lon="0.2055">
        <ele>103.7</ele>
        <time>2021-05-23T17:36:20Z</time>
      </trkpt>
      <trkpt lat="46.34474" lon="0.20549">
        <ele>103.7</ele>
        <time>2021-05-23T17:36:21Z</time>
      </trkpt>
      <trkpt lat="46.34474" lon="0.20548">
        <ele>103.8</ele>
        <time>2021-05-23T17:36:23Z</time>
      </trkpt>
      <trkpt lat="46.34473" lon="0.20547">
        <ele>103.6</ele>
        <time>2021-05-23T17:36:24Z</time>
      </trkpt>
      <trkpt lat="46.34473" lon="0.20545">
        <ele>103.6</ele>
        <time>2021-05-23T17:36:26Z</time>
      </trkpt>
      <trkpt lat="46.34472" lon="0.20544">
        <ele>103.6</ele>
        <time>2021-05-23T17:36:27Z</time>
      </trkpt>
      <trkpt lat="46.34472" lon="0.20543">
        <ele>103.5</ele>
        <time>2021-05-23T17:36:29Z</time>
      </trkpt>
      <trkpt lat="46.34471" lon="0.20543">
        <ele>103.5</ele>
        <time>2021-05-23T17:36:30Z</time>
      </trkpt>
      <trkpt lat="46.3447" lon="0.20543">
        <ele>103.6</ele>
        <time>2021-05-23T17:36:31Z</time>
      </trkpt>
      <trkpt lat="46.34469" lon="0.20543">
        <ele>103.6</ele>
        <time>2021-05-23T17:36:33Z</time>
      </trkpt>
      <trkpt lat="46.34468" lon="0.20543">
        <ele>103.6</ele>
        <time>2021-05-23T17:36:34Z</time>
      </trkpt>
      <trkpt lat="46.34467" lon="0.20543">
        <ele>103.7</ele>
        <time>2021-05-23T17:36:35Z</time>
      </trkpt>
      <trkpt lat="46.34467" lon="0.20542">
        <ele>103.7</ele>
        <time>2021-05-23T17:36:37Z</time>
      </trkpt>
      <trkpt lat="46.34467" lon="0.20541">
        <ele>103.7</ele>
        <time>2021-05-23T17:36:38Z</time>
      </trkpt>
      <trkpt lat="46.34466" lon="0.20541">
        <ele>103.7</ele>
        <time>2021-05-23T17:36:39Z</time>
      </trkpt>
      <trkpt lat="46.34466" lon="0.2054">
        <ele>103.7</ele>
        <time>2021-05-23T17:36:40Z</time>
      </trkpt>
      <trkpt lat="46.34465" lon="0.20539">
        <ele>103.7</ele>
        <time>2021-05-23T17:36:42Z</time>
      </trkpt>
      <trkpt lat="46.34465" lon="0.2054">
        <ele>103.7</ele>
        <time>2021-05-23T17:36:44Z</time>
      </trkpt>
      <trkpt lat="46.34465" lon="0.2054">
        <ele>103.7</ele>
        <time>2021-05-23T17:36:45Z</time>
      </trkpt>
      <trkpt lat="46.34464" lon="0.20541">
        <ele>103.8</ele>
        <time>2021-05-23T17:36:46Z</time>
      </trkpt>
      <trkpt lat="46.34464" lon="0.20541">
        <ele>103.8</ele>
        <time>2021-05-23T17:36:47Z</time>
      </trkpt>
      <trkpt lat="46.34464" lon="0.20542">
        <ele>103.8</ele>
        <time>2021-05-23T17:36:49Z</time>
      </trkpt>
      <trkpt lat="46.34463" lon="0.20542">
        <ele>103.8</ele>
        <time>2021-05-23T17:36:50Z</time>
      </trkpt>
      <trkpt lat="46.34463" lon="0.20542">
        <ele>103.8</ele>
        <time>2021-05-23T17:36:52Z</time>
      </trkpt>
      <trkpt lat="46.34462" lon="0.20541">
        <ele>103.8</ele>
        <time>2021-05-23T17:36:54Z</time>
      </trkpt>
      <trkpt lat="46.34462" lon="0.20541">
        <ele>103.8</ele>
        <time>2021-05-23T17:36:55Z</time>
      </trkpt>
      <trkpt lat="46.34462" lon="0.20541">
        <ele>103.8</ele>
        <time>2021-05-23T17:36:57Z</time>
      </trkpt>
      <trkpt lat="46.34462" lon="0.2054">
        <ele>103.8</ele>
        <time>2021-05-23T17:36:58Z</time>
      </trkpt>
      <trkpt lat="46.34463" lon="0.2054">
        <ele>103.8</ele>
        <time>2021-05-23T17:36:59Z</time>
      </trkpt>
      <trkpt lat="46.34463" lon="0.20539">
        <ele>103.7</ele>
        <time>2021-05-23T17:37:01Z</time>
      </trkpt>
      <trkpt lat="46.34464" lon="0.20538">
        <ele>103.7</ele>
        <time>2021-05-23T17:37:02Z</time>
      </trkpt>
      <trkpt lat="46.34465" lon="0.20537">
        <ele>103.6</ele>
        <time>2021-05-23T17:37:04Z</time>
      </trkpt>
      <trkpt lat="46.34465" lon="0.20537">
        <ele>103.6</ele>
        <time>2021-05-23T17:37:06Z</time>
      </trkpt>
      <trkpt lat="46.34466" lon="0.20536">
        <ele>103.6</ele>
        <time>2021-05-23T17:37:07Z</time>
      </trkpt>
      <trkpt lat="46.34466" lon="0.20535">
        <ele>103.6</ele>
        <time>2021-05-23T17:37:09Z</time>
      </trkpt>
      <trkpt lat="46.34467" lon="0.20534">
        <ele>103.4</ele>
        <time>2021-05-23T17:37:11Z</time>
      </trkpt>
      <trkpt lat="46.34468" lon="0.20533">
        <ele>103.4</ele>
        <time>2021-05-23T17:37:13Z</time>
      </trkpt>
      <trkpt lat="46.34468" lon="0.20532">
        <ele>103.4</ele>
        <time>2021-05-23T17:37:14Z</time>
      </trkpt>
      <trkpt lat="46.34469" lon="0.20532">
        <ele>103.4</ele>
        <time>2021-05-23T17:37:15Z</time>
      </trkpt>
      <trkpt lat="46.34469" lon="0.20532">
        <ele>103.4</ele>
        <time>2021-05-23T17:37:16Z</time>
      </trkpt>
      <trkpt lat="46.3447" lon="0.20532">
        <ele>103.4</ele>
        <time>2021-05-23T17:37:18Z</time>
      </trkpt>
      <trkpt lat="46.3447" lon="0.20532">
        <ele>103.4</ele>
        <time>2021-05-23T17:37:19Z</time>
      </trkpt>
      <trkpt lat="46.3447" lon="0.20532">
        <ele>103.4</ele>
        <time>2021-05-23T17:37:21Z</time>
      </trkpt>
      <trkpt lat="46.3447" lon="0.20532">
        <ele>103.4</ele>
        <time>2021-05-23T17:37:23Z</time>
      </trkpt>
      <trkpt lat="46.34471" lon="0.20532">
        <ele>103.3</ele>
        <time>2021-05-23T17:37:24Z</time>
      </trkpt>
      <trkpt lat="46.34471" lon="0.20532">
        <ele>103.3</ele>
        <time>2021-05-23T17:37:25Z</time>
      </trkpt>
      <trkpt lat="46.34471" lon="0.20532">
        <ele>103.3</ele>
        <time>2021-05-23T17:37:27Z</time>
      </trkpt>
      <trkpt lat="46.34471" lon="0.20532">
        <ele>103.3</ele>
        <time>2021-05-23T17:37:28Z</time>
      </trkpt>
      <trkpt lat="46.34471" lon="0.20532">
        <ele>103.3</ele>
        <time>2021-05-23T17:37:29Z</time>
      </trkpt>
      <trkpt lat="46.34471" lon="0.20532">
        <ele>103.3</ele>
        <time>2021-05-23T17:37:30Z</time>
      </trkpt>
      <trkpt lat="46.34471" lon="0.20532">
        <ele>103.3</ele>
        <time>2021-05-23T17:37:31Z</time>
      </trkpt>
      <trkpt lat="46.34471" lon="0.20532">
        <ele>103.3</ele>
        <time>2021-05-23T17:37:33Z</time>
      </trkpt>
      <trkpt lat="46.34471" lon="0.20532">
        <ele>103.3</ele>
        <time>2021-05-23T17:37:34Z</time>
      </trkpt>
      <trkpt lat="46.34471" lon="0.20532">
        <ele>103.3</ele>
        <time>2021-05-23T17:37:35Z</time>
      </trkpt>
      <trkpt lat="46.34471" lon="0.20531">
        <ele>103.3</ele>
        <time>2021-05-23T17:37:36Z</time>
      </trkpt>
      <trkpt lat="46.34471" lon="0.20531">
        <ele>103.3</ele>
        <time>2021-05-23T17:37:37Z</time>
      </trkpt>
      <trkpt lat="46.34471" lon="0.20531">
        <ele>103.3</ele>
        <time>2021-05-23T17:37:39Z</time>
      </trkpt>
      <trkpt lat="46.34471" lon="0.20531">
        <ele>103.3</ele>
        <time>2021-05-23T17:37:41Z</time>
      </trkpt>
      <trkpt lat="46.34471" lon="0.20531">
        <ele>103.3</ele>
        <time>2021-05-23T17:37:43Z</time>
      </trkpt>
      <trkpt lat="46.34471" lon="0.20531">
        <ele>103.3</ele>
        <time>2021-05-23T17:37:45Z</time>
      </trkpt>
      <trkpt lat="46.34471" lon="0.20531">
        <ele>103.3</ele>
        <time>2021-05-23T17:37:46Z</time>
      </trkpt>
      <trkpt lat="46.34471" lon="0.20531">
        <ele>103.3</ele>
        <time>2021-05-23T17:37:47Z</time>
      </trkpt>
      <trkpt lat="46.34471" lon="0.20531">
        <ele>103.3</ele>
        <time>2021-05-23T17:37:48Z</time>
      </trkpt>
      <trkpt lat="46.34471" lon="0.20531">
        <ele>103.3</ele>
        <time>2021-05-23T17:37:49Z</time>
      </trkpt>
      <trkpt lat="46.34471" lon="0.20531">
        <ele>103.3</ele>
        <time>2021-05-23T17:37:51Z</time>
      </trkpt>
      <trkpt lat="46.34471" lon="0.20531">
        <ele>103.3</ele>
        <time>2021-05-23T17:37:53Z</time>
      </trkpt>
      <trkpt lat="46.34471" lon="0.20531">
        <ele>103.3</ele>
        <time>2021-05-23T17:37:55Z</time>
      </trkpt>
      <trkpt lat="46.34471" lon="0.20531">
        <ele>103.3</ele>
        <time>2021-05-23T17:37:56Z</time>
      </trkpt>
      <trkpt lat="46.34471" lon="0.20531">
        <ele>103.3</ele>
        <time>2021-05-23T17:37:58Z</time>
      </trkpt>
      <trkpt lat="46.34471" lon="0.20531">
        <ele>103.3</ele>
        <time>2021-05-23T17:37:59Z</time>
      </trkpt>
      <trkpt lat="46.34471" lon="0.20531">
        <ele>103.3</ele>
        <time>2021-05-23T17:38:01Z</time>
      </trkpt>
      <trkpt lat="46.34471" lon="0.20531">
        <ele>103.3</ele>
        <time>2021-05-23T17:38:03Z</time>
      </trkpt>
      <trkpt lat="46.34471" lon="0.20531">
        <ele>103.3</ele>
        <time>2021-05-23T17:38:05Z</time>
      </trkpt>
      <trkpt lat="46.34471" lon="0.20531">
        <ele>103.3</ele>
        <time>2021-05-23T17:38:06Z</time>
      </trkpt>
      <trkpt lat="46.34471" lon="0.20531">
        <ele>103.3</ele>
        <time>2021-05-23T17:38:07Z</time>
      </trkpt>
      <trkpt lat="46.34471" lon="0.20531">
        <ele>103.3</ele>
        <time>2021-05-23T17:38:09Z</time>
      </trkpt>
      <trkpt lat="46.34471" lon="0.20531">
        <ele>103.3</ele>
        <time>2021-05-23T17:38:10Z</time>
      </trkpt>
      <trkpt lat="46.34471" lon="0.20531">
        <ele>103.3</ele>
        <time>2021-05-23T17:38:12Z</time>
      </trkpt>
      <trkpt lat="46.34471" lon="0.20531">
        <ele>103.3</ele>
        <time>2021-05-23T17:38:13Z</time>
      </trkpt>
      <trkpt lat="46.34471" lon="0.20531">
        <ele>103.3</ele>
        <time>2021-05-23T17:38:15Z</time>
      </trkpt>
      <trkpt lat="46.34471" lon="0.20531">
        <ele>103.3</ele>
        <time>2021-05-23T17:38:16Z</time>
      </trkpt>
      <trkpt lat="46.34471" lon="0.20531">
        <ele>103.3</ele>
        <time>2021-05-23T17:38:18Z</time>
      </trkpt>
      <trkpt lat="46.34471" lon="0.20531">
        <ele>103.3</ele>
        <time>2021-05-23T17:38:19Z</time>
      </trkpt>
      <trkpt lat="46.34471" lon="0.20531">
        <ele>103.3</ele>
        <time>2021-05-23T17:38:21Z</time>
      </trkpt>
      <trkpt lat="46.34471" lon="0.20531">
        <ele>103.3</ele>
        <time>2021-05-23T17:38:23Z</time>
      </trkpt>
      <trkpt lat="46.34471" lon="0.20531">
        <ele>103.2</ele>
        <time>2021-05-23T17:38:25Z</time>
      </trkpt>
      <trkpt lat="46.34471" lon="0.2053">
        <ele>103.2</ele>
        <time>2021-05-23T17:38:26Z</time>
      </trkpt>
      <trkpt lat="46.34469" lon="0.2053">
        <ele>103.3</ele>
        <time>2021-05-23T17:38:28Z</time>
      </trkpt>
      <trkpt lat="46.34468" lon="0.20529">
        <ele>103.3</ele>
        <time>2021-05-23T17:38:29Z</time>
      </trkpt>
      <trkpt lat="46.34468" lon="0.20529">
        <ele>103.3</ele>
        <time>2021-05-23T17:38:30Z</time>
      </trkpt>
      <trkpt lat="46.34467" lon="0.20529">
        <ele>103.3</ele>
        <time>2021-05-23T17:38:31Z</time>
      </trkpt>
      <trkpt lat="46.34466" lon="0.20529">
        <ele>103.3</ele>
        <time>2021-05-23T17:38:33Z</time>
      </trkpt>
      <trkpt lat="46.34466" lon="0.20528">
        <ele>103.3</ele>
        <time>2021-05-23T17:38:34Z</time>
      </trkpt>
      <trkpt lat="46.34465" lon="0.20528">
        <ele>103.3</ele>
        <time>2021-05-23T17:38:35Z</time>
      </trkpt>
      <trkpt lat="46.34464" lon="0.20526">
        <ele>103.3</ele>
        <time>2021-05-23T17:38:37Z</time>
      </trkpt>
      <trkpt lat="46.34463" lon="0.20525">
        <ele>103.3</ele>
        <time>2021-05-23T17:38:38Z</time>
      </trkpt>
      <trkpt lat="46.34463" lon="0.20524">
        <ele>103.3</ele>
        <time>2021-05-23T17:38:39Z</time>
      </trkpt>
      <trkpt lat="46.34462" lon="0.20522">
        <ele>103.3</ele>
        <time>2021-05-23T17:38:41Z</time>
      </trkpt>
      <trkpt lat="46.34461" lon="0.2052">
        <ele>103.2</ele>
        <time>2021-05-23T17:38:42Z</time>
      </trkpt>
      <trkpt lat="46.34461" lon="0.20519">
        <ele>103.2</ele>
        <time>2021-05-23T17:38:43Z</time>
      </trkpt>
      <trkpt lat="46.3446" lon="0.20516">
        <ele>103.2</ele>
        <time>2021-05-23T17:38:45Z</time>
      </trkpt>
      <trkpt lat="46.34459" lon="0.20514">
        <ele>103.2</ele>
        <time>2021-05-23T17:38:47Z</time>
      </trkpt>
      <trkpt lat="46.34459" lon="0.20512">
        <ele>103.1</ele>
        <time>2021-05-23T17:38:48Z</time>
      </trkpt>
      <trkpt lat="46.34458" lon="0.20511">
        <ele>103.1</ele>
        <time>2021-05-23T17:38:49Z</time>
      </trkpt>
      <trkpt lat="46.34458" lon="0.2051">
        <ele>103.1</ele>
        <time>2021-05-23T17:38:51Z</time>
      </trkpt>
      <trkpt lat="46.34457" lon="0.20509">
        <ele>103.1</ele>
        <time>2021-05-23T17:38:52Z</time>
      </trkpt>
      <trkpt lat="46.34457" lon="0.20507">
        <ele>103.1</ele>
        <time>2021-05-23T17:38:54Z</time>
      </trkpt>
      <trkpt lat="46.34457" lon="0.20506">
        <ele>103.1</ele>
        <time>2021-05-23T17:38:56Z</time>
      </trkpt>
      <trkpt lat="46.34457" lon="0.20504">
        <ele>103.1</ele>
        <time>2021-05-23T17:38:57Z</time>
      </trkpt>
      <trkpt lat="46.34457" lon="0.20503">
        <ele>103.1</ele>
        <time>2021-05-23T17:38:58Z</time>
      </trkpt>
      <trkpt lat="46.34457" lon="0.20501">
        <ele>103.1</ele>
        <time>2021-05-23T17:38:59Z</time>
      </trkpt>
      <trkpt lat="46.34457" lon="0.205">
        <ele>103.1</ele>
        <time>2021-05-23T17:39:00Z</time>
      </trkpt>
      <trkpt lat="46.34457" lon="0.20499">
        <ele>103.1</ele>
        <time>2021-05-23T17:39:01Z</time>
      </trkpt>
      <trkpt lat="46.34457" lon="0.20496">
        <ele>103.1</ele>
        <time>2021-05-23T17:39:02Z</time>
      </trkpt>
      <trkpt lat="46.34457" lon="0.20495">
        <ele>103.1</ele>
        <time>2021-05-23T17:39:03Z</time>
      </trkpt>
      <trkpt lat="46.34458" lon="0.20493">
        <ele>103.1</ele>
        <time>2021-05-23T17:39:04Z</time>
      </trkpt>
      <trkpt lat="46.34458" lon="0.2049">
        <ele>103.1</ele>
        <time>2021-05-23T17:39:06Z</time>
      </trkpt>
      <trkpt lat="46.34458" lon="0.20489">
        <ele>103.1</ele>
        <time>2021-05-23T17:39:07Z</time>
      </trkpt>
      <trkpt lat="46.34459" lon="0.20488">
        <ele>103.1</ele>
        <time>2021-05-23T17:39:08Z</time>
      </trkpt>
      <trkpt lat="46.34459" lon="0.20486">
        <ele>103.2</ele>
        <time>2021-05-23T17:39:09Z</time>
      </trkpt>
      <trkpt lat="46.34459" lon="0.20485">
        <ele>103.2</ele>
        <time>2021-05-23T17:39:11Z</time>
      </trkpt>
      <trkpt lat="46.34459" lon="0.20483">
        <ele>103.2</ele>
        <time>2021-05-23T17:39:12Z</time>
      </trkpt>
      <trkpt lat="46.3446" lon="0.20479">
        <ele>103.2</ele>
        <time>2021-05-23T17:39:13Z</time>
      </trkpt>
      <trkpt lat="46.3446" lon="0.20477">
        <ele>103.2</ele>
        <time>2021-05-23T17:39:15Z</time>
      </trkpt>
      <trkpt lat="46.3446" lon="0.20476">
        <ele>103.2</ele>
        <time>2021-05-23T17:39:17Z</time>
      </trkpt>
      <trkpt lat="46.3446" lon="0.20474">
        <ele>103.2</ele>
        <time>2021-05-23T17:39:18Z</time>
      </trkpt>
      <trkpt lat="46.34461" lon="0.20472">
        <ele>103.2</ele>
        <time>2021-05-23T17:39:19Z</time>
      </trkpt>
      <trkpt lat="46.34461" lon="0.20471">
        <ele>103.2</ele>
        <time>2021-05-23T17:39:20Z</time>
      </trkpt>
      <trkpt lat="46.34462" lon="0.20469">
        <ele>103.2</ele>
        <time>2021-05-23T17:39:22Z</time>
      </trkpt>
      <trkpt lat="46.34462" lon="0.20468">
        <ele>103.2</ele>
        <time>2021-05-23T17:39:23Z</time>
      </trkpt>
      <trkpt lat="46.34463" lon="0.20466">
        <ele>103.2</ele>
        <time>2021-05-23T17:39:25Z</time>
      </trkpt>
      <trkpt lat="46.34463" lon="0.20464">
        <ele>103.2</ele>
        <time>2021-05-23T17:39:26Z</time>
      </trkpt>
      <trkpt lat="46.34463" lon="0.20463">
        <ele>103.2</ele>
        <time>2021-05-23T17:39:27Z</time>
      </trkpt>
      <trkpt lat="46.34462" lon="0.20462">
        <ele>103.2</ele>
        <time>2021-05-23T17:39:28Z</time>
      </trkpt>
      <trkpt lat="46.34462" lon="0.20461">
        <ele>103.2</ele>
        <time>2021-05-23T17:39:29Z</time>
      </trkpt>
      <trkpt lat="46.34461" lon="0.2046">
        <ele>103.2</ele>
        <time>2021-05-23T17:39:31Z</time>
      </trkpt>
      <trkpt lat="46.34461" lon="0.20459">
        <ele>103.2</ele>
        <time>2021-05-23T17:39:32Z</time>
      </trkpt>
      <trkpt lat="46.34461" lon="0.20457">
        <ele>103.2</ele>
        <time>2021-05-23T17:39:33Z</time>
      </trkpt>
      <trkpt lat="46.3446" lon="0.20455">
        <ele>103.2</ele>
        <time>2021-05-23T17:39:34Z</time>
      </trkpt>
      <trkpt lat="46.3446" lon="0.20455">
        <ele>103.2</ele>
        <time>2021-05-23T17:39:36Z</time>
      </trkpt>
      <trkpt lat="46.3446" lon="0.20453">
        <ele>103.1</ele>
        <time>2021-05-23T17:39:37Z</time>
      </trkpt>
      <trkpt lat="46.34459" lon="0.20452">
        <ele>103.1</ele>
        <time>2021-05-23T17:39:38Z</time>
      </trkpt>
      <trkpt lat="46.34459" lon="0.20451">
        <ele>103.1</ele>
        <time>2021-05-23T17:39:39Z</time>
      </trkpt>
      <trkpt lat="46.34458" lon="0.2045">
        <ele>103.2</ele>
        <time>2021-05-23T17:39:41Z</time>
      </trkpt>
      <trkpt lat="46.34458" lon="0.20449">
        <ele>103.2</ele>
        <time>2021-05-23T17:39:42Z</time>
      </trkpt>
      <trkpt lat="46.34457" lon="0.20448">
        <ele>103.2</ele>
        <time>2021-05-23T17:39:43Z</time>
      </trkpt>
      <trkpt lat="46.34456" lon="0.20448">
        <ele>103.2</ele>
        <time>2021-05-23T17:39:45Z</time>
      </trkpt>
      <trkpt lat="46.34455" lon="0.20447">
        <ele>103.2</ele>
        <time>2021-05-23T17:39:46Z</time>
      </trkpt>
      <trkpt lat="46.34453" lon="0.20446">
        <ele>103.2</ele>
        <time>2021-05-23T17:39:47Z</time>
      </trkpt>
      <trkpt lat="46.34452" lon="0.20446">
        <ele>103.2</ele>
        <time>2021-05-23T17:39:48Z</time>
      </trkpt>
      <trkpt lat="46.3445" lon="0.20446">
        <ele>103.2</ele>
        <time>2021-05-23T17:39:49Z</time>
      </trkpt>
      <trkpt lat="46.34447" lon="0.20445">
        <ele>103.2</ele>
        <time>2021-05-23T17:39:51Z</time>
      </trkpt>
      <trkpt lat="46.34446" lon="0.20445">
        <ele>103.2</ele>
        <time>2021-05-23T17:39:52Z</time>
      </trkpt>
      <trkpt lat="46.34443" lon="0.20445">
        <ele>103.2</ele>
        <time>2021-05-23T17:39:53Z</time>
      </trkpt>
      <trkpt lat="46.34442" lon="0.20445">
        <ele>103.2</ele>
        <time>2021-05-23T17:39:54Z</time>
      </trkpt>
      <trkpt lat="46.34439" lon="0.20445">
        <ele>103.2</ele>
        <time>2021-05-23T17:39:55Z</time>
      </trkpt>
      <trkpt lat="46.34438" lon="0.20444">
        <ele>103.2</ele>
        <time>2021-05-23T17:39:57Z</time>
      </trkpt>
      <trkpt lat="46.34437" lon="0.20444">
        <ele>103.2</ele>
        <time>2021-05-23T17:39:58Z</time>
      </trkpt>
      <trkpt lat="46.34435" lon="0.20443">
        <ele>103.2</ele>
        <time>2021-05-23T17:39:59Z</time>
      </trkpt>
      <trkpt lat="46.34434" lon="0.20442">
        <ele>103.2</ele>
        <time>2021-05-23T17:40:00Z</time>
      </trkpt>
      <trkpt lat="46.34433" lon="0.20441">
        <ele>103.2</ele>
        <time>2021-05-23T17:40:01Z</time>
      </trkpt>
      <trkpt lat="46.34432" lon="0.2044">
        <ele>103.2</ele>
        <time>2021-05-23T17:40:03Z</time>
      </trkpt>
      <trkpt lat="46.34431" lon="0.20439">
        <ele>103.2</ele>
        <time>2021-05-23T17:40:04Z</time>
      </trkpt>
      <trkpt lat="46.34429" lon="0.20438">
        <ele>103.2</ele>
        <time>2021-05-23T17:40:05Z</time>
      </trkpt>
      <trkpt lat="46.34428" lon="0.20437">
        <ele>103.2</ele>
        <time>2021-05-23T17:40:06Z</time>
      </trkpt>
      <trkpt lat="46.34427" lon="0.20437">
        <ele>103.2</ele>
        <time>2021-05-23T17:40:07Z</time>
      </trkpt>
      <trkpt lat="46.34425" lon="0.20435">
        <ele>103.1</ele>
        <time>2021-05-23T17:40:09Z</time>
      </trkpt>
      <trkpt lat="46.34425" lon="0.20435">
        <ele>103.1</ele>
        <time>2021-05-23T17:40:10Z</time>
      </trkpt>
      <trkpt lat="46.34424" lon="0.20434">
        <ele>103.1</ele>
        <time>2021-05-23T17:40:11Z</time>
      </trkpt>
      <trkpt lat="46.34423" lon="0.20434">
        <ele>103.1</ele>
        <time>2021-05-23T17:40:12Z</time>
      </trkpt>
      <trkpt lat="46.34422" lon="0.20433">
        <ele>103.1</ele>
        <time>2021-05-23T17:40:13Z</time>
      </trkpt>
      <trkpt lat="46.3442" lon="0.20433">
        <ele>103.1</ele>
        <time>2021-05-23T17:40:15Z</time>
      </trkpt>
      <trkpt lat="46.3442" lon="0.20433">
        <ele>103.1</ele>
        <time>2021-05-23T17:40:16Z</time>
      </trkpt>
      <trkpt lat="46.34418" lon="0.20432">
        <ele>103.1</ele>
        <time>2021-05-23T17:40:17Z</time>
      </trkpt>
      <trkpt lat="46.34418" lon="0.20431">
        <ele>103.1</ele>
        <time>2021-05-23T17:40:18Z</time>
      </trkpt>
      <trkpt lat="46.34416" lon="0.2043">
        <ele>103.1</ele>
        <time>2021-05-23T17:40:19Z</time>
      </trkpt>
      <trkpt lat="46.34416" lon="0.20428">
        <ele>103.1</ele>
        <time>2021-05-23T17:40:20Z</time>
      </trkpt>
      <trkpt lat="46.34415" lon="0.20426">
        <ele>103.1</ele>
        <time>2021-05-23T17:40:21Z</time>
      </trkpt>
      <trkpt lat="46.34415" lon="0.20425">
        <ele>103.1</ele>
        <time>2021-05-23T17:40:23Z</time>
      </trkpt>
      <trkpt lat="46.34414" lon="0.20424">
        <ele>103.1</ele>
        <time>2021-05-23T17:40:24Z</time>
      </trkpt>
      <trkpt lat="46.34415" lon="0.20422">
        <ele>103.1</ele>
        <time>2021-05-23T17:40:25Z</time>
      </trkpt>
      <trkpt lat="46.34414" lon="0.20421">
        <ele>103.1</ele>
        <time>2021-05-23T17:40:26Z</time>
      </trkpt>
      <trkpt lat="46.34414" lon="0.20419">
        <ele>103.1</ele>
        <time>2021-05-23T17:40:28Z</time>
      </trkpt>
      <trkpt lat="46.34414" lon="0.20418">
        <ele>103.1</ele>
        <time>2021-05-23T17:40:29Z</time>
      </trkpt>
      <trkpt lat="46.34414" lon="0.20417">
        <ele>103.1</ele>
        <time>2021-05-23T17:40:31Z</time>
      </trkpt>
      <trkpt lat="46.34413" lon="0.20416">
        <ele>103.1</ele>
        <time>2021-05-23T17:40:32Z</time>
      </trkpt>
      <trkpt lat="46.34412" lon="0.20415">
        <ele>103.1</ele>
        <time>2021-05-23T17:40:33Z</time>
      </trkpt>
      <trkpt lat="46.34411" lon="0.20414">
        <ele>103.1</ele>
        <time>2021-05-23T17:40:35Z</time>
      </trkpt>
      <trkpt lat="46.34411" lon="0.20414">
        <ele>103.1</ele>
        <time>2021-05-23T17:40:36Z</time>
      </trkpt>
      <trkpt lat="46.3441" lon="0.20413">
        <ele>103.1</ele>
        <time>2021-05-23T17:40:37Z</time>
      </trkpt>
      <trkpt lat="46.3441" lon="0.20411">
        <ele>103.1</ele>
        <time>2021-05-23T17:40:38Z</time>
      </trkpt>
      <trkpt lat="46.34409" lon="0.2041">
        <ele>103.1</ele>
        <time>2021-05-23T17:40:39Z</time>
      </trkpt>
      <trkpt lat="46.34409" lon="0.20409">
        <ele>103.1</ele>
        <time>2021-05-23T17:40:41Z</time>
      </trkpt>
      <trkpt lat="46.34408" lon="0.20408">
        <ele>103.1</ele>
        <time>2021-05-23T17:40:42Z</time>
      </trkpt>
      <trkpt lat="46.34407" lon="0.20408">
        <ele>103.1</ele>
        <time>2021-05-23T17:40:43Z</time>
      </trkpt>
      <trkpt lat="46.34406" lon="0.20408">
        <ele>103.1</ele>
        <time>2021-05-23T17:40:44Z</time>
      </trkpt>
      <trkpt lat="46.34405" lon="0.20409">
        <ele>103.1</ele>
        <time>2021-05-23T17:40:45Z</time>
      </trkpt>
      <trkpt lat="46.34404" lon="0.20409">
        <ele>103.1</ele>
        <time>2021-05-23T17:40:47Z</time>
      </trkpt>
      <trkpt lat="46.34403" lon="0.20409">
        <ele>103.1</ele>
        <time>2021-05-23T17:40:48Z</time>
      </trkpt>
      <trkpt lat="46.34402" lon="0.20409">
        <ele>103.1</ele>
        <time>2021-05-23T17:40:49Z</time>
      </trkpt>
      <trkpt lat="46.34401" lon="0.2041">
        <ele>103.1</ele>
        <time>2021-05-23T17:40:51Z</time>
      </trkpt>
      <trkpt lat="46.344" lon="0.2041">
        <ele>103.1</ele>
        <time>2021-05-23T17:40:52Z</time>
      </trkpt>
      <trkpt lat="46.34398" lon="0.2041">
        <ele>103.2</ele>
        <time>2021-05-23T17:40:54Z</time>
      </trkpt>
      <trkpt lat="46.34396" lon="0.20411">
        <ele>103.2</ele>
        <time>2021-05-23T17:40:55Z</time>
      </trkpt>
      <trkpt lat="46.34395" lon="0.20411">
        <ele>103.2</ele>
        <time>2021-05-23T17:40:56Z</time>
      </trkpt>
      <trkpt lat="46.34394" lon="0.20412">
        <ele>103.2</ele>
        <time>2021-05-23T17:40:58Z</time>
      </trkpt>
      <trkpt lat="46.34393" lon="0.20412">
        <ele>103.2</ele>
        <time>2021-05-23T17:40:59Z</time>
      </trkpt>
      <trkpt lat="46.34392" lon="0.20412">
        <ele>103.2</ele>
        <time>2021-05-23T17:41:01Z</time>
      </trkpt>
      <trkpt lat="46.34391" lon="0.20413">
        <ele>103.2</ele>
        <time>2021-05-23T17:41:02Z</time>
      </trkpt>
      <trkpt lat="46.3439" lon="0.20414">
        <ele>103.2</ele>
        <time>2021-05-23T17:41:03Z</time>
      </trkpt>
      <trkpt lat="46.34389" lon="0.20415">
        <ele>103.2</ele>
        <time>2021-05-23T17:41:04Z</time>
      </trkpt>
      <trkpt lat="46.34388" lon="0.20416">
        <ele>103.2</ele>
        <time>2021-05-23T17:41:06Z</time>
      </trkpt>
      <trkpt lat="46.34387" lon="0.20416">
        <ele>103.3</ele>
        <time>2021-05-23T17:41:07Z</time>
      </trkpt>
      <trkpt lat="46.34386" lon="0.20417">
        <ele>103.3</ele>
        <time>2021-05-23T17:41:08Z</time>
      </trkpt>
      <trkpt lat="46.34385" lon="0.20418">
        <ele>103.3</ele>
        <time>2021-05-23T17:41:09Z</time>
      </trkpt>
      <trkpt lat="46.34385" lon="0.20419">
        <ele>103.3</ele>
        <time>2021-05-23T17:41:11Z</time>
      </trkpt>
      <trkpt lat="46.34384" lon="0.2042">
        <ele>103.3</ele>
        <time>2021-05-23T17:41:12Z</time>
      </trkpt>
      <trkpt lat="46.34383" lon="0.20421">
        <ele>103.3</ele>
        <time>2021-05-23T17:41:13Z</time>
      </trkpt>
      <trkpt lat="46.34381" lon="0.20421">
        <ele>103.3</ele>
        <time>2021-05-23T17:41:14Z</time>
      </trkpt>
      <trkpt lat="46.34381" lon="0.20422">
        <ele>103.3</ele>
        <time>2021-05-23T17:41:15Z</time>
      </trkpt>
      <trkpt lat="46.3438" lon="0.20423">
        <ele>103.3</ele>
        <time>2021-05-23T17:41:17Z</time>
      </trkpt>
      <trkpt lat="46.34379" lon="0.20424">
        <ele>103.3</ele>
        <time>2021-05-23T17:41:18Z</time>
      </trkpt>
      <trkpt lat="46.34377" lon="0.20426">
        <ele>103.3</ele>
        <time>2021-05-23T17:41:19Z</time>
      </trkpt>
      <trkpt lat="46.34377" lon="0.20426">
        <ele>103.3</ele>
        <time>2021-05-23T17:41:21Z</time>
      </trkpt>
      <trkpt lat="46.34375" lon="0.20427">
        <ele>103.3</ele>
        <time>2021-05-23T17:41:22Z</time>
      </trkpt>
      <trkpt lat="46.34374" lon="0.20428">
        <ele>103.3</ele>
        <time>2021-05-23T17:41:24Z</time>
      </trkpt>
      <trkpt lat="46.34372" lon="0.2043">
        <ele>103.2</ele>
        <time>2021-05-23T17:41:25Z</time>
      </trkpt>
      <trkpt lat="46.34372" lon="0.20431">
        <ele>103.2</ele>
        <time>2021-05-23T17:41:27Z</time>
      </trkpt>
      <trkpt lat="46.34371" lon="0.20432">
        <ele>103.2</ele>
        <time>2021-05-23T17:41:28Z</time>
      </trkpt>
      <trkpt lat="46.3437" lon="0.20433">
        <ele>103.1</ele>
        <time>2021-05-23T17:41:29Z</time>
      </trkpt>
      <trkpt lat="46.34369" lon="0.20434">
        <ele>103.1</ele>
        <time>2021-05-23T17:41:31Z</time>
      </trkpt>
      <trkpt lat="46.34368" lon="0.20435">
        <ele>103.1</ele>
        <time>2021-05-23T17:41:32Z</time>
      </trkpt>
      <trkpt lat="46.34368" lon="0.20437">
        <ele>103.1</ele>
        <time>2021-05-23T17:41:33Z</time>
      </trkpt>
      <trkpt lat="46.34368" lon="0.20439">
        <ele>103.1</ele>
        <time>2021-05-23T17:41:35Z</time>
      </trkpt>
      <trkpt lat="46.34368" lon="0.2044">
        <ele>103.1</ele>
        <time>2021-05-23T17:41:36Z</time>
      </trkpt>
      <trkpt lat="46.34369" lon="0.20442">
        <ele>103.1</ele>
        <time>2021-05-23T17:41:37Z</time>
      </trkpt>
      <trkpt lat="46.34369" lon="0.20442">
        <ele>103.1</ele>
        <time>2021-05-23T17:41:38Z</time>
      </trkpt>
      <trkpt lat="46.3437" lon="0.20443">
        <ele>103.1</ele>
        <time>2021-05-23T17:41:40Z</time>
      </trkpt>
      <trkpt lat="46.3437" lon="0.20444">
        <ele>103.1</ele>
        <time>2021-05-23T17:41:41Z</time>
      </trkpt>
      <trkpt lat="46.3437" lon="0.20445">
        <ele>103.2</ele>
        <time>2021-05-23T17:41:42Z</time>
      </trkpt>
      <trkpt lat="46.3437" lon="0.20446">
        <ele>103.1</ele>
        <time>2021-05-23T17:41:43Z</time>
      </trkpt>
      <trkpt lat="46.34369" lon="0.20447">
        <ele>103.1</ele>
        <time>2021-05-23T17:41:45Z</time>
      </trkpt>
      <trkpt lat="46.34369" lon="0.20447">
        <ele>103.1</ele>
        <time>2021-05-23T17:41:46Z</time>
      </trkpt>
      <trkpt lat="46.34369" lon="0.20448">
        <ele>103.1</ele>
        <time>2021-05-23T17:41:47Z</time>
      </trkpt>
      <trkpt lat="46.34369" lon="0.20449">
        <ele>103.1</ele>
        <time>2021-05-23T17:41:48Z</time>
      </trkpt>
      <trkpt lat="46.34369" lon="0.20451">
        <ele>103.1</ele>
        <time>2021-05-23T17:41:49Z</time>
      </trkpt>
      <trkpt lat="46.3437" lon="0.20453">
        <ele>103.1</ele>
        <time>2021-05-23T17:41:51Z</time>
      </trkpt>
      <trkpt lat="46.3437" lon="0.20454">
        <ele>103.2</ele>
        <time>2021-05-23T17:41:52Z</time>
      </trkpt>
      <trkpt lat="46.34371" lon="0.20456">
        <ele>103.2</ele>
        <time>2021-05-23T17:41:53Z</time>
      </trkpt>
      <trkpt lat="46.34372" lon="0.20457">
        <ele>103.2</ele>
        <time>2021-05-23T17:41:55Z</time>
      </trkpt>
      <trkpt lat="46.34373" lon="0.20459">
        <ele>103.2</ele>
        <time>2021-05-23T17:41:56Z</time>
      </trkpt>
      <trkpt lat="46.34373" lon="0.2046">
        <ele>103.2</ele>
        <time>2021-05-23T17:41:57Z</time>
      </trkpt>
      <trkpt lat="46.34374" lon="0.20462">
        <ele>103.2</ele>
        <time>2021-05-23T17:41:58Z</time>
      </trkpt>
      <trkpt lat="46.34374" lon="0.20463">
        <ele>103.2</ele>
        <time>2021-05-23T17:41:59Z</time>
      </trkpt>
      <trkpt lat="46.34375" lon="0.20464">
        <ele>103.2</ele>
        <time>2021-05-23T17:42:01Z</time>
      </trkpt>
      <trkpt lat="46.34375" lon="0.20464">
        <ele>103.2</ele>
        <time>2021-05-23T17:42:02Z</time>
      </trkpt>
      <trkpt lat="46.34375" lon="0.20465">
        <ele>103.2</ele>
        <time>2021-05-23T17:42:03Z</time>
      </trkpt>
      <trkpt lat="46.34376" lon="0.20466">
        <ele>103.2</ele>
        <time>2021-05-23T17:42:05Z</time>
      </trkpt>
      <trkpt lat="46.34376" lon="0.20467">
        <ele>103.3</ele>
        <time>2021-05-23T17:42:07Z</time>
      </trkpt>
      <trkpt lat="46.34376" lon="0.20468">
        <ele>103.3</ele>
        <time>2021-05-23T17:42:09Z</time>
      </trkpt>
      <trkpt lat="46.34377" lon="0.20469">
        <ele>103.3</ele>
        <time>2021-05-23T17:42:10Z</time>
      </trkpt>
      <trkpt lat="46.34378" lon="0.20469">
        <ele>103.3</ele>
        <time>2021-05-23T17:42:11Z</time>
      </trkpt>
      <trkpt lat="46.34378" lon="0.2047">
        <ele>103.3</ele>
        <time>2021-05-23T17:42:13Z</time>
      </trkpt>
      <trkpt lat="46.34378" lon="0.2047">
        <ele>103.3</ele>
        <time>2021-05-23T17:42:15Z</time>
      </trkpt>
      <trkpt lat="46.34379" lon="0.20471">
        <ele>103.3</ele>
        <time>2021-05-23T17:42:16Z</time>
      </trkpt>
      <trkpt lat="46.34379" lon="0.20471">
        <ele>103.3</ele>
        <time>2021-05-23T17:42:18Z</time>
      </trkpt>
      <trkpt lat="46.3438" lon="0.20472">
        <ele>103.3</ele>
        <time>2021-05-23T17:42:19Z</time>
      </trkpt>
      <trkpt lat="46.34381" lon="0.20472">
        <ele>103.3</ele>
        <time>2021-05-23T17:42:20Z</time>
      </trkpt>
      <trkpt lat="46.34382" lon="0.20473">
        <ele>103.4</ele>
        <time>2021-05-23T17:42:22Z</time>
      </trkpt>
      <trkpt lat="46.34383" lon="0.20474">
        <ele>103.4</ele>
        <time>2021-05-23T17:42:23Z</time>
      </trkpt>
      <trkpt lat="46.34384" lon="0.20475">
        <ele>103.4</ele>
        <time>2021-05-23T17:42:24Z</time>
      </trkpt>
      <trkpt lat="46.34385" lon="0.20476">
        <ele>103.4</ele>
        <time>2021-05-23T17:42:25Z</time>
      </trkpt>
      <trkpt lat="46.34387" lon="0.20477">
        <ele>103.4</ele>
        <time>2021-05-23T17:42:27Z</time>
      </trkpt>
      <trkpt lat="46.34388" lon="0.20478">
        <ele>103.4</ele>
        <time>2021-05-23T17:42:28Z</time>
      </trkpt>
      <trkpt lat="46.34389" lon="0.20479">
        <ele>103.4</ele>
        <time>2021-05-23T17:42:29Z</time>
      </trkpt>
      <trkpt lat="46.34391" lon="0.20481">
        <ele>103.4</ele>
        <time>2021-05-23T17:42:31Z</time>
      </trkpt>
      <trkpt lat="46.34392" lon="0.20482">
        <ele>103.4</ele>
        <time>2021-05-23T17:42:32Z</time>
      </trkpt>
      <trkpt lat="46.34393" lon="0.20482">
        <ele>103.4</ele>
        <time>2021-05-23T17:42:33Z</time>
      </trkpt>
      <trkpt lat="46.34394" lon="0.20483">
        <ele>103.4</ele>
        <time>2021-05-23T17:42:34Z</time>
      </trkpt>
      <trkpt lat="46.34396" lon="0.20484">
        <ele>103.4</ele>
        <time>2021-05-23T17:42:35Z</time>
      </trkpt>
      <trkpt lat="46.34397" lon="0.20484">
        <ele>103.4</ele>
        <time>2021-05-23T17:42:37Z</time>
      </trkpt>
      <trkpt lat="46.34398" lon="0.20484">
        <ele>103.4</ele>
        <time>2021-05-23T17:42:38Z</time>
      </trkpt>
      <trkpt lat="46.34399" lon="0.20485">
        <ele>103.4</ele>
        <time>2021-05-23T17:42:39Z</time>
      </trkpt>
      <trkpt lat="46.34401" lon="0.20485">
        <ele>103.4</ele>
        <time>2021-05-23T17:42:40Z</time>
      </trkpt>
      <trkpt lat="46.34402" lon="0.20485">
        <ele>103.4</ele>
        <time>2021-05-23T17:42:41Z</time>
      </trkpt>
      <trkpt lat="46.34403" lon="0.20486">
        <ele>103.4</ele>
        <time>2021-05-23T17:42:42Z</time>
      </trkpt>
      <trkpt lat="46.34404" lon="0.20486">
        <ele>103.4</ele>
        <time>2021-05-23T17:42:43Z</time>
      </trkpt>
      <trkpt lat="46.34406" lon="0.20486">
        <ele>103.4</ele>
        <time>2021-05-23T17:42:45Z</time>
      </trkpt>
      <trkpt lat="46.34407" lon="0.20487">
        <ele>103.4</ele>
        <time>2021-05-23T17:42:46Z</time>
      </trkpt>
      <trkpt lat="46.34408" lon="0.20488">
        <ele>103.3</ele>
        <time>2021-05-23T17:42:47Z</time>
      </trkpt>
      <trkpt lat="46.3441" lon="0.20488">
        <ele>103.4</ele>
        <time>2021-05-23T17:42:48Z</time>
      </trkpt>
      <trkpt lat="46.34411" lon="0.20489">
        <ele>103.4</ele>
        <time>2021-05-23T17:42:49Z</time>
      </trkpt>
      <trkpt lat="46.34413" lon="0.20489">
        <ele>103.4</ele>
        <time>2021-05-23T17:42:51Z</time>
      </trkpt>
      <trkpt lat="46.34415" lon="0.20489">
        <ele>103.4</ele>
        <time>2021-05-23T17:42:52Z</time>
      </trkpt>
      <trkpt lat="46.34416" lon="0.20489">
        <ele>103.4</ele>
        <time>2021-05-23T17:42:53Z</time>
      </trkpt>
      <trkpt lat="46.34418" lon="0.20489">
        <ele>103.3</ele>
        <time>2021-05-23T17:42:54Z</time>
      </trkpt>
      <trkpt lat="46.34419" lon="0.20488">
        <ele>103.3</ele>
        <time>2021-05-23T17:42:55Z</time>
      </trkpt>
      <trkpt lat="46.34421" lon="0.20488">
        <ele>103.3</ele>
        <time>2021-05-23T17:42:57Z</time>
      </trkpt>
      <trkpt lat="46.34423" lon="0.20488">
        <ele>103.3</ele>
        <time>2021-05-23T17:42:58Z</time>
      </trkpt>
      <trkpt lat="46.34424" lon="0.20488">
        <ele>103.3</ele>
        <time>2021-05-23T17:42:59Z</time>
      </trkpt>
      <trkpt lat="46.34427" lon="0.20489">
        <ele>103.2</ele>
        <time>2021-05-23T17:43:01Z</time>
      </trkpt>
      <trkpt lat="46.34428" lon="0.2049">
        <ele>103.2</ele>
        <time>2021-05-23T17:43:02Z</time>
      </trkpt>
      <trkpt lat="46.34429" lon="0.20491">
        <ele>103.2</ele>
        <time>2021-05-23T17:43:04Z</time>
      </trkpt>
      <trkpt lat="46.34432" lon="0.20491">
        <ele>103.2</ele>
        <time>2021-05-23T17:43:05Z</time>
      </trkpt>
      <trkpt lat="46.34432" lon="0.20491">
        <ele>103.2</ele>
        <time>2021-05-23T17:43:06Z</time>
      </trkpt>
      <trkpt lat="46.34435" lon="0.20492">
        <ele>103.2</ele>
        <time>2021-05-23T17:43:07Z</time>
      </trkpt>
      <trkpt lat="46.34436" lon="0.20492">
        <ele>103.2</ele>
        <time>2021-05-23T17:43:09Z</time>
      </trkpt>
      <trkpt lat="46.34437" lon="0.20492">
        <ele>103.2</ele>
        <time>2021-05-23T17:43:10Z</time>
      </trkpt>
      <trkpt lat="46.34437" lon="0.20492">
        <ele>103.2</ele>
        <time>2021-05-23T17:43:11Z</time>
      </trkpt>
      <trkpt lat="46.34438" lon="0.20492">
        <ele>103.2</ele>
        <time>2021-05-23T17:43:12Z</time>
      </trkpt>
      <trkpt lat="46.34439" lon="0.20492">
        <ele>103.1</ele>
        <time>2021-05-23T17:43:13Z</time>
      </trkpt>
      <trkpt lat="46.3444" lon="0.20492">
        <ele>103.2</ele>
        <time>2021-05-23T17:43:15Z</time>
      </trkpt>
      <trkpt lat="46.34441" lon="0.20492">
        <ele>103.2</ele>
        <time>2021-05-23T17:43:16Z</time>
      </trkpt>
      <trkpt lat="46.34441" lon="0.20493">
        <ele>103.2</ele>
        <time>2021-05-23T17:43:17Z</time>
      </trkpt>
      <trkpt lat="46.34442" lon="0.20494">
        <ele>103.2</ele>
        <time>2021-05-23T17:43:19Z</time>
      </trkpt>
      <trkpt lat="46.34443" lon="0.20495">
        <ele>103.2</ele>
        <time>2021-05-23T17:43:20Z</time>
      </trkpt>
      <trkpt lat="46.34444" lon="0.20497">
        <ele>103.2</ele>
        <time>2021-05-23T17:43:22Z</time>
      </trkpt>
      <trkpt lat="46.34445" lon="0.20497">
        <ele>103.2</ele>
        <time>2021-05-23T17:43:23Z</time>
      </trkpt>
      <trkpt lat="46.34446" lon="0.20498">
        <ele>103.2</ele>
        <time>2021-05-23T17:43:24Z</time>
      </trkpt>
      <trkpt lat="46.34448" lon="0.20498">
        <ele>103.2</ele>
        <time>2021-05-23T17:43:25Z</time>
      </trkpt>
      <trkpt lat="46.34448" lon="0.20499">
        <ele>103.2</ele>
        <time>2021-05-23T17:43:27Z</time>
      </trkpt>
      <trkpt lat="46.34449" lon="0.205">
        <ele>103.2</ele>
        <time>2021-05-23T17:43:28Z</time>
      </trkpt>
      <trkpt lat="46.3445" lon="0.205">
        <ele>103.1</ele>
        <time>2021-05-23T17:43:29Z</time>
      </trkpt>
      <trkpt lat="46.34452" lon="0.20501">
        <ele>103.1</ele>
        <time>2021-05-23T17:43:30Z</time>
      </trkpt>
      <trkpt lat="46.34452" lon="0.20501">
        <ele>103.1</ele>
        <time>2021-05-23T17:43:31Z</time>
      </trkpt>
      <trkpt lat="46.34453" lon="0.20501">
        <ele>103.1</ele>
        <time>2021-05-23T17:43:33Z</time>
      </trkpt>
      <trkpt lat="46.34454" lon="0.20502">
        <ele>103.1</ele>
        <time>2021-05-23T17:43:34Z</time>
      </trkpt>
      <trkpt lat="46.34454" lon="0.20502">
        <ele>103.1</ele>
        <time>2021-05-23T17:43:35Z</time>
      </trkpt>
      <trkpt lat="46.34454" lon="0.20503">
        <ele>103.1</ele>
        <time>2021-05-23T17:43:36Z</time>
      </trkpt>
      <trkpt lat="46.34455" lon="0.20503">
        <ele>103.1</ele>
        <time>2021-05-23T17:43:37Z</time>
      </trkpt>
      <trkpt lat="46.34455" lon="0.20504">
        <ele>103.1</ele>
        <time>2021-05-23T17:43:39Z</time>
      </trkpt>
      <trkpt lat="46.34455" lon="0.20505">
        <ele>103.1</ele>
        <time>2021-05-23T17:43:40Z</time>
      </trkpt>
      <trkpt lat="46.34456" lon="0.20506">
        <ele>103.1</ele>
        <time>2021-05-23T17:43:42Z</time>
      </trkpt>
      <trkpt lat="46.34456" lon="0.20507">
        <ele>103.1</ele>
        <time>2021-05-23T17:43:43Z</time>
      </trkpt>
      <trkpt lat="46.34456" lon="0.20508">
        <ele>103.1</ele>
        <time>2021-05-23T17:43:45Z</time>
      </trkpt>
      <trkpt lat="46.34457" lon="0.20508">
        <ele>103.1</ele>
        <time>2021-05-23T17:43:46Z</time>
      </trkpt>
      <trkpt lat="46.34457" lon="0.20509">
        <ele>103.1</ele>
        <time>2021-05-23T17:43:47Z</time>
      </trkpt>
      <trkpt lat="46.34458" lon="0.2051">
        <ele>103.1</ele>
        <time>2021-05-23T17:43:48Z</time>
      </trkpt>
      <trkpt lat="46.34458" lon="0.20512">
        <ele>103.1</ele>
        <time>2021-05-23T17:43:49Z</time>
      </trkpt>
      <trkpt lat="46.34458" lon="0.20514">
        <ele>103.2</ele>
        <time>2021-05-23T17:43:51Z</time>
      </trkpt>
      <trkpt lat="46.34458" lon="0.20515">
        <ele>103.2</ele>
        <time>2021-05-23T17:43:52Z</time>
      </trkpt>
      <trkpt lat="46.34458" lon="0.20515">
        <ele>103.2</ele>
        <time>2021-05-23T17:43:53Z</time>
      </trkpt>
      <trkpt lat="46.34459" lon="0.20517">
        <ele>103.2</ele>
        <time>2021-05-23T17:43:55Z</time>
      </trkpt>
      <trkpt lat="46.34459" lon="0.20517">
        <ele>103.2</ele>
        <time>2021-05-23T17:43:56Z</time>
      </trkpt>
      <trkpt lat="46.34459" lon="0.20518">
        <ele>103.3</ele>
        <time>2021-05-23T17:43:57Z</time>
      </trkpt>
      <trkpt lat="46.34458" lon="0.20519">
        <ele>103.3</ele>
        <time>2021-05-23T17:43:58Z</time>
      </trkpt>
      <trkpt lat="46.34458" lon="0.20521">
        <ele>103.3</ele>
        <time>2021-05-23T17:44:00Z</time>
      </trkpt>
      <trkpt lat="46.34458" lon="0.20522">
        <ele>103.3</ele>
        <time>2021-05-23T17:44:01Z</time>
      </trkpt>
      <trkpt lat="46.34457" lon="0.20523">
        <ele>103.4</ele>
        <time>2021-05-23T17:44:02Z</time>
      </trkpt>
      <trkpt lat="46.34457" lon="0.20524">
        <ele>103.4</ele>
        <time>2021-05-23T17:44:03Z</time>
      </trkpt>
      <trkpt lat="46.34456" lon="0.20525">
        <ele>103.4</ele>
        <time>2021-05-23T17:44:04Z</time>
      </trkpt>
      <trkpt lat="46.34455" lon="0.20526">
        <ele>103.5</ele>
        <time>2021-05-23T17:44:05Z</time>
      </trkpt>
      <trkpt lat="46.34455" lon="0.20526">
        <ele>103.5</ele>
        <time>2021-05-23T17:44:06Z</time>
      </trkpt>
      <trkpt lat="46.34453" lon="0.20527">
        <ele>103.6</ele>
        <time>2021-05-23T17:44:07Z</time>
      </trkpt>
      <trkpt lat="46.34452" lon="0.20527">
        <ele>103.7</ele>
        <time>2021-05-23T17:44:09Z</time>
      </trkpt>
      <trkpt lat="46.34451" lon="0.20528">
        <ele>103.7</ele>
        <time>2021-05-23T17:44:10Z</time>
      </trkpt>
      <trkpt lat="46.3445" lon="0.20529">
        <ele>103.7</ele>
        <time>2021-05-23T17:44:11Z</time>
      </trkpt>
      <trkpt lat="46.34448" lon="0.2053">
        <ele>103.7</ele>
        <time>2021-05-23T17:44:13Z</time>
      </trkpt>
      <trkpt lat="46.34447" lon="0.20531">
        <ele>103.9</ele>
        <time>2021-05-23T17:44:14Z</time>
      </trkpt>
      <trkpt lat="46.34445" lon="0.20533">
        <ele>103.9</ele>
        <time>2021-05-23T17:44:15Z</time>
      </trkpt>
      <trkpt lat="46.34444" lon="0.20533">
        <ele>103.9</ele>
        <time>2021-05-23T17:44:17Z</time>
      </trkpt>
      <trkpt lat="46.34444" lon="0.20534">
        <ele>104</ele>
        <time>2021-05-23T17:44:18Z</time>
      </trkpt>
      <trkpt lat="46.34443" lon="0.20535">
        <ele>104.1</ele>
        <time>2021-05-23T17:44:19Z</time>
      </trkpt>
      <trkpt lat="46.34442" lon="0.20536">
        <ele>104.1</ele>
        <time>2021-05-23T17:44:20Z</time>
      </trkpt>
      <trkpt lat="46.34441" lon="0.20537">
        <ele>104.1</ele>
        <time>2021-05-23T17:44:22Z</time>
      </trkpt>
      <trkpt lat="46.3444" lon="0.20538">
        <ele>104.1</ele>
        <time>2021-05-23T17:44:23Z</time>
      </trkpt>
      <trkpt lat="46.3444" lon="0.20539">
        <ele>104.2</ele>
        <time>2021-05-23T17:44:24Z</time>
      </trkpt>
      <trkpt lat="46.34439" lon="0.2054">
        <ele>104.2</ele>
        <time>2021-05-23T17:44:25Z</time>
      </trkpt>
      <trkpt lat="46.34438" lon="0.20541">
        <ele>104.2</ele>
        <time>2021-05-23T17:44:27Z</time>
      </trkpt>
      <trkpt lat="46.34438" lon="0.20542">
        <ele>104.2</ele>
        <time>2021-05-23T17:44:28Z</time>
      </trkpt>
      <trkpt lat="46.34437" lon="0.20544">
        <ele>104.3</ele>
        <time>2021-05-23T17:44:30Z</time>
      </trkpt>
      <trkpt lat="46.34438" lon="0.20544">
        <ele>104.3</ele>
        <time>2021-05-23T17:44:31Z</time>
      </trkpt>
      <trkpt lat="46.34438" lon="0.20545">
        <ele>104.3</ele>
        <time>2021-05-23T17:44:32Z</time>
      </trkpt>
      <trkpt lat="46.34439" lon="0.20546">
        <ele>104.3</ele>
        <time>2021-05-23T17:44:34Z</time>
      </trkpt>
      <trkpt lat="46.34439" lon="0.20548">
        <ele>104.3</ele>
        <time>2021-05-23T17:44:35Z</time>
      </trkpt>
      <trkpt lat="46.3444" lon="0.20548">
        <ele>104.4</ele>
        <time>2021-05-23T17:44:36Z</time>
      </trkpt>
      <trkpt lat="46.3444" lon="0.20549">
        <ele>104.4</ele>
        <time>2021-05-23T17:44:37Z</time>
      </trkpt>
      <trkpt lat="46.3444" lon="0.20551">
        <ele>104.4</ele>
        <time>2021-05-23T17:44:39Z</time>
      </trkpt>
      <trkpt lat="46.3444" lon="0.20552">
        <ele>104.4</ele>
        <time>2021-05-23T17:44:40Z</time>
      </trkpt>
      <trkpt lat="46.34441" lon="0.20553">
        <ele>104.5</ele>
        <time>2021-05-23T17:44:42Z</time>
      </trkpt>
      <trkpt lat="46.34441" lon="0.20553">
        <ele>104.5</ele>
        <time>2021-05-23T17:44:43Z</time>
      </trkpt>
      <trkpt lat="46.34441" lon="0.20553">
        <ele>104.5</ele>
        <time>2021-05-23T17:44:45Z</time>
      </trkpt>
      <trkpt lat="46.34441" lon="0.20553">
        <ele>104.5</ele>
        <time>2021-05-23T17:44:46Z</time>
      </trkpt>
      <trkpt lat="46.34441" lon="0.20553">
        <ele>104.5</ele>
        <time>2021-05-23T17:44:48Z</time>
      </trkpt>
      <trkpt lat="46.34441" lon="0.20553">
        <ele>104.5</ele>
        <time>2021-05-23T17:44:49Z</time>
      </trkpt>
      <trkpt lat="46.34441" lon="0.20553">
        <ele>104.5</ele>
        <time>2021-05-23T17:44:50Z</time>
      </trkpt>
      <trkpt lat="46.34441" lon="0.20552">
        <ele>104.5</ele>
        <time>2021-05-23T17:44:52Z</time>
      </trkpt>
      <trkpt lat="46.34441" lon="0.20553">
        <ele>104.5</ele>
        <time>2021-05-23T17:44:53Z</time>
      </trkpt>
      <trkpt lat="46.34441" lon="0.20553">
        <ele>104.5</ele>
        <time>2021-05-23T17:44:54Z</time>
      </trkpt>
      <trkpt lat="46.3444" lon="0.20554">
        <ele>104.5</ele>
        <time>2021-05-23T17:44:55Z</time>
      </trkpt>
      <trkpt lat="46.3444" lon="0.20554">
        <ele>104.5</ele>
        <time>2021-05-23T17:44:56Z</time>
      </trkpt>
      <trkpt lat="46.34439" lon="0.20554">
        <ele>104.5</ele>
        <time>2021-05-23T17:44:58Z</time>
      </trkpt>
      <trkpt lat="46.34438" lon="0.20555">
        <ele>104.5</ele>
        <time>2021-05-23T17:44:59Z</time>
      </trkpt>
      <trkpt lat="46.34437" lon="0.20556">
        <ele>104.5</ele>
        <time>2021-05-23T17:45:01Z</time>
      </trkpt>
      <trkpt lat="46.34436" lon="0.20558">
        <ele>104.6</ele>
        <time>2021-05-23T17:45:02Z</time>
      </trkpt>
      <trkpt lat="46.34436" lon="0.20559">
        <ele>104.6</ele>
        <time>2021-05-23T17:45:03Z</time>
      </trkpt>
      <trkpt lat="46.34435" lon="0.2056">
        <ele>104.6</ele>
        <time>2021-05-23T17:45:04Z</time>
      </trkpt>
      <trkpt lat="46.34434" lon="0.20562">
        <ele>104.7</ele>
        <time>2021-05-23T17:45:06Z</time>
      </trkpt>
      <trkpt lat="46.34434" lon="0.20563">
        <ele>104.7</ele>
        <time>2021-05-23T17:45:07Z</time>
      </trkpt>
      <trkpt lat="46.34433" lon="0.20564">
        <ele>104.7</ele>
        <time>2021-05-23T17:45:08Z</time>
      </trkpt>
      <trkpt lat="46.34432" lon="0.20565">
        <ele>104.7</ele>
        <time>2021-05-23T17:45:09Z</time>
      </trkpt>
      <trkpt lat="46.34431" lon="0.20567">
        <ele>104.9</ele>
        <time>2021-05-23T17:45:11Z</time>
      </trkpt>
      <trkpt lat="46.34431" lon="0.20568">
        <ele>104.9</ele>
        <time>2021-05-23T17:45:12Z</time>
      </trkpt>
      <trkpt lat="46.3443" lon="0.20569">
        <ele>104.9</ele>
        <time>2021-05-23T17:45:13Z</time>
      </trkpt>
      <trkpt lat="46.34429" lon="0.2057">
        <ele>105</ele>
        <time>2021-05-23T17:45:14Z</time>
      </trkpt>
      <trkpt lat="46.34428" lon="0.20572">
        <ele>105</ele>
        <time>2021-05-23T17:45:15Z</time>
      </trkpt>
      <trkpt lat="46.34427" lon="0.20573">
        <ele>105</ele>
        <time>2021-05-23T17:45:17Z</time>
      </trkpt>
      <trkpt lat="46.34426" lon="0.20574">
        <ele>105.1</ele>
        <time>2021-05-23T17:45:18Z</time>
      </trkpt>
      <trkpt lat="46.34425" lon="0.20576">
        <ele>105.1</ele>
        <time>2021-05-23T17:45:19Z</time>
      </trkpt>
      <trkpt lat="46.34425" lon="0.20577">
        <ele>105.1</ele>
        <time>2021-05-23T17:45:21Z</time>
      </trkpt>
      <trkpt lat="46.34424" lon="0.20579">
        <ele>105.2</ele>
        <time>2021-05-23T17:45:22Z</time>
      </trkpt>
      <trkpt lat="46.34424" lon="0.20583">
        <ele>105.2</ele>
        <time>2021-05-23T17:45:24Z</time>
      </trkpt>
      <trkpt lat="46.34423" lon="0.20584">
        <ele>105.2</ele>
        <time>2021-05-23T17:45:25Z</time>
      </trkpt>
      <trkpt lat="46.34423" lon="0.20585">
        <ele>105.3</ele>
        <time>2021-05-23T17:45:26Z</time>
      </trkpt>
      <trkpt lat="46.34423" lon="0.20587">
        <ele>105.3</ele>
        <time>2021-05-23T17:45:27Z</time>
      </trkpt>
      <trkpt lat="46.34422" lon="0.20589">
        <ele>105.3</ele>
        <time>2021-05-23T17:45:29Z</time>
      </trkpt>
      <trkpt lat="46.34421" lon="0.20592">
        <ele>105.4</ele>
        <time>2021-05-23T17:45:30Z</time>
      </trkpt>
      <trkpt lat="46.34421" lon="0.20593">
        <ele>105.4</ele>
        <time>2021-05-23T17:45:31Z</time>
      </trkpt>
      <trkpt lat="46.3442" lon="0.20596">
        <ele>105.4</ele>
        <time>2021-05-23T17:45:33Z</time>
      </trkpt>
      <trkpt lat="46.34419" lon="0.20597">
        <ele>105.4</ele>
        <time>2021-05-23T17:45:34Z</time>
      </trkpt>
      <trkpt lat="46.34419" lon="0.20599">
        <ele>105.4</ele>
        <time>2021-05-23T17:45:35Z</time>
      </trkpt>
      <trkpt lat="46.34418" lon="0.206">
        <ele>105.4</ele>
        <time>2021-05-23T17:45:37Z</time>
      </trkpt>
      <trkpt lat="46.34417" lon="0.20601">
        <ele>105.4</ele>
        <time>2021-05-23T17:45:38Z</time>
      </trkpt>
      <trkpt lat="46.34415" lon="0.20604">
        <ele>105.4</ele>
        <time>2021-05-23T17:45:40Z</time>
      </trkpt>
      <trkpt lat="46.34414" lon="0.20604">
        <ele>105.4</ele>
        <time>2021-05-23T17:45:41Z</time>
      </trkpt>
      <trkpt lat="46.34413" lon="0.20605">
        <ele>105.4</ele>
        <time>2021-05-23T17:45:42Z</time>
      </trkpt>
      <trkpt lat="46.34412" lon="0.20606">
        <ele>105.4</ele>
        <time>2021-05-23T17:45:43Z</time>
      </trkpt>
      <trkpt lat="46.3441" lon="0.20607">
        <ele>105.4</ele>
        <time>2021-05-23T17:45:45Z</time>
      </trkpt>
      <trkpt lat="46.3441" lon="0.20608">
        <ele>105.4</ele>
        <time>2021-05-23T17:45:46Z</time>
      </trkpt>
      <trkpt lat="46.34409" lon="0.20608">
        <ele>105.4</ele>
        <time>2021-05-23T17:45:47Z</time>
      </trkpt>
      <trkpt lat="46.34407" lon="0.20609">
        <ele>105.4</ele>
        <time>2021-05-23T17:45:48Z</time>
      </trkpt>
      <trkpt lat="46.34406" lon="0.20609">
        <ele>105.4</ele>
        <time>2021-05-23T17:45:49Z</time>
      </trkpt>
      <trkpt lat="46.34405" lon="0.20609">
        <ele>105.3</ele>
        <time>2021-05-23T17:45:50Z</time>
      </trkpt>
      <trkpt lat="46.34404" lon="0.20609">
        <ele>105.3</ele>
        <time>2021-05-23T17:45:51Z</time>
      </trkpt>
      <trkpt lat="46.34402" lon="0.20609">
        <ele>105.3</ele>
        <time>2021-05-23T17:45:53Z</time>
      </trkpt>
      <trkpt lat="46.34401" lon="0.20609">
        <ele>105.3</ele>
        <time>2021-05-23T17:45:54Z</time>
      </trkpt>
      <trkpt lat="46.34399" lon="0.2061">
        <ele>105.2</ele>
        <time>2021-05-23T17:45:55Z</time>
      </trkpt>
      <trkpt lat="46.34398" lon="0.2061">
        <ele>105.2</ele>
        <time>2021-05-23T17:45:56Z</time>
      </trkpt>
      <trkpt lat="46.34398" lon="0.20611">
        <ele>105.2</ele>
        <time>2021-05-23T17:45:57Z</time>
      </trkpt>
      <trkpt lat="46.34396" lon="0.20612">
        <ele>105.2</ele>
        <time>2021-05-23T17:45:58Z</time>
      </trkpt>
      <trkpt lat="46.34395" lon="0.20612">
        <ele>105.2</ele>
        <time>2021-05-23T17:45:59Z</time>
      </trkpt>
      <trkpt lat="46.34394" lon="0.20613">
        <ele>105.2</ele>
        <time>2021-05-23T17:46:00Z</time>
      </trkpt>
      <trkpt lat="46.34393" lon="0.20614">
        <ele>105.1</ele>
        <time>2021-05-23T17:46:01Z</time>
      </trkpt>
      <trkpt lat="46.34392" lon="0.20615">
        <ele>105.1</ele>
        <time>2021-05-23T17:46:02Z</time>
      </trkpt>
      <trkpt lat="46.34391" lon="0.20615">
        <ele>105.1</ele>
        <time>2021-05-23T17:46:04Z</time>
      </trkpt>
      <trkpt lat="46.3439" lon="0.20616">
        <ele>105</ele>
        <time>2021-05-23T17:46:05Z</time>
      </trkpt>
      <trkpt lat="46.34388" lon="0.20617">
        <ele>105</ele>
        <time>2021-05-23T17:46:06Z</time>
      </trkpt>
      <trkpt lat="46.34387" lon="0.20617">
        <ele>105</ele>
        <time>2021-05-23T17:46:07Z</time>
      </trkpt>
      <trkpt lat="46.34387" lon="0.20617">
        <ele>105</ele>
        <time>2021-05-23T17:46:08Z</time>
      </trkpt>
      <trkpt lat="46.34385" lon="0.20618">
        <ele>105</ele>
        <time>2021-05-23T17:46:09Z</time>
      </trkpt>
      <trkpt lat="46.34383" lon="0.20618">
        <ele>104.9</ele>
        <time>2021-05-23T17:46:10Z</time>
      </trkpt>
      <trkpt lat="46.34382" lon="0.20618">
        <ele>104.9</ele>
        <time>2021-05-23T17:46:12Z</time>
      </trkpt>
      <trkpt lat="46.3438" lon="0.20619">
        <ele>104.8</ele>
        <time>2021-05-23T17:46:13Z</time>
      </trkpt>
      <trkpt lat="46.34378" lon="0.20621">
        <ele>104.7</ele>
        <time>2021-05-23T17:46:15Z</time>
      </trkpt>
      <trkpt lat="46.34377" lon="0.20622">
        <ele>104.7</ele>
        <time>2021-05-23T17:46:16Z</time>
      </trkpt>
      <trkpt lat="46.34376" lon="0.20623">
        <ele>104.7</ele>
        <time>2021-05-23T17:46:17Z</time>
      </trkpt>
      <trkpt lat="46.34376" lon="0.20623">
        <ele>104.6</ele>
        <time>2021-05-23T17:46:18Z</time>
      </trkpt>
      <trkpt lat="46.34375" lon="0.20624">
        <ele>104.6</ele>
        <time>2021-05-23T17:46:19Z</time>
      </trkpt>
      <trkpt lat="46.34374" lon="0.20626">
        <ele>104.6</ele>
        <time>2021-05-23T17:46:21Z</time>
      </trkpt>
      <trkpt lat="46.34373" lon="0.20627">
        <ele>104.6</ele>
        <time>2021-05-23T17:46:22Z</time>
      </trkpt>
      <trkpt lat="46.34373" lon="0.20628">
        <ele>104.5</ele>
        <time>2021-05-23T17:46:23Z</time>
      </trkpt>
      <trkpt lat="46.34372" lon="0.2063">
        <ele>104.5</ele>
        <time>2021-05-23T17:46:25Z</time>
      </trkpt>
      <trkpt lat="46.34371" lon="0.20631">
        <ele>104.5</ele>
        <time>2021-05-23T17:46:27Z</time>
      </trkpt>
      <trkpt lat="46.3437" lon="0.20632">
        <ele>104.5</ele>
        <time>2021-05-23T17:46:28Z</time>
      </trkpt>
      <trkpt lat="46.34369" lon="0.20633">
        <ele>104.4</ele>
        <time>2021-05-23T17:46:29Z</time>
      </trkpt>
      <trkpt lat="46.34368" lon="0.20635">
        <ele>104.4</ele>
        <time>2021-05-23T17:46:30Z</time>
      </trkpt>
      <trkpt lat="46.34368" lon="0.20635">
        <ele>104.4</ele>
        <time>2021-05-23T17:46:31Z</time>
      </trkpt>
      <trkpt lat="46.34368" lon="0.20637">
        <ele>104.4</ele>
        <time>2021-05-23T17:46:32Z</time>
      </trkpt>
      <trkpt lat="46.34367" lon="0.20638">
        <ele>104.4</ele>
        <time>2021-05-23T17:46:34Z</time>
      </trkpt>
      <trkpt lat="46.34366" lon="0.20639">
        <ele>104.3</ele>
        <time>2021-05-23T17:46:35Z</time>
      </trkpt>
      <trkpt lat="46.34366" lon="0.20641">
        <ele>104.3</ele>
        <time>2021-05-23T17:46:36Z</time>
      </trkpt>
      <trkpt lat="46.34365" lon="0.20642">
        <ele>104.3</ele>
        <time>2021-05-23T17:46:37Z</time>
      </trkpt>
      <trkpt lat="46.34365" lon="0.20643">
        <ele>104.3</ele>
        <time>2021-05-23T17:46:38Z</time>
      </trkpt>
      <trkpt lat="46.34364" lon="0.20644">
        <ele>104.3</ele>
        <time>2021-05-23T17:46:39Z</time>
      </trkpt>
      <trkpt lat="46.34364" lon="0.20646">
        <ele>104.2</ele>
        <time>2021-05-23T17:46:40Z</time>
      </trkpt>
      <trkpt lat="46.34363" lon="0.20648">
        <ele>104.3</ele>
        <time>2021-05-23T17:46:42Z</time>
      </trkpt>
      <trkpt lat="46.34363" lon="0.20649">
        <ele>104.3</ele>
        <time>2021-05-23T17:46:43Z</time>
      </trkpt>
      <trkpt lat="46.34362" lon="0.20651">
        <ele>104.3</ele>
        <time>2021-05-23T17:46:44Z</time>
      </trkpt>
      <trkpt lat="46.34362" lon="0.20654">
        <ele>104.3</ele>
        <time>2021-05-23T17:46:46Z</time>
      </trkpt>
      <trkpt lat="46.34361" lon="0.20656">
        <ele>104.3</ele>
        <time>2021-05-23T17:46:47Z</time>
      </trkpt>
      <trkpt lat="46.3436" lon="0.20657">
        <ele>104.3</ele>
        <time>2021-05-23T17:46:48Z</time>
      </trkpt>
      <trkpt lat="46.34359" lon="0.20657">
        <ele>104.3</ele>
        <time>2021-05-23T17:46:49Z</time>
      </trkpt>
      <trkpt lat="46.34359" lon="0.20656">
        <ele>104.3</ele>
        <time>2021-05-23T17:46:50Z</time>
      </trkpt>
      <trkpt lat="46.34358" lon="0.20654">
        <ele>104.2</ele>
        <time>2021-05-23T17:46:52Z</time>
      </trkpt>
      <trkpt lat="46.34358" lon="0.20653">
        <ele>104.2</ele>
        <time>2021-05-23T17:46:53Z</time>
      </trkpt>
      <trkpt lat="46.34359" lon="0.20652">
        <ele>104.2</ele>
        <time>2021-05-23T17:46:54Z</time>
      </trkpt>
      <trkpt lat="46.34359" lon="0.20651">
        <ele>104.2</ele>
        <time>2021-05-23T17:46:55Z</time>
      </trkpt>
      <trkpt lat="46.34359" lon="0.2065">
        <ele>104.2</ele>
        <time>2021-05-23T17:46:57Z</time>
      </trkpt>
      <trkpt lat="46.34359" lon="0.20649">
        <ele>104.2</ele>
        <time>2021-05-23T17:46:58Z</time>
      </trkpt>
      <trkpt lat="46.34359" lon="0.20648">
        <ele>104.2</ele>
        <time>2021-05-23T17:46:59Z</time>
      </trkpt>
      <trkpt lat="46.34359" lon="0.20647">
        <ele>104.2</ele>
        <time>2021-05-23T17:47:00Z</time>
      </trkpt>
      <trkpt lat="46.34359" lon="0.20646">
        <ele>104.2</ele>
        <time>2021-05-23T17:47:01Z</time>
      </trkpt>
      <trkpt lat="46.34359" lon="0.20645">
        <ele>104.2</ele>
        <time>2021-05-23T17:47:02Z</time>
      </trkpt>
      <trkpt lat="46.34358" lon="0.20642">
        <ele>104.2</ele>
        <time>2021-05-23T17:47:03Z</time>
      </trkpt>
      <trkpt lat="46.34358" lon="0.20641">
        <ele>104.1</ele>
        <time>2021-05-23T17:47:05Z</time>
      </trkpt>
      <trkpt lat="46.34358" lon="0.2064">
        <ele>104.1</ele>
        <time>2021-05-23T17:47:06Z</time>
      </trkpt>
      <trkpt lat="46.34358" lon="0.20639">
        <ele>104</ele>
        <time>2021-05-23T17:47:07Z</time>
      </trkpt>
      <trkpt lat="46.34357" lon="0.20636">
        <ele>104</ele>
        <time>2021-05-23T17:47:08Z</time>
      </trkpt>
      <trkpt lat="46.34357" lon="0.20635">
        <ele>104</ele>
        <time>2021-05-23T17:47:10Z</time>
      </trkpt>
      <trkpt lat="46.34356" lon="0.20633">
        <ele>104</ele>
        <time>2021-05-23T17:47:11Z</time>
      </trkpt>
      <trkpt lat="46.34356" lon="0.20632">
        <ele>104</ele>
        <time>2021-05-23T17:47:12Z</time>
      </trkpt>
      <trkpt lat="46.34355" lon="0.2063">
        <ele>103.9</ele>
        <time>2021-05-23T17:47:13Z</time>
      </trkpt>
      <trkpt lat="46.34355" lon="0.20629">
        <ele>103.8</ele>
        <time>2021-05-23T17:47:14Z</time>
      </trkpt>
      <trkpt lat="46.34354" lon="0.20628">
        <ele>103.8</ele>
        <time>2021-05-23T17:47:15Z</time>
      </trkpt>
      <trkpt lat="46.34354" lon="0.20628">
        <ele>103.8</ele>
        <time>2021-05-23T17:47:17Z</time>
      </trkpt>
      <trkpt lat="46.34353" lon="0.20627">
        <ele>103.8</ele>
        <time>2021-05-23T17:47:18Z</time>
      </trkpt>
      <trkpt lat="46.34353" lon="0.20626">
        <ele>103.8</ele>
        <time>2021-05-23T17:47:19Z</time>
      </trkpt>
      <trkpt lat="46.34352" lon="0.20624">
        <ele>103.8</ele>
        <time>2021-05-23T17:47:20Z</time>
      </trkpt>
      <trkpt lat="46.34352" lon="0.20623">
        <ele>103.7</ele>
        <time>2021-05-23T17:47:21Z</time>
      </trkpt>
      <trkpt lat="46.34351" lon="0.20622">
        <ele>103.7</ele>
        <time>2021-05-23T17:47:22Z</time>
      </trkpt>
      <trkpt lat="46.34351" lon="0.20621">
        <ele>103.7</ele>
        <time>2021-05-23T17:47:23Z</time>
      </trkpt>
      <trkpt lat="46.34351" lon="0.2062">
        <ele>103.6</ele>
        <time>2021-05-23T17:47:24Z</time>
      </trkpt>
      <trkpt lat="46.34351" lon="0.20618">
        <ele>103.6</ele>
        <time>2021-05-23T17:47:25Z</time>
      </trkpt>
      <trkpt lat="46.3435" lon="0.20616">
        <ele>103.6</ele>
        <time>2021-05-23T17:47:26Z</time>
      </trkpt>
      <trkpt lat="46.3435" lon="0.20613">
        <ele>103.6</ele>
        <time>2021-05-23T17:47:28Z</time>
      </trkpt>
      <trkpt lat="46.34349" lon="0.20609">
        <ele>103.5</ele>
        <time>2021-05-23T17:47:29Z</time>
      </trkpt>
      <trkpt lat="46.34349" lon="0.20608">
        <ele>103.4</ele>
        <time>2021-05-23T17:47:30Z</time>
      </trkpt>
      <trkpt lat="46.34348" lon="0.20605">
        <ele>103.4</ele>
        <time>2021-05-23T17:47:31Z</time>
      </trkpt>
      <trkpt lat="46.34347" lon="0.20603">
        <ele>103.3</ele>
        <time>2021-05-23T17:47:32Z</time>
      </trkpt>
      <trkpt lat="46.34346" lon="0.20601">
        <ele>103.3</ele>
        <time>2021-05-23T17:47:33Z</time>
      </trkpt>
      <trkpt lat="46.34346" lon="0.206">
        <ele>103.2</ele>
        <time>2021-05-23T17:47:34Z</time>
      </trkpt>
      <trkpt lat="46.34344" lon="0.20597">
        <ele>103.2</ele>
        <time>2021-05-23T17:47:36Z</time>
      </trkpt>
      <trkpt lat="46.34343" lon="0.20596">
        <ele>103.1</ele>
        <time>2021-05-23T17:47:37Z</time>
      </trkpt>
      <trkpt lat="46.34341" lon="0.20595">
        <ele>103</ele>
        <time>2021-05-23T17:47:39Z</time>
      </trkpt>
      <trkpt lat="46.3434" lon="0.20594">
        <ele>103</ele>
        <time>2021-05-23T17:47:40Z</time>
      </trkpt>
      <trkpt lat="46.34339" lon="0.20594">
        <ele>102.9</ele>
        <time>2021-05-23T17:47:41Z</time>
      </trkpt>
      <trkpt lat="46.34339" lon="0.20594">
        <ele>102.9</ele>
        <time>2021-05-23T17:47:42Z</time>
      </trkpt>
      <trkpt lat="46.34338" lon="0.20593">
        <ele>102.9</ele>
        <time>2021-05-23T17:47:43Z</time>
      </trkpt>
      <trkpt lat="46.34337" lon="0.20592">
        <ele>102.8</ele>
        <time>2021-05-23T17:47:45Z</time>
      </trkpt>
      <trkpt lat="46.34335" lon="0.20591">
        <ele>102.8</ele>
        <time>2021-05-23T17:47:46Z</time>
      </trkpt>
      <trkpt lat="46.34335" lon="0.20591">
        <ele>102.8</ele>
        <time>2021-05-23T17:47:48Z</time>
      </trkpt>
      <trkpt lat="46.34334" lon="0.2059">
        <ele>102.7</ele>
        <time>2021-05-23T17:47:49Z</time>
      </trkpt>
      <trkpt lat="46.34334" lon="0.20589">
        <ele>102.7</ele>
        <time>2021-05-23T17:47:50Z</time>
      </trkpt>
      <trkpt lat="46.34334" lon="0.20588">
        <ele>102.7</ele>
        <time>2021-05-23T17:47:52Z</time>
      </trkpt>
      <trkpt lat="46.34334" lon="0.20587">
        <ele>102.7</ele>
        <time>2021-05-23T17:47:53Z</time>
      </trkpt>
      <trkpt lat="46.34334" lon="0.20586">
        <ele>102.8</ele>
        <time>2021-05-23T17:47:55Z</time>
      </trkpt>
      <trkpt lat="46.34334" lon="0.20585">
        <ele>102.8</ele>
        <time>2021-05-23T17:47:57Z</time>
      </trkpt>
      <trkpt lat="46.34334" lon="0.20585">
        <ele>102.8</ele>
        <time>2021-05-23T17:47:58Z</time>
      </trkpt>
      <trkpt lat="46.34334" lon="0.20585">
        <ele>102.8</ele>
        <time>2021-05-23T17:48:00Z</time>
      </trkpt>
      <trkpt lat="46.34334" lon="0.20585">
        <ele>102.8</ele>
        <time>2021-05-23T17:48:01Z</time>
      </trkpt>
      <trkpt lat="46.34334" lon="0.20585">
        <ele>102.8</ele>
        <time>2021-05-23T17:48:03Z</time>
      </trkpt>
      <trkpt lat="46.34334" lon="0.20584">
        <ele>102.8</ele>
        <time>2021-05-23T17:48:06Z</time>
      </trkpt>
      <trkpt lat="46.34335" lon="0.20584">
        <ele>102.8</ele>
        <time>2021-05-23T17:48:07Z</time>
      </trkpt>
      <trkpt lat="46.34334" lon="0.20584">
        <ele>102.8</ele>
        <time>2021-05-23T17:48:09Z</time>
      </trkpt>
      <trkpt lat="46.34335" lon="0.20584">
        <ele>102.8</ele>
        <time>2021-05-23T17:48:11Z</time>
      </trkpt>
      <trkpt lat="46.34334" lon="0.20584">
        <ele>102.8</ele>
        <time>2021-05-23T17:48:13Z</time>
      </trkpt>
      <trkpt lat="46.34334" lon="0.20584">
        <ele>102.7</ele>
        <time>2021-05-23T17:48:15Z</time>
      </trkpt>
      <trkpt lat="46.34334" lon="0.20584">
        <ele>102.7</ele>
        <time>2021-05-23T17:48:16Z</time>
      </trkpt>
      <trkpt lat="46.34334" lon="0.20584">
        <ele>102.7</ele>
        <time>2021-05-23T17:48:17Z</time>
      </trkpt>
      <trkpt lat="46.34334" lon="0.20584">
        <ele>102.7</ele>
        <time>2021-05-23T17:48:19Z</time>
      </trkpt>
      <trkpt lat="46.34334" lon="0.20584">
        <ele>102.7</ele>
        <time>2021-05-23T17:48:21Z</time>
      </trkpt>
      <trkpt lat="46.34334" lon="0.20584">
        <ele>102.7</ele>
        <time>2021-05-23T17:48:23Z</time>
      </trkpt>
      <trkpt lat="46.34334" lon="0.20584">
        <ele>102.7</ele>
        <time>2021-05-23T17:48:25Z</time>
      </trkpt>
      <trkpt lat="46.34334" lon="0.20584">
        <ele>102.7</ele>
        <time>2021-05-23T17:48:26Z</time>
      </trkpt>
      <trkpt lat="46.34334" lon="0.20583">
        <ele>102.8</ele>
        <time>2021-05-23T17:48:28Z</time>
      </trkpt>
      <trkpt lat="46.34335" lon="0.20583">
        <ele>102.8</ele>
        <time>2021-05-23T17:48:29Z</time>
      </trkpt>
      <trkpt lat="46.34335" lon="0.20583">
        <ele>102.8</ele>
        <time>2021-05-23T17:48:30Z</time>
      </trkpt>
      <trkpt lat="46.34335" lon="0.20583">
        <ele>102.8</ele>
        <time>2021-05-23T17:48:31Z</time>
      </trkpt>
      <trkpt lat="46.34335" lon="0.20583">
        <ele>102.8</ele>
        <time>2021-05-23T17:48:33Z</time>
      </trkpt>
      <trkpt lat="46.34334" lon="0.20584">
        <ele>102.8</ele>
        <time>2021-05-23T17:48:35Z</time>
      </trkpt>
      <trkpt lat="46.34334" lon="0.20584">
        <ele>102.7</ele>
        <time>2021-05-23T17:48:37Z</time>
      </trkpt>
      <trkpt lat="46.34334" lon="0.20584">
        <ele>102.7</ele>
        <time>2021-05-23T17:48:39Z</time>
      </trkpt>
      <trkpt lat="46.34334" lon="0.20584">
        <ele>102.7</ele>
        <time>2021-05-23T17:48:40Z</time>
      </trkpt>
      <trkpt lat="46.34334" lon="0.20584">
        <ele>102.7</ele>
        <time>2021-05-23T17:48:42Z</time>
      </trkpt>
      <trkpt lat="46.34334" lon="0.20584">
        <ele>102.7</ele>
        <time>2021-05-23T17:48:43Z</time>
      </trkpt>
      <trkpt lat="46.34335" lon="0.20583">
        <ele>102.8</ele>
        <time>2021-05-23T17:48:44Z</time>
      </trkpt>
      <trkpt lat="46.34335" lon="0.20583">
        <ele>102.8</ele>
        <time>2021-05-23T17:48:46Z</time>
      </trkpt>
      <trkpt lat="46.34335" lon="0.20583">
        <ele>102.8</ele>
        <time>2021-05-23T17:48:47Z</time>
      </trkpt>
      <trkpt lat="46.34334" lon="0.20583">
        <ele>102.8</ele>
        <time>2021-05-23T17:48:49Z</time>
      </trkpt>
      <trkpt lat="46.34334" lon="0.20583">
        <ele>102.7</ele>
        <time>2021-05-23T17:48:51Z</time>
      </trkpt>
      <trkpt lat="46.34334" lon="0.20583">
        <ele>102.7</ele>
        <time>2021-05-23T17:48:53Z</time>
      </trkpt>
      <trkpt lat="46.34334" lon="0.20584">
        <ele>102.7</ele>
        <time>2021-05-23T17:48:54Z</time>
      </trkpt>
      <trkpt lat="46.34333" lon="0.20584">
        <ele>102.7</ele>
        <time>2021-05-23T17:48:56Z</time>
      </trkpt>
      <trkpt lat="46.34333" lon="0.20585">
        <ele>102.7</ele>
        <time>2021-05-23T17:48:57Z</time>
      </trkpt>
      <trkpt lat="46.34332" lon="0.20585">
        <ele>102.7</ele>
        <time>2021-05-23T17:48:58Z</time>
      </trkpt>
      <trkpt lat="46.34332" lon="0.20584">
        <ele>102.7</ele>
        <time>2021-05-23T17:48:59Z</time>
      </trkpt>
      <trkpt lat="46.34331" lon="0.20583">
        <ele>102.6</ele>
        <time>2021-05-23T17:49:00Z</time>
      </trkpt>
      <trkpt lat="46.34331" lon="0.20583">
        <ele>102.6</ele>
        <time>2021-05-23T17:49:02Z</time>
      </trkpt>
      <trkpt lat="46.3433" lon="0.20582">
        <ele>102.6</ele>
        <time>2021-05-23T17:49:03Z</time>
      </trkpt>
      <trkpt lat="46.3433" lon="0.20581">
        <ele>102.6</ele>
        <time>2021-05-23T17:49:04Z</time>
      </trkpt>
      <trkpt lat="46.34328" lon="0.20579">
        <ele>102.5</ele>
        <time>2021-05-23T17:49:06Z</time>
      </trkpt>
      <trkpt lat="46.34327" lon="0.20578">
        <ele>102.5</ele>
        <time>2021-05-23T17:49:08Z</time>
      </trkpt>
      <trkpt lat="46.34326" lon="0.20577">
        <ele>102.5</ele>
        <time>2021-05-23T17:49:09Z</time>
      </trkpt>
      <trkpt lat="46.34325" lon="0.20577">
        <ele>102.4</ele>
        <time>2021-05-23T17:49:10Z</time>
      </trkpt>
      <trkpt lat="46.34324" lon="0.20576">
        <ele>102.4</ele>
        <time>2021-05-23T17:49:12Z</time>
      </trkpt>
      <trkpt lat="46.34323" lon="0.20576">
        <ele>102.4</ele>
        <time>2021-05-23T17:49:13Z</time>
      </trkpt>
      <trkpt lat="46.34323" lon="0.20576">
        <ele>102.4</ele>
        <time>2021-05-23T17:49:14Z</time>
      </trkpt>
      <trkpt lat="46.34323" lon="0.20576">
        <ele>102.4</ele>
        <time>2021-05-23T17:49:15Z</time>
      </trkpt>
      <trkpt lat="46.34322" lon="0.20576">
        <ele>102.4</ele>
        <time>2021-05-23T17:49:16Z</time>
      </trkpt>
      <trkpt lat="46.34323" lon="0.20576">
        <ele>102.4</ele>
        <time>2021-05-23T17:49:17Z</time>
      </trkpt>
      <trkpt lat="46.34323" lon="0.20575">
        <ele>102.4</ele>
        <time>2021-05-23T17:49:19Z</time>
      </trkpt>
      <trkpt lat="46.34323" lon="0.20575">
        <ele>102.4</ele>
        <time>2021-05-23T17:49:21Z</time>
      </trkpt>
      <trkpt lat="46.34324" lon="0.20575">
        <ele>102.4</ele>
        <time>2021-05-23T17:49:22Z</time>
      </trkpt>
      <trkpt lat="46.34324" lon="0.20574">
        <ele>102.4</ele>
        <time>2021-05-23T17:49:24Z</time>
      </trkpt>
      <trkpt lat="46.34324" lon="0.20574">
        <ele>102.4</ele>
        <time>2021-05-23T17:49:25Z</time>
      </trkpt>
      <trkpt lat="46.34324" lon="0.20574">
        <ele>102.4</ele>
        <time>2021-05-23T17:49:27Z</time>
      </trkpt>
      <trkpt lat="46.34324" lon="0.20574">
        <ele>102.4</ele>
        <time>2021-05-23T17:49:28Z</time>
      </trkpt>
      <trkpt lat="46.34324" lon="0.20574">
        <ele>102.4</ele>
        <time>2021-05-23T17:49:30Z</time>
      </trkpt>
      <trkpt lat="46.34324" lon="0.20574">
        <ele>102.4</ele>
        <time>2021-05-23T17:49:31Z</time>
      </trkpt>
      <trkpt lat="46.34324" lon="0.20574">
        <ele>102.4</ele>
        <time>2021-05-23T17:49:33Z</time>
      </trkpt>
      <trkpt lat="46.34325" lon="0.20573">
        <ele>102.4</ele>
        <time>2021-05-23T17:49:35Z</time>
      </trkpt>
      <trkpt lat="46.34325" lon="0.20573">
        <ele>102.4</ele>
        <time>2021-05-23T17:49:36Z</time>
      </trkpt>
      <trkpt lat="46.34325" lon="0.20573">
        <ele>102.4</ele>
        <time>2021-05-23T17:49:37Z</time>
      </trkpt>
      <trkpt lat="46.34325" lon="0.20573">
        <ele>102.4</ele>
        <time>2021-05-23T17:49:39Z</time>
      </trkpt>
      <trkpt lat="46.34325" lon="0.20573">
        <ele>102.4</ele>
        <time>2021-05-23T17:49:40Z</time>
      </trkpt>
      <trkpt lat="46.34325" lon="0.20573">
        <ele>102.4</ele>
        <time>2021-05-23T17:49:41Z</time>
      </trkpt>
      <trkpt lat="46.34325" lon="0.20573">
        <ele>102.4</ele>
        <time>2021-05-23T17:49:43Z</time>
      </trkpt>
      <trkpt lat="46.34325" lon="0.20573">
        <ele>102.4</ele>
        <time>2021-05-23T17:49:45Z</time>
      </trkpt>
      <trkpt lat="46.34325" lon="0.20573">
        <ele>102.4</ele>
        <time>2021-05-23T17:49:46Z</time>
      </trkpt>
      <trkpt lat="46.34325" lon="0.20573">
        <ele>102.4</ele>
        <time>2021-05-23T17:49:48Z</time>
      </trkpt>
      <trkpt lat="46.34325" lon="0.20573">
        <ele>102.4</ele>
        <time>2021-05-23T17:49:49Z</time>
      </trkpt>
      <trkpt lat="46.34324" lon="0.20573">
        <ele>102.4</ele>
        <time>2021-05-23T17:49:51Z</time>
      </trkpt>
      <trkpt lat="46.34324" lon="0.20573">
        <ele>102.4</ele>
        <time>2021-05-23T17:49:52Z</time>
      </trkpt>
      <trkpt lat="46.34324" lon="0.20573">
        <ele>102.4</ele>
        <time>2021-05-23T17:49:53Z</time>
      </trkpt>
      <trkpt lat="46.34325" lon="0.20573">
        <ele>102.4</ele>
        <time>2021-05-23T17:49:55Z</time>
      </trkpt>
      <trkpt lat="46.34325" lon="0.20573">
        <ele>102.4</ele>
        <time>2021-05-23T17:49:57Z</time>
      </trkpt>
      <trkpt lat="46.34324" lon="0.20573">
        <ele>102.4</ele>
        <time>2021-05-23T17:49:58Z</time>
      </trkpt>
      <trkpt lat="46.34323" lon="0.20574">
        <ele>102.4</ele>
        <time>2021-05-23T17:50:00Z</time>
      </trkpt>
      <trkpt lat="46.34322" lon="0.20574">
        <ele>102.4</ele>
        <time>2021-05-23T17:50:01Z</time>
      </trkpt>
      <trkpt lat="46.3432" lon="0.20574">
        <ele>102.4</ele>
        <time>2021-05-23T17:50:03Z</time>
      </trkpt>
      <trkpt lat="46.3432" lon="0.20574">
        <ele>102.4</ele>
        <time>2021-05-23T17:50:04Z</time>
      </trkpt>
      <trkpt lat="46.3432" lon="0.20575">
        <ele>102.4</ele>
        <time>2021-05-23T17:50:06Z</time>
      </trkpt>
      <trkpt lat="46.34319" lon="0.20575">
        <ele>102.3</ele>
        <time>2021-05-23T17:50:07Z</time>
      </trkpt>
      <trkpt lat="46.34319" lon="0.20576">
        <ele>102.3</ele>
        <time>2021-05-23T17:50:09Z</time>
      </trkpt>
      <trkpt lat="46.34319" lon="0.20576">
        <ele>102.3</ele>
        <time>2021-05-23T17:50:10Z</time>
      </trkpt>
      <trkpt lat="46.34318" lon="0.20577">
        <ele>102.3</ele>
        <time>2021-05-23T17:50:12Z</time>
      </trkpt>
      <trkpt lat="46.34318" lon="0.20577">
        <ele>102.3</ele>
        <time>2021-05-23T17:50:13Z</time>
      </trkpt>
      <trkpt lat="46.34318" lon="0.20578">
        <ele>102.3</ele>
        <time>2021-05-23T17:50:15Z</time>
      </trkpt>
      <trkpt lat="46.34318" lon="0.20578">
        <ele>102.3</ele>
        <time>2021-05-23T17:50:16Z</time>
      </trkpt>
      <trkpt lat="46.34318" lon="0.20578">
        <ele>102.3</ele>
        <time>2021-05-23T17:50:18Z</time>
      </trkpt>
      <trkpt lat="46.34318" lon="0.20578">
        <ele>102.3</ele>
        <time>2021-05-23T17:50:19Z</time>
      </trkpt>
      <trkpt lat="46.34318" lon="0.20578">
        <ele>102.3</ele>
        <time>2021-05-23T17:50:21Z</time>
      </trkpt>
      <trkpt lat="46.34318" lon="0.20578">
        <ele>102.4</ele>
        <time>2021-05-23T17:50:22Z</time>
      </trkpt>
      <trkpt lat="46.34318" lon="0.20578">
        <ele>102.4</ele>
        <time>2021-05-23T17:50:23Z</time>
      </trkpt>
      <trkpt lat="46.34318" lon="0.20578">
        <ele>102.4</ele>
        <time>2021-05-23T17:50:24Z</time>
      </trkpt>
      <trkpt lat="46.34318" lon="0.20578">
        <ele>102.4</ele>
        <time>2021-05-23T17:50:26Z</time>
      </trkpt>
      <trkpt lat="46.34318" lon="0.20578">
        <ele>102.4</ele>
        <time>2021-05-23T17:50:28Z</time>
      </trkpt>
      <trkpt lat="46.34318" lon="0.20578">
        <ele>102.4</ele>
        <time>2021-05-23T17:50:29Z</time>
      </trkpt>
      <trkpt lat="46.34319" lon="0.20577">
        <ele>102.3</ele>
        <time>2021-05-23T17:50:31Z</time>
      </trkpt>
      <trkpt lat="46.34319" lon="0.20575">
        <ele>102.3</ele>
        <time>2021-05-23T17:50:33Z</time>
      </trkpt>
      <trkpt lat="46.34319" lon="0.20575">
        <ele>102.3</ele>
        <time>2021-05-23T17:50:34Z</time>
      </trkpt>
      <trkpt lat="46.34319" lon="0.20574">
        <ele>102.3</ele>
        <time>2021-05-23T17:50:35Z</time>
      </trkpt>
      <trkpt lat="46.3432" lon="0.20574">
        <ele>102.4</ele>
        <time>2021-05-23T17:50:37Z</time>
      </trkpt>
      <trkpt lat="46.3432" lon="0.20574">
        <ele>102.4</ele>
        <time>2021-05-23T17:50:38Z</time>
      </trkpt>
      <trkpt lat="46.3432" lon="0.20574">
        <ele>102.4</ele>
        <time>2021-05-23T17:50:39Z</time>
      </trkpt>
      <trkpt lat="46.3432" lon="0.20574">
        <ele>102.4</ele>
        <time>2021-05-23T17:50:41Z</time>
      </trkpt>
      <trkpt lat="46.34321" lon="0.20575">
        <ele>102.4</ele>
        <time>2021-05-23T17:50:43Z</time>
      </trkpt>
      <trkpt lat="46.34322" lon="0.20576">
        <ele>102.4</ele>
        <time>2021-05-23T17:50:44Z</time>
      </trkpt>
      <trkpt lat="46.34322" lon="0.20577">
        <ele>102.4</ele>
        <time>2021-05-23T17:50:45Z</time>
      </trkpt>
      <trkpt lat="46.34323" lon="0.20578">
        <ele>102.4</ele>
        <time>2021-05-23T17:50:46Z</time>
      </trkpt>
      <trkpt lat="46.34323" lon="0.20579">
        <ele>102.4</ele>
        <time>2021-05-23T17:50:47Z</time>
      </trkpt>
      <trkpt lat="46.34324" lon="0.20579">
        <ele>102.4</ele>
        <time>2021-05-23T17:50:49Z</time>
      </trkpt>
      <trkpt lat="46.34324" lon="0.20579">
        <ele>102.4</ele>
        <time>2021-05-23T17:50:50Z</time>
      </trkpt>
      <trkpt lat="46.34325" lon="0.2058">
        <ele>102.4</ele>
        <time>2021-05-23T17:50:51Z</time>
      </trkpt>
      <trkpt lat="46.34325" lon="0.20581">
        <ele>102.4</ele>
        <time>2021-05-23T17:50:52Z</time>
      </trkpt>
      <trkpt lat="46.34326" lon="0.20581">
        <ele>102.5</ele>
        <time>2021-05-23T17:50:53Z</time>
      </trkpt>
      <trkpt lat="46.34327" lon="0.20582">
        <ele>102.5</ele>
        <time>2021-05-23T17:50:54Z</time>
      </trkpt>
      <trkpt lat="46.34328" lon="0.20583">
        <ele>102.5</ele>
        <time>2021-05-23T17:50:56Z</time>
      </trkpt>
      <trkpt lat="46.3433" lon="0.20585">
        <ele>102.6</ele>
        <time>2021-05-23T17:50:57Z</time>
      </trkpt>
      <trkpt lat="46.34332" lon="0.20587">
        <ele>102.7</ele>
        <time>2021-05-23T17:50:59Z</time>
      </trkpt>
      <trkpt lat="46.34332" lon="0.20588">
        <ele>102.7</ele>
        <time>2021-05-23T17:51:00Z</time>
      </trkpt>
      <trkpt lat="46.34334" lon="0.20589">
        <ele>102.7</ele>
        <time>2021-05-23T17:51:02Z</time>
      </trkpt>
      <trkpt lat="46.34334" lon="0.20589">
        <ele>102.7</ele>
        <time>2021-05-23T17:51:03Z</time>
      </trkpt>
      <trkpt lat="46.34333" lon="0.20589">
        <ele>102.7</ele>
        <time>2021-05-23T17:51:04Z</time>
      </trkpt>
      <trkpt lat="46.34333" lon="0.20589">
        <ele>102.7</ele>
        <time>2021-05-23T17:51:05Z</time>
      </trkpt>
      <trkpt lat="46.34333" lon="0.2059">
        <ele>102.7</ele>
        <time>2021-05-23T17:51:07Z</time>
      </trkpt>
      <trkpt lat="46.34333" lon="0.2059">
        <ele>102.7</ele>
        <time>2021-05-23T17:51:08Z</time>
      </trkpt>
      <trkpt lat="46.34332" lon="0.20591">
        <ele>102.7</ele>
        <time>2021-05-23T17:51:09Z</time>
      </trkpt>
      <trkpt lat="46.34332" lon="0.20592">
        <ele>102.7</ele>
        <time>2021-05-23T17:51:10Z</time>
      </trkpt>
      <trkpt lat="46.34332" lon="0.20593">
        <ele>102.7</ele>
        <time>2021-05-23T17:51:12Z</time>
      </trkpt>
      <trkpt lat="46.34333" lon="0.20593">
        <ele>102.7</ele>
        <time>2021-05-23T17:51:13Z</time>
      </trkpt>
      <trkpt lat="46.34333" lon="0.20594">
        <ele>102.7</ele>
        <time>2021-05-23T17:51:14Z</time>
      </trkpt>
      <trkpt lat="46.34333" lon="0.20594">
        <ele>102.7</ele>
        <time>2021-05-23T17:51:16Z</time>
      </trkpt>
      <trkpt lat="46.34333" lon="0.20594">
        <ele>102.7</ele>
        <time>2021-05-23T17:51:18Z</time>
      </trkpt>
      <trkpt lat="46.34333" lon="0.20595">
        <ele>102.7</ele>
        <time>2021-05-23T17:51:19Z</time>
      </trkpt>
      <trkpt lat="46.34334" lon="0.20595">
        <ele>102.8</ele>
        <time>2021-05-23T17:51:21Z</time>
      </trkpt>
      <trkpt lat="46.34334" lon="0.20595">
        <ele>102.8</ele>
        <time>2021-05-23T17:51:23Z</time>
      </trkpt>
      <trkpt lat="46.34334" lon="0.20595">
        <ele>102.9</ele>
        <time>2021-05-23T17:51:24Z</time>
      </trkpt>
      <trkpt lat="46.34334" lon="0.20596">
        <ele>102.9</ele>
        <time>2021-05-23T17:51:25Z</time>
      </trkpt>
      <trkpt lat="46.34334" lon="0.20598">
        <ele>102.8</ele>
        <time>2021-05-23T17:51:27Z</time>
      </trkpt>
      <trkpt lat="46.34334" lon="0.20599">
        <ele>102.9</ele>
        <time>2021-05-23T17:51:28Z</time>
      </trkpt>
      <trkpt lat="46.34335" lon="0.206">
        <ele>102.9</ele>
        <time>2021-05-23T17:51:29Z</time>
      </trkpt>
      <trkpt lat="46.34335" lon="0.20601">
        <ele>102.9</ele>
        <time>2021-05-23T17:51:30Z</time>
      </trkpt>
      <trkpt lat="46.34335" lon="0.20603">
        <ele>102.9</ele>
        <time>2021-05-23T17:51:32Z</time>
      </trkpt>
      <trkpt lat="46.34336" lon="0.20604">
        <ele>103</ele>
        <time>2021-05-23T17:51:33Z</time>
      </trkpt>
      <trkpt lat="46.34336" lon="0.20605">
        <ele>103</ele>
        <time>2021-05-23T17:51:35Z</time>
      </trkpt>
      <trkpt lat="46.34336" lon="0.20606">
        <ele>103</ele>
        <time>2021-05-23T17:51:37Z</time>
      </trkpt>
      <trkpt lat="46.34336" lon="0.20607">
        <ele>103</ele>
        <time>2021-05-23T17:51:38Z</time>
      </trkpt>
      <trkpt lat="46.34336" lon="0.20609">
        <ele>103</ele>
        <time>2021-05-23T17:51:40Z</time>
      </trkpt>
      <trkpt lat="46.34335" lon="0.2061">
        <ele>103</ele>
        <time>2021-05-23T17:51:42Z</time>
      </trkpt>
      <trkpt lat="46.34335" lon="0.20611">
        <ele>103</ele>
        <time>2021-05-23T17:51:43Z</time>
      </trkpt>
      <trkpt lat="46.34334" lon="0.20612">
        <ele>102.9</ele>
        <time>2021-05-23T17:51:44Z</time>
      </trkpt>
      <trkpt lat="46.34334" lon="0.20613">
        <ele>103</ele>
        <time>2021-05-23T17:51:45Z</time>
      </trkpt>
      <trkpt lat="46.34333" lon="0.20615">
        <ele>103</ele>
        <time>2021-05-23T17:51:47Z</time>
      </trkpt>
      <trkpt lat="46.34333" lon="0.20617">
        <ele>103</ele>
        <time>2021-05-23T17:51:48Z</time>
      </trkpt>
      <trkpt lat="46.34333" lon="0.20618">
        <ele>103</ele>
        <time>2021-05-23T17:51:49Z</time>
      </trkpt>
      <trkpt lat="46.34332" lon="0.20621">
        <ele>103.1</ele>
        <time>2021-05-23T17:51:50Z</time>
      </trkpt>
      <trkpt lat="46.34332" lon="0.20622">
        <ele>103.1</ele>
        <time>2021-05-23T17:51:52Z</time>
      </trkpt>
      <trkpt lat="46.34332" lon="0.20623">
        <ele>103.1</ele>
        <time>2021-05-23T17:51:53Z</time>
      </trkpt>
      <trkpt lat="46.34331" lon="0.20626">
        <ele>103.1</ele>
        <time>2021-05-23T17:51:55Z</time>
      </trkpt>
      <trkpt lat="46.3433" lon="0.20628">
        <ele>103.1</ele>
        <time>2021-05-23T17:51:57Z</time>
      </trkpt>
      <trkpt lat="46.3433" lon="0.2063">
        <ele>103.2</ele>
        <time>2021-05-23T17:51:58Z</time>
      </trkpt>
      <trkpt lat="46.3433" lon="0.20631">
        <ele>103.2</ele>
        <time>2021-05-23T17:51:59Z</time>
      </trkpt>
      <trkpt lat="46.3433" lon="0.20633">
        <ele>103.2</ele>
        <time>2021-05-23T17:52:00Z</time>
      </trkpt>
      <trkpt lat="46.3433" lon="0.20635">
        <ele>103.2</ele>
        <time>2021-05-23T17:52:02Z</time>
      </trkpt>
      <trkpt lat="46.3433" lon="0.20637">
        <ele>103.2</ele>
        <time>2021-05-23T17:52:03Z</time>
      </trkpt>
      <trkpt lat="46.34331" lon="0.20638">
        <ele>103.3</ele>
        <time>2021-05-23T17:52:04Z</time>
      </trkpt>
      <trkpt lat="46.34331" lon="0.2064">
        <ele>103.3</ele>
        <time>2021-05-23T17:52:06Z</time>
      </trkpt>
      <trkpt lat="46.34332" lon="0.20642">
        <ele>103.4</ele>
        <time>2021-05-23T17:52:07Z</time>
      </trkpt>
      <trkpt lat="46.34332" lon="0.20644">
        <ele>103.5</ele>
        <time>2021-05-23T17:52:08Z</time>
      </trkpt>
      <trkpt lat="46.34333" lon="0.20645">
        <ele>103.5</ele>
        <time>2021-05-23T17:52:09Z</time>
      </trkpt>
      <trkpt lat="46.34333" lon="0.20649">
        <ele>103.5</ele>
        <time>2021-05-23T17:52:12Z</time>
      </trkpt>
      <trkpt lat="46.34334" lon="0.2065">
        <ele>103.5</ele>
        <time>2021-05-23T17:52:13Z</time>
      </trkpt>
      <trkpt lat="46.34335" lon="0.20651">
        <ele>103.6</ele>
        <time>2021-05-23T17:52:15Z</time>
      </trkpt>
      <trkpt lat="46.34335" lon="0.20651">
        <ele>103.7</ele>
        <time>2021-05-23T17:52:16Z</time>
      </trkpt>
      <trkpt lat="46.34336" lon="0.20652">
        <ele>103.7</ele>
        <time>2021-05-23T17:52:17Z</time>
      </trkpt>
      <trkpt lat="46.34336" lon="0.20653">
        <ele>103.7</ele>
        <time>2021-05-23T17:52:19Z</time>
      </trkpt>
      <trkpt lat="46.34336" lon="0.20654">
        <ele>103.7</ele>
        <time>2021-05-23T17:52:21Z</time>
      </trkpt>
      <trkpt lat="46.34336" lon="0.20655">
        <ele>103.7</ele>
        <time>2021-05-23T17:52:22Z</time>
      </trkpt>
      <trkpt lat="46.34337" lon="0.20656">
        <ele>103.7</ele>
        <time>2021-05-23T17:52:23Z</time>
      </trkpt>
      <trkpt lat="46.34337" lon="0.20658">
        <ele>103.7</ele>
        <time>2021-05-23T17:52:24Z</time>
      </trkpt>
      <trkpt lat="46.34337" lon="0.20659">
        <ele>103.8</ele>
        <time>2021-05-23T17:52:26Z</time>
      </trkpt>
      <trkpt lat="46.34338" lon="0.20661">
        <ele>103.9</ele>
        <time>2021-05-23T17:52:27Z</time>
      </trkpt>
      <trkpt lat="46.34339" lon="0.20662">
        <ele>103.9</ele>
        <time>2021-05-23T17:52:28Z</time>
      </trkpt>
      <trkpt lat="46.34339" lon="0.20664">
        <ele>103.9</ele>
        <time>2021-05-23T17:52:29Z</time>
      </trkpt>
      <trkpt lat="46.3434" lon="0.20665">
        <ele>103.9</ele>
        <time>2021-05-23T17:52:30Z</time>
      </trkpt>
      <trkpt lat="46.3434" lon="0.20666">
        <ele>103.9</ele>
        <time>2021-05-23T17:52:31Z</time>
      </trkpt>
      <trkpt lat="46.34341" lon="0.20666">
        <ele>104</ele>
        <time>2021-05-23T17:52:33Z</time>
      </trkpt>
      <trkpt lat="46.34341" lon="0.20667">
        <ele>104</ele>
        <time>2021-05-23T17:52:34Z</time>
      </trkpt>
      <trkpt lat="46.34341" lon="0.20668">
        <ele>104</ele>
        <time>2021-05-23T17:52:35Z</time>
      </trkpt>
      <trkpt lat="46.34342" lon="0.20669">
        <ele>104.1</ele>
        <time>2021-05-23T17:52:36Z</time>
      </trkpt>
      <trkpt lat="46.34343" lon="0.20671">
        <ele>104.1</ele>
        <time>2021-05-23T17:52:37Z</time>
      </trkpt>
      <trkpt lat="46.34344" lon="0.20673">
        <ele>104.2</ele>
        <time>2021-05-23T17:52:39Z</time>
      </trkpt>
      <trkpt lat="46.34345" lon="0.20675">
        <ele>104.2</ele>
        <time>2021-05-23T17:52:40Z</time>
      </trkpt>
      <trkpt lat="46.34347" lon="0.20676">
        <ele>104.3</ele>
        <time>2021-05-23T17:52:42Z</time>
      </trkpt>
      <trkpt lat="46.34348" lon="0.20677">
        <ele>104.4</ele>
        <time>2021-05-23T17:52:43Z</time>
      </trkpt>
      <trkpt lat="46.34349" lon="0.20677">
        <ele>104.4</ele>
        <time>2021-05-23T17:52:44Z</time>
      </trkpt>
      <trkpt lat="46.34351" lon="0.20676">
        <ele>104.3</ele>
        <time>2021-05-23T17:52:46Z</time>
      </trkpt>
      <trkpt lat="46.34352" lon="0.20675">
        <ele>104.3</ele>
        <time>2021-05-23T17:52:47Z</time>
      </trkpt>
      <trkpt lat="46.34353" lon="0.20674">
        <ele>104.4</ele>
        <time>2021-05-23T17:52:49Z</time>
      </trkpt>
      <trkpt lat="46.34354" lon="0.20673">
        <ele>104.4</ele>
        <time>2021-05-23T17:52:50Z</time>
      </trkpt>
      <trkpt lat="46.34354" lon="0.20672">
        <ele>104.4</ele>
        <time>2021-05-23T17:52:51Z</time>
      </trkpt>
      <trkpt lat="46.34356" lon="0.20673">
        <ele>104.5</ele>
        <time>2021-05-23T17:52:53Z</time>
      </trkpt>
      <trkpt lat="46.34356" lon="0.20673">
        <ele>104.5</ele>
        <time>2021-05-23T17:52:55Z</time>
      </trkpt>
      <trkpt lat="46.34356" lon="0.20673">
        <ele>104.5</ele>
        <time>2021-05-23T17:52:57Z</time>
      </trkpt>
      <trkpt lat="46.34355" lon="0.20673">
        <ele>104.4</ele>
        <time>2021-05-23T17:52:59Z</time>
      </trkpt>
      <trkpt lat="46.34355" lon="0.20673">
        <ele>104.4</ele>
        <time>2021-05-23T17:53:00Z</time>
      </trkpt>
      <trkpt lat="46.34355" lon="0.20673">
        <ele>104.4</ele>
        <time>2021-05-23T17:53:02Z</time>
      </trkpt>
      <trkpt lat="46.34355" lon="0.20672">
        <ele>104.4</ele>
        <time>2021-05-23T17:53:04Z</time>
      </trkpt>
      <trkpt lat="46.34355" lon="0.20672">
        <ele>104.4</ele>
        <time>2021-05-23T17:53:05Z</time>
      </trkpt>
      <trkpt lat="46.34355" lon="0.20672">
        <ele>104.4</ele>
        <time>2021-05-23T17:53:07Z</time>
      </trkpt>
      <trkpt lat="46.34355" lon="0.20673">
        <ele>104.4</ele>
        <time>2021-05-23T17:53:09Z</time>
      </trkpt>
      <trkpt lat="46.34354" lon="0.20673">
        <ele>104.4</ele>
        <time>2021-05-23T17:53:11Z</time>
      </trkpt>
      <trkpt lat="46.34354" lon="0.20673">
        <ele>104.4</ele>
        <time>2021-05-23T17:53:12Z</time>
      </trkpt>
      <trkpt lat="46.34354" lon="0.20673">
        <ele>104.4</ele>
        <time>2021-05-23T17:53:13Z</time>
      </trkpt>
      <trkpt lat="46.34354" lon="0.20673">
        <ele>104.4</ele>
        <time>2021-05-23T17:53:15Z</time>
      </trkpt>
      <trkpt lat="46.34354" lon="0.20673">
        <ele>104.4</ele>
        <time>2021-05-23T17:53:16Z</time>
      </trkpt>
      <trkpt lat="46.34354" lon="0.20673">
        <ele>104.4</ele>
        <time>2021-05-23T17:53:17Z</time>
      </trkpt>
      <trkpt lat="46.34354" lon="0.20673">
        <ele>104.4</ele>
        <time>2021-05-23T17:53:19Z</time>
      </trkpt>
      <trkpt lat="46.34354" lon="0.20673">
        <ele>104.4</ele>
        <time>2021-05-23T17:53:21Z</time>
      </trkpt>
      <trkpt lat="46.34355" lon="0.20673">
        <ele>104.4</ele>
        <time>2021-05-23T17:53:22Z</time>
      </trkpt>
      <trkpt lat="46.34355" lon="0.20673">
        <ele>104.4</ele>
        <time>2021-05-23T17:53:23Z</time>
      </trkpt>
      <trkpt lat="46.34355" lon="0.20674">
        <ele>104.4</ele>
        <time>2021-05-23T17:53:24Z</time>
      </trkpt>
      <trkpt lat="46.34355" lon="0.20674">
        <ele>104.4</ele>
        <time>2021-05-23T17:53:26Z</time>
      </trkpt>
      <trkpt lat="46.34355" lon="0.20674">
        <ele>104.4</ele>
        <time>2021-05-23T17:53:27Z</time>
      </trkpt>
      <trkpt lat="46.34355" lon="0.20674">
        <ele>104.4</ele>
        <time>2021-05-23T17:53:28Z</time>
      </trkpt>
      <trkpt lat="46.34355" lon="0.20674">
        <ele>104.4</ele>
        <time>2021-05-23T17:53:30Z</time>
      </trkpt>
      <trkpt lat="46.34355" lon="0.20674">
        <ele>104.4</ele>
        <time>2021-05-23T17:53:31Z</time>
      </trkpt>
      <trkpt lat="46.34355" lon="0.20674">
        <ele>104.4</ele>
        <time>2021-05-23T17:53:33Z</time>
      </trkpt>
      <trkpt lat="46.34355" lon="0.20674">
        <ele>104.4</ele>
        <time>2021-05-23T17:53:35Z</time>
      </trkpt>
      <trkpt lat="46.34355" lon="0.20673">
        <ele>104.4</ele>
        <time>2021-05-23T17:53:37Z</time>
      </trkpt>
      <trkpt lat="46.34355" lon="0.20674">
        <ele>104.4</ele>
        <time>2021-05-23T17:53:39Z</time>
      </trkpt>
      <trkpt lat="46.34356" lon="0.20676">
        <ele>104.5</ele>
        <time>2021-05-23T17:53:41Z</time>
      </trkpt>
      <trkpt lat="46.34357" lon="0.20678">
        <ele>104.6</ele>
        <time>2021-05-23T17:53:43Z</time>
      </trkpt>
      <trkpt lat="46.34358" lon="0.20679">
        <ele>104.6</ele>
        <time>2021-05-23T17:53:44Z</time>
      </trkpt>
      <trkpt lat="46.34359" lon="0.20681">
        <ele>104.6</ele>
        <time>2021-05-23T17:53:46Z</time>
      </trkpt>
      <trkpt lat="46.34359" lon="0.20681">
        <ele>104.7</ele>
        <time>2021-05-23T17:53:47Z</time>
      </trkpt>
      <trkpt lat="46.34359" lon="0.20682">
        <ele>104.7</ele>
        <time>2021-05-23T17:53:49Z</time>
      </trkpt>
      <trkpt lat="46.3436" lon="0.20683">
        <ele>104.7</ele>
        <time>2021-05-23T17:53:51Z</time>
      </trkpt>
      <trkpt lat="46.3436" lon="0.20683">
        <ele>104.7</ele>
        <time>2021-05-23T17:53:53Z</time>
      </trkpt>
      <trkpt lat="46.3436" lon="0.20683">
        <ele>104.7</ele>
        <time>2021-05-23T17:53:54Z</time>
      </trkpt>
      <trkpt lat="46.3436" lon="0.20684">
        <ele>104.7</ele>
        <time>2021-05-23T17:53:55Z</time>
      </trkpt>
      <trkpt lat="46.34361" lon="0.20684">
        <ele>104.7</ele>
        <time>2021-05-23T17:53:57Z</time>
      </trkpt>
      <trkpt lat="46.34367" lon="0.20683">
        <ele>104.9</ele>
        <time>2021-05-23T17:53:59Z</time>
      </trkpt>
      <trkpt lat="46.34369" lon="0.20683">
        <ele>104.9</ele>
        <time>2021-05-23T17:54:00Z</time>
      </trkpt>
      <trkpt lat="46.3437" lon="0.20684">
        <ele>105</ele>
        <time>2021-05-23T17:54:01Z</time>
      </trkpt>
      <trkpt lat="46.34371" lon="0.20684">
        <ele>105</ele>
        <time>2021-05-23T17:54:03Z</time>
      </trkpt>
      <trkpt lat="46.34371" lon="0.20684">
        <ele>105</ele>
        <time>2021-05-23T17:54:04Z</time>
      </trkpt>
      <trkpt lat="46.34371" lon="0.20684">
        <ele>105</ele>
        <time>2021-05-23T17:54:05Z</time>
      </trkpt>
      <trkpt lat="46.34371" lon="0.20684">
        <ele>105</ele>
        <time>2021-05-23T17:54:07Z</time>
      </trkpt>
      <trkpt lat="46.34373" lon="0.20687">
        <ele>105.1</ele>
        <time>2021-05-23T17:54:09Z</time>
      </trkpt>
      <trkpt lat="46.34374" lon="0.20687">
        <ele>105.1</ele>
        <time>2021-05-23T17:54:10Z</time>
      </trkpt>
      <trkpt lat="46.34375" lon="0.20689">
        <ele>105.1</ele>
        <time>2021-05-23T17:54:12Z</time>
      </trkpt>
      <trkpt lat="46.34375" lon="0.2069">
        <ele>105.3</ele>
        <time>2021-05-23T17:54:13Z</time>
      </trkpt>
      <trkpt lat="46.34375" lon="0.20691">
        <ele>105.3</ele>
        <time>2021-05-23T17:54:15Z</time>
      </trkpt>
      <trkpt lat="46.34375" lon="0.2069">
        <ele>105.3</ele>
        <time>2021-05-23T17:54:17Z</time>
      </trkpt>
      <trkpt lat="46.34374" lon="0.2069">
        <ele>105.3</ele>
        <time>2021-05-23T17:54:18Z</time>
      </trkpt>
      <trkpt lat="46.34375" lon="0.20689">
        <ele>105.1</ele>
        <time>2021-05-23T17:54:20Z</time>
      </trkpt>
      <trkpt lat="46.34375" lon="0.2069">
        <ele>105.3</ele>
        <time>2021-05-23T17:54:21Z</time>
      </trkpt>
      <trkpt lat="46.34375" lon="0.2069">
        <ele>105.3</ele>
        <time>2021-05-23T17:54:22Z</time>
      </trkpt>
      <trkpt lat="46.34376" lon="0.2069">
        <ele>105.3</ele>
        <time>2021-05-23T17:54:24Z</time>
      </trkpt>
      <trkpt lat="46.34376" lon="0.2069">
        <ele>105.3</ele>
        <time>2021-05-23T17:54:25Z</time>
      </trkpt>
      <trkpt lat="46.34376" lon="0.2069">
        <ele>105.3</ele>
        <time>2021-05-23T17:54:27Z</time>
      </trkpt>
      <trkpt lat="46.34376" lon="0.2069">
        <ele>105.3</ele>
        <time>2021-05-23T17:54:28Z</time>
      </trkpt>
      <trkpt lat="46.34376" lon="0.2069">
        <ele>105.3</ele>
        <time>2021-05-23T17:54:29Z</time>
      </trkpt>
      <trkpt lat="46.34376" lon="0.2069">
        <ele>105.3</ele>
        <time>2021-05-23T17:54:31Z</time>
      </trkpt>
      <trkpt lat="46.34376" lon="0.2069">
        <ele>105.3</ele>
        <time>2021-05-23T17:54:33Z</time>
      </trkpt>
      <trkpt lat="46.34376" lon="0.2069">
        <ele>105.3</ele>
        <time>2021-05-23T17:54:34Z</time>
      </trkpt>
      <trkpt lat="46.34376" lon="0.2069">
        <ele>105.3</ele>
        <time>2021-05-23T17:54:35Z</time>
      </trkpt>
      <trkpt lat="46.34377" lon="0.2069">
        <ele>105.3</ele>
        <time>2021-05-23T17:54:36Z</time>
      </trkpt>
      <trkpt lat="46.34377" lon="0.2069">
        <ele>105.3</ele>
        <time>2021-05-23T17:54:37Z</time>
      </trkpt>
      <trkpt lat="46.34377" lon="0.2069">
        <ele>105.3</ele>
        <time>2021-05-23T17:54:39Z</time>
      </trkpt>
      <trkpt lat="46.34377" lon="0.2069">
        <ele>105.3</ele>
        <time>2021-05-23T17:54:41Z</time>
      </trkpt>
      <trkpt lat="46.34376" lon="0.20691">
        <ele>105.3</ele>
        <time>2021-05-23T17:54:43Z</time>
      </trkpt>
      <trkpt lat="46.34376" lon="0.20691">
        <ele>105.3</ele>
        <time>2021-05-23T17:54:45Z</time>
      </trkpt>
      <trkpt lat="46.34376" lon="0.20691">
        <ele>105.3</ele>
        <time>2021-05-23T17:54:47Z</time>
      </trkpt>
      <trkpt lat="46.34376" lon="0.20691">
        <ele>105.3</ele>
        <time>2021-05-23T17:54:49Z</time>
      </trkpt>
      <trkpt lat="46.34376" lon="0.20691">
        <ele>105.3</ele>
        <time>2021-05-23T17:54:51Z</time>
      </trkpt>
      <trkpt lat="46.34376" lon="0.20691">
        <ele>105.3</ele>
        <time>2021-05-23T17:54:53Z</time>
      </trkpt>
      <trkpt lat="46.34376" lon="0.20691">
        <ele>105.3</ele>
        <time>2021-05-23T17:54:54Z</time>
      </trkpt>
      <trkpt lat="46.34373" lon="0.20687">
        <ele>105.1</ele>
        <time>2021-05-23T17:54:55Z</time>
      </trkpt>
      <trkpt lat="46.3437" lon="0.20683">
        <ele>105</ele>
        <time>2021-05-23T17:54:57Z</time>
      </trkpt>
      <trkpt lat="46.34369" lon="0.20682">
        <ele>104.9</ele>
        <time>2021-05-23T17:54:58Z</time>
      </trkpt>
      <trkpt lat="46.34369" lon="0.20682">
        <ele>104.9</ele>
        <time>2021-05-23T17:55:00Z</time>
      </trkpt>
      <trkpt lat="46.34369" lon="0.20682">
        <ele>104.9</ele>
        <time>2021-05-23T17:55:01Z</time>
      </trkpt>
      <trkpt lat="46.34369" lon="0.20682">
        <ele>104.9</ele>
        <time>2021-05-23T17:55:03Z</time>
      </trkpt>
      <trkpt lat="46.34369" lon="0.20682">
        <ele>104.9</ele>
        <time>2021-05-23T17:55:04Z</time>
      </trkpt>
      <trkpt lat="46.34369" lon="0.20682">
        <ele>104.9</ele>
        <time>2021-05-23T17:55:05Z</time>
      </trkpt>
      <trkpt lat="46.34369" lon="0.20682">
        <ele>104.9</ele>
        <time>2021-05-23T17:55:07Z</time>
      </trkpt>
      <trkpt lat="46.34369" lon="0.20682">
        <ele>104.9</ele>
        <time>2021-05-23T17:55:09Z</time>
      </trkpt>
      <trkpt lat="46.34369" lon="0.20682">
        <ele>104.9</ele>
        <time>2021-05-23T17:55:10Z</time>
      </trkpt>
      <trkpt lat="46.34369" lon="0.20682">
        <ele>104.9</ele>
        <time>2021-05-23T17:55:11Z</time>
      </trkpt>
      <trkpt lat="46.34369" lon="0.20682">
        <ele>104.9</ele>
        <time>2021-05-23T17:55:12Z</time>
      </trkpt>
      <trkpt lat="46.34369" lon="0.20682">
        <ele>104.9</ele>
        <time>2021-05-23T17:55:13Z</time>
      </trkpt>
      <trkpt lat="46.34369" lon="0.20682">
        <ele>104.9</ele>
        <time>2021-05-23T17:55:15Z</time>
      </trkpt>
      <trkpt lat="46.34369" lon="0.20682">
        <ele>104.9</ele>
        <time>2021-05-23T17:55:17Z</time>
      </trkpt>
      <trkpt lat="46.34369" lon="0.20682">
        <ele>104.9</ele>
        <time>2021-05-23T17:55:19Z</time>
      </trkpt>
      <trkpt lat="46.34369" lon="0.20682">
        <ele>104.9</ele>
        <time>2021-05-23T17:55:21Z</time>
      </trkpt>
      <trkpt lat="46.34369" lon="0.20682">
        <ele>104.9</ele>
        <time>2021-05-23T17:55:23Z</time>
      </trkpt>
      <trkpt lat="46.34369" lon="0.20682">
        <ele>104.9</ele>
        <time>2021-05-23T17:55:24Z</time>
      </trkpt>
      <trkpt lat="46.34369" lon="0.20682">
        <ele>104.9</ele>
        <time>2021-05-23T17:55:25Z</time>
      </trkpt>
      <trkpt lat="46.34369" lon="0.20682">
        <ele>104.9</ele>
        <time>2021-05-23T17:55:27Z</time>
      </trkpt>
      <trkpt lat="46.34369" lon="0.20682">
        <ele>104.9</ele>
        <time>2021-05-23T17:55:29Z</time>
      </trkpt>
      <trkpt lat="46.34369" lon="0.20682">
        <ele>104.9</ele>
        <time>2021-05-23T17:55:30Z</time>
      </trkpt>
      <trkpt lat="46.34369" lon="0.20682">
        <ele>104.9</ele>
        <time>2021-05-23T17:55:31Z</time>
      </trkpt>
      <trkpt lat="46.34369" lon="0.20682">
        <ele>104.9</ele>
        <time>2021-05-23T17:55:33Z</time>
      </trkpt>
      <trkpt lat="46.34369" lon="0.20682">
        <ele>104.9</ele>
        <time>2021-05-23T17:55:35Z</time>
      </trkpt>
      <trkpt lat="46.34369" lon="0.20682">
        <ele>104.9</ele>
        <time>2021-05-23T17:55:37Z</time>
      </trkpt>
      <trkpt lat="46.34369" lon="0.20682">
        <ele>104.9</ele>
        <time>2021-05-23T17:55:39Z</time>
      </trkpt>
      <trkpt lat="46.34369" lon="0.20682">
        <ele>104.9</ele>
        <time>2021-05-23T17:55:40Z</time>
      </trkpt>
      <trkpt lat="46.34369" lon="0.20681">
        <ele>104.9</ele>
        <time>2021-05-23T17:55:42Z</time>
      </trkpt>
      <trkpt lat="46.34368" lon="0.20681">
        <ele>104.9</ele>
        <time>2021-05-23T17:55:44Z</time>
      </trkpt>
      <trkpt lat="46.34368" lon="0.20681">
        <ele>104.9</ele>
        <time>2021-05-23T17:55:45Z</time>
      </trkpt>
      <trkpt lat="46.34368" lon="0.20682">
        <ele>104.9</ele>
        <time>2021-05-23T17:55:47Z</time>
      </trkpt>
      <trkpt lat="46.34368" lon="0.20682">
        <ele>104.9</ele>
        <time>2021-05-23T17:55:48Z</time>
      </trkpt>
      <trkpt lat="46.34366" lon="0.20681">
        <ele>104.8</ele>
        <time>2021-05-23T17:55:50Z</time>
      </trkpt>
      <trkpt lat="46.34365" lon="0.20681">
        <ele>104.7</ele>
        <time>2021-05-23T17:55:51Z</time>
      </trkpt>
      <trkpt lat="46.34363" lon="0.2068">
        <ele>104.7</ele>
        <time>2021-05-23T17:55:52Z</time>
      </trkpt>
      <trkpt lat="46.34361" lon="0.2068">
        <ele>104.7</ele>
        <time>2021-05-23T17:55:53Z</time>
      </trkpt>
      <trkpt lat="46.3436" lon="0.2068">
        <ele>104.6</ele>
        <time>2021-05-23T17:55:54Z</time>
      </trkpt>
      <trkpt lat="46.34359" lon="0.2068">
        <ele>104.6</ele>
        <time>2021-05-23T17:55:55Z</time>
      </trkpt>
      <trkpt lat="46.34358" lon="0.2068">
        <ele>104.6</ele>
        <time>2021-05-23T17:55:57Z</time>
      </trkpt>
      <trkpt lat="46.34357" lon="0.2068">
        <ele>104.6</ele>
        <time>2021-05-23T17:55:58Z</time>
      </trkpt>
      <trkpt lat="46.34356" lon="0.2068">
        <ele>104.6</ele>
        <time>2021-05-23T17:55:59Z</time>
      </trkpt>
      <trkpt lat="46.34356" lon="0.2068">
        <ele>104.6</ele>
        <time>2021-05-23T17:56:00Z</time>
      </trkpt>
      <trkpt lat="46.34355" lon="0.2068">
        <ele>104.5</ele>
        <time>2021-05-23T17:56:01Z</time>
      </trkpt>
      <trkpt lat="46.34353" lon="0.20681">
        <ele>104.5</ele>
        <time>2021-05-23T17:56:03Z</time>
      </trkpt>
      <trkpt lat="46.34352" lon="0.20681">
        <ele>104.6</ele>
        <time>2021-05-23T17:56:05Z</time>
      </trkpt>
      <trkpt lat="46.34352" lon="0.20681">
        <ele>104.5</ele>
        <time>2021-05-23T17:56:06Z</time>
      </trkpt>
      <trkpt lat="46.34352" lon="0.20681">
        <ele>104.5</ele>
        <time>2021-05-23T17:56:07Z</time>
      </trkpt>
      <trkpt lat="46.34352" lon="0.20681">
        <ele>104.5</ele>
        <time>2021-05-23T17:56:09Z</time>
      </trkpt>
      <trkpt lat="46.34352" lon="0.20681">
        <ele>104.5</ele>
        <time>2021-05-23T17:56:11Z</time>
      </trkpt>
      <trkpt lat="46.34352" lon="0.20681">
        <ele>104.5</ele>
        <time>2021-05-23T17:56:12Z</time>
      </trkpt>
      <trkpt lat="46.34352" lon="0.20681">
        <ele>104.5</ele>
        <time>2021-05-23T17:56:13Z</time>
      </trkpt>
      <trkpt lat="46.34352" lon="0.20682">
        <ele>104.6</ele>
        <time>2021-05-23T17:56:15Z</time>
      </trkpt>
      <trkpt lat="46.34352" lon="0.20682">
        <ele>104.6</ele>
        <time>2021-05-23T17:56:17Z</time>
      </trkpt>
      <trkpt lat="46.34352" lon="0.20682">
        <ele>104.6</ele>
        <time>2021-05-23T17:56:18Z</time>
      </trkpt>
      <trkpt lat="46.34352" lon="0.20682">
        <ele>104.6</ele>
        <time>2021-05-23T17:56:19Z</time>
      </trkpt>
      <trkpt lat="46.34352" lon="0.20682">
        <ele>104.6</ele>
        <time>2021-05-23T17:56:21Z</time>
      </trkpt>
      <trkpt lat="46.34352" lon="0.20682">
        <ele>104.6</ele>
        <time>2021-05-23T17:56:22Z</time>
      </trkpt>
      <trkpt lat="46.34353" lon="0.20682">
        <ele>104.6</ele>
        <time>2021-05-23T17:56:24Z</time>
      </trkpt>
      <trkpt lat="46.34353" lon="0.20682">
        <ele>104.6</ele>
        <time>2021-05-23T17:56:25Z</time>
      </trkpt>
      <trkpt lat="46.34353" lon="0.20682">
        <ele>104.6</ele>
        <time>2021-05-23T17:56:26Z</time>
      </trkpt>
      <trkpt lat="46.34352" lon="0.20682">
        <ele>104.6</ele>
        <time>2021-05-23T17:56:28Z</time>
      </trkpt>
      <trkpt lat="46.34352" lon="0.20681">
        <ele>104.6</ele>
        <time>2021-05-23T17:56:29Z</time>
      </trkpt>
      <trkpt lat="46.34352" lon="0.20681">
        <ele>104.6</ele>
        <time>2021-05-23T17:56:30Z</time>
      </trkpt>
      <trkpt lat="46.34352" lon="0.20681">
        <ele>104.5</ele>
        <time>2021-05-23T17:56:31Z</time>
      </trkpt>
      <trkpt lat="46.34352" lon="0.2068">
        <ele>104.5</ele>
        <time>2021-05-23T17:56:33Z</time>
      </trkpt>
      <trkpt lat="46.34352" lon="0.20679">
        <ele>104.5</ele>
        <time>2021-05-23T17:56:34Z</time>
      </trkpt>
    </trkseg>
  </trk>
</gpx>